<?xml version="1.0" encoding="UTF-8" standalone="no" ?>
<gpx xmlns="http://www.topografix.com/GPX/1/1" xmlns:xsi="http://www.w3.org/2001/XMLSchema-instance" xsi:schemaLocation="http://www.topografix.com/GPX/1/1 http://www.topografix.com/GPX/1/1/gpx.xsd" version="1.1" creator="VisuGPX - https://www.visugpx.com">
  <metadata>
    <name>Malbuisson,Tour du lac</name>
  </metadata>
  <trk>
    <name><![CDATA[T2022-12-01-14-50]]></name>
    <extensions>
      <line xmlns="http://www.topografix.com/GPX/gpx_style/0/2">
        <color>0000FF</color>
        <width>4</width>
      </line>
    </extensions>
    <trkseg>
      <trkpt lat="46.78662" lon="6.28022">
        <ele>853</ele>
        <time>2022-12-01T08:17:19Z</time>
      </trkpt>
      <trkpt lat="46.78661" lon="6.28014">
        <ele>853.1</ele>
        <time>2022-12-01T08:17:25Z</time>
      </trkpt>
      <trkpt lat="46.78662" lon="6.28008">
        <ele>853.1</ele>
        <time>2022-12-01T08:17:29Z</time>
      </trkpt>
      <trkpt lat="46.78663" lon="6.28001">
        <ele>852.9</ele>
        <time>2022-12-01T08:17:33Z</time>
      </trkpt>
      <trkpt lat="46.78666" lon="6.27994">
        <ele>853.3</ele>
        <time>2022-12-01T08:17:41Z</time>
      </trkpt>
      <trkpt lat="46.78669" lon="6.27988">
        <ele>853.7</ele>
        <time>2022-12-01T08:17:45Z</time>
      </trkpt>
      <trkpt lat="46.78672" lon="6.27982">
        <ele>853.9</ele>
        <time>2022-12-01T08:17:49Z</time>
      </trkpt>
      <trkpt lat="46.78675" lon="6.27975">
        <ele>854.2</ele>
        <time>2022-12-01T08:17:54Z</time>
      </trkpt>
      <trkpt lat="46.78678" lon="6.27969">
        <ele>854.3</ele>
        <time>2022-12-01T08:17:58Z</time>
      </trkpt>
      <trkpt lat="46.78681" lon="6.27963">
        <ele>854.4</ele>
        <time>2022-12-01T08:18:02Z</time>
      </trkpt>
      <trkpt lat="46.78684" lon="6.27956">
        <ele>854.3</ele>
        <time>2022-12-01T08:18:06Z</time>
      </trkpt>
      <trkpt lat="46.78687" lon="6.2795">
        <ele>854.3</ele>
        <time>2022-12-01T08:18:10Z</time>
      </trkpt>
      <trkpt lat="46.78691" lon="6.27945">
        <ele>854.5</ele>
        <time>2022-12-01T08:18:13Z</time>
      </trkpt>
      <trkpt lat="46.78694" lon="6.2794">
        <ele>854.7</ele>
        <time>2022-12-01T08:18:16Z</time>
      </trkpt>
      <trkpt lat="46.78698" lon="6.27934">
        <ele>854.8</ele>
        <time>2022-12-01T08:18:20Z</time>
      </trkpt>
      <trkpt lat="46.78703" lon="6.2793">
        <ele>854.9</ele>
        <time>2022-12-01T08:18:24Z</time>
      </trkpt>
      <trkpt lat="46.78707" lon="6.27927">
        <ele>854.6</ele>
        <time>2022-12-01T08:18:28Z</time>
      </trkpt>
      <trkpt lat="46.78711" lon="6.27924">
        <ele>854.2</ele>
        <time>2022-12-01T08:18:32Z</time>
      </trkpt>
      <trkpt lat="46.78715" lon="6.27919">
        <ele>853.7</ele>
        <time>2022-12-01T08:18:36Z</time>
      </trkpt>
      <trkpt lat="46.78718" lon="6.27912">
        <ele>853.1</ele>
        <time>2022-12-01T08:18:41Z</time>
      </trkpt>
      <trkpt lat="46.78721" lon="6.27906">
        <ele>852.6</ele>
        <time>2022-12-01T08:18:47Z</time>
      </trkpt>
      <trkpt lat="46.78724" lon="6.27901">
        <ele>852.5</ele>
        <time>2022-12-01T08:18:52Z</time>
      </trkpt>
      <trkpt lat="46.78727" lon="6.27896">
        <ele>852.5</ele>
        <time>2022-12-01T08:18:56Z</time>
      </trkpt>
      <trkpt lat="46.78731" lon="6.2789">
        <ele>852.7</ele>
        <time>2022-12-01T08:19:01Z</time>
      </trkpt>
      <trkpt lat="46.78735" lon="6.27886">
        <ele>852.8</ele>
        <time>2022-12-01T08:19:05Z</time>
      </trkpt>
      <trkpt lat="46.78739" lon="6.2788">
        <ele>852.7</ele>
        <time>2022-12-01T08:19:10Z</time>
      </trkpt>
      <trkpt lat="46.78743" lon="6.27876">
        <ele>852.5</ele>
        <time>2022-12-01T08:19:15Z</time>
      </trkpt>
      <trkpt lat="46.78747" lon="6.27871">
        <ele>852</ele>
        <time>2022-12-01T08:19:20Z</time>
      </trkpt>
      <trkpt lat="46.78751" lon="6.27867">
        <ele>851.7</ele>
        <time>2022-12-01T08:19:24Z</time>
      </trkpt>
      <trkpt lat="46.78754" lon="6.27861">
        <ele>851.5</ele>
        <time>2022-12-01T08:19:29Z</time>
      </trkpt>
      <trkpt lat="46.78758" lon="6.27856">
        <ele>851.1</ele>
        <time>2022-12-01T08:19:35Z</time>
      </trkpt>
      <trkpt lat="46.78762" lon="6.27851">
        <ele>853</ele>
        <time>2022-12-01T08:19:42Z</time>
      </trkpt>
      <trkpt lat="46.78766" lon="6.27846">
        <ele>854.2</ele>
        <time>2022-12-01T08:19:47Z</time>
      </trkpt>
      <trkpt lat="46.78769" lon="6.27839">
        <ele>854.8</ele>
        <time>2022-12-01T08:19:51Z</time>
      </trkpt>
      <trkpt lat="46.78772" lon="6.27834">
        <ele>855.3</ele>
        <time>2022-12-01T08:19:55Z</time>
      </trkpt>
      <trkpt lat="46.78776" lon="6.27828">
        <ele>855.5</ele>
        <time>2022-12-01T08:19:59Z</time>
      </trkpt>
      <trkpt lat="46.7878" lon="6.27824">
        <ele>855.1</ele>
        <time>2022-12-01T08:20:03Z</time>
      </trkpt>
      <trkpt lat="46.78783" lon="6.27819">
        <ele>854.5</ele>
        <time>2022-12-01T08:20:07Z</time>
      </trkpt>
      <trkpt lat="46.78786" lon="6.27814">
        <ele>853.7</ele>
        <time>2022-12-01T08:20:11Z</time>
      </trkpt>
      <trkpt lat="46.7879" lon="6.27809">
        <ele>852.9</ele>
        <time>2022-12-01T08:20:15Z</time>
      </trkpt>
      <trkpt lat="46.78794" lon="6.27805">
        <ele>852.2</ele>
        <time>2022-12-01T08:20:20Z</time>
      </trkpt>
      <trkpt lat="46.78798" lon="6.27801">
        <ele>851.7</ele>
        <time>2022-12-01T08:20:24Z</time>
      </trkpt>
      <trkpt lat="46.78801" lon="6.27797">
        <ele>851.7</ele>
        <time>2022-12-01T08:20:29Z</time>
      </trkpt>
      <trkpt lat="46.78803" lon="6.2779">
        <ele>852.1</ele>
        <time>2022-12-01T08:20:34Z</time>
      </trkpt>
      <trkpt lat="46.78806" lon="6.27784">
        <ele>852.4</ele>
        <time>2022-12-01T08:20:39Z</time>
      </trkpt>
      <trkpt lat="46.78809" lon="6.27778">
        <ele>852.8</ele>
        <time>2022-12-01T08:20:44Z</time>
      </trkpt>
      <trkpt lat="46.78813" lon="6.27773">
        <ele>852.2</ele>
        <time>2022-12-01T08:20:49Z</time>
      </trkpt>
      <trkpt lat="46.78818" lon="6.27768">
        <ele>851.5</ele>
        <time>2022-12-01T08:20:54Z</time>
      </trkpt>
      <trkpt lat="46.78822" lon="6.27766">
        <ele>851.4</ele>
        <time>2022-12-01T08:20:59Z</time>
      </trkpt>
      <trkpt lat="46.78827" lon="6.27763">
        <ele>851.3</ele>
        <time>2022-12-01T08:21:04Z</time>
      </trkpt>
      <trkpt lat="46.78832" lon="6.27763">
        <ele>851.9</ele>
        <time>2022-12-01T08:21:09Z</time>
      </trkpt>
      <trkpt lat="46.78836" lon="6.27764">
        <ele>852.7</ele>
        <time>2022-12-01T08:21:14Z</time>
      </trkpt>
      <trkpt lat="46.78842" lon="6.27765">
        <ele>853</ele>
        <time>2022-12-01T08:21:19Z</time>
      </trkpt>
      <trkpt lat="46.78846" lon="6.27766">
        <ele>852.9</ele>
        <time>2022-12-01T08:21:24Z</time>
      </trkpt>
      <trkpt lat="46.78851" lon="6.27767">
        <ele>853.1</ele>
        <time>2022-12-01T08:21:29Z</time>
      </trkpt>
      <trkpt lat="46.78856" lon="6.27767">
        <ele>853.6</ele>
        <time>2022-12-01T08:21:34Z</time>
      </trkpt>
      <trkpt lat="46.78861" lon="6.27767">
        <ele>854.4</ele>
        <time>2022-12-01T08:21:39Z</time>
      </trkpt>
      <trkpt lat="46.78866" lon="6.27768">
        <ele>855.4</ele>
        <time>2022-12-01T08:21:44Z</time>
      </trkpt>
      <trkpt lat="46.78872" lon="6.27767">
        <ele>856.7</ele>
        <time>2022-12-01T08:21:48Z</time>
      </trkpt>
      <trkpt lat="46.78876" lon="6.27767">
        <ele>857.9</ele>
        <time>2022-12-01T08:21:52Z</time>
      </trkpt>
      <trkpt lat="46.78881" lon="6.27769">
        <ele>858.7</ele>
        <time>2022-12-01T08:21:57Z</time>
      </trkpt>
      <trkpt lat="46.78885" lon="6.27771">
        <ele>859.2</ele>
        <time>2022-12-01T08:22:02Z</time>
      </trkpt>
      <trkpt lat="46.7889" lon="6.27772">
        <ele>860</ele>
        <time>2022-12-01T08:22:07Z</time>
      </trkpt>
      <trkpt lat="46.78894" lon="6.27773">
        <ele>861.2</ele>
        <time>2022-12-01T08:22:12Z</time>
      </trkpt>
      <trkpt lat="46.78899" lon="6.27774">
        <ele>861.7</ele>
        <time>2022-12-01T08:22:17Z</time>
      </trkpt>
      <trkpt lat="46.78904" lon="6.27775">
        <ele>862</ele>
        <time>2022-12-01T08:22:21Z</time>
      </trkpt>
      <trkpt lat="46.78908" lon="6.27775">
        <ele>862.1</ele>
        <time>2022-12-01T08:22:25Z</time>
      </trkpt>
      <trkpt lat="46.78913" lon="6.27777">
        <ele>862.2</ele>
        <time>2022-12-01T08:22:30Z</time>
      </trkpt>
      <trkpt lat="46.78918" lon="6.27778">
        <ele>862.3</ele>
        <time>2022-12-01T08:22:35Z</time>
      </trkpt>
      <trkpt lat="46.78923" lon="6.27781">
        <ele>863.1</ele>
        <time>2022-12-01T08:22:41Z</time>
      </trkpt>
      <trkpt lat="46.78927" lon="6.27783">
        <ele>863.8</ele>
        <time>2022-12-01T08:22:46Z</time>
      </trkpt>
      <trkpt lat="46.78932" lon="6.27785">
        <ele>864.7</ele>
        <time>2022-12-01T08:22:51Z</time>
      </trkpt>
      <trkpt lat="46.78937" lon="6.27787">
        <ele>865</ele>
        <time>2022-12-01T08:22:56Z</time>
      </trkpt>
      <trkpt lat="46.78942" lon="6.2779">
        <ele>865.1</ele>
        <time>2022-12-01T08:23:01Z</time>
      </trkpt>
      <trkpt lat="46.78946" lon="6.27793">
        <ele>865.7</ele>
        <time>2022-12-01T08:23:06Z</time>
      </trkpt>
      <trkpt lat="46.7895" lon="6.27796">
        <ele>866.4</ele>
        <time>2022-12-01T08:23:11Z</time>
      </trkpt>
      <trkpt lat="46.78955" lon="6.27798">
        <ele>866.9</ele>
        <time>2022-12-01T08:23:16Z</time>
      </trkpt>
      <trkpt lat="46.7896" lon="6.27801">
        <ele>868</ele>
        <time>2022-12-01T08:23:22Z</time>
      </trkpt>
      <trkpt lat="46.78965" lon="6.27803">
        <ele>868.8</ele>
        <time>2022-12-01T08:23:27Z</time>
      </trkpt>
      <trkpt lat="46.78969" lon="6.27807">
        <ele>869.8</ele>
        <time>2022-12-01T08:23:33Z</time>
      </trkpt>
      <trkpt lat="46.78974" lon="6.2781">
        <ele>870.1</ele>
        <time>2022-12-01T08:23:38Z</time>
      </trkpt>
      <trkpt lat="46.78978" lon="6.27814">
        <ele>870.2</ele>
        <time>2022-12-01T08:23:43Z</time>
      </trkpt>
      <trkpt lat="46.78982" lon="6.27817">
        <ele>870.5</ele>
        <time>2022-12-01T08:23:49Z</time>
      </trkpt>
      <trkpt lat="46.78987" lon="6.27821">
        <ele>870.8</ele>
        <time>2022-12-01T08:23:54Z</time>
      </trkpt>
      <trkpt lat="46.78991" lon="6.27824">
        <ele>870.9</ele>
        <time>2022-12-01T08:23:59Z</time>
      </trkpt>
      <trkpt lat="46.78996" lon="6.27826">
        <ele>870.8</ele>
        <time>2022-12-01T08:24:05Z</time>
      </trkpt>
      <trkpt lat="46.79" lon="6.27828">
        <ele>871.1</ele>
        <time>2022-12-01T08:24:10Z</time>
      </trkpt>
      <trkpt lat="46.79005" lon="6.27828">
        <ele>871.2</ele>
        <time>2022-12-01T08:24:16Z</time>
      </trkpt>
      <trkpt lat="46.7901" lon="6.27828">
        <ele>871.6</ele>
        <time>2022-12-01T08:24:21Z</time>
      </trkpt>
      <trkpt lat="46.79014" lon="6.27827">
        <ele>872.7</ele>
        <time>2022-12-01T08:24:28Z</time>
      </trkpt>
      <trkpt lat="46.79019" lon="6.27825">
        <ele>873.7</ele>
        <time>2022-12-01T08:24:34Z</time>
      </trkpt>
      <trkpt lat="46.79024" lon="6.27822">
        <ele>874.9</ele>
        <time>2022-12-01T08:24:39Z</time>
      </trkpt>
      <trkpt lat="46.79028" lon="6.27819">
        <ele>875.8</ele>
        <time>2022-12-01T08:24:44Z</time>
      </trkpt>
      <trkpt lat="46.79032" lon="6.27816">
        <ele>876.6</ele>
        <time>2022-12-01T08:24:50Z</time>
      </trkpt>
      <trkpt lat="46.79037" lon="6.27813">
        <ele>877.1</ele>
        <time>2022-12-01T08:24:55Z</time>
      </trkpt>
      <trkpt lat="46.79041" lon="6.27809">
        <ele>877.4</ele>
        <time>2022-12-01T08:24:59Z</time>
      </trkpt>
      <trkpt lat="46.79045" lon="6.27806">
        <ele>878</ele>
        <time>2022-12-01T08:25:04Z</time>
      </trkpt>
      <trkpt lat="46.79049" lon="6.27802">
        <ele>879</ele>
        <time>2022-12-01T08:25:09Z</time>
      </trkpt>
      <trkpt lat="46.79053" lon="6.27799">
        <ele>879.9</ele>
        <time>2022-12-01T08:25:14Z</time>
      </trkpt>
      <trkpt lat="46.79058" lon="6.27796">
        <ele>879.9</ele>
        <time>2022-12-01T08:25:19Z</time>
      </trkpt>
      <trkpt lat="46.79062" lon="6.27793">
        <ele>879.2</ele>
        <time>2022-12-01T08:25:24Z</time>
      </trkpt>
      <trkpt lat="46.79067" lon="6.27794">
        <ele>877.7</ele>
        <time>2022-12-01T08:25:31Z</time>
      </trkpt>
      <trkpt lat="46.79069" lon="6.278">
        <ele>877.5</ele>
        <time>2022-12-01T08:25:37Z</time>
      </trkpt>
      <trkpt lat="46.7907" lon="6.27808">
        <ele>877.5</ele>
        <time>2022-12-01T08:25:43Z</time>
      </trkpt>
      <trkpt lat="46.79073" lon="6.27815">
        <ele>877.8</ele>
        <time>2022-12-01T08:25:48Z</time>
      </trkpt>
      <trkpt lat="46.79076" lon="6.27821">
        <ele>878.2</ele>
        <time>2022-12-01T08:25:53Z</time>
      </trkpt>
      <trkpt lat="46.79078" lon="6.27828">
        <ele>878.5</ele>
        <time>2022-12-01T08:25:59Z</time>
      </trkpt>
      <trkpt lat="46.79081" lon="6.27834">
        <ele>878</ele>
        <time>2022-12-01T08:26:04Z</time>
      </trkpt>
      <trkpt lat="46.79083" lon="6.27839">
        <ele>877.6</ele>
        <time>2022-12-01T08:26:09Z</time>
      </trkpt>
      <trkpt lat="46.79086" lon="6.27845">
        <ele>877.9</ele>
        <time>2022-12-01T08:26:14Z</time>
      </trkpt>
      <trkpt lat="46.79087" lon="6.27852">
        <ele>878.9</ele>
        <time>2022-12-01T08:26:19Z</time>
      </trkpt>
      <trkpt lat="46.79089" lon="6.27858">
        <ele>879.6</ele>
        <time>2022-12-01T08:26:24Z</time>
      </trkpt>
      <trkpt lat="46.79092" lon="6.27864">
        <ele>880</ele>
        <time>2022-12-01T08:26:29Z</time>
      </trkpt>
      <trkpt lat="46.79095" lon="6.2787">
        <ele>880.8</ele>
        <time>2022-12-01T08:26:35Z</time>
      </trkpt>
      <trkpt lat="46.79096" lon="6.27876">
        <ele>881.4</ele>
        <time>2022-12-01T08:26:40Z</time>
      </trkpt>
      <trkpt lat="46.79099" lon="6.27882">
        <ele>881.8</ele>
        <time>2022-12-01T08:26:45Z</time>
      </trkpt>
      <trkpt lat="46.79101" lon="6.27889">
        <ele>882.4</ele>
        <time>2022-12-01T08:26:51Z</time>
      </trkpt>
      <trkpt lat="46.79104" lon="6.27895">
        <ele>883</ele>
        <time>2022-12-01T08:26:56Z</time>
      </trkpt>
      <trkpt lat="46.79106" lon="6.27901">
        <ele>883.7</ele>
        <time>2022-12-01T08:27:02Z</time>
      </trkpt>
      <trkpt lat="46.79109" lon="6.27907">
        <ele>884.8</ele>
        <time>2022-12-01T08:27:08Z</time>
      </trkpt>
      <trkpt lat="46.7911" lon="6.27913">
        <ele>885.5</ele>
        <time>2022-12-01T08:27:13Z</time>
      </trkpt>
      <trkpt lat="46.79112" lon="6.2792">
        <ele>886.2</ele>
        <time>2022-12-01T08:27:19Z</time>
      </trkpt>
      <trkpt lat="46.79114" lon="6.27927">
        <ele>886.9</ele>
        <time>2022-12-01T08:27:25Z</time>
      </trkpt>
      <trkpt lat="46.79116" lon="6.27934">
        <ele>887.2</ele>
        <time>2022-12-01T08:27:29Z</time>
      </trkpt>
      <trkpt lat="46.79119" lon="6.27939">
        <ele>887.9</ele>
        <time>2022-12-01T08:27:34Z</time>
      </trkpt>
      <trkpt lat="46.79123" lon="6.27944">
        <ele>888.4</ele>
        <time>2022-12-01T08:27:39Z</time>
      </trkpt>
      <trkpt lat="46.79127" lon="6.27948">
        <ele>888.5</ele>
        <time>2022-12-01T08:27:44Z</time>
      </trkpt>
      <trkpt lat="46.7913" lon="6.27953">
        <ele>889.1</ele>
        <time>2022-12-01T08:27:49Z</time>
      </trkpt>
      <trkpt lat="46.79134" lon="6.27958">
        <ele>890.1</ele>
        <time>2022-12-01T08:27:54Z</time>
      </trkpt>
      <trkpt lat="46.79138" lon="6.27963">
        <ele>890.9</ele>
        <time>2022-12-01T08:28:00Z</time>
      </trkpt>
      <trkpt lat="46.79142" lon="6.27967">
        <ele>891.1</ele>
        <time>2022-12-01T08:28:05Z</time>
      </trkpt>
      <trkpt lat="46.79145" lon="6.27971">
        <ele>891.1</ele>
        <time>2022-12-01T08:28:10Z</time>
      </trkpt>
      <trkpt lat="46.79149" lon="6.27976">
        <ele>891.5</ele>
        <time>2022-12-01T08:28:16Z</time>
      </trkpt>
      <trkpt lat="46.79153" lon="6.27981">
        <ele>892</ele>
        <time>2022-12-01T08:28:21Z</time>
      </trkpt>
      <trkpt lat="46.79157" lon="6.27984">
        <ele>892.4</ele>
        <time>2022-12-01T08:28:26Z</time>
      </trkpt>
      <trkpt lat="46.7916" lon="6.27989">
        <ele>892.7</ele>
        <time>2022-12-01T08:28:31Z</time>
      </trkpt>
      <trkpt lat="46.79163" lon="6.27995">
        <ele>892.8</ele>
        <time>2022-12-01T08:28:36Z</time>
      </trkpt>
      <trkpt lat="46.79165" lon="6.28001">
        <ele>893.2</ele>
        <time>2022-12-01T08:28:41Z</time>
      </trkpt>
      <trkpt lat="46.79169" lon="6.28006">
        <ele>893.8</ele>
        <time>2022-12-01T08:28:46Z</time>
      </trkpt>
      <trkpt lat="46.79173" lon="6.28009">
        <ele>894.1</ele>
        <time>2022-12-01T08:28:51Z</time>
      </trkpt>
      <trkpt lat="46.79176" lon="6.28014">
        <ele>894.9</ele>
        <time>2022-12-01T08:28:56Z</time>
      </trkpt>
      <trkpt lat="46.7918" lon="6.28019">
        <ele>895.5</ele>
        <time>2022-12-01T08:29:01Z</time>
      </trkpt>
      <trkpt lat="46.79184" lon="6.28023">
        <ele>895.9</ele>
        <time>2022-12-01T08:29:06Z</time>
      </trkpt>
      <trkpt lat="46.79188" lon="6.28028">
        <ele>896.2</ele>
        <time>2022-12-01T08:29:10Z</time>
      </trkpt>
      <trkpt lat="46.79191" lon="6.28033">
        <ele>896.8</ele>
        <time>2022-12-01T08:29:15Z</time>
      </trkpt>
      <trkpt lat="46.79195" lon="6.28037">
        <ele>897.4</ele>
        <time>2022-12-01T08:29:20Z</time>
      </trkpt>
      <trkpt lat="46.79199" lon="6.28042">
        <ele>897.8</ele>
        <time>2022-12-01T08:29:25Z</time>
      </trkpt>
      <trkpt lat="46.79202" lon="6.28046">
        <ele>897.7</ele>
        <time>2022-12-01T08:29:30Z</time>
      </trkpt>
      <trkpt lat="46.79207" lon="6.28047">
        <ele>897.9</ele>
        <time>2022-12-01T08:29:38Z</time>
      </trkpt>
      <trkpt lat="46.7921" lon="6.28053">
        <ele>897.5</ele>
        <time>2022-12-01T08:33:40Z</time>
      </trkpt>
      <trkpt lat="46.79215" lon="6.28056">
        <ele>897.9</ele>
        <time>2022-12-01T08:33:45Z</time>
      </trkpt>
      <trkpt lat="46.79219" lon="6.2806">
        <ele>897.9</ele>
        <time>2022-12-01T08:33:49Z</time>
      </trkpt>
      <trkpt lat="46.79222" lon="6.28065">
        <ele>897.9</ele>
        <time>2022-12-01T08:33:54Z</time>
      </trkpt>
      <trkpt lat="46.79227" lon="6.28068">
        <ele>897.4</ele>
        <time>2022-12-01T08:33:59Z</time>
      </trkpt>
      <trkpt lat="46.79232" lon="6.28072">
        <ele>896.8</ele>
        <time>2022-12-01T08:34:04Z</time>
      </trkpt>
      <trkpt lat="46.79236" lon="6.28076">
        <ele>895.8</ele>
        <time>2022-12-01T08:34:09Z</time>
      </trkpt>
      <trkpt lat="46.7924" lon="6.28082">
        <ele>895.1</ele>
        <time>2022-12-01T08:34:14Z</time>
      </trkpt>
      <trkpt lat="46.79244" lon="6.28087">
        <ele>895</ele>
        <time>2022-12-01T08:34:19Z</time>
      </trkpt>
      <trkpt lat="46.79248" lon="6.28092">
        <ele>895</ele>
        <time>2022-12-01T08:34:24Z</time>
      </trkpt>
      <trkpt lat="46.79252" lon="6.28096">
        <ele>894.9</ele>
        <time>2022-12-01T08:34:28Z</time>
      </trkpt>
      <trkpt lat="46.79256" lon="6.28101">
        <ele>894.8</ele>
        <time>2022-12-01T08:34:33Z</time>
      </trkpt>
      <trkpt lat="46.7926" lon="6.28106">
        <ele>895.1</ele>
        <time>2022-12-01T08:34:38Z</time>
      </trkpt>
      <trkpt lat="46.79265" lon="6.28111">
        <ele>895.5</ele>
        <time>2022-12-01T08:34:43Z</time>
      </trkpt>
      <trkpt lat="46.79269" lon="6.28114">
        <ele>895.6</ele>
        <time>2022-12-01T08:34:48Z</time>
      </trkpt>
      <trkpt lat="46.79273" lon="6.28116">
        <ele>895.4</ele>
        <time>2022-12-01T08:34:53Z</time>
      </trkpt>
      <trkpt lat="46.79278" lon="6.28119">
        <ele>894.7</ele>
        <time>2022-12-01T08:34:58Z</time>
      </trkpt>
      <trkpt lat="46.79282" lon="6.28124">
        <ele>893.9</ele>
        <time>2022-12-01T08:35:04Z</time>
      </trkpt>
      <trkpt lat="46.79286" lon="6.28128">
        <ele>893.6</ele>
        <time>2022-12-01T08:35:08Z</time>
      </trkpt>
      <trkpt lat="46.7929" lon="6.28131">
        <ele>893.5</ele>
        <time>2022-12-01T08:35:12Z</time>
      </trkpt>
      <trkpt lat="46.79294" lon="6.28135">
        <ele>893.4</ele>
        <time>2022-12-01T08:35:16Z</time>
      </trkpt>
      <trkpt lat="46.79298" lon="6.2814">
        <ele>893.1</ele>
        <time>2022-12-01T08:35:21Z</time>
      </trkpt>
      <trkpt lat="46.79302" lon="6.28144">
        <ele>893</ele>
        <time>2022-12-01T08:35:25Z</time>
      </trkpt>
      <trkpt lat="46.79306" lon="6.28149">
        <ele>892.9</ele>
        <time>2022-12-01T08:35:30Z</time>
      </trkpt>
      <trkpt lat="46.7931" lon="6.28155">
        <ele>892.9</ele>
        <time>2022-12-01T08:35:35Z</time>
      </trkpt>
      <trkpt lat="46.79314" lon="6.28158">
        <ele>892.8</ele>
        <time>2022-12-01T08:35:39Z</time>
      </trkpt>
      <trkpt lat="46.79317" lon="6.28164">
        <ele>892.5</ele>
        <time>2022-12-01T08:35:43Z</time>
      </trkpt>
      <trkpt lat="46.79321" lon="6.2817">
        <ele>892.7</ele>
        <time>2022-12-01T08:35:47Z</time>
      </trkpt>
      <trkpt lat="46.79325" lon="6.28175">
        <ele>892.6</ele>
        <time>2022-12-01T08:35:51Z</time>
      </trkpt>
      <trkpt lat="46.79329" lon="6.28179">
        <ele>892.9</ele>
        <time>2022-12-01T08:35:55Z</time>
      </trkpt>
      <trkpt lat="46.79332" lon="6.28185">
        <ele>893.2</ele>
        <time>2022-12-01T08:35:59Z</time>
      </trkpt>
      <trkpt lat="46.79333" lon="6.28192">
        <ele>891.8</ele>
        <time>2022-12-01T08:36:04Z</time>
      </trkpt>
      <trkpt lat="46.79335" lon="6.28199">
        <ele>890.1</ele>
        <time>2022-12-01T08:36:09Z</time>
      </trkpt>
      <trkpt lat="46.79338" lon="6.28204">
        <ele>889.7</ele>
        <time>2022-12-01T08:36:13Z</time>
      </trkpt>
      <trkpt lat="46.79342" lon="6.28208">
        <ele>889.5</ele>
        <time>2022-12-01T08:36:17Z</time>
      </trkpt>
      <trkpt lat="46.79346" lon="6.28213">
        <ele>889.3</ele>
        <time>2022-12-01T08:36:22Z</time>
      </trkpt>
      <trkpt lat="46.79349" lon="6.28219">
        <ele>888.7</ele>
        <time>2022-12-01T08:36:27Z</time>
      </trkpt>
      <trkpt lat="46.79352" lon="6.28225">
        <ele>888.1</ele>
        <time>2022-12-01T08:36:32Z</time>
      </trkpt>
      <trkpt lat="46.79355" lon="6.2823">
        <ele>887.7</ele>
        <time>2022-12-01T08:36:36Z</time>
      </trkpt>
      <trkpt lat="46.79358" lon="6.28237">
        <ele>887.5</ele>
        <time>2022-12-01T08:36:41Z</time>
      </trkpt>
      <trkpt lat="46.79361" lon="6.28244">
        <ele>887.3</ele>
        <time>2022-12-01T08:36:46Z</time>
      </trkpt>
      <trkpt lat="46.79363" lon="6.2825">
        <ele>887.1</ele>
        <time>2022-12-01T08:36:50Z</time>
      </trkpt>
      <trkpt lat="46.79367" lon="6.28256">
        <ele>887.1</ele>
        <time>2022-12-01T08:36:55Z</time>
      </trkpt>
      <trkpt lat="46.7937" lon="6.2826">
        <ele>887.2</ele>
        <time>2022-12-01T08:36:59Z</time>
      </trkpt>
      <trkpt lat="46.79374" lon="6.28265">
        <ele>887.2</ele>
        <time>2022-12-01T08:37:03Z</time>
      </trkpt>
      <trkpt lat="46.79378" lon="6.28269">
        <ele>887.2</ele>
        <time>2022-12-01T08:37:07Z</time>
      </trkpt>
      <trkpt lat="46.79381" lon="6.28274">
        <ele>887.6</ele>
        <time>2022-12-01T08:37:11Z</time>
      </trkpt>
      <trkpt lat="46.79384" lon="6.28279">
        <ele>888.2</ele>
        <time>2022-12-01T08:37:15Z</time>
      </trkpt>
      <trkpt lat="46.79387" lon="6.28284">
        <ele>888.9</ele>
        <time>2022-12-01T08:37:19Z</time>
      </trkpt>
      <trkpt lat="46.7939" lon="6.28288">
        <ele>889.5</ele>
        <time>2022-12-01T08:37:23Z</time>
      </trkpt>
      <trkpt lat="46.79394" lon="6.28292">
        <ele>889.7</ele>
        <time>2022-12-01T08:37:27Z</time>
      </trkpt>
      <trkpt lat="46.79398" lon="6.28299">
        <ele>889.5</ele>
        <time>2022-12-01T08:37:32Z</time>
      </trkpt>
      <trkpt lat="46.794" lon="6.28305">
        <ele>889.3</ele>
        <time>2022-12-01T08:37:36Z</time>
      </trkpt>
      <trkpt lat="46.79403" lon="6.2831">
        <ele>889.5</ele>
        <time>2022-12-01T08:37:40Z</time>
      </trkpt>
      <trkpt lat="46.79406" lon="6.28317">
        <ele>889.8</ele>
        <time>2022-12-01T08:37:45Z</time>
      </trkpt>
      <trkpt lat="46.79409" lon="6.28323">
        <ele>889.8</ele>
        <time>2022-12-01T08:37:50Z</time>
      </trkpt>
      <trkpt lat="46.79412" lon="6.28328">
        <ele>889.7</ele>
        <time>2022-12-01T08:37:55Z</time>
      </trkpt>
      <trkpt lat="46.79416" lon="6.28334">
        <ele>890</ele>
        <time>2022-12-01T08:38:00Z</time>
      </trkpt>
      <trkpt lat="46.7942" lon="6.28338">
        <ele>890.4</ele>
        <time>2022-12-01T08:38:04Z</time>
      </trkpt>
      <trkpt lat="46.79424" lon="6.28342">
        <ele>890.9</ele>
        <time>2022-12-01T08:38:08Z</time>
      </trkpt>
      <trkpt lat="46.79427" lon="6.28348">
        <ele>891.8</ele>
        <time>2022-12-01T08:38:13Z</time>
      </trkpt>
      <trkpt lat="46.7943" lon="6.28353">
        <ele>892.2</ele>
        <time>2022-12-01T08:38:17Z</time>
      </trkpt>
      <trkpt lat="46.79433" lon="6.28359">
        <ele>892.2</ele>
        <time>2022-12-01T08:38:22Z</time>
      </trkpt>
      <trkpt lat="46.79435" lon="6.28365">
        <ele>892</ele>
        <time>2022-12-01T08:38:27Z</time>
      </trkpt>
      <trkpt lat="46.79438" lon="6.2837">
        <ele>891.7</ele>
        <time>2022-12-01T08:38:32Z</time>
      </trkpt>
      <trkpt lat="46.79441" lon="6.28377">
        <ele>891.5</ele>
        <time>2022-12-01T08:38:37Z</time>
      </trkpt>
      <trkpt lat="46.79444" lon="6.28382">
        <ele>891.7</ele>
        <time>2022-12-01T08:38:41Z</time>
      </trkpt>
      <trkpt lat="46.79448" lon="6.28386">
        <ele>891.5</ele>
        <time>2022-12-01T08:38:45Z</time>
      </trkpt>
      <trkpt lat="46.79452" lon="6.2839">
        <ele>892</ele>
        <time>2022-12-01T08:38:50Z</time>
      </trkpt>
      <trkpt lat="46.79455" lon="6.28395">
        <ele>892.7</ele>
        <time>2022-12-01T08:38:54Z</time>
      </trkpt>
      <trkpt lat="46.79459" lon="6.284">
        <ele>893.5</ele>
        <time>2022-12-01T08:38:58Z</time>
      </trkpt>
      <trkpt lat="46.79463" lon="6.28404">
        <ele>894.4</ele>
        <time>2022-12-01T08:39:02Z</time>
      </trkpt>
      <trkpt lat="46.79467" lon="6.28409">
        <ele>895.2</ele>
        <time>2022-12-01T08:39:07Z</time>
      </trkpt>
      <trkpt lat="46.79471" lon="6.28413">
        <ele>895.4</ele>
        <time>2022-12-01T08:39:12Z</time>
      </trkpt>
      <trkpt lat="46.79476" lon="6.28417">
        <ele>895.2</ele>
        <time>2022-12-01T08:39:16Z</time>
      </trkpt>
      <trkpt lat="46.7948" lon="6.28421">
        <ele>894.7</ele>
        <time>2022-12-01T08:39:21Z</time>
      </trkpt>
      <trkpt lat="46.79484" lon="6.28426">
        <ele>894.3</ele>
        <time>2022-12-01T08:39:26Z</time>
      </trkpt>
      <trkpt lat="46.79488" lon="6.28431">
        <ele>893.7</ele>
        <time>2022-12-01T08:39:31Z</time>
      </trkpt>
      <trkpt lat="46.79492" lon="6.28435">
        <ele>893.3</ele>
        <time>2022-12-01T08:39:36Z</time>
      </trkpt>
      <trkpt lat="46.79495" lon="6.28442">
        <ele>892.8</ele>
        <time>2022-12-01T08:39:41Z</time>
      </trkpt>
      <trkpt lat="46.795" lon="6.28443">
        <ele>892.4</ele>
        <time>2022-12-01T08:39:46Z</time>
      </trkpt>
      <trkpt lat="46.79506" lon="6.28444">
        <ele>891.9</ele>
        <time>2022-12-01T08:39:51Z</time>
      </trkpt>
      <trkpt lat="46.79511" lon="6.28445">
        <ele>891.1</ele>
        <time>2022-12-01T08:39:55Z</time>
      </trkpt>
      <trkpt lat="46.79516" lon="6.28448">
        <ele>890.6</ele>
        <time>2022-12-01T08:40:00Z</time>
      </trkpt>
      <trkpt lat="46.7952" lon="6.28451">
        <ele>890.8</ele>
        <time>2022-12-01T08:40:05Z</time>
      </trkpt>
      <trkpt lat="46.79524" lon="6.28455">
        <ele>891.3</ele>
        <time>2022-12-01T08:40:09Z</time>
      </trkpt>
      <trkpt lat="46.79527" lon="6.28459">
        <ele>892.6</ele>
        <time>2022-12-01T08:40:13Z</time>
      </trkpt>
      <trkpt lat="46.79533" lon="6.28462">
        <ele>893.1</ele>
        <time>2022-12-01T08:40:19Z</time>
      </trkpt>
      <trkpt lat="46.79537" lon="6.28463">
        <ele>892.6</ele>
        <time>2022-12-01T08:40:23Z</time>
      </trkpt>
      <trkpt lat="46.79541" lon="6.28467">
        <ele>891.9</ele>
        <time>2022-12-01T08:40:28Z</time>
      </trkpt>
      <trkpt lat="46.79545" lon="6.28472">
        <ele>891.3</ele>
        <time>2022-12-01T08:40:34Z</time>
      </trkpt>
      <trkpt lat="46.79549" lon="6.28477">
        <ele>890.8</ele>
        <time>2022-12-01T08:40:39Z</time>
      </trkpt>
      <trkpt lat="46.79553" lon="6.28481">
        <ele>890.1</ele>
        <time>2022-12-01T08:40:44Z</time>
      </trkpt>
      <trkpt lat="46.79556" lon="6.28485">
        <ele>889.3</ele>
        <time>2022-12-01T08:40:48Z</time>
      </trkpt>
      <trkpt lat="46.79561" lon="6.2849">
        <ele>888.4</ele>
        <time>2022-12-01T08:40:53Z</time>
      </trkpt>
      <trkpt lat="46.79565" lon="6.28495">
        <ele>887.3</ele>
        <time>2022-12-01T08:40:58Z</time>
      </trkpt>
      <trkpt lat="46.79569" lon="6.28499">
        <ele>886.5</ele>
        <time>2022-12-01T08:41:03Z</time>
      </trkpt>
      <trkpt lat="46.79574" lon="6.28503">
        <ele>886.4</ele>
        <time>2022-12-01T08:41:08Z</time>
      </trkpt>
      <trkpt lat="46.79578" lon="6.28507">
        <ele>886.5</ele>
        <time>2022-12-01T08:41:13Z</time>
      </trkpt>
      <trkpt lat="46.79581" lon="6.28512">
        <ele>886.2</ele>
        <time>2022-12-01T08:41:19Z</time>
      </trkpt>
      <trkpt lat="46.79586" lon="6.28517">
        <ele>886.6</ele>
        <time>2022-12-01T08:41:23Z</time>
      </trkpt>
      <trkpt lat="46.7959" lon="6.28522">
        <ele>887.2</ele>
        <time>2022-12-01T08:41:28Z</time>
      </trkpt>
      <trkpt lat="46.79595" lon="6.28525">
        <ele>886.9</ele>
        <time>2022-12-01T08:41:33Z</time>
      </trkpt>
      <trkpt lat="46.79598" lon="6.2853">
        <ele>886.3</ele>
        <time>2022-12-01T08:41:38Z</time>
      </trkpt>
      <trkpt lat="46.79602" lon="6.28534">
        <ele>886</ele>
        <time>2022-12-01T08:41:43Z</time>
      </trkpt>
      <trkpt lat="46.79606" lon="6.28538">
        <ele>885.7</ele>
        <time>2022-12-01T08:41:48Z</time>
      </trkpt>
      <trkpt lat="46.79611" lon="6.28542">
        <ele>885.3</ele>
        <time>2022-12-01T08:41:53Z</time>
      </trkpt>
      <trkpt lat="46.79615" lon="6.28546">
        <ele>884.5</ele>
        <time>2022-12-01T08:41:58Z</time>
      </trkpt>
      <trkpt lat="46.7962" lon="6.2855">
        <ele>884</ele>
        <time>2022-12-01T08:42:03Z</time>
      </trkpt>
      <trkpt lat="46.79625" lon="6.28554">
        <ele>883.5</ele>
        <time>2022-12-01T08:42:08Z</time>
      </trkpt>
      <trkpt lat="46.79629" lon="6.28556">
        <ele>882.8</ele>
        <time>2022-12-01T08:42:13Z</time>
      </trkpt>
      <trkpt lat="46.79634" lon="6.2856">
        <ele>882.6</ele>
        <time>2022-12-01T08:42:18Z</time>
      </trkpt>
      <trkpt lat="46.79638" lon="6.28562">
        <ele>882.5</ele>
        <time>2022-12-01T08:42:22Z</time>
      </trkpt>
      <trkpt lat="46.79643" lon="6.28566">
        <ele>882.8</ele>
        <time>2022-12-01T08:42:28Z</time>
      </trkpt>
      <trkpt lat="46.79648" lon="6.2857">
        <ele>882.8</ele>
        <time>2022-12-01T08:42:34Z</time>
      </trkpt>
      <trkpt lat="46.79652" lon="6.28571">
        <ele>882.6</ele>
        <time>2022-12-01T08:42:38Z</time>
      </trkpt>
      <trkpt lat="46.79657" lon="6.28573">
        <ele>882.7</ele>
        <time>2022-12-01T08:42:42Z</time>
      </trkpt>
      <trkpt lat="46.79662" lon="6.28575">
        <ele>882.7</ele>
        <time>2022-12-01T08:42:47Z</time>
      </trkpt>
      <trkpt lat="46.79666" lon="6.28577">
        <ele>882.7</ele>
        <time>2022-12-01T08:42:52Z</time>
      </trkpt>
      <trkpt lat="46.7967" lon="6.2858">
        <ele>882.7</ele>
        <time>2022-12-01T08:42:57Z</time>
      </trkpt>
      <trkpt lat="46.79674" lon="6.28583">
        <ele>882.8</ele>
        <time>2022-12-01T08:43:01Z</time>
      </trkpt>
      <trkpt lat="46.79679" lon="6.28586">
        <ele>882.6</ele>
        <time>2022-12-01T08:43:06Z</time>
      </trkpt>
      <trkpt lat="46.79684" lon="6.28589">
        <ele>882.2</ele>
        <time>2022-12-01T08:43:12Z</time>
      </trkpt>
      <trkpt lat="46.79688" lon="6.28592">
        <ele>881.7</ele>
        <time>2022-12-01T08:43:17Z</time>
      </trkpt>
      <trkpt lat="46.79693" lon="6.28593">
        <ele>881</ele>
        <time>2022-12-01T08:43:21Z</time>
      </trkpt>
      <trkpt lat="46.79697" lon="6.28596">
        <ele>879.7</ele>
        <time>2022-12-01T08:43:26Z</time>
      </trkpt>
      <trkpt lat="46.79702" lon="6.28599">
        <ele>877.8</ele>
        <time>2022-12-01T08:43:32Z</time>
      </trkpt>
      <trkpt lat="46.79707" lon="6.28602">
        <ele>876.5</ele>
        <time>2022-12-01T08:43:37Z</time>
      </trkpt>
      <trkpt lat="46.79712" lon="6.28605">
        <ele>876.3</ele>
        <time>2022-12-01T08:43:41Z</time>
      </trkpt>
      <trkpt lat="46.79716" lon="6.28608">
        <ele>876.2</ele>
        <time>2022-12-01T08:43:45Z</time>
      </trkpt>
      <trkpt lat="46.79721" lon="6.28611">
        <ele>876</ele>
        <time>2022-12-01T08:43:49Z</time>
      </trkpt>
      <trkpt lat="46.79725" lon="6.28615">
        <ele>876.2</ele>
        <time>2022-12-01T08:43:53Z</time>
      </trkpt>
      <trkpt lat="46.79729" lon="6.28621">
        <ele>876.4</ele>
        <time>2022-12-01T08:43:58Z</time>
      </trkpt>
      <trkpt lat="46.79733" lon="6.28627">
        <ele>876.6</ele>
        <time>2022-12-01T08:44:03Z</time>
      </trkpt>
      <trkpt lat="46.79736" lon="6.28631">
        <ele>877.2</ele>
        <time>2022-12-01T08:44:07Z</time>
      </trkpt>
      <trkpt lat="46.7974" lon="6.28636">
        <ele>877.7</ele>
        <time>2022-12-01T08:44:11Z</time>
      </trkpt>
      <trkpt lat="46.79744" lon="6.2864">
        <ele>878.3</ele>
        <time>2022-12-01T08:44:16Z</time>
      </trkpt>
      <trkpt lat="46.79748" lon="6.28644">
        <ele>878.7</ele>
        <time>2022-12-01T08:44:22Z</time>
      </trkpt>
      <trkpt lat="46.79752" lon="6.28648">
        <ele>879.3</ele>
        <time>2022-12-01T08:44:28Z</time>
      </trkpt>
      <trkpt lat="46.79757" lon="6.28652">
        <ele>879.8</ele>
        <time>2022-12-01T08:44:33Z</time>
      </trkpt>
      <trkpt lat="46.79761" lon="6.28656">
        <ele>880.2</ele>
        <time>2022-12-01T08:44:37Z</time>
      </trkpt>
      <trkpt lat="46.79765" lon="6.2866">
        <ele>880.1</ele>
        <time>2022-12-01T08:44:42Z</time>
      </trkpt>
      <trkpt lat="46.7977" lon="6.28663">
        <ele>879.6</ele>
        <time>2022-12-01T08:44:46Z</time>
      </trkpt>
      <trkpt lat="46.79774" lon="6.28664">
        <ele>879.3</ele>
        <time>2022-12-01T08:44:50Z</time>
      </trkpt>
      <trkpt lat="46.79779" lon="6.28665">
        <ele>878.9</ele>
        <time>2022-12-01T08:44:54Z</time>
      </trkpt>
      <trkpt lat="46.79783" lon="6.28667">
        <ele>878.5</ele>
        <time>2022-12-01T08:44:58Z</time>
      </trkpt>
      <trkpt lat="46.79788" lon="6.28669">
        <ele>877.4</ele>
        <time>2022-12-01T08:45:03Z</time>
      </trkpt>
      <trkpt lat="46.79793" lon="6.2867">
        <ele>876.9</ele>
        <time>2022-12-01T08:45:07Z</time>
      </trkpt>
      <trkpt lat="46.79797" lon="6.28671">
        <ele>876.7</ele>
        <time>2022-12-01T08:45:11Z</time>
      </trkpt>
      <trkpt lat="46.79802" lon="6.28673">
        <ele>876.3</ele>
        <time>2022-12-01T08:45:15Z</time>
      </trkpt>
      <trkpt lat="46.79806" lon="6.28674">
        <ele>876</ele>
        <time>2022-12-01T08:45:19Z</time>
      </trkpt>
      <trkpt lat="46.79812" lon="6.28675">
        <ele>875.9</ele>
        <time>2022-12-01T08:45:23Z</time>
      </trkpt>
      <trkpt lat="46.79816" lon="6.28676">
        <ele>876.3</ele>
        <time>2022-12-01T08:45:27Z</time>
      </trkpt>
      <trkpt lat="46.79822" lon="6.28678">
        <ele>876.2</ele>
        <time>2022-12-01T08:45:32Z</time>
      </trkpt>
      <trkpt lat="46.79826" lon="6.28679">
        <ele>876.1</ele>
        <time>2022-12-01T08:45:36Z</time>
      </trkpt>
      <trkpt lat="46.79831" lon="6.28681">
        <ele>876</ele>
        <time>2022-12-01T08:45:41Z</time>
      </trkpt>
      <trkpt lat="46.79836" lon="6.28683">
        <ele>875.5</ele>
        <time>2022-12-01T08:45:46Z</time>
      </trkpt>
      <trkpt lat="46.79841" lon="6.28683">
        <ele>874.7</ele>
        <time>2022-12-01T08:45:50Z</time>
      </trkpt>
      <trkpt lat="46.79846" lon="6.28685">
        <ele>874</ele>
        <time>2022-12-01T08:45:55Z</time>
      </trkpt>
      <trkpt lat="46.79851" lon="6.28687">
        <ele>873.8</ele>
        <time>2022-12-01T08:45:59Z</time>
      </trkpt>
      <trkpt lat="46.79855" lon="6.28689">
        <ele>873.8</ele>
        <time>2022-12-01T08:46:03Z</time>
      </trkpt>
      <trkpt lat="46.7986" lon="6.28689">
        <ele>873.4</ele>
        <time>2022-12-01T08:46:08Z</time>
      </trkpt>
      <trkpt lat="46.79865" lon="6.28691">
        <ele>873.2</ele>
        <time>2022-12-01T08:46:13Z</time>
      </trkpt>
      <trkpt lat="46.7987" lon="6.28692">
        <ele>873.5</ele>
        <time>2022-12-01T08:46:18Z</time>
      </trkpt>
      <trkpt lat="46.79875" lon="6.28694">
        <ele>873.9</ele>
        <time>2022-12-01T08:46:22Z</time>
      </trkpt>
      <trkpt lat="46.79879" lon="6.28694">
        <ele>874.4</ele>
        <time>2022-12-01T08:46:26Z</time>
      </trkpt>
      <trkpt lat="46.79885" lon="6.28695">
        <ele>874.9</ele>
        <time>2022-12-01T08:46:31Z</time>
      </trkpt>
      <trkpt lat="46.79889" lon="6.28697">
        <ele>875.5</ele>
        <time>2022-12-01T08:46:36Z</time>
      </trkpt>
      <trkpt lat="46.79894" lon="6.287">
        <ele>875.4</ele>
        <time>2022-12-01T08:46:41Z</time>
      </trkpt>
      <trkpt lat="46.79898" lon="6.28701">
        <ele>875.8</ele>
        <time>2022-12-01T08:46:46Z</time>
      </trkpt>
      <trkpt lat="46.79904" lon="6.28702">
        <ele>876.1</ele>
        <time>2022-12-01T08:46:51Z</time>
      </trkpt>
      <trkpt lat="46.79909" lon="6.28703">
        <ele>876.8</ele>
        <time>2022-12-01T08:46:56Z</time>
      </trkpt>
      <trkpt lat="46.79914" lon="6.28703">
        <ele>877.3</ele>
        <time>2022-12-01T08:47:00Z</time>
      </trkpt>
      <trkpt lat="46.79918" lon="6.28705">
        <ele>877.5</ele>
        <time>2022-12-01T08:47:04Z</time>
      </trkpt>
      <trkpt lat="46.79923" lon="6.28707">
        <ele>877.2</ele>
        <time>2022-12-01T08:47:09Z</time>
      </trkpt>
      <trkpt lat="46.79928" lon="6.28709">
        <ele>877.5</ele>
        <time>2022-12-01T08:47:14Z</time>
      </trkpt>
      <trkpt lat="46.79933" lon="6.28711">
        <ele>877.6</ele>
        <time>2022-12-01T08:47:19Z</time>
      </trkpt>
      <trkpt lat="46.79938" lon="6.28712">
        <ele>877.8</ele>
        <time>2022-12-01T08:47:24Z</time>
      </trkpt>
      <trkpt lat="46.79943" lon="6.28714">
        <ele>878</ele>
        <time>2022-12-01T08:47:28Z</time>
      </trkpt>
      <trkpt lat="46.79947" lon="6.28715">
        <ele>878.1</ele>
        <time>2022-12-01T08:47:32Z</time>
      </trkpt>
      <trkpt lat="46.79953" lon="6.28717">
        <ele>878.7</ele>
        <time>2022-12-01T08:47:37Z</time>
      </trkpt>
      <trkpt lat="46.79958" lon="6.28719">
        <ele>879</ele>
        <time>2022-12-01T08:47:42Z</time>
      </trkpt>
      <trkpt lat="46.79963" lon="6.2872">
        <ele>879</ele>
        <time>2022-12-01T08:47:47Z</time>
      </trkpt>
      <trkpt lat="46.79967" lon="6.28722">
        <ele>878.8</ele>
        <time>2022-12-01T08:47:51Z</time>
      </trkpt>
      <trkpt lat="46.79972" lon="6.28725">
        <ele>878.4</ele>
        <time>2022-12-01T08:47:56Z</time>
      </trkpt>
      <trkpt lat="46.79977" lon="6.28727">
        <ele>877.9</ele>
        <time>2022-12-01T08:48:01Z</time>
      </trkpt>
      <trkpt lat="46.79982" lon="6.28728">
        <ele>878</ele>
        <time>2022-12-01T08:48:05Z</time>
      </trkpt>
      <trkpt lat="46.79987" lon="6.28731">
        <ele>878.3</ele>
        <time>2022-12-01T08:48:10Z</time>
      </trkpt>
      <trkpt lat="46.79992" lon="6.28733">
        <ele>878.7</ele>
        <time>2022-12-01T08:48:15Z</time>
      </trkpt>
      <trkpt lat="46.79996" lon="6.28737">
        <ele>878.8</ele>
        <time>2022-12-01T08:48:20Z</time>
      </trkpt>
      <trkpt lat="46.80001" lon="6.28738">
        <ele>878.7</ele>
        <time>2022-12-01T08:48:24Z</time>
      </trkpt>
      <trkpt lat="46.80006" lon="6.28741">
        <ele>878.1</ele>
        <time>2022-12-01T08:48:29Z</time>
      </trkpt>
      <trkpt lat="46.8001" lon="6.28743">
        <ele>877.8</ele>
        <time>2022-12-01T08:48:33Z</time>
      </trkpt>
      <trkpt lat="46.80015" lon="6.28746">
        <ele>877.7</ele>
        <time>2022-12-01T08:48:38Z</time>
      </trkpt>
      <trkpt lat="46.8002" lon="6.2875">
        <ele>877.5</ele>
        <time>2022-12-01T08:48:43Z</time>
      </trkpt>
      <trkpt lat="46.80025" lon="6.28754">
        <ele>876.6</ele>
        <time>2022-12-01T08:48:49Z</time>
      </trkpt>
      <trkpt lat="46.80029" lon="6.28756">
        <ele>876</ele>
        <time>2022-12-01T08:48:53Z</time>
      </trkpt>
      <trkpt lat="46.80034" lon="6.28759">
        <ele>875.9</ele>
        <time>2022-12-01T08:48:58Z</time>
      </trkpt>
      <trkpt lat="46.80039" lon="6.28761">
        <ele>875.7</ele>
        <time>2022-12-01T08:49:03Z</time>
      </trkpt>
      <trkpt lat="46.80043" lon="6.28764">
        <ele>875.9</ele>
        <time>2022-12-01T08:49:07Z</time>
      </trkpt>
      <trkpt lat="46.80048" lon="6.28767">
        <ele>875.6</ele>
        <time>2022-12-01T08:49:12Z</time>
      </trkpt>
      <trkpt lat="46.80053" lon="6.2877">
        <ele>874.6</ele>
        <time>2022-12-01T08:49:17Z</time>
      </trkpt>
      <trkpt lat="46.80058" lon="6.28771">
        <ele>873.3</ele>
        <time>2022-12-01T08:49:22Z</time>
      </trkpt>
      <trkpt lat="46.80063" lon="6.28773">
        <ele>872.1</ele>
        <time>2022-12-01T08:49:27Z</time>
      </trkpt>
      <trkpt lat="46.80068" lon="6.28775">
        <ele>871.4</ele>
        <time>2022-12-01T08:49:32Z</time>
      </trkpt>
      <trkpt lat="46.80073" lon="6.28777">
        <ele>871</ele>
        <time>2022-12-01T08:49:37Z</time>
      </trkpt>
      <trkpt lat="46.80077" lon="6.28778">
        <ele>870.8</ele>
        <time>2022-12-01T08:49:41Z</time>
      </trkpt>
      <trkpt lat="46.80083" lon="6.28778">
        <ele>870.7</ele>
        <time>2022-12-01T08:49:46Z</time>
      </trkpt>
      <trkpt lat="46.80088" lon="6.28778">
        <ele>870.7</ele>
        <time>2022-12-01T08:49:51Z</time>
      </trkpt>
      <trkpt lat="46.80093" lon="6.28777">
        <ele>871</ele>
        <time>2022-12-01T08:49:57Z</time>
      </trkpt>
      <trkpt lat="46.80097" lon="6.28775">
        <ele>871.1</ele>
        <time>2022-12-01T08:50:02Z</time>
      </trkpt>
      <trkpt lat="46.80101" lon="6.2877">
        <ele>871.4</ele>
        <time>2022-12-01T08:50:06Z</time>
      </trkpt>
      <trkpt lat="46.80105" lon="6.28767">
        <ele>871.5</ele>
        <time>2022-12-01T08:50:10Z</time>
      </trkpt>
      <trkpt lat="46.80108" lon="6.28763">
        <ele>871.3</ele>
        <time>2022-12-01T08:50:14Z</time>
      </trkpt>
      <trkpt lat="46.80113" lon="6.28758">
        <ele>871.4</ele>
        <time>2022-12-01T08:50:19Z</time>
      </trkpt>
      <trkpt lat="46.80116" lon="6.28754">
        <ele>871.9</ele>
        <time>2022-12-01T08:50:23Z</time>
      </trkpt>
      <trkpt lat="46.8012" lon="6.2875">
        <ele>872.7</ele>
        <time>2022-12-01T08:50:28Z</time>
      </trkpt>
      <trkpt lat="46.80124" lon="6.28747">
        <ele>873.4</ele>
        <time>2022-12-01T08:50:32Z</time>
      </trkpt>
      <trkpt lat="46.80129" lon="6.28743">
        <ele>873.7</ele>
        <time>2022-12-01T08:50:37Z</time>
      </trkpt>
      <trkpt lat="46.80133" lon="6.28738">
        <ele>874.1</ele>
        <time>2022-12-01T08:50:42Z</time>
      </trkpt>
      <trkpt lat="46.80137" lon="6.28733">
        <ele>874.5</ele>
        <time>2022-12-01T08:50:47Z</time>
      </trkpt>
      <trkpt lat="46.80141" lon="6.28728">
        <ele>874.9</ele>
        <time>2022-12-01T08:50:52Z</time>
      </trkpt>
      <trkpt lat="46.80145" lon="6.28722">
        <ele>875.2</ele>
        <time>2022-12-01T08:50:57Z</time>
      </trkpt>
      <trkpt lat="46.80149" lon="6.28718">
        <ele>875.8</ele>
        <time>2022-12-01T08:51:01Z</time>
      </trkpt>
      <trkpt lat="46.80152" lon="6.28713">
        <ele>876.2</ele>
        <time>2022-12-01T08:51:05Z</time>
      </trkpt>
      <trkpt lat="46.80156" lon="6.28708">
        <ele>876.5</ele>
        <time>2022-12-01T08:51:11Z</time>
      </trkpt>
      <trkpt lat="46.8016" lon="6.28706">
        <ele>876</ele>
        <time>2022-12-01T08:51:15Z</time>
      </trkpt>
      <trkpt lat="46.80165" lon="6.28704">
        <ele>875.5</ele>
        <time>2022-12-01T08:51:20Z</time>
      </trkpt>
      <trkpt lat="46.8017" lon="6.28706">
        <ele>876</ele>
        <time>2022-12-01T08:51:41Z</time>
      </trkpt>
      <trkpt lat="46.80174" lon="6.28711">
        <ele>874.9</ele>
        <time>2022-12-01T08:51:47Z</time>
      </trkpt>
      <trkpt lat="46.80178" lon="6.28715">
        <ele>874.1</ele>
        <time>2022-12-01T08:51:51Z</time>
      </trkpt>
      <trkpt lat="46.80181" lon="6.28721">
        <ele>873.8</ele>
        <time>2022-12-01T08:51:56Z</time>
      </trkpt>
      <trkpt lat="46.80185" lon="6.28727">
        <ele>873.3</ele>
        <time>2022-12-01T08:52:01Z</time>
      </trkpt>
      <trkpt lat="46.80189" lon="6.28732">
        <ele>873.4</ele>
        <time>2022-12-01T08:52:06Z</time>
      </trkpt>
      <trkpt lat="46.80193" lon="6.28736">
        <ele>873.6</ele>
        <time>2022-12-01T08:52:11Z</time>
      </trkpt>
      <trkpt lat="46.80197" lon="6.28741">
        <ele>874.2</ele>
        <time>2022-12-01T08:52:16Z</time>
      </trkpt>
      <trkpt lat="46.80201" lon="6.28747">
        <ele>874.5</ele>
        <time>2022-12-01T08:52:22Z</time>
      </trkpt>
      <trkpt lat="46.80204" lon="6.28752">
        <ele>874.8</ele>
        <time>2022-12-01T08:52:26Z</time>
      </trkpt>
      <trkpt lat="46.80207" lon="6.28756">
        <ele>874.8</ele>
        <time>2022-12-01T08:52:30Z</time>
      </trkpt>
      <trkpt lat="46.80212" lon="6.2876">
        <ele>875</ele>
        <time>2022-12-01T08:52:35Z</time>
      </trkpt>
      <trkpt lat="46.80216" lon="6.28764">
        <ele>875.5</ele>
        <time>2022-12-01T08:52:40Z</time>
      </trkpt>
      <trkpt lat="46.8022" lon="6.28769">
        <ele>875.8</ele>
        <time>2022-12-01T08:52:45Z</time>
      </trkpt>
      <trkpt lat="46.80223" lon="6.28775">
        <ele>875.2</ele>
        <time>2022-12-01T08:52:50Z</time>
      </trkpt>
      <trkpt lat="46.80228" lon="6.28778">
        <ele>874.5</ele>
        <time>2022-12-01T08:52:55Z</time>
      </trkpt>
      <trkpt lat="46.80232" lon="6.28781">
        <ele>873.9</ele>
        <time>2022-12-01T08:52:59Z</time>
      </trkpt>
      <trkpt lat="46.80237" lon="6.28784">
        <ele>873.3</ele>
        <time>2022-12-01T08:53:03Z</time>
      </trkpt>
      <trkpt lat="46.80241" lon="6.28789">
        <ele>872.4</ele>
        <time>2022-12-01T08:53:08Z</time>
      </trkpt>
      <trkpt lat="46.80246" lon="6.28793">
        <ele>871.9</ele>
        <time>2022-12-01T08:53:13Z</time>
      </trkpt>
      <trkpt lat="46.8025" lon="6.28798">
        <ele>871.9</ele>
        <time>2022-12-01T08:53:18Z</time>
      </trkpt>
      <trkpt lat="46.80254" lon="6.28802">
        <ele>871.5</ele>
        <time>2022-12-01T08:53:23Z</time>
      </trkpt>
      <trkpt lat="46.80259" lon="6.28806">
        <ele>870.7</ele>
        <time>2022-12-01T08:53:28Z</time>
      </trkpt>
      <trkpt lat="46.80263" lon="6.28811">
        <ele>870.5</ele>
        <time>2022-12-01T08:53:32Z</time>
      </trkpt>
      <trkpt lat="46.80267" lon="6.28814">
        <ele>870.3</ele>
        <time>2022-12-01T08:53:36Z</time>
      </trkpt>
      <trkpt lat="46.80271" lon="6.2882">
        <ele>870.1</ele>
        <time>2022-12-01T08:53:41Z</time>
      </trkpt>
      <trkpt lat="46.80275" lon="6.28824">
        <ele>870.5</ele>
        <time>2022-12-01T08:53:45Z</time>
      </trkpt>
      <trkpt lat="46.80279" lon="6.28829">
        <ele>870.8</ele>
        <time>2022-12-01T08:53:49Z</time>
      </trkpt>
      <trkpt lat="46.80283" lon="6.28833">
        <ele>870.9</ele>
        <time>2022-12-01T08:53:53Z</time>
      </trkpt>
      <trkpt lat="46.80287" lon="6.28837">
        <ele>870.8</ele>
        <time>2022-12-01T08:53:57Z</time>
      </trkpt>
      <trkpt lat="46.80291" lon="6.28842">
        <ele>871</ele>
        <time>2022-12-01T08:54:02Z</time>
      </trkpt>
      <trkpt lat="46.80295" lon="6.28846">
        <ele>871.1</ele>
        <time>2022-12-01T08:54:06Z</time>
      </trkpt>
      <trkpt lat="46.803" lon="6.28849">
        <ele>870.9</ele>
        <time>2022-12-01T08:54:11Z</time>
      </trkpt>
      <trkpt lat="46.80304" lon="6.28852">
        <ele>870.7</ele>
        <time>2022-12-01T08:54:16Z</time>
      </trkpt>
      <trkpt lat="46.80309" lon="6.28856">
        <ele>870.9</ele>
        <time>2022-12-01T08:54:21Z</time>
      </trkpt>
      <trkpt lat="46.80312" lon="6.28862">
        <ele>870.9</ele>
        <time>2022-12-01T08:54:26Z</time>
      </trkpt>
      <trkpt lat="46.80316" lon="6.28866">
        <ele>870.9</ele>
        <time>2022-12-01T08:54:30Z</time>
      </trkpt>
      <trkpt lat="46.8032" lon="6.2887">
        <ele>871</ele>
        <time>2022-12-01T08:54:34Z</time>
      </trkpt>
      <trkpt lat="46.80325" lon="6.28873">
        <ele>871.6</ele>
        <time>2022-12-01T08:54:38Z</time>
      </trkpt>
      <trkpt lat="46.80329" lon="6.28876">
        <ele>871.9</ele>
        <time>2022-12-01T08:54:43Z</time>
      </trkpt>
      <trkpt lat="46.80332" lon="6.28881">
        <ele>871.9</ele>
        <time>2022-12-01T08:54:47Z</time>
      </trkpt>
      <trkpt lat="46.80336" lon="6.28887">
        <ele>872</ele>
        <time>2022-12-01T08:54:51Z</time>
      </trkpt>
      <trkpt lat="46.8034" lon="6.28892">
        <ele>871.9</ele>
        <time>2022-12-01T08:54:55Z</time>
      </trkpt>
      <trkpt lat="46.80344" lon="6.28896">
        <ele>872.3</ele>
        <time>2022-12-01T08:54:59Z</time>
      </trkpt>
      <trkpt lat="46.80347" lon="6.28901">
        <ele>873</ele>
        <time>2022-12-01T08:55:03Z</time>
      </trkpt>
      <trkpt lat="46.80352" lon="6.28905">
        <ele>874.4</ele>
        <time>2022-12-01T08:55:08Z</time>
      </trkpt>
      <trkpt lat="46.80356" lon="6.28908">
        <ele>875.4</ele>
        <time>2022-12-01T08:55:12Z</time>
      </trkpt>
      <trkpt lat="46.80361" lon="6.28911">
        <ele>876.1</ele>
        <time>2022-12-01T08:55:16Z</time>
      </trkpt>
      <trkpt lat="46.80365" lon="6.28914">
        <ele>876.8</ele>
        <time>2022-12-01T08:55:21Z</time>
      </trkpt>
      <trkpt lat="46.8037" lon="6.28918">
        <ele>877.1</ele>
        <time>2022-12-01T08:55:25Z</time>
      </trkpt>
      <trkpt lat="46.80374" lon="6.28921">
        <ele>877.2</ele>
        <time>2022-12-01T08:55:29Z</time>
      </trkpt>
      <trkpt lat="46.80378" lon="6.28925">
        <ele>877.3</ele>
        <time>2022-12-01T08:55:33Z</time>
      </trkpt>
      <trkpt lat="46.80383" lon="6.28929">
        <ele>877</ele>
        <time>2022-12-01T08:55:38Z</time>
      </trkpt>
      <trkpt lat="46.80387" lon="6.28933">
        <ele>877.2</ele>
        <time>2022-12-01T08:55:43Z</time>
      </trkpt>
      <trkpt lat="46.80391" lon="6.28936">
        <ele>877.7</ele>
        <time>2022-12-01T08:55:47Z</time>
      </trkpt>
      <trkpt lat="46.80395" lon="6.28939">
        <ele>877.8</ele>
        <time>2022-12-01T08:55:51Z</time>
      </trkpt>
      <trkpt lat="46.804" lon="6.28942">
        <ele>878.2</ele>
        <time>2022-12-01T08:55:55Z</time>
      </trkpt>
      <trkpt lat="46.80404" lon="6.28945">
        <ele>878.5</ele>
        <time>2022-12-01T08:56:00Z</time>
      </trkpt>
      <trkpt lat="46.80408" lon="6.2895">
        <ele>878.3</ele>
        <time>2022-12-01T08:56:06Z</time>
      </trkpt>
      <trkpt lat="46.80412" lon="6.28954">
        <ele>877.6</ele>
        <time>2022-12-01T08:56:12Z</time>
      </trkpt>
      <trkpt lat="46.80415" lon="6.28959">
        <ele>877.5</ele>
        <time>2022-12-01T08:56:17Z</time>
      </trkpt>
      <trkpt lat="46.80418" lon="6.28964">
        <ele>877.6</ele>
        <time>2022-12-01T08:56:21Z</time>
      </trkpt>
      <trkpt lat="46.80423" lon="6.28967">
        <ele>877.9</ele>
        <time>2022-12-01T08:56:25Z</time>
      </trkpt>
      <trkpt lat="46.80427" lon="6.28971">
        <ele>878.2</ele>
        <time>2022-12-01T08:56:29Z</time>
      </trkpt>
      <trkpt lat="46.80431" lon="6.28974">
        <ele>877.8</ele>
        <time>2022-12-01T08:56:33Z</time>
      </trkpt>
      <trkpt lat="46.80435" lon="6.28976">
        <ele>877.8</ele>
        <time>2022-12-01T08:56:37Z</time>
      </trkpt>
      <trkpt lat="46.8044" lon="6.28979">
        <ele>878.3</ele>
        <time>2022-12-01T08:56:41Z</time>
      </trkpt>
      <trkpt lat="46.80444" lon="6.28983">
        <ele>878.6</ele>
        <time>2022-12-01T08:56:46Z</time>
      </trkpt>
      <trkpt lat="46.80449" lon="6.28986">
        <ele>877.9</ele>
        <time>2022-12-01T08:56:51Z</time>
      </trkpt>
      <trkpt lat="46.80453" lon="6.2899">
        <ele>877.3</ele>
        <time>2022-12-01T08:56:55Z</time>
      </trkpt>
      <trkpt lat="46.80457" lon="6.28995">
        <ele>877</ele>
        <time>2022-12-01T08:56:59Z</time>
      </trkpt>
      <trkpt lat="46.80461" lon="6.28999">
        <ele>877</ele>
        <time>2022-12-01T08:57:04Z</time>
      </trkpt>
      <trkpt lat="46.80466" lon="6.29003">
        <ele>877</ele>
        <time>2022-12-01T08:57:10Z</time>
      </trkpt>
      <trkpt lat="46.8047" lon="6.29007">
        <ele>876.9</ele>
        <time>2022-12-01T08:57:15Z</time>
      </trkpt>
      <trkpt lat="46.80475" lon="6.29011">
        <ele>876.9</ele>
        <time>2022-12-01T08:57:19Z</time>
      </trkpt>
      <trkpt lat="46.80479" lon="6.29013">
        <ele>876.4</ele>
        <time>2022-12-01T08:57:24Z</time>
      </trkpt>
      <trkpt lat="46.80483" lon="6.29017">
        <ele>876.1</ele>
        <time>2022-12-01T08:57:28Z</time>
      </trkpt>
      <trkpt lat="46.80488" lon="6.29022">
        <ele>876.2</ele>
        <time>2022-12-01T08:57:32Z</time>
      </trkpt>
      <trkpt lat="46.80491" lon="6.29026">
        <ele>876.1</ele>
        <time>2022-12-01T08:57:35Z</time>
      </trkpt>
      <trkpt lat="46.80495" lon="6.29031">
        <ele>876.5</ele>
        <time>2022-12-01T08:57:39Z</time>
      </trkpt>
      <trkpt lat="46.80498" lon="6.29036">
        <ele>877.2</ele>
        <time>2022-12-01T08:57:43Z</time>
      </trkpt>
      <trkpt lat="46.80501" lon="6.29042">
        <ele>878.1</ele>
        <time>2022-12-01T08:57:48Z</time>
      </trkpt>
      <trkpt lat="46.80505" lon="6.29048">
        <ele>878.9</ele>
        <time>2022-12-01T08:57:52Z</time>
      </trkpt>
      <trkpt lat="46.80509" lon="6.29051">
        <ele>880.5</ele>
        <time>2022-12-01T08:57:57Z</time>
      </trkpt>
      <trkpt lat="46.80513" lon="6.29055">
        <ele>882.2</ele>
        <time>2022-12-01T08:58:02Z</time>
      </trkpt>
      <trkpt lat="46.80517" lon="6.29058">
        <ele>883.4</ele>
        <time>2022-12-01T08:58:06Z</time>
      </trkpt>
      <trkpt lat="46.80521" lon="6.29062">
        <ele>884.5</ele>
        <time>2022-12-01T08:58:11Z</time>
      </trkpt>
      <trkpt lat="46.80525" lon="6.29067">
        <ele>884.8</ele>
        <time>2022-12-01T08:58:16Z</time>
      </trkpt>
      <trkpt lat="46.8053" lon="6.29071">
        <ele>884.2</ele>
        <time>2022-12-01T08:58:20Z</time>
      </trkpt>
      <trkpt lat="46.80535" lon="6.29074">
        <ele>883.7</ele>
        <time>2022-12-01T08:58:24Z</time>
      </trkpt>
      <trkpt lat="46.80539" lon="6.29076">
        <ele>883.6</ele>
        <time>2022-12-01T08:58:28Z</time>
      </trkpt>
      <trkpt lat="46.80543" lon="6.2908">
        <ele>884</ele>
        <time>2022-12-01T08:58:32Z</time>
      </trkpt>
      <trkpt lat="46.80547" lon="6.29084">
        <ele>884.1</ele>
        <time>2022-12-01T08:58:36Z</time>
      </trkpt>
      <trkpt lat="46.80551" lon="6.29088">
        <ele>883.6</ele>
        <time>2022-12-01T08:58:40Z</time>
      </trkpt>
      <trkpt lat="46.80556" lon="6.2909">
        <ele>883.1</ele>
        <time>2022-12-01T08:58:45Z</time>
      </trkpt>
      <trkpt lat="46.80561" lon="6.29091">
        <ele>882.4</ele>
        <time>2022-12-01T08:58:50Z</time>
      </trkpt>
      <trkpt lat="46.80566" lon="6.29092">
        <ele>881.7</ele>
        <time>2022-12-01T08:58:55Z</time>
      </trkpt>
      <trkpt lat="46.80571" lon="6.29093">
        <ele>881.2</ele>
        <time>2022-12-01T08:59:00Z</time>
      </trkpt>
      <trkpt lat="46.80576" lon="6.29094">
        <ele>880.9</ele>
        <time>2022-12-01T08:59:05Z</time>
      </trkpt>
      <trkpt lat="46.80581" lon="6.29096">
        <ele>880.9</ele>
        <time>2022-12-01T08:59:09Z</time>
      </trkpt>
      <trkpt lat="46.80585" lon="6.29097">
        <ele>880.9</ele>
        <time>2022-12-01T08:59:13Z</time>
      </trkpt>
      <trkpt lat="46.8059" lon="6.29099">
        <ele>881</ele>
        <time>2022-12-01T08:59:17Z</time>
      </trkpt>
      <trkpt lat="46.80595" lon="6.29099">
        <ele>881</ele>
        <time>2022-12-01T08:59:21Z</time>
      </trkpt>
      <trkpt lat="46.806" lon="6.29101">
        <ele>881.2</ele>
        <time>2022-12-01T08:59:25Z</time>
      </trkpt>
      <trkpt lat="46.80604" lon="6.29104">
        <ele>881.4</ele>
        <time>2022-12-01T08:59:29Z</time>
      </trkpt>
      <trkpt lat="46.80609" lon="6.29107">
        <ele>881.7</ele>
        <time>2022-12-01T08:59:34Z</time>
      </trkpt>
      <trkpt lat="46.80612" lon="6.29113">
        <ele>881.7</ele>
        <time>2022-12-01T08:59:39Z</time>
      </trkpt>
      <trkpt lat="46.80616" lon="6.29119">
        <ele>881.8</ele>
        <time>2022-12-01T08:59:44Z</time>
      </trkpt>
      <trkpt lat="46.80619" lon="6.29124">
        <ele>882.2</ele>
        <time>2022-12-01T08:59:48Z</time>
      </trkpt>
      <trkpt lat="46.80622" lon="6.29129">
        <ele>882.7</ele>
        <time>2022-12-01T08:59:53Z</time>
      </trkpt>
      <trkpt lat="46.80625" lon="6.29136">
        <ele>882.4</ele>
        <time>2022-12-01T08:59:59Z</time>
      </trkpt>
      <trkpt lat="46.80629" lon="6.29141">
        <ele>882.4</ele>
        <time>2022-12-01T09:00:04Z</time>
      </trkpt>
      <trkpt lat="46.80633" lon="6.29145">
        <ele>882.4</ele>
        <time>2022-12-01T09:00:09Z</time>
      </trkpt>
      <trkpt lat="46.80636" lon="6.29151">
        <ele>882.5</ele>
        <time>2022-12-01T09:00:14Z</time>
      </trkpt>
      <trkpt lat="46.8064" lon="6.29157">
        <ele>882.3</ele>
        <time>2022-12-01T09:00:19Z</time>
      </trkpt>
      <trkpt lat="46.80643" lon="6.29162">
        <ele>882.2</ele>
        <time>2022-12-01T09:00:23Z</time>
      </trkpt>
      <trkpt lat="46.80647" lon="6.29167">
        <ele>882.2</ele>
        <time>2022-12-01T09:00:27Z</time>
      </trkpt>
      <trkpt lat="46.80651" lon="6.29172">
        <ele>883</ele>
        <time>2022-12-01T09:00:33Z</time>
      </trkpt>
      <trkpt lat="46.80656" lon="6.29175">
        <ele>884.1</ele>
        <time>2022-12-01T09:00:37Z</time>
      </trkpt>
      <trkpt lat="46.8066" lon="6.29178">
        <ele>884.9</ele>
        <time>2022-12-01T09:00:41Z</time>
      </trkpt>
      <trkpt lat="46.80665" lon="6.29181">
        <ele>885.1</ele>
        <time>2022-12-01T09:00:46Z</time>
      </trkpt>
      <trkpt lat="46.80669" lon="6.29183">
        <ele>884.7</ele>
        <time>2022-12-01T09:00:50Z</time>
      </trkpt>
      <trkpt lat="46.80674" lon="6.29186">
        <ele>884.2</ele>
        <time>2022-12-01T09:00:55Z</time>
      </trkpt>
      <trkpt lat="46.80679" lon="6.29188">
        <ele>883.6</ele>
        <time>2022-12-01T09:00:59Z</time>
      </trkpt>
      <trkpt lat="46.80683" lon="6.29191">
        <ele>883.1</ele>
        <time>2022-12-01T09:01:03Z</time>
      </trkpt>
      <trkpt lat="46.80687" lon="6.29193">
        <ele>882.5</ele>
        <time>2022-12-01T09:01:08Z</time>
      </trkpt>
      <trkpt lat="46.80692" lon="6.29196">
        <ele>882.3</ele>
        <time>2022-12-01T09:01:14Z</time>
      </trkpt>
      <trkpt lat="46.80696" lon="6.29198">
        <ele>882.2</ele>
        <time>2022-12-01T09:01:19Z</time>
      </trkpt>
      <trkpt lat="46.80701" lon="6.29201">
        <ele>882</ele>
        <time>2022-12-01T09:01:23Z</time>
      </trkpt>
      <trkpt lat="46.80705" lon="6.29204">
        <ele>881.9</ele>
        <time>2022-12-01T09:01:27Z</time>
      </trkpt>
      <trkpt lat="46.80709" lon="6.29207">
        <ele>881.9</ele>
        <time>2022-12-01T09:01:31Z</time>
      </trkpt>
      <trkpt lat="46.80714" lon="6.2921">
        <ele>881.7</ele>
        <time>2022-12-01T09:01:36Z</time>
      </trkpt>
      <trkpt lat="46.80718" lon="6.29213">
        <ele>881.8</ele>
        <time>2022-12-01T09:01:40Z</time>
      </trkpt>
      <trkpt lat="46.80722" lon="6.29215">
        <ele>881.6</ele>
        <time>2022-12-01T09:01:44Z</time>
      </trkpt>
      <trkpt lat="46.80727" lon="6.29217">
        <ele>881.2</ele>
        <time>2022-12-01T09:01:48Z</time>
      </trkpt>
      <trkpt lat="46.80732" lon="6.29219">
        <ele>880.6</ele>
        <time>2022-12-01T09:01:53Z</time>
      </trkpt>
      <trkpt lat="46.80736" lon="6.29222">
        <ele>880.3</ele>
        <time>2022-12-01T09:01:58Z</time>
      </trkpt>
      <trkpt lat="46.80741" lon="6.29226">
        <ele>880.3</ele>
        <time>2022-12-01T09:02:03Z</time>
      </trkpt>
      <trkpt lat="46.80745" lon="6.2923">
        <ele>880.8</ele>
        <time>2022-12-01T09:02:08Z</time>
      </trkpt>
      <trkpt lat="46.8075" lon="6.2923">
        <ele>880.6</ele>
        <time>2022-12-01T09:02:52Z</time>
      </trkpt>
      <trkpt lat="46.80755" lon="6.29234">
        <ele>880.1</ele>
        <time>2022-12-01T09:02:57Z</time>
      </trkpt>
      <trkpt lat="46.80759" lon="6.29237">
        <ele>879.9</ele>
        <time>2022-12-01T09:03:01Z</time>
      </trkpt>
      <trkpt lat="46.80764" lon="6.29241">
        <ele>880.2</ele>
        <time>2022-12-01T09:03:05Z</time>
      </trkpt>
      <trkpt lat="46.80768" lon="6.29245">
        <ele>880.6</ele>
        <time>2022-12-01T09:03:08Z</time>
      </trkpt>
      <trkpt lat="46.80772" lon="6.29248">
        <ele>881</ele>
        <time>2022-12-01T09:03:11Z</time>
      </trkpt>
      <trkpt lat="46.80776" lon="6.29251">
        <ele>881.2</ele>
        <time>2022-12-01T09:03:14Z</time>
      </trkpt>
      <trkpt lat="46.80781" lon="6.29255">
        <ele>881.2</ele>
        <time>2022-12-01T09:03:18Z</time>
      </trkpt>
      <trkpt lat="46.80785" lon="6.29258">
        <ele>881.4</ele>
        <time>2022-12-01T09:03:22Z</time>
      </trkpt>
      <trkpt lat="46.8079" lon="6.29263">
        <ele>881.9</ele>
        <time>2022-12-01T09:03:26Z</time>
      </trkpt>
      <trkpt lat="46.80795" lon="6.29266">
        <ele>882.2</ele>
        <time>2022-12-01T09:03:30Z</time>
      </trkpt>
      <trkpt lat="46.80799" lon="6.2927">
        <ele>882.2</ele>
        <time>2022-12-01T09:03:34Z</time>
      </trkpt>
      <trkpt lat="46.80804" lon="6.29274">
        <ele>881.8</ele>
        <time>2022-12-01T09:03:39Z</time>
      </trkpt>
      <trkpt lat="46.80809" lon="6.29277">
        <ele>881.5</ele>
        <time>2022-12-01T09:03:43Z</time>
      </trkpt>
      <trkpt lat="46.80814" lon="6.29279">
        <ele>881</ele>
        <time>2022-12-01T09:03:47Z</time>
      </trkpt>
      <trkpt lat="46.80819" lon="6.29283">
        <ele>880.5</ele>
        <time>2022-12-01T09:03:51Z</time>
      </trkpt>
      <trkpt lat="46.80824" lon="6.29285">
        <ele>880.7</ele>
        <time>2022-12-01T09:03:55Z</time>
      </trkpt>
      <trkpt lat="46.80828" lon="6.29289">
        <ele>880.9</ele>
        <time>2022-12-01T09:03:58Z</time>
      </trkpt>
      <trkpt lat="46.80833" lon="6.29292">
        <ele>880.9</ele>
        <time>2022-12-01T09:04:02Z</time>
      </trkpt>
      <trkpt lat="46.80838" lon="6.29295">
        <ele>881.2</ele>
        <time>2022-12-01T09:04:06Z</time>
      </trkpt>
      <trkpt lat="46.80842" lon="6.29299">
        <ele>881.2</ele>
        <time>2022-12-01T09:04:09Z</time>
      </trkpt>
      <trkpt lat="46.80847" lon="6.29304">
        <ele>881.1</ele>
        <time>2022-12-01T09:04:13Z</time>
      </trkpt>
      <trkpt lat="46.80852" lon="6.29307">
        <ele>880.8</ele>
        <time>2022-12-01T09:04:17Z</time>
      </trkpt>
      <trkpt lat="46.80856" lon="6.2931">
        <ele>880.8</ele>
        <time>2022-12-01T09:04:20Z</time>
      </trkpt>
      <trkpt lat="46.80861" lon="6.29314">
        <ele>881</ele>
        <time>2022-12-01T09:04:23Z</time>
      </trkpt>
      <trkpt lat="46.80865" lon="6.29317">
        <ele>881.2</ele>
        <time>2022-12-01T09:04:26Z</time>
      </trkpt>
      <trkpt lat="46.8087" lon="6.29321">
        <ele>882.1</ele>
        <time>2022-12-01T09:04:31Z</time>
      </trkpt>
      <trkpt lat="46.80875" lon="6.29322">
        <ele>882.8</ele>
        <time>2022-12-01T09:04:34Z</time>
      </trkpt>
      <trkpt lat="46.80879" lon="6.29324">
        <ele>884.5</ele>
        <time>2022-12-01T09:04:39Z</time>
      </trkpt>
      <trkpt lat="46.80883" lon="6.29328">
        <ele>884.7</ele>
        <time>2022-12-01T09:04:43Z</time>
      </trkpt>
      <trkpt lat="46.80887" lon="6.29332">
        <ele>884.3</ele>
        <time>2022-12-01T09:04:47Z</time>
      </trkpt>
      <trkpt lat="46.80892" lon="6.29335">
        <ele>884</ele>
        <time>2022-12-01T09:04:51Z</time>
      </trkpt>
      <trkpt lat="46.80897" lon="6.29336">
        <ele>884</ele>
        <time>2022-12-01T09:04:56Z</time>
      </trkpt>
      <trkpt lat="46.80902" lon="6.2934">
        <ele>884.1</ele>
        <time>2022-12-01T09:05:01Z</time>
      </trkpt>
      <trkpt lat="46.80907" lon="6.29343">
        <ele>884.2</ele>
        <time>2022-12-01T09:05:05Z</time>
      </trkpt>
      <trkpt lat="46.80912" lon="6.29346">
        <ele>884.4</ele>
        <time>2022-12-01T09:05:09Z</time>
      </trkpt>
      <trkpt lat="46.80916" lon="6.2935">
        <ele>884.8</ele>
        <time>2022-12-01T09:05:14Z</time>
      </trkpt>
      <trkpt lat="46.8092" lon="6.29353">
        <ele>885.3</ele>
        <time>2022-12-01T09:05:18Z</time>
      </trkpt>
      <trkpt lat="46.80925" lon="6.29356">
        <ele>885.2</ele>
        <time>2022-12-01T09:05:22Z</time>
      </trkpt>
      <trkpt lat="46.8093" lon="6.29359">
        <ele>884.6</ele>
        <time>2022-12-01T09:05:26Z</time>
      </trkpt>
      <trkpt lat="46.80934" lon="6.29362">
        <ele>884.2</ele>
        <time>2022-12-01T09:05:30Z</time>
      </trkpt>
      <trkpt lat="46.80938" lon="6.29367">
        <ele>883.9</ele>
        <time>2022-12-01T09:05:34Z</time>
      </trkpt>
      <trkpt lat="46.80942" lon="6.29372">
        <ele>883.8</ele>
        <time>2022-12-01T09:05:37Z</time>
      </trkpt>
      <trkpt lat="46.80947" lon="6.29376">
        <ele>883.7</ele>
        <time>2022-12-01T09:05:41Z</time>
      </trkpt>
      <trkpt lat="46.80952" lon="6.29381">
        <ele>883.5</ele>
        <time>2022-12-01T09:05:45Z</time>
      </trkpt>
      <trkpt lat="46.80956" lon="6.29384">
        <ele>883.7</ele>
        <time>2022-12-01T09:05:48Z</time>
      </trkpt>
      <trkpt lat="46.80961" lon="6.29387">
        <ele>883.8</ele>
        <time>2022-12-01T09:05:51Z</time>
      </trkpt>
      <trkpt lat="46.80965" lon="6.29391">
        <ele>883.9</ele>
        <time>2022-12-01T09:05:54Z</time>
      </trkpt>
      <trkpt lat="46.80968" lon="6.29395">
        <ele>884</ele>
        <time>2022-12-01T09:05:57Z</time>
      </trkpt>
      <trkpt lat="46.80972" lon="6.294">
        <ele>884.1</ele>
        <time>2022-12-01T09:06:00Z</time>
      </trkpt>
      <trkpt lat="46.80976" lon="6.29405">
        <ele>884.4</ele>
        <time>2022-12-01T09:06:04Z</time>
      </trkpt>
      <trkpt lat="46.80979" lon="6.29411">
        <ele>884</ele>
        <time>2022-12-01T09:06:08Z</time>
      </trkpt>
      <trkpt lat="46.80982" lon="6.29417">
        <ele>883.3</ele>
        <time>2022-12-01T09:06:12Z</time>
      </trkpt>
      <trkpt lat="46.80985" lon="6.29424">
        <ele>882.4</ele>
        <time>2022-12-01T09:06:17Z</time>
      </trkpt>
      <trkpt lat="46.80988" lon="6.29431">
        <ele>882.3</ele>
        <time>2022-12-01T09:06:21Z</time>
      </trkpt>
      <trkpt lat="46.80991" lon="6.29436">
        <ele>882.6</ele>
        <time>2022-12-01T09:06:25Z</time>
      </trkpt>
      <trkpt lat="46.80994" lon="6.29442">
        <ele>882.8</ele>
        <time>2022-12-01T09:06:29Z</time>
      </trkpt>
      <trkpt lat="46.80998" lon="6.29447">
        <ele>883.1</ele>
        <time>2022-12-01T09:06:33Z</time>
      </trkpt>
      <trkpt lat="46.81001" lon="6.29452">
        <ele>882.9</ele>
        <time>2022-12-01T09:06:37Z</time>
      </trkpt>
      <trkpt lat="46.81005" lon="6.29458">
        <ele>882.6</ele>
        <time>2022-12-01T09:06:41Z</time>
      </trkpt>
      <trkpt lat="46.81008" lon="6.29463">
        <ele>882.5</ele>
        <time>2022-12-01T09:06:45Z</time>
      </trkpt>
      <trkpt lat="46.81012" lon="6.29469">
        <ele>882.3</ele>
        <time>2022-12-01T09:06:50Z</time>
      </trkpt>
      <trkpt lat="46.81016" lon="6.29474">
        <ele>882.4</ele>
        <time>2022-12-01T09:06:55Z</time>
      </trkpt>
      <trkpt lat="46.81019" lon="6.29479">
        <ele>882.6</ele>
        <time>2022-12-01T09:06:59Z</time>
      </trkpt>
      <trkpt lat="46.81023" lon="6.29485">
        <ele>883</ele>
        <time>2022-12-01T09:07:04Z</time>
      </trkpt>
      <trkpt lat="46.81026" lon="6.2949">
        <ele>883.2</ele>
        <time>2022-12-01T09:07:08Z</time>
      </trkpt>
      <trkpt lat="46.81029" lon="6.29495">
        <ele>883.4</ele>
        <time>2022-12-01T09:07:12Z</time>
      </trkpt>
      <trkpt lat="46.81032" lon="6.295">
        <ele>883.5</ele>
        <time>2022-12-01T09:07:16Z</time>
      </trkpt>
      <trkpt lat="46.81035" lon="6.29506">
        <ele>884.2</ele>
        <time>2022-12-01T09:07:21Z</time>
      </trkpt>
      <trkpt lat="46.81039" lon="6.29511">
        <ele>884.9</ele>
        <time>2022-12-01T09:07:25Z</time>
      </trkpt>
      <trkpt lat="46.81042" lon="6.29517">
        <ele>885.3</ele>
        <time>2022-12-01T09:07:29Z</time>
      </trkpt>
      <trkpt lat="46.81046" lon="6.29522">
        <ele>884.7</ele>
        <time>2022-12-01T09:07:33Z</time>
      </trkpt>
      <trkpt lat="46.81049" lon="6.29527">
        <ele>884.3</ele>
        <time>2022-12-01T09:07:37Z</time>
      </trkpt>
      <trkpt lat="46.81053" lon="6.29532">
        <ele>884.5</ele>
        <time>2022-12-01T09:07:41Z</time>
      </trkpt>
      <trkpt lat="46.81056" lon="6.29538">
        <ele>884.9</ele>
        <time>2022-12-01T09:07:46Z</time>
      </trkpt>
      <trkpt lat="46.8106" lon="6.29543">
        <ele>885</ele>
        <time>2022-12-01T09:07:51Z</time>
      </trkpt>
      <trkpt lat="46.81063" lon="6.29548">
        <ele>884.8</ele>
        <time>2022-12-01T09:07:55Z</time>
      </trkpt>
      <trkpt lat="46.81067" lon="6.29553">
        <ele>884.3</ele>
        <time>2022-12-01T09:08:00Z</time>
      </trkpt>
      <trkpt lat="46.81071" lon="6.29557">
        <ele>884.3</ele>
        <time>2022-12-01T09:08:04Z</time>
      </trkpt>
      <trkpt lat="46.81075" lon="6.29561">
        <ele>884.5</ele>
        <time>2022-12-01T09:08:08Z</time>
      </trkpt>
      <trkpt lat="46.81078" lon="6.29566">
        <ele>884.3</ele>
        <time>2022-12-01T09:08:13Z</time>
      </trkpt>
      <trkpt lat="46.81083" lon="6.2957">
        <ele>883.7</ele>
        <time>2022-12-01T09:08:18Z</time>
      </trkpt>
      <trkpt lat="46.81087" lon="6.29574">
        <ele>883.5</ele>
        <time>2022-12-01T09:08:22Z</time>
      </trkpt>
      <trkpt lat="46.81092" lon="6.29577">
        <ele>883.7</ele>
        <time>2022-12-01T09:08:26Z</time>
      </trkpt>
      <trkpt lat="46.81096" lon="6.29581">
        <ele>884</ele>
        <time>2022-12-01T09:08:30Z</time>
      </trkpt>
      <trkpt lat="46.811" lon="6.29584">
        <ele>884.7</ele>
        <time>2022-12-01T09:08:35Z</time>
      </trkpt>
      <trkpt lat="46.81105" lon="6.29588">
        <ele>885.3</ele>
        <time>2022-12-01T09:08:40Z</time>
      </trkpt>
      <trkpt lat="46.8111" lon="6.2959">
        <ele>884.8</ele>
        <time>2022-12-01T09:08:45Z</time>
      </trkpt>
      <trkpt lat="46.81114" lon="6.29594">
        <ele>883.6</ele>
        <time>2022-12-01T09:08:50Z</time>
      </trkpt>
      <trkpt lat="46.81118" lon="6.29597">
        <ele>882.8</ele>
        <time>2022-12-01T09:08:55Z</time>
      </trkpt>
      <trkpt lat="46.81122" lon="6.296">
        <ele>882.2</ele>
        <time>2022-12-01T09:09:00Z</time>
      </trkpt>
      <trkpt lat="46.81127" lon="6.29602">
        <ele>881.6</ele>
        <time>2022-12-01T09:09:04Z</time>
      </trkpt>
      <trkpt lat="46.81132" lon="6.29606">
        <ele>881.6</ele>
        <time>2022-12-01T09:09:08Z</time>
      </trkpt>
      <trkpt lat="46.81136" lon="6.29609">
        <ele>881.6</ele>
        <time>2022-12-01T09:09:12Z</time>
      </trkpt>
      <trkpt lat="46.81141" lon="6.29612">
        <ele>881.7</ele>
        <time>2022-12-01T09:09:16Z</time>
      </trkpt>
      <trkpt lat="46.81145" lon="6.29615">
        <ele>881.8</ele>
        <time>2022-12-01T09:09:20Z</time>
      </trkpt>
      <trkpt lat="46.8115" lon="6.29617">
        <ele>882</ele>
        <time>2022-12-01T09:09:25Z</time>
      </trkpt>
      <trkpt lat="46.81154" lon="6.2962">
        <ele>882.2</ele>
        <time>2022-12-01T09:09:29Z</time>
      </trkpt>
      <trkpt lat="46.81159" lon="6.29623">
        <ele>882.3</ele>
        <time>2022-12-01T09:09:34Z</time>
      </trkpt>
      <trkpt lat="46.81164" lon="6.29626">
        <ele>882.3</ele>
        <time>2022-12-01T09:09:39Z</time>
      </trkpt>
      <trkpt lat="46.81169" lon="6.29628">
        <ele>882.3</ele>
        <time>2022-12-01T09:09:45Z</time>
      </trkpt>
      <trkpt lat="46.81174" lon="6.29628">
        <ele>881.8</ele>
        <time>2022-12-01T09:09:50Z</time>
      </trkpt>
      <trkpt lat="46.81178" lon="6.2963">
        <ele>881</ele>
        <time>2022-12-01T09:09:55Z</time>
      </trkpt>
      <trkpt lat="46.81183" lon="6.29634">
        <ele>880.1</ele>
        <time>2022-12-01T09:10:00Z</time>
      </trkpt>
      <trkpt lat="46.81187" lon="6.29637">
        <ele>879.4</ele>
        <time>2022-12-01T09:10:05Z</time>
      </trkpt>
      <trkpt lat="46.81192" lon="6.29641">
        <ele>879.1</ele>
        <time>2022-12-01T09:10:09Z</time>
      </trkpt>
      <trkpt lat="46.81196" lon="6.29645">
        <ele>879.1</ele>
        <time>2022-12-01T09:10:14Z</time>
      </trkpt>
      <trkpt lat="46.81199" lon="6.29651">
        <ele>879.1</ele>
        <time>2022-12-01T09:10:19Z</time>
      </trkpt>
      <trkpt lat="46.81203" lon="6.29656">
        <ele>879.1</ele>
        <time>2022-12-01T09:10:24Z</time>
      </trkpt>
      <trkpt lat="46.81206" lon="6.29662">
        <ele>879.3</ele>
        <time>2022-12-01T09:10:29Z</time>
      </trkpt>
      <trkpt lat="46.81209" lon="6.29667">
        <ele>879</ele>
        <time>2022-12-01T09:10:33Z</time>
      </trkpt>
      <trkpt lat="46.81212" lon="6.29672">
        <ele>878.8</ele>
        <time>2022-12-01T09:10:37Z</time>
      </trkpt>
      <trkpt lat="46.81216" lon="6.29678">
        <ele>878.9</ele>
        <time>2022-12-01T09:10:42Z</time>
      </trkpt>
      <trkpt lat="46.81217" lon="6.29685">
        <ele>879.2</ele>
        <time>2022-12-01T09:10:47Z</time>
      </trkpt>
      <trkpt lat="46.81219" lon="6.29692">
        <ele>879.6</ele>
        <time>2022-12-01T09:10:52Z</time>
      </trkpt>
      <trkpt lat="46.81222" lon="6.29698">
        <ele>880</ele>
        <time>2022-12-01T09:10:56Z</time>
      </trkpt>
      <trkpt lat="46.81224" lon="6.29705">
        <ele>879.5</ele>
        <time>2022-12-01T09:11:01Z</time>
      </trkpt>
      <trkpt lat="46.81226" lon="6.29711">
        <ele>879</ele>
        <time>2022-12-01T09:11:07Z</time>
      </trkpt>
      <trkpt lat="46.81229" lon="6.29717">
        <ele>878.4</ele>
        <time>2022-12-01T09:11:12Z</time>
      </trkpt>
      <trkpt lat="46.81231" lon="6.29723">
        <ele>877.3</ele>
        <time>2022-12-01T09:11:17Z</time>
      </trkpt>
      <trkpt lat="46.81234" lon="6.29728">
        <ele>875.5</ele>
        <time>2022-12-01T09:11:26Z</time>
      </trkpt>
      <trkpt lat="46.81236" lon="6.29735">
        <ele>875</ele>
        <time>2022-12-01T09:11:31Z</time>
      </trkpt>
      <trkpt lat="46.81239" lon="6.29741">
        <ele>874.6</ele>
        <time>2022-12-01T09:11:35Z</time>
      </trkpt>
      <trkpt lat="46.81241" lon="6.29748">
        <ele>874.9</ele>
        <time>2022-12-01T09:11:40Z</time>
      </trkpt>
      <trkpt lat="46.81242" lon="6.29754">
        <ele>875.2</ele>
        <time>2022-12-01T09:11:44Z</time>
      </trkpt>
      <trkpt lat="46.81245" lon="6.2976">
        <ele>875.6</ele>
        <time>2022-12-01T09:11:48Z</time>
      </trkpt>
      <trkpt lat="46.81248" lon="6.29766">
        <ele>875.8</ele>
        <time>2022-12-01T09:11:52Z</time>
      </trkpt>
      <trkpt lat="46.81252" lon="6.29771">
        <ele>875.3</ele>
        <time>2022-12-01T09:11:57Z</time>
      </trkpt>
      <trkpt lat="46.81255" lon="6.29778">
        <ele>874.3</ele>
        <time>2022-12-01T09:12:02Z</time>
      </trkpt>
      <trkpt lat="46.81259" lon="6.29784">
        <ele>873.7</ele>
        <time>2022-12-01T09:12:06Z</time>
      </trkpt>
      <trkpt lat="46.81263" lon="6.29788">
        <ele>873.6</ele>
        <time>2022-12-01T09:12:10Z</time>
      </trkpt>
      <trkpt lat="46.81267" lon="6.29791">
        <ele>873.7</ele>
        <time>2022-12-01T09:12:14Z</time>
      </trkpt>
      <trkpt lat="46.8127" lon="6.29797">
        <ele>873.6</ele>
        <time>2022-12-01T09:12:19Z</time>
      </trkpt>
      <trkpt lat="46.81272" lon="6.29804">
        <ele>873.3</ele>
        <time>2022-12-01T09:12:24Z</time>
      </trkpt>
      <trkpt lat="46.81274" lon="6.2981">
        <ele>872.6</ele>
        <time>2022-12-01T09:12:29Z</time>
      </trkpt>
      <trkpt lat="46.81277" lon="6.29816">
        <ele>872.4</ele>
        <time>2022-12-01T09:12:34Z</time>
      </trkpt>
      <trkpt lat="46.81279" lon="6.29824">
        <ele>872.3</ele>
        <time>2022-12-01T09:12:39Z</time>
      </trkpt>
      <trkpt lat="46.81282" lon="6.29831">
        <ele>872.2</ele>
        <time>2022-12-01T09:12:44Z</time>
      </trkpt>
      <trkpt lat="46.81284" lon="6.29837">
        <ele>871.8</ele>
        <time>2022-12-01T09:12:49Z</time>
      </trkpt>
      <trkpt lat="46.81287" lon="6.29843">
        <ele>871.5</ele>
        <time>2022-12-01T09:12:54Z</time>
      </trkpt>
      <trkpt lat="46.81291" lon="6.29847">
        <ele>871.2</ele>
        <time>2022-12-01T09:13:00Z</time>
      </trkpt>
      <trkpt lat="46.81295" lon="6.29851">
        <ele>870.8</ele>
        <time>2022-12-01T09:13:05Z</time>
      </trkpt>
      <trkpt lat="46.81298" lon="6.29857">
        <ele>870</ele>
        <time>2022-12-01T09:13:10Z</time>
      </trkpt>
      <trkpt lat="46.81299" lon="6.29865">
        <ele>869.4</ele>
        <time>2022-12-01T09:13:15Z</time>
      </trkpt>
      <trkpt lat="46.81301" lon="6.29871">
        <ele>869.2</ele>
        <time>2022-12-01T09:13:19Z</time>
      </trkpt>
      <trkpt lat="46.81304" lon="6.29876">
        <ele>869.4</ele>
        <time>2022-12-01T09:13:23Z</time>
      </trkpt>
      <trkpt lat="46.81307" lon="6.29882">
        <ele>869.3</ele>
        <time>2022-12-01T09:13:27Z</time>
      </trkpt>
      <trkpt lat="46.8131" lon="6.29887">
        <ele>868.9</ele>
        <time>2022-12-01T09:13:31Z</time>
      </trkpt>
      <trkpt lat="46.81313" lon="6.29892">
        <ele>868.4</ele>
        <time>2022-12-01T09:13:36Z</time>
      </trkpt>
      <trkpt lat="46.81317" lon="6.29896">
        <ele>868</ele>
        <time>2022-12-01T09:13:41Z</time>
      </trkpt>
      <trkpt lat="46.81317" lon="6.29903">
        <ele>867.2</ele>
        <time>2022-12-01T09:13:46Z</time>
      </trkpt>
      <trkpt lat="46.81318" lon="6.2991">
        <ele>866.7</ele>
        <time>2022-12-01T09:13:51Z</time>
      </trkpt>
      <trkpt lat="46.8132" lon="6.29917">
        <ele>866.2</ele>
        <time>2022-12-01T09:13:56Z</time>
      </trkpt>
      <trkpt lat="46.81322" lon="6.29924">
        <ele>866.1</ele>
        <time>2022-12-01T09:14:01Z</time>
      </trkpt>
      <trkpt lat="46.81325" lon="6.2993">
        <ele>866.1</ele>
        <time>2022-12-01T09:14:05Z</time>
      </trkpt>
      <trkpt lat="46.81327" lon="6.29936">
        <ele>865.9</ele>
        <time>2022-12-01T09:14:09Z</time>
      </trkpt>
      <trkpt lat="46.81329" lon="6.29943">
        <ele>865.6</ele>
        <time>2022-12-01T09:14:14Z</time>
      </trkpt>
      <trkpt lat="46.81332" lon="6.29948">
        <ele>865.1</ele>
        <time>2022-12-01T09:14:19Z</time>
      </trkpt>
      <trkpt lat="46.81334" lon="6.29955">
        <ele>864.3</ele>
        <time>2022-12-01T09:14:24Z</time>
      </trkpt>
      <trkpt lat="46.81337" lon="6.29962">
        <ele>864.2</ele>
        <time>2022-12-01T09:14:29Z</time>
      </trkpt>
      <trkpt lat="46.81341" lon="6.29967">
        <ele>864.5</ele>
        <time>2022-12-01T09:14:33Z</time>
      </trkpt>
      <trkpt lat="46.81343" lon="6.29974">
        <ele>864.6</ele>
        <time>2022-12-01T09:14:38Z</time>
      </trkpt>
      <trkpt lat="46.81343" lon="6.29981">
        <ele>864.6</ele>
        <time>2022-12-01T09:14:43Z</time>
      </trkpt>
      <trkpt lat="46.81345" lon="6.29987">
        <ele>864.4</ele>
        <time>2022-12-01T09:14:48Z</time>
      </trkpt>
      <trkpt lat="46.81347" lon="6.29995">
        <ele>863.7</ele>
        <time>2022-12-01T09:14:53Z</time>
      </trkpt>
      <trkpt lat="46.81349" lon="6.30002">
        <ele>862.7</ele>
        <time>2022-12-01T09:14:59Z</time>
      </trkpt>
      <trkpt lat="46.81351" lon="6.30008">
        <ele>862</ele>
        <time>2022-12-01T09:15:04Z</time>
      </trkpt>
      <trkpt lat="46.81352" lon="6.30015">
        <ele>861.5</ele>
        <time>2022-12-01T09:15:09Z</time>
      </trkpt>
      <trkpt lat="46.81355" lon="6.30022">
        <ele>860.9</ele>
        <time>2022-12-01T09:15:14Z</time>
      </trkpt>
      <trkpt lat="46.81357" lon="6.30028">
        <ele>860.2</ele>
        <time>2022-12-01T09:15:18Z</time>
      </trkpt>
      <trkpt lat="46.8136" lon="6.30035">
        <ele>858.9</ele>
        <time>2022-12-01T09:15:25Z</time>
      </trkpt>
      <trkpt lat="46.81361" lon="6.30041">
        <ele>858.9</ele>
        <time>2022-12-01T09:15:30Z</time>
      </trkpt>
      <trkpt lat="46.8136" lon="6.30049">
        <ele>858.9</ele>
        <time>2022-12-01T09:15:35Z</time>
      </trkpt>
      <trkpt lat="46.81359" lon="6.30056">
        <ele>858.8</ele>
        <time>2022-12-01T09:15:40Z</time>
      </trkpt>
      <trkpt lat="46.81359" lon="6.30063">
        <ele>858.8</ele>
        <time>2022-12-01T09:15:45Z</time>
      </trkpt>
      <trkpt lat="46.81358" lon="6.30069">
        <ele>858.7</ele>
        <time>2022-12-01T09:15:50Z</time>
      </trkpt>
      <trkpt lat="46.81354" lon="6.30075">
        <ele>858.5</ele>
        <time>2022-12-01T09:15:55Z</time>
      </trkpt>
      <trkpt lat="46.81351" lon="6.30079">
        <ele>858.6</ele>
        <time>2022-12-01T09:16:00Z</time>
      </trkpt>
      <trkpt lat="46.81348" lon="6.30084">
        <ele>858.7</ele>
        <time>2022-12-01T09:16:05Z</time>
      </trkpt>
      <trkpt lat="46.81345" lon="6.3009">
        <ele>858.2</ele>
        <time>2022-12-01T09:16:10Z</time>
      </trkpt>
      <trkpt lat="46.81344" lon="6.30097">
        <ele>858</ele>
        <time>2022-12-01T09:16:14Z</time>
      </trkpt>
      <trkpt lat="46.81342" lon="6.30103">
        <ele>858.2</ele>
        <time>2022-12-01T09:16:18Z</time>
      </trkpt>
      <trkpt lat="46.81342" lon="6.3011">
        <ele>858.5</ele>
        <time>2022-12-01T09:16:23Z</time>
      </trkpt>
      <trkpt lat="46.81345" lon="6.30116">
        <ele>859</ele>
        <time>2022-12-01T09:16:28Z</time>
      </trkpt>
      <trkpt lat="46.81348" lon="6.3012">
        <ele>859.4</ele>
        <time>2022-12-01T09:16:32Z</time>
      </trkpt>
      <trkpt lat="46.81353" lon="6.30124">
        <ele>859.5</ele>
        <time>2022-12-01T09:16:37Z</time>
      </trkpt>
      <trkpt lat="46.81357" lon="6.30129">
        <ele>858.9</ele>
        <time>2022-12-01T09:16:42Z</time>
      </trkpt>
      <trkpt lat="46.8136" lon="6.30136">
        <ele>858.7</ele>
        <time>2022-12-01T09:16:47Z</time>
      </trkpt>
      <trkpt lat="46.81362" lon="6.30142">
        <ele>858.9</ele>
        <time>2022-12-01T09:16:51Z</time>
      </trkpt>
      <trkpt lat="46.81362" lon="6.3015">
        <ele>859.2</ele>
        <time>2022-12-01T09:16:56Z</time>
      </trkpt>
      <trkpt lat="46.8136" lon="6.30156">
        <ele>859.5</ele>
        <time>2022-12-01T09:17:01Z</time>
      </trkpt>
      <trkpt lat="46.81359" lon="6.30163">
        <ele>859.3</ele>
        <time>2022-12-01T09:17:06Z</time>
      </trkpt>
      <trkpt lat="46.81358" lon="6.3017">
        <ele>858.7</ele>
        <time>2022-12-01T09:17:11Z</time>
      </trkpt>
      <trkpt lat="46.81357" lon="6.30177">
        <ele>858.2</ele>
        <time>2022-12-01T09:17:16Z</time>
      </trkpt>
      <trkpt lat="46.81356" lon="6.30184">
        <ele>858.2</ele>
        <time>2022-12-01T09:17:21Z</time>
      </trkpt>
      <trkpt lat="46.81352" lon="6.30189">
        <ele>858.7</ele>
        <time>2022-12-01T09:17:26Z</time>
      </trkpt>
      <trkpt lat="46.81351" lon="6.30195">
        <ele>858.3</ele>
        <time>2022-12-01T09:17:33Z</time>
      </trkpt>
      <trkpt lat="46.81349" lon="6.30201">
        <ele>857.7</ele>
        <time>2022-12-01T09:17:38Z</time>
      </trkpt>
      <trkpt lat="46.81345" lon="6.30207">
        <ele>857.5</ele>
        <time>2022-12-01T09:17:43Z</time>
      </trkpt>
      <trkpt lat="46.81343" lon="6.30214">
        <ele>857.4</ele>
        <time>2022-12-01T09:17:49Z</time>
      </trkpt>
      <trkpt lat="46.8134" lon="6.3022">
        <ele>857.1</ele>
        <time>2022-12-01T09:17:54Z</time>
      </trkpt>
      <trkpt lat="46.81338" lon="6.30227">
        <ele>857</ele>
        <time>2022-12-01T09:17:59Z</time>
      </trkpt>
      <trkpt lat="46.81336" lon="6.30234">
        <ele>857.1</ele>
        <time>2022-12-01T09:18:04Z</time>
      </trkpt>
      <trkpt lat="46.81332" lon="6.30238">
        <ele>856.7</ele>
        <time>2022-12-01T09:18:09Z</time>
      </trkpt>
      <trkpt lat="46.81328" lon="6.30244">
        <ele>856.5</ele>
        <time>2022-12-01T09:18:14Z</time>
      </trkpt>
      <trkpt lat="46.81325" lon="6.30249">
        <ele>857</ele>
        <time>2022-12-01T09:18:19Z</time>
      </trkpt>
      <trkpt lat="46.81322" lon="6.30255">
        <ele>857.2</ele>
        <time>2022-12-01T09:18:24Z</time>
      </trkpt>
      <trkpt lat="46.81321" lon="6.30263">
        <ele>857.5</ele>
        <time>2022-12-01T09:18:30Z</time>
      </trkpt>
      <trkpt lat="46.81323" lon="6.3027">
        <ele>856.9</ele>
        <time>2022-12-01T09:18:36Z</time>
      </trkpt>
      <trkpt lat="46.81326" lon="6.30276">
        <ele>856</ele>
        <time>2022-12-01T09:18:41Z</time>
      </trkpt>
      <trkpt lat="46.8133" lon="6.30281">
        <ele>855.1</ele>
        <time>2022-12-01T09:18:46Z</time>
      </trkpt>
      <trkpt lat="46.81334" lon="6.30286">
        <ele>854.5</ele>
        <time>2022-12-01T09:18:52Z</time>
      </trkpt>
      <trkpt lat="46.81338" lon="6.30289">
        <ele>855.1</ele>
        <time>2022-12-01T09:18:57Z</time>
      </trkpt>
      <trkpt lat="46.81342" lon="6.30294">
        <ele>856.4</ele>
        <time>2022-12-01T09:19:01Z</time>
      </trkpt>
      <trkpt lat="46.81346" lon="6.30298">
        <ele>858</ele>
        <time>2022-12-01T09:19:06Z</time>
      </trkpt>
      <trkpt lat="46.8135" lon="6.30302">
        <ele>859.1</ele>
        <time>2022-12-01T09:19:11Z</time>
      </trkpt>
      <trkpt lat="46.81353" lon="6.30308">
        <ele>859.7</ele>
        <time>2022-12-01T09:19:16Z</time>
      </trkpt>
      <trkpt lat="46.81356" lon="6.30313">
        <ele>861.1</ele>
        <time>2022-12-01T09:19:21Z</time>
      </trkpt>
      <trkpt lat="46.8136" lon="6.30317">
        <ele>862.5</ele>
        <time>2022-12-01T09:19:26Z</time>
      </trkpt>
      <trkpt lat="46.81365" lon="6.30321">
        <ele>863.9</ele>
        <time>2022-12-01T09:19:32Z</time>
      </trkpt>
      <trkpt lat="46.81369" lon="6.30325">
        <ele>864.6</ele>
        <time>2022-12-01T09:19:38Z</time>
      </trkpt>
      <trkpt lat="46.81373" lon="6.30328">
        <ele>864.8</ele>
        <time>2022-12-01T09:19:42Z</time>
      </trkpt>
      <trkpt lat="46.81378" lon="6.3033">
        <ele>865.2</ele>
        <time>2022-12-01T09:19:46Z</time>
      </trkpt>
      <trkpt lat="46.81382" lon="6.30334">
        <ele>865.7</ele>
        <time>2022-12-01T09:19:51Z</time>
      </trkpt>
      <trkpt lat="46.81386" lon="6.30337">
        <ele>866</ele>
        <time>2022-12-01T09:19:56Z</time>
      </trkpt>
      <trkpt lat="46.81391" lon="6.30341">
        <ele>865.9</ele>
        <time>2022-12-01T09:20:02Z</time>
      </trkpt>
      <trkpt lat="46.81394" lon="6.30345">
        <ele>865.8</ele>
        <time>2022-12-01T09:20:07Z</time>
      </trkpt>
      <trkpt lat="46.81399" lon="6.30349">
        <ele>865.7</ele>
        <time>2022-12-01T09:20:12Z</time>
      </trkpt>
      <trkpt lat="46.81403" lon="6.30352">
        <ele>865.5</ele>
        <time>2022-12-01T09:20:17Z</time>
      </trkpt>
      <trkpt lat="46.81407" lon="6.30355">
        <ele>865.8</ele>
        <time>2022-12-01T09:20:22Z</time>
      </trkpt>
      <trkpt lat="46.81412" lon="6.30358">
        <ele>866.1</ele>
        <time>2022-12-01T09:20:27Z</time>
      </trkpt>
      <trkpt lat="46.81416" lon="6.30361">
        <ele>866.3</ele>
        <time>2022-12-01T09:20:32Z</time>
      </trkpt>
      <trkpt lat="46.8142" lon="6.30364">
        <ele>866.6</ele>
        <time>2022-12-01T09:20:37Z</time>
      </trkpt>
      <trkpt lat="46.81425" lon="6.30367">
        <ele>867.1</ele>
        <time>2022-12-01T09:20:42Z</time>
      </trkpt>
      <trkpt lat="46.81428" lon="6.30371">
        <ele>867.3</ele>
        <time>2022-12-01T09:20:48Z</time>
      </trkpt>
      <trkpt lat="46.81433" lon="6.30374">
        <ele>867.7</ele>
        <time>2022-12-01T09:20:53Z</time>
      </trkpt>
      <trkpt lat="46.81437" lon="6.30378">
        <ele>867.8</ele>
        <time>2022-12-01T09:20:58Z</time>
      </trkpt>
      <trkpt lat="46.81442" lon="6.30383">
        <ele>868</ele>
        <time>2022-12-01T09:21:04Z</time>
      </trkpt>
      <trkpt lat="46.81446" lon="6.30386">
        <ele>868.1</ele>
        <time>2022-12-01T09:21:09Z</time>
      </trkpt>
      <trkpt lat="46.8145" lon="6.30391">
        <ele>868.3</ele>
        <time>2022-12-01T09:21:15Z</time>
      </trkpt>
      <trkpt lat="46.81454" lon="6.30395">
        <ele>868.4</ele>
        <time>2022-12-01T09:21:21Z</time>
      </trkpt>
      <trkpt lat="46.81457" lon="6.304">
        <ele>869.3</ele>
        <time>2022-12-01T09:21:27Z</time>
      </trkpt>
      <trkpt lat="46.81461" lon="6.30405">
        <ele>870.2</ele>
        <time>2022-12-01T09:21:32Z</time>
      </trkpt>
      <trkpt lat="46.81464" lon="6.3041">
        <ele>871.3</ele>
        <time>2022-12-01T09:21:37Z</time>
      </trkpt>
      <trkpt lat="46.81468" lon="6.30415">
        <ele>871.8</ele>
        <time>2022-12-01T09:21:42Z</time>
      </trkpt>
      <trkpt lat="46.81471" lon="6.30421">
        <ele>872.2</ele>
        <time>2022-12-01T09:21:47Z</time>
      </trkpt>
      <trkpt lat="46.81473" lon="6.30427">
        <ele>873.1</ele>
        <time>2022-12-01T09:21:53Z</time>
      </trkpt>
      <trkpt lat="46.81476" lon="6.30431">
        <ele>873.4</ele>
        <time>2022-12-01T09:21:58Z</time>
      </trkpt>
      <trkpt lat="46.81479" lon="6.30437">
        <ele>873.2</ele>
        <time>2022-12-01T09:22:04Z</time>
      </trkpt>
      <trkpt lat="46.8148" lon="6.30444">
        <ele>872.8</ele>
        <time>2022-12-01T09:22:10Z</time>
      </trkpt>
      <trkpt lat="46.81482" lon="6.30451">
        <ele>872.7</ele>
        <time>2022-12-01T09:22:15Z</time>
      </trkpt>
      <trkpt lat="46.81486" lon="6.30456">
        <ele>873.1</ele>
        <time>2022-12-01T09:22:21Z</time>
      </trkpt>
      <trkpt lat="46.81489" lon="6.30461">
        <ele>873.8</ele>
        <time>2022-12-01T09:22:27Z</time>
      </trkpt>
      <trkpt lat="46.81492" lon="6.30468">
        <ele>874</ele>
        <time>2022-12-01T09:22:33Z</time>
      </trkpt>
      <trkpt lat="46.81495" lon="6.30474">
        <ele>874.1</ele>
        <time>2022-12-01T09:22:38Z</time>
      </trkpt>
      <trkpt lat="46.81499" lon="6.30479">
        <ele>874.1</ele>
        <time>2022-12-01T09:22:44Z</time>
      </trkpt>
      <trkpt lat="46.81503" lon="6.30483">
        <ele>874.7</ele>
        <time>2022-12-01T09:22:50Z</time>
      </trkpt>
      <trkpt lat="46.81507" lon="6.30488">
        <ele>875.3</ele>
        <time>2022-12-01T09:22:55Z</time>
      </trkpt>
      <trkpt lat="46.81511" lon="6.30493">
        <ele>875.8</ele>
        <time>2022-12-01T09:22:59Z</time>
      </trkpt>
      <trkpt lat="46.81514" lon="6.30498">
        <ele>876.2</ele>
        <time>2022-12-01T09:23:03Z</time>
      </trkpt>
      <trkpt lat="46.81517" lon="6.30504">
        <ele>876.2</ele>
        <time>2022-12-01T09:23:08Z</time>
      </trkpt>
      <trkpt lat="46.8152" lon="6.30509">
        <ele>876.1</ele>
        <time>2022-12-01T09:23:14Z</time>
      </trkpt>
      <trkpt lat="46.81525" lon="6.30514">
        <ele>875.9</ele>
        <time>2022-12-01T09:23:19Z</time>
      </trkpt>
      <trkpt lat="46.81529" lon="6.30519">
        <ele>875.7</ele>
        <time>2022-12-01T09:23:24Z</time>
      </trkpt>
      <trkpt lat="46.81533" lon="6.30523">
        <ele>875.8</ele>
        <time>2022-12-01T09:23:28Z</time>
      </trkpt>
      <trkpt lat="46.81537" lon="6.30527">
        <ele>875.9</ele>
        <time>2022-12-01T09:23:32Z</time>
      </trkpt>
      <trkpt lat="46.8154" lon="6.30531">
        <ele>876.2</ele>
        <time>2022-12-01T09:23:36Z</time>
      </trkpt>
      <trkpt lat="46.81545" lon="6.30537">
        <ele>876.9</ele>
        <time>2022-12-01T09:23:41Z</time>
      </trkpt>
      <trkpt lat="46.81548" lon="6.30541">
        <ele>877.2</ele>
        <time>2022-12-01T09:23:45Z</time>
      </trkpt>
      <trkpt lat="46.81552" lon="6.30546">
        <ele>877.6</ele>
        <time>2022-12-01T09:23:50Z</time>
      </trkpt>
      <trkpt lat="46.81556" lon="6.30551">
        <ele>878.2</ele>
        <time>2022-12-01T09:23:55Z</time>
      </trkpt>
      <trkpt lat="46.8156" lon="6.30557">
        <ele>878.7</ele>
        <time>2022-12-01T09:24:00Z</time>
      </trkpt>
      <trkpt lat="46.81564" lon="6.30561">
        <ele>879</ele>
        <time>2022-12-01T09:24:04Z</time>
      </trkpt>
      <trkpt lat="46.81567" lon="6.30566">
        <ele>879.1</ele>
        <time>2022-12-01T09:24:08Z</time>
      </trkpt>
      <trkpt lat="46.81572" lon="6.30571">
        <ele>879</ele>
        <time>2022-12-01T09:24:13Z</time>
      </trkpt>
      <trkpt lat="46.81575" lon="6.30577">
        <ele>878.7</ele>
        <time>2022-12-01T09:24:18Z</time>
      </trkpt>
      <trkpt lat="46.81579" lon="6.30582">
        <ele>878</ele>
        <time>2022-12-01T09:24:23Z</time>
      </trkpt>
      <trkpt lat="46.81583" lon="6.30587">
        <ele>877.7</ele>
        <time>2022-12-01T09:24:27Z</time>
      </trkpt>
      <trkpt lat="46.81587" lon="6.30591">
        <ele>877.8</ele>
        <time>2022-12-01T09:24:31Z</time>
      </trkpt>
      <trkpt lat="46.81589" lon="6.30597">
        <ele>877.8</ele>
        <time>2022-12-01T09:24:35Z</time>
      </trkpt>
      <trkpt lat="46.81592" lon="6.30602">
        <ele>877.9</ele>
        <time>2022-12-01T09:24:39Z</time>
      </trkpt>
      <trkpt lat="46.81597" lon="6.30607">
        <ele>878.1</ele>
        <time>2022-12-01T09:24:44Z</time>
      </trkpt>
      <trkpt lat="46.81601" lon="6.30612">
        <ele>878.2</ele>
        <time>2022-12-01T09:24:49Z</time>
      </trkpt>
      <trkpt lat="46.81604" lon="6.30616">
        <ele>878.1</ele>
        <time>2022-12-01T09:24:53Z</time>
      </trkpt>
      <trkpt lat="46.81608" lon="6.30621">
        <ele>877.8</ele>
        <time>2022-12-01T09:24:58Z</time>
      </trkpt>
      <trkpt lat="46.81612" lon="6.30626">
        <ele>877.5</ele>
        <time>2022-12-01T09:25:03Z</time>
      </trkpt>
      <trkpt lat="46.81616" lon="6.30631">
        <ele>877.3</ele>
        <time>2022-12-01T09:25:08Z</time>
      </trkpt>
      <trkpt lat="46.81619" lon="6.30636">
        <ele>877.3</ele>
        <time>2022-12-01T09:25:12Z</time>
      </trkpt>
      <trkpt lat="46.81623" lon="6.3064">
        <ele>876.9</ele>
        <time>2022-12-01T09:25:16Z</time>
      </trkpt>
      <trkpt lat="46.81627" lon="6.30644">
        <ele>876.8</ele>
        <time>2022-12-01T09:25:20Z</time>
      </trkpt>
      <trkpt lat="46.81631" lon="6.30647">
        <ele>876.8</ele>
        <time>2022-12-01T09:25:24Z</time>
      </trkpt>
      <trkpt lat="46.81634" lon="6.30652">
        <ele>876.7</ele>
        <time>2022-12-01T09:25:28Z</time>
      </trkpt>
      <trkpt lat="46.81638" lon="6.30656">
        <ele>876.5</ele>
        <time>2022-12-01T09:25:33Z</time>
      </trkpt>
      <trkpt lat="46.81641" lon="6.30661">
        <ele>876.6</ele>
        <time>2022-12-01T09:25:37Z</time>
      </trkpt>
      <trkpt lat="46.81645" lon="6.30666">
        <ele>876.6</ele>
        <time>2022-12-01T09:25:41Z</time>
      </trkpt>
      <trkpt lat="46.81649" lon="6.3067">
        <ele>876.4</ele>
        <time>2022-12-01T09:25:45Z</time>
      </trkpt>
      <trkpt lat="46.81654" lon="6.30675">
        <ele>875.7</ele>
        <time>2022-12-01T09:25:50Z</time>
      </trkpt>
      <trkpt lat="46.81658" lon="6.30678">
        <ele>875.4</ele>
        <time>2022-12-01T09:25:56Z</time>
      </trkpt>
      <trkpt lat="46.81662" lon="6.30683">
        <ele>875.1</ele>
        <time>2022-12-01T09:26:04Z</time>
      </trkpt>
      <trkpt lat="46.81666" lon="6.30687">
        <ele>874.8</ele>
        <time>2022-12-01T09:26:09Z</time>
      </trkpt>
      <trkpt lat="46.81671" lon="6.30691">
        <ele>874.5</ele>
        <time>2022-12-01T09:26:13Z</time>
      </trkpt>
      <trkpt lat="46.81674" lon="6.30696">
        <ele>874.1</ele>
        <time>2022-12-01T09:26:17Z</time>
      </trkpt>
      <trkpt lat="46.81679" lon="6.307">
        <ele>873.7</ele>
        <time>2022-12-01T09:26:22Z</time>
      </trkpt>
      <trkpt lat="46.81684" lon="6.30703">
        <ele>873.5</ele>
        <time>2022-12-01T09:26:27Z</time>
      </trkpt>
      <trkpt lat="46.81688" lon="6.30706">
        <ele>873.8</ele>
        <time>2022-12-01T09:26:31Z</time>
      </trkpt>
      <trkpt lat="46.81692" lon="6.30711">
        <ele>874.3</ele>
        <time>2022-12-01T09:26:36Z</time>
      </trkpt>
      <trkpt lat="46.81696" lon="6.30714">
        <ele>874.8</ele>
        <time>2022-12-01T09:26:40Z</time>
      </trkpt>
      <trkpt lat="46.817" lon="6.30718">
        <ele>875.5</ele>
        <time>2022-12-01T09:26:45Z</time>
      </trkpt>
      <trkpt lat="46.81705" lon="6.30721">
        <ele>875.4</ele>
        <time>2022-12-01T09:26:49Z</time>
      </trkpt>
      <trkpt lat="46.8171" lon="6.30724">
        <ele>875.2</ele>
        <time>2022-12-01T09:26:54Z</time>
      </trkpt>
      <trkpt lat="46.81714" lon="6.30727">
        <ele>875.1</ele>
        <time>2022-12-01T09:26:58Z</time>
      </trkpt>
      <trkpt lat="46.81719" lon="6.30731">
        <ele>875.1</ele>
        <time>2022-12-01T09:27:03Z</time>
      </trkpt>
      <trkpt lat="46.81723" lon="6.30734">
        <ele>875</ele>
        <time>2022-12-01T09:27:08Z</time>
      </trkpt>
      <trkpt lat="46.81728" lon="6.30739">
        <ele>874.9</ele>
        <time>2022-12-01T09:27:13Z</time>
      </trkpt>
      <trkpt lat="46.81732" lon="6.30742">
        <ele>874.9</ele>
        <time>2022-12-01T09:27:17Z</time>
      </trkpt>
      <trkpt lat="46.81737" lon="6.30745">
        <ele>875.2</ele>
        <time>2022-12-01T09:27:21Z</time>
      </trkpt>
      <trkpt lat="46.81741" lon="6.30748">
        <ele>875.3</ele>
        <time>2022-12-01T09:27:26Z</time>
      </trkpt>
      <trkpt lat="46.81745" lon="6.30751">
        <ele>875</ele>
        <time>2022-12-01T09:27:30Z</time>
      </trkpt>
      <trkpt lat="46.8175" lon="6.30755">
        <ele>874.3</ele>
        <time>2022-12-01T09:27:35Z</time>
      </trkpt>
      <trkpt lat="46.81754" lon="6.30758">
        <ele>873.9</ele>
        <time>2022-12-01T09:27:39Z</time>
      </trkpt>
      <trkpt lat="46.81759" lon="6.30762">
        <ele>873.7</ele>
        <time>2022-12-01T09:27:44Z</time>
      </trkpt>
      <trkpt lat="46.81764" lon="6.30766">
        <ele>873.7</ele>
        <time>2022-12-01T09:27:49Z</time>
      </trkpt>
      <trkpt lat="46.81769" lon="6.30769">
        <ele>873.8</ele>
        <time>2022-12-01T09:27:53Z</time>
      </trkpt>
      <trkpt lat="46.81773" lon="6.30773">
        <ele>874</ele>
        <time>2022-12-01T09:27:58Z</time>
      </trkpt>
      <trkpt lat="46.81778" lon="6.30776">
        <ele>873.7</ele>
        <time>2022-12-01T09:28:03Z</time>
      </trkpt>
      <trkpt lat="46.81783" lon="6.30779">
        <ele>873.7</ele>
        <time>2022-12-01T09:28:08Z</time>
      </trkpt>
      <trkpt lat="46.81788" lon="6.30782">
        <ele>873.8</ele>
        <time>2022-12-01T09:28:13Z</time>
      </trkpt>
      <trkpt lat="46.81792" lon="6.30784">
        <ele>874.1</ele>
        <time>2022-12-01T09:28:17Z</time>
      </trkpt>
      <trkpt lat="46.81797" lon="6.30784">
        <ele>874.5</ele>
        <time>2022-12-01T09:28:21Z</time>
      </trkpt>
      <trkpt lat="46.81802" lon="6.30784">
        <ele>874.8</ele>
        <time>2022-12-01T09:28:25Z</time>
      </trkpt>
      <trkpt lat="46.81807" lon="6.30784">
        <ele>874.9</ele>
        <time>2022-12-01T09:28:30Z</time>
      </trkpt>
      <trkpt lat="46.81812" lon="6.30784">
        <ele>874.9</ele>
        <time>2022-12-01T09:28:35Z</time>
      </trkpt>
      <trkpt lat="46.81818" lon="6.30783">
        <ele>875.5</ele>
        <time>2022-12-01T09:28:40Z</time>
      </trkpt>
      <trkpt lat="46.81823" lon="6.30782">
        <ele>876.1</ele>
        <time>2022-12-01T09:28:45Z</time>
      </trkpt>
      <trkpt lat="46.81827" lon="6.30781">
        <ele>876.2</ele>
        <time>2022-12-01T09:28:49Z</time>
      </trkpt>
      <trkpt lat="46.81831" lon="6.30779">
        <ele>876.4</ele>
        <time>2022-12-01T09:28:53Z</time>
      </trkpt>
      <trkpt lat="46.81836" lon="6.30778">
        <ele>876.6</ele>
        <time>2022-12-01T09:28:57Z</time>
      </trkpt>
      <trkpt lat="46.81841" lon="6.30776">
        <ele>876.6</ele>
        <time>2022-12-01T09:29:01Z</time>
      </trkpt>
      <trkpt lat="46.81846" lon="6.30773">
        <ele>876.6</ele>
        <time>2022-12-01T09:29:06Z</time>
      </trkpt>
      <trkpt lat="46.8185" lon="6.30771">
        <ele>876.6</ele>
        <time>2022-12-01T09:29:10Z</time>
      </trkpt>
      <trkpt lat="46.81855" lon="6.30772">
        <ele>876.6</ele>
        <time>2022-12-01T09:29:16Z</time>
      </trkpt>
      <trkpt lat="46.81859" lon="6.30778">
        <ele>876</ele>
        <time>2022-12-01T09:29:22Z</time>
      </trkpt>
      <trkpt lat="46.8186" lon="6.30784">
        <ele>875.8</ele>
        <time>2022-12-01T09:29:27Z</time>
      </trkpt>
      <trkpt lat="46.81861" lon="6.30791">
        <ele>875.8</ele>
        <time>2022-12-01T09:29:32Z</time>
      </trkpt>
      <trkpt lat="46.81862" lon="6.30799">
        <ele>876.1</ele>
        <time>2022-12-01T09:29:37Z</time>
      </trkpt>
      <trkpt lat="46.81863" lon="6.30806">
        <ele>876.2</ele>
        <time>2022-12-01T09:29:42Z</time>
      </trkpt>
      <trkpt lat="46.81864" lon="6.30813">
        <ele>876.7</ele>
        <time>2022-12-01T09:29:47Z</time>
      </trkpt>
      <trkpt lat="46.81864" lon="6.30821">
        <ele>876.8</ele>
        <time>2022-12-01T09:29:52Z</time>
      </trkpt>
      <trkpt lat="46.81864" lon="6.30828">
        <ele>877</ele>
        <time>2022-12-01T09:29:56Z</time>
      </trkpt>
      <trkpt lat="46.81864" lon="6.30834">
        <ele>877.2</ele>
        <time>2022-12-01T09:30:00Z</time>
      </trkpt>
      <trkpt lat="46.81866" lon="6.30841">
        <ele>877.3</ele>
        <time>2022-12-01T09:30:05Z</time>
      </trkpt>
      <trkpt lat="46.81867" lon="6.30848">
        <ele>877</ele>
        <time>2022-12-01T09:30:10Z</time>
      </trkpt>
      <trkpt lat="46.81868" lon="6.30855">
        <ele>876.8</ele>
        <time>2022-12-01T09:30:15Z</time>
      </trkpt>
      <trkpt lat="46.81869" lon="6.30862">
        <ele>876.1</ele>
        <time>2022-12-01T09:30:20Z</time>
      </trkpt>
      <trkpt lat="46.8187" lon="6.3087">
        <ele>875.5</ele>
        <time>2022-12-01T09:30:25Z</time>
      </trkpt>
      <trkpt lat="46.81871" lon="6.30876">
        <ele>875</ele>
        <time>2022-12-01T09:30:29Z</time>
      </trkpt>
      <trkpt lat="46.81873" lon="6.30884">
        <ele>874.6</ele>
        <time>2022-12-01T09:30:34Z</time>
      </trkpt>
      <trkpt lat="46.81874" lon="6.3089">
        <ele>874.6</ele>
        <time>2022-12-01T09:30:38Z</time>
      </trkpt>
      <trkpt lat="46.81876" lon="6.30896">
        <ele>875</ele>
        <time>2022-12-01T09:30:42Z</time>
      </trkpt>
      <trkpt lat="46.81878" lon="6.30902">
        <ele>875.4</ele>
        <time>2022-12-01T09:30:47Z</time>
      </trkpt>
      <trkpt lat="46.81882" lon="6.30908">
        <ele>875.8</ele>
        <time>2022-12-01T09:30:52Z</time>
      </trkpt>
      <trkpt lat="46.81884" lon="6.30915">
        <ele>875.9</ele>
        <time>2022-12-01T09:30:57Z</time>
      </trkpt>
      <trkpt lat="46.81887" lon="6.30921">
        <ele>876.2</ele>
        <time>2022-12-01T09:31:02Z</time>
      </trkpt>
      <trkpt lat="46.8189" lon="6.30927">
        <ele>876.3</ele>
        <time>2022-12-01T09:31:06Z</time>
      </trkpt>
      <trkpt lat="46.81893" lon="6.30933">
        <ele>876.3</ele>
        <time>2022-12-01T09:31:10Z</time>
      </trkpt>
      <trkpt lat="46.81896" lon="6.30938">
        <ele>876.3</ele>
        <time>2022-12-01T09:31:14Z</time>
      </trkpt>
      <trkpt lat="46.81899" lon="6.30944">
        <ele>876.3</ele>
        <time>2022-12-01T09:31:19Z</time>
      </trkpt>
      <trkpt lat="46.81903" lon="6.3095">
        <ele>876.1</ele>
        <time>2022-12-01T09:31:24Z</time>
      </trkpt>
      <trkpt lat="46.81905" lon="6.30956">
        <ele>876</ele>
        <time>2022-12-01T09:31:28Z</time>
      </trkpt>
      <trkpt lat="46.81909" lon="6.30962">
        <ele>876</ele>
        <time>2022-12-01T09:31:33Z</time>
      </trkpt>
      <trkpt lat="46.81912" lon="6.30967">
        <ele>876.1</ele>
        <time>2022-12-01T09:31:38Z</time>
      </trkpt>
      <trkpt lat="46.81916" lon="6.30972">
        <ele>875.7</ele>
        <time>2022-12-01T09:31:43Z</time>
      </trkpt>
      <trkpt lat="46.81922" lon="6.30975">
        <ele>875.3</ele>
        <time>2022-12-01T09:31:48Z</time>
      </trkpt>
      <trkpt lat="46.81925" lon="6.3098">
        <ele>875.9</ele>
        <time>2022-12-01T09:32:33Z</time>
      </trkpt>
      <trkpt lat="46.81928" lon="6.30985">
        <ele>875.8</ele>
        <time>2022-12-01T09:32:37Z</time>
      </trkpt>
      <trkpt lat="46.81931" lon="6.3099">
        <ele>875.9</ele>
        <time>2022-12-01T09:32:40Z</time>
      </trkpt>
      <trkpt lat="46.81935" lon="6.30994">
        <ele>876.1</ele>
        <time>2022-12-01T09:32:43Z</time>
      </trkpt>
      <trkpt lat="46.81939" lon="6.30999">
        <ele>875.7</ele>
        <time>2022-12-01T09:32:47Z</time>
      </trkpt>
      <trkpt lat="46.81942" lon="6.31005">
        <ele>874.9</ele>
        <time>2022-12-01T09:32:51Z</time>
      </trkpt>
      <trkpt lat="46.81946" lon="6.31011">
        <ele>874.3</ele>
        <time>2022-12-01T09:32:55Z</time>
      </trkpt>
      <trkpt lat="46.8195" lon="6.31017">
        <ele>874.5</ele>
        <time>2022-12-01T09:32:59Z</time>
      </trkpt>
      <trkpt lat="46.81953" lon="6.31023">
        <ele>875</ele>
        <time>2022-12-01T09:33:03Z</time>
      </trkpt>
      <trkpt lat="46.81957" lon="6.31029">
        <ele>875.2</ele>
        <time>2022-12-01T09:33:07Z</time>
      </trkpt>
      <trkpt lat="46.81961" lon="6.31034">
        <ele>874.9</ele>
        <time>2022-12-01T09:33:11Z</time>
      </trkpt>
      <trkpt lat="46.81965" lon="6.3104">
        <ele>875</ele>
        <time>2022-12-01T09:33:15Z</time>
      </trkpt>
      <trkpt lat="46.81968" lon="6.31045">
        <ele>875.2</ele>
        <time>2022-12-01T09:33:18Z</time>
      </trkpt>
      <trkpt lat="46.81973" lon="6.31051">
        <ele>875.7</ele>
        <time>2022-12-01T09:33:22Z</time>
      </trkpt>
      <trkpt lat="46.81977" lon="6.31056">
        <ele>876.3</ele>
        <time>2022-12-01T09:33:26Z</time>
      </trkpt>
      <trkpt lat="46.81982" lon="6.31062">
        <ele>876.6</ele>
        <time>2022-12-01T09:33:30Z</time>
      </trkpt>
      <trkpt lat="46.81986" lon="6.31068">
        <ele>876.6</ele>
        <time>2022-12-01T09:33:34Z</time>
      </trkpt>
      <trkpt lat="46.81991" lon="6.31072">
        <ele>876.8</ele>
        <time>2022-12-01T09:33:38Z</time>
      </trkpt>
      <trkpt lat="46.81995" lon="6.31076">
        <ele>876.6</ele>
        <time>2022-12-01T09:33:42Z</time>
      </trkpt>
      <trkpt lat="46.82001" lon="6.3108">
        <ele>876.4</ele>
        <time>2022-12-01T09:33:46Z</time>
      </trkpt>
      <trkpt lat="46.82006" lon="6.31082">
        <ele>875.9</ele>
        <time>2022-12-01T09:33:50Z</time>
      </trkpt>
      <trkpt lat="46.82011" lon="6.31086">
        <ele>875.4</ele>
        <time>2022-12-01T09:33:54Z</time>
      </trkpt>
      <trkpt lat="46.82016" lon="6.3109">
        <ele>875.1</ele>
        <time>2022-12-01T09:33:58Z</time>
      </trkpt>
      <trkpt lat="46.82021" lon="6.31093">
        <ele>875</ele>
        <time>2022-12-01T09:34:01Z</time>
      </trkpt>
      <trkpt lat="46.82026" lon="6.31097">
        <ele>875.2</ele>
        <time>2022-12-01T09:34:05Z</time>
      </trkpt>
      <trkpt lat="46.82031" lon="6.311">
        <ele>875.2</ele>
        <time>2022-12-01T09:34:09Z</time>
      </trkpt>
      <trkpt lat="46.82037" lon="6.31103">
        <ele>874.9</ele>
        <time>2022-12-01T09:34:13Z</time>
      </trkpt>
      <trkpt lat="46.82041" lon="6.31106">
        <ele>874.4</ele>
        <time>2022-12-01T09:34:17Z</time>
      </trkpt>
      <trkpt lat="46.82046" lon="6.3111">
        <ele>873.7</ele>
        <time>2022-12-01T09:34:21Z</time>
      </trkpt>
      <trkpt lat="46.82051" lon="6.31113">
        <ele>873.4</ele>
        <time>2022-12-01T09:34:25Z</time>
      </trkpt>
      <trkpt lat="46.82056" lon="6.31116">
        <ele>873.6</ele>
        <time>2022-12-01T09:34:29Z</time>
      </trkpt>
      <trkpt lat="46.82061" lon="6.31119">
        <ele>874.2</ele>
        <time>2022-12-01T09:34:33Z</time>
      </trkpt>
      <trkpt lat="46.82065" lon="6.31122">
        <ele>874.5</ele>
        <time>2022-12-01T09:34:37Z</time>
      </trkpt>
      <trkpt lat="46.8207" lon="6.31124">
        <ele>874.2</ele>
        <time>2022-12-01T09:34:42Z</time>
      </trkpt>
      <trkpt lat="46.82075" lon="6.31126">
        <ele>874</ele>
        <time>2022-12-01T09:34:47Z</time>
      </trkpt>
      <trkpt lat="46.8208" lon="6.31129">
        <ele>874.5</ele>
        <time>2022-12-01T09:34:52Z</time>
      </trkpt>
      <trkpt lat="46.82086" lon="6.3113">
        <ele>874.4</ele>
        <time>2022-12-01T09:34:57Z</time>
      </trkpt>
      <trkpt lat="46.82091" lon="6.31131">
        <ele>873.3</ele>
        <time>2022-12-01T09:35:01Z</time>
      </trkpt>
      <trkpt lat="46.82096" lon="6.31131">
        <ele>872</ele>
        <time>2022-12-01T09:35:05Z</time>
      </trkpt>
      <trkpt lat="46.821" lon="6.3113">
        <ele>871.5</ele>
        <time>2022-12-01T09:35:08Z</time>
      </trkpt>
      <trkpt lat="46.82106" lon="6.31131">
        <ele>871.6</ele>
        <time>2022-12-01T09:35:12Z</time>
      </trkpt>
      <trkpt lat="46.82112" lon="6.31131">
        <ele>872.2</ele>
        <time>2022-12-01T09:35:16Z</time>
      </trkpt>
      <trkpt lat="46.82117" lon="6.31131">
        <ele>873.3</ele>
        <time>2022-12-01T09:35:20Z</time>
      </trkpt>
      <trkpt lat="46.82122" lon="6.3113">
        <ele>873.4</ele>
        <time>2022-12-01T09:35:26Z</time>
      </trkpt>
      <trkpt lat="46.82127" lon="6.3113">
        <ele>872.8</ele>
        <time>2022-12-01T09:35:31Z</time>
      </trkpt>
      <trkpt lat="46.82132" lon="6.31131">
        <ele>872.3</ele>
        <time>2022-12-01T09:35:36Z</time>
      </trkpt>
      <trkpt lat="46.82138" lon="6.31131">
        <ele>871.9</ele>
        <time>2022-12-01T09:35:41Z</time>
      </trkpt>
      <trkpt lat="46.82143" lon="6.3113">
        <ele>872.2</ele>
        <time>2022-12-01T09:35:46Z</time>
      </trkpt>
      <trkpt lat="46.82147" lon="6.31129">
        <ele>872.8</ele>
        <time>2022-12-01T09:35:50Z</time>
      </trkpt>
      <trkpt lat="46.82152" lon="6.31128">
        <ele>873</ele>
        <time>2022-12-01T09:35:55Z</time>
      </trkpt>
      <trkpt lat="46.82158" lon="6.31127">
        <ele>873</ele>
        <time>2022-12-01T09:36:00Z</time>
      </trkpt>
      <trkpt lat="46.82163" lon="6.31127">
        <ele>873.4</ele>
        <time>2022-12-01T09:36:05Z</time>
      </trkpt>
      <trkpt lat="46.82168" lon="6.31126">
        <ele>873.7</ele>
        <time>2022-12-01T09:36:10Z</time>
      </trkpt>
      <trkpt lat="46.82173" lon="6.31126">
        <ele>873.6</ele>
        <time>2022-12-01T09:36:15Z</time>
      </trkpt>
      <trkpt lat="46.82177" lon="6.31125">
        <ele>873.2</ele>
        <time>2022-12-01T09:36:19Z</time>
      </trkpt>
      <trkpt lat="46.82182" lon="6.31122">
        <ele>872.9</ele>
        <time>2022-12-01T09:36:24Z</time>
      </trkpt>
      <trkpt lat="46.82187" lon="6.31121">
        <ele>873.5</ele>
        <time>2022-12-01T09:36:28Z</time>
      </trkpt>
      <trkpt lat="46.82192" lon="6.31119">
        <ele>874.5</ele>
        <time>2022-12-01T09:36:33Z</time>
      </trkpt>
      <trkpt lat="46.82196" lon="6.31117">
        <ele>874.9</ele>
        <time>2022-12-01T09:36:39Z</time>
      </trkpt>
      <trkpt lat="46.822" lon="6.31113">
        <ele>874.8</ele>
        <time>2022-12-01T09:36:44Z</time>
      </trkpt>
      <trkpt lat="46.82205" lon="6.31109">
        <ele>875</ele>
        <time>2022-12-01T09:36:51Z</time>
      </trkpt>
      <trkpt lat="46.82209" lon="6.31106">
        <ele>874.4</ele>
        <time>2022-12-01T09:36:56Z</time>
      </trkpt>
      <trkpt lat="46.82213" lon="6.31102">
        <ele>873.9</ele>
        <time>2022-12-01T09:37:01Z</time>
      </trkpt>
      <trkpt lat="46.82217" lon="6.31097">
        <ele>873.7</ele>
        <time>2022-12-01T09:37:07Z</time>
      </trkpt>
      <trkpt lat="46.82221" lon="6.31091">
        <ele>873.5</ele>
        <time>2022-12-01T09:37:12Z</time>
      </trkpt>
      <trkpt lat="46.82224" lon="6.31085">
        <ele>873.3</ele>
        <time>2022-12-01T09:37:18Z</time>
      </trkpt>
      <trkpt lat="46.82227" lon="6.3108">
        <ele>873.2</ele>
        <time>2022-12-01T09:37:23Z</time>
      </trkpt>
      <trkpt lat="46.82231" lon="6.31076">
        <ele>872.9</ele>
        <time>2022-12-01T09:37:27Z</time>
      </trkpt>
      <trkpt lat="46.82234" lon="6.3107">
        <ele>872.7</ele>
        <time>2022-12-01T09:37:31Z</time>
      </trkpt>
      <trkpt lat="46.82237" lon="6.31064">
        <ele>872.9</ele>
        <time>2022-12-01T09:37:36Z</time>
      </trkpt>
      <trkpt lat="46.8224" lon="6.31059">
        <ele>873.7</ele>
        <time>2022-12-01T09:37:40Z</time>
      </trkpt>
      <trkpt lat="46.82245" lon="6.31054">
        <ele>874.7</ele>
        <time>2022-12-01T09:37:45Z</time>
      </trkpt>
      <trkpt lat="46.82248" lon="6.31049">
        <ele>875.6</ele>
        <time>2022-12-01T09:37:50Z</time>
      </trkpt>
      <trkpt lat="46.82251" lon="6.31044">
        <ele>875.1</ele>
        <time>2022-12-01T09:37:59Z</time>
      </trkpt>
      <trkpt lat="46.82254" lon="6.31038">
        <ele>874.7</ele>
        <time>2022-12-01T09:38:04Z</time>
      </trkpt>
      <trkpt lat="46.82257" lon="6.31032">
        <ele>874.9</ele>
        <time>2022-12-01T09:38:09Z</time>
      </trkpt>
      <trkpt lat="46.82261" lon="6.31026">
        <ele>875</ele>
        <time>2022-12-01T09:38:14Z</time>
      </trkpt>
      <trkpt lat="46.82264" lon="6.3102">
        <ele>875.1</ele>
        <time>2022-12-01T09:38:19Z</time>
      </trkpt>
      <trkpt lat="46.82266" lon="6.31013">
        <ele>875</ele>
        <time>2022-12-01T09:38:23Z</time>
      </trkpt>
      <trkpt lat="46.82269" lon="6.31007">
        <ele>875</ele>
        <time>2022-12-01T09:38:27Z</time>
      </trkpt>
      <trkpt lat="46.82272" lon="6.31002">
        <ele>875.2</ele>
        <time>2022-12-01T09:38:32Z</time>
      </trkpt>
      <trkpt lat="46.82275" lon="6.30997">
        <ele>875.3</ele>
        <time>2022-12-01T09:38:37Z</time>
      </trkpt>
      <trkpt lat="46.82278" lon="6.30991">
        <ele>875.7</ele>
        <time>2022-12-01T09:38:41Z</time>
      </trkpt>
      <trkpt lat="46.82281" lon="6.30985">
        <ele>876</ele>
        <time>2022-12-01T09:38:45Z</time>
      </trkpt>
      <trkpt lat="46.82284" lon="6.30978">
        <ele>876.4</ele>
        <time>2022-12-01T09:38:50Z</time>
      </trkpt>
      <trkpt lat="46.82286" lon="6.30971">
        <ele>876.4</ele>
        <time>2022-12-01T09:38:54Z</time>
      </trkpt>
      <trkpt lat="46.82288" lon="6.30964">
        <ele>876.1</ele>
        <time>2022-12-01T09:38:59Z</time>
      </trkpt>
      <trkpt lat="46.82291" lon="6.30958">
        <ele>875.9</ele>
        <time>2022-12-01T09:39:04Z</time>
      </trkpt>
      <trkpt lat="46.82294" lon="6.30952">
        <ele>876.1</ele>
        <time>2022-12-01T09:39:08Z</time>
      </trkpt>
      <trkpt lat="46.82296" lon="6.30946">
        <ele>876.7</ele>
        <time>2022-12-01T09:39:12Z</time>
      </trkpt>
      <trkpt lat="46.82298" lon="6.3094">
        <ele>877.4</ele>
        <time>2022-12-01T09:39:16Z</time>
      </trkpt>
      <trkpt lat="46.82301" lon="6.30934">
        <ele>877.2</ele>
        <time>2022-12-01T09:39:21Z</time>
      </trkpt>
      <trkpt lat="46.82304" lon="6.30928">
        <ele>877</ele>
        <time>2022-12-01T09:39:26Z</time>
      </trkpt>
      <trkpt lat="46.82306" lon="6.3092">
        <ele>877</ele>
        <time>2022-12-01T09:39:31Z</time>
      </trkpt>
      <trkpt lat="46.82308" lon="6.30914">
        <ele>877.1</ele>
        <time>2022-12-01T09:39:35Z</time>
      </trkpt>
      <trkpt lat="46.82309" lon="6.30908">
        <ele>877.3</ele>
        <time>2022-12-01T09:39:39Z</time>
      </trkpt>
      <trkpt lat="46.82311" lon="6.30901">
        <ele>877.5</ele>
        <time>2022-12-01T09:39:43Z</time>
      </trkpt>
      <trkpt lat="46.82313" lon="6.30894">
        <ele>877.7</ele>
        <time>2022-12-01T09:39:47Z</time>
      </trkpt>
      <trkpt lat="46.82314" lon="6.30886">
        <ele>877.7</ele>
        <time>2022-12-01T09:39:51Z</time>
      </trkpt>
      <trkpt lat="46.82317" lon="6.3088">
        <ele>877.8</ele>
        <time>2022-12-01T09:39:55Z</time>
      </trkpt>
      <trkpt lat="46.82319" lon="6.30874">
        <ele>878</ele>
        <time>2022-12-01T09:40:00Z</time>
      </trkpt>
      <trkpt lat="46.82321" lon="6.30868">
        <ele>878.6</ele>
        <time>2022-12-01T09:40:05Z</time>
      </trkpt>
      <trkpt lat="46.82324" lon="6.30861">
        <ele>879.6</ele>
        <time>2022-12-01T09:40:10Z</time>
      </trkpt>
      <trkpt lat="46.82325" lon="6.30854">
        <ele>880.5</ele>
        <time>2022-12-01T09:40:14Z</time>
      </trkpt>
      <trkpt lat="46.82326" lon="6.30847">
        <ele>881</ele>
        <time>2022-12-01T09:40:18Z</time>
      </trkpt>
      <trkpt lat="46.82328" lon="6.3084">
        <ele>881.9</ele>
        <time>2022-12-01T09:40:24Z</time>
      </trkpt>
      <trkpt lat="46.8233" lon="6.30834">
        <ele>882.2</ele>
        <time>2022-12-01T09:40:32Z</time>
      </trkpt>
      <trkpt lat="46.82335" lon="6.30835">
        <ele>880.4</ele>
        <time>2022-12-01T09:41:59Z</time>
      </trkpt>
      <trkpt lat="46.8234" lon="6.30834">
        <ele>880</ele>
        <time>2022-12-01T09:42:05Z</time>
      </trkpt>
      <trkpt lat="46.82344" lon="6.30836">
        <ele>880.3</ele>
        <time>2022-12-01T09:42:12Z</time>
      </trkpt>
      <trkpt lat="46.82349" lon="6.30838">
        <ele>881.3</ele>
        <time>2022-12-01T09:42:18Z</time>
      </trkpt>
      <trkpt lat="46.82354" lon="6.30841">
        <ele>882.2</ele>
        <time>2022-12-01T09:42:24Z</time>
      </trkpt>
      <trkpt lat="46.82358" lon="6.30844">
        <ele>882.8</ele>
        <time>2022-12-01T09:42:31Z</time>
      </trkpt>
      <trkpt lat="46.82362" lon="6.30848">
        <ele>882.6</ele>
        <time>2022-12-01T09:42:37Z</time>
      </trkpt>
      <trkpt lat="46.82365" lon="6.30853">
        <ele>882.5</ele>
        <time>2022-12-01T09:42:44Z</time>
      </trkpt>
      <trkpt lat="46.82369" lon="6.30856">
        <ele>882.1</ele>
        <time>2022-12-01T09:42:50Z</time>
      </trkpt>
      <trkpt lat="46.82374" lon="6.30859">
        <ele>880.7</ele>
        <time>2022-12-01T09:42:56Z</time>
      </trkpt>
      <trkpt lat="46.82378" lon="6.30862">
        <ele>880.2</ele>
        <time>2022-12-01T09:43:01Z</time>
      </trkpt>
      <trkpt lat="46.82382" lon="6.30865">
        <ele>879.9</ele>
        <time>2022-12-01T09:43:06Z</time>
      </trkpt>
      <trkpt lat="46.82386" lon="6.30868">
        <ele>879.5</ele>
        <time>2022-12-01T09:43:11Z</time>
      </trkpt>
      <trkpt lat="46.82391" lon="6.30871">
        <ele>879.3</ele>
        <time>2022-12-01T09:43:17Z</time>
      </trkpt>
      <trkpt lat="46.82395" lon="6.30873">
        <ele>879.5</ele>
        <time>2022-12-01T09:43:22Z</time>
      </trkpt>
      <trkpt lat="46.824" lon="6.30875">
        <ele>879.1</ele>
        <time>2022-12-01T09:43:28Z</time>
      </trkpt>
      <trkpt lat="46.82403" lon="6.3088">
        <ele>878.4</ele>
        <time>2022-12-01T09:43:35Z</time>
      </trkpt>
      <trkpt lat="46.82405" lon="6.30887">
        <ele>877.9</ele>
        <time>2022-12-01T09:43:41Z</time>
      </trkpt>
      <trkpt lat="46.82409" lon="6.3089">
        <ele>877.1</ele>
        <time>2022-12-01T09:43:48Z</time>
      </trkpt>
      <trkpt lat="46.82413" lon="6.30893">
        <ele>876.3</ele>
        <time>2022-12-01T09:43:56Z</time>
      </trkpt>
      <trkpt lat="46.82417" lon="6.30897">
        <ele>875.9</ele>
        <time>2022-12-01T09:44:01Z</time>
      </trkpt>
      <trkpt lat="46.82421" lon="6.309">
        <ele>875.3</ele>
        <time>2022-12-01T09:44:07Z</time>
      </trkpt>
      <trkpt lat="46.82426" lon="6.30905">
        <ele>874.9</ele>
        <time>2022-12-01T09:44:13Z</time>
      </trkpt>
      <trkpt lat="46.8243" lon="6.30908">
        <ele>874.7</ele>
        <time>2022-12-01T09:44:18Z</time>
      </trkpt>
      <trkpt lat="46.82435" lon="6.3091">
        <ele>874.5</ele>
        <time>2022-12-01T09:44:23Z</time>
      </trkpt>
      <trkpt lat="46.8244" lon="6.30912">
        <ele>873.8</ele>
        <time>2022-12-01T09:44:29Z</time>
      </trkpt>
      <trkpt lat="46.82445" lon="6.30911">
        <ele>873</ele>
        <time>2022-12-01T09:44:35Z</time>
      </trkpt>
      <trkpt lat="46.8245" lon="6.3091">
        <ele>873.1</ele>
        <time>2022-12-01T09:44:40Z</time>
      </trkpt>
      <trkpt lat="46.82455" lon="6.30909">
        <ele>873.5</ele>
        <time>2022-12-01T09:44:46Z</time>
      </trkpt>
      <trkpt lat="46.8246" lon="6.30908">
        <ele>874.1</ele>
        <time>2022-12-01T09:44:52Z</time>
      </trkpt>
      <trkpt lat="46.82465" lon="6.30906">
        <ele>874.2</ele>
        <time>2022-12-01T09:44:58Z</time>
      </trkpt>
      <trkpt lat="46.8247" lon="6.30905">
        <ele>874.1</ele>
        <time>2022-12-01T09:45:03Z</time>
      </trkpt>
      <trkpt lat="46.82475" lon="6.30904">
        <ele>873.5</ele>
        <time>2022-12-01T09:45:09Z</time>
      </trkpt>
      <trkpt lat="46.8248" lon="6.30903">
        <ele>872.9</ele>
        <time>2022-12-01T09:45:13Z</time>
      </trkpt>
      <trkpt lat="46.82484" lon="6.30903">
        <ele>872.7</ele>
        <time>2022-12-01T09:45:17Z</time>
      </trkpt>
      <trkpt lat="46.82489" lon="6.30905">
        <ele>872.9</ele>
        <time>2022-12-01T09:45:22Z</time>
      </trkpt>
      <trkpt lat="46.82494" lon="6.30907">
        <ele>873</ele>
        <time>2022-12-01T09:45:27Z</time>
      </trkpt>
      <trkpt lat="46.82499" lon="6.30909">
        <ele>873</ele>
        <time>2022-12-01T09:45:32Z</time>
      </trkpt>
      <trkpt lat="46.82504" lon="6.3091">
        <ele>873.1</ele>
        <time>2022-12-01T09:45:37Z</time>
      </trkpt>
      <trkpt lat="46.82509" lon="6.30912">
        <ele>873.3</ele>
        <time>2022-12-01T09:45:42Z</time>
      </trkpt>
      <trkpt lat="46.82514" lon="6.30914">
        <ele>873.3</ele>
        <time>2022-12-01T09:45:47Z</time>
      </trkpt>
      <trkpt lat="46.82519" lon="6.30915">
        <ele>873.4</ele>
        <time>2022-12-01T09:45:52Z</time>
      </trkpt>
      <trkpt lat="46.82523" lon="6.30916">
        <ele>874.2</ele>
        <time>2022-12-01T09:45:57Z</time>
      </trkpt>
      <trkpt lat="46.82529" lon="6.30916">
        <ele>875.1</ele>
        <time>2022-12-01T09:46:03Z</time>
      </trkpt>
      <trkpt lat="46.82534" lon="6.30918">
        <ele>875.4</ele>
        <time>2022-12-01T09:46:09Z</time>
      </trkpt>
      <trkpt lat="46.82538" lon="6.30922">
        <ele>875.2</ele>
        <time>2022-12-01T09:46:14Z</time>
      </trkpt>
      <trkpt lat="46.82543" lon="6.30925">
        <ele>875.1</ele>
        <time>2022-12-01T09:46:19Z</time>
      </trkpt>
      <trkpt lat="46.82548" lon="6.30929">
        <ele>875</ele>
        <time>2022-12-01T09:46:25Z</time>
      </trkpt>
      <trkpt lat="46.82552" lon="6.30931">
        <ele>875</ele>
        <time>2022-12-01T09:46:30Z</time>
      </trkpt>
      <trkpt lat="46.82557" lon="6.30934">
        <ele>875.4</ele>
        <time>2022-12-01T09:46:35Z</time>
      </trkpt>
      <trkpt lat="46.82562" lon="6.30936">
        <ele>875.7</ele>
        <time>2022-12-01T09:46:40Z</time>
      </trkpt>
      <trkpt lat="46.82566" lon="6.30939">
        <ele>876.4</ele>
        <time>2022-12-01T09:46:45Z</time>
      </trkpt>
      <trkpt lat="46.82571" lon="6.30942">
        <ele>877.1</ele>
        <time>2022-12-01T09:46:51Z</time>
      </trkpt>
      <trkpt lat="46.82576" lon="6.30943">
        <ele>877.5</ele>
        <time>2022-12-01T09:46:56Z</time>
      </trkpt>
      <trkpt lat="46.8258" lon="6.30944">
        <ele>877.7</ele>
        <time>2022-12-01T09:47:00Z</time>
      </trkpt>
      <trkpt lat="46.82585" lon="6.30945">
        <ele>878.3</ele>
        <time>2022-12-01T09:47:05Z</time>
      </trkpt>
      <trkpt lat="46.8259" lon="6.30947">
        <ele>879</ele>
        <time>2022-12-01T09:47:10Z</time>
      </trkpt>
      <trkpt lat="46.82595" lon="6.30949">
        <ele>879.6</ele>
        <time>2022-12-01T09:47:15Z</time>
      </trkpt>
      <trkpt lat="46.82599" lon="6.3095">
        <ele>879.6</ele>
        <time>2022-12-01T09:47:20Z</time>
      </trkpt>
      <trkpt lat="46.82605" lon="6.30951">
        <ele>880.2</ele>
        <time>2022-12-01T09:47:25Z</time>
      </trkpt>
      <trkpt lat="46.82609" lon="6.30954">
        <ele>880.7</ele>
        <time>2022-12-01T09:47:33Z</time>
      </trkpt>
      <trkpt lat="46.82614" lon="6.30955">
        <ele>881</ele>
        <time>2022-12-01T09:47:38Z</time>
      </trkpt>
      <trkpt lat="46.82619" lon="6.30956">
        <ele>881.2</ele>
        <time>2022-12-01T09:47:43Z</time>
      </trkpt>
      <trkpt lat="46.82624" lon="6.30958">
        <ele>881.3</ele>
        <time>2022-12-01T09:47:48Z</time>
      </trkpt>
      <trkpt lat="46.82629" lon="6.3096">
        <ele>880.9</ele>
        <time>2022-12-01T09:47:53Z</time>
      </trkpt>
      <trkpt lat="46.82633" lon="6.3096">
        <ele>880.7</ele>
        <time>2022-12-01T09:47:58Z</time>
      </trkpt>
      <trkpt lat="46.82639" lon="6.30961">
        <ele>880.9</ele>
        <time>2022-12-01T09:48:03Z</time>
      </trkpt>
      <trkpt lat="46.82644" lon="6.30963">
        <ele>881.3</ele>
        <time>2022-12-01T09:48:08Z</time>
      </trkpt>
      <trkpt lat="46.82649" lon="6.30965">
        <ele>882.3</ele>
        <time>2022-12-01T09:48:12Z</time>
      </trkpt>
      <trkpt lat="46.82653" lon="6.30967">
        <ele>883.8</ele>
        <time>2022-12-01T09:48:16Z</time>
      </trkpt>
      <trkpt lat="46.82657" lon="6.30971">
        <ele>885.1</ele>
        <time>2022-12-01T09:48:21Z</time>
      </trkpt>
      <trkpt lat="46.8266" lon="6.30977">
        <ele>885.6</ele>
        <time>2022-12-01T09:48:27Z</time>
      </trkpt>
      <trkpt lat="46.82663" lon="6.30982">
        <ele>885.4</ele>
        <time>2022-12-01T09:48:32Z</time>
      </trkpt>
      <trkpt lat="46.82666" lon="6.30988">
        <ele>885.1</ele>
        <time>2022-12-01T09:48:38Z</time>
      </trkpt>
      <trkpt lat="46.82669" lon="6.30993">
        <ele>885.2</ele>
        <time>2022-12-01T09:48:43Z</time>
      </trkpt>
      <trkpt lat="46.82672" lon="6.30999">
        <ele>886.1</ele>
        <time>2022-12-01T09:48:49Z</time>
      </trkpt>
      <trkpt lat="46.82676" lon="6.31004">
        <ele>886.5</ele>
        <time>2022-12-01T09:48:54Z</time>
      </trkpt>
      <trkpt lat="46.82679" lon="6.3101">
        <ele>886.2</ele>
        <time>2022-12-01T09:49:01Z</time>
      </trkpt>
      <trkpt lat="46.82683" lon="6.31014">
        <ele>886.4</ele>
        <time>2022-12-01T09:49:06Z</time>
      </trkpt>
      <trkpt lat="46.82686" lon="6.3102">
        <ele>887.2</ele>
        <time>2022-12-01T09:49:11Z</time>
      </trkpt>
      <trkpt lat="46.8269" lon="6.31025">
        <ele>887.9</ele>
        <time>2022-12-01T09:49:16Z</time>
      </trkpt>
      <trkpt lat="46.82694" lon="6.31031">
        <ele>888.5</ele>
        <time>2022-12-01T09:49:21Z</time>
      </trkpt>
      <trkpt lat="46.82696" lon="6.31036">
        <ele>888.7</ele>
        <time>2022-12-01T09:49:26Z</time>
      </trkpt>
      <trkpt lat="46.827" lon="6.31041">
        <ele>888.4</ele>
        <time>2022-12-01T09:49:32Z</time>
      </trkpt>
      <trkpt lat="46.82703" lon="6.31046">
        <ele>888.2</ele>
        <time>2022-12-01T09:49:38Z</time>
      </trkpt>
      <trkpt lat="46.82706" lon="6.31051">
        <ele>888.4</ele>
        <time>2022-12-01T09:49:43Z</time>
      </trkpt>
      <trkpt lat="46.8271" lon="6.31054">
        <ele>888.6</ele>
        <time>2022-12-01T09:49:48Z</time>
      </trkpt>
      <trkpt lat="46.82715" lon="6.31057">
        <ele>888.6</ele>
        <time>2022-12-01T09:49:54Z</time>
      </trkpt>
      <trkpt lat="46.82721" lon="6.31058">
        <ele>888.4</ele>
        <time>2022-12-01T09:49:59Z</time>
      </trkpt>
      <trkpt lat="46.82725" lon="6.3106">
        <ele>888.7</ele>
        <time>2022-12-01T09:50:03Z</time>
      </trkpt>
      <trkpt lat="46.82729" lon="6.31063">
        <ele>889.4</ele>
        <time>2022-12-01T09:50:07Z</time>
      </trkpt>
      <trkpt lat="46.82734" lon="6.31065">
        <ele>890.7</ele>
        <time>2022-12-01T09:50:12Z</time>
      </trkpt>
      <trkpt lat="46.82737" lon="6.3107">
        <ele>890.9</ele>
        <time>2022-12-01T09:50:21Z</time>
      </trkpt>
      <trkpt lat="46.82742" lon="6.31073">
        <ele>890.9</ele>
        <time>2022-12-01T09:50:26Z</time>
      </trkpt>
      <trkpt lat="46.82746" lon="6.31078">
        <ele>891.2</ele>
        <time>2022-12-01T09:50:31Z</time>
      </trkpt>
      <trkpt lat="46.82749" lon="6.31083">
        <ele>891.5</ele>
        <time>2022-12-01T09:50:35Z</time>
      </trkpt>
      <trkpt lat="46.82752" lon="6.31088">
        <ele>892</ele>
        <time>2022-12-01T09:50:40Z</time>
      </trkpt>
      <trkpt lat="46.82756" lon="6.31093">
        <ele>893</ele>
        <time>2022-12-01T09:50:47Z</time>
      </trkpt>
      <trkpt lat="46.82759" lon="6.31097">
        <ele>893.7</ele>
        <time>2022-12-01T09:50:52Z</time>
      </trkpt>
      <trkpt lat="46.82764" lon="6.31096">
        <ele>894.6</ele>
        <time>2022-12-01T09:50:57Z</time>
      </trkpt>
      <trkpt lat="46.8277" lon="6.31098">
        <ele>895.3</ele>
        <time>2022-12-01T09:51:03Z</time>
      </trkpt>
      <trkpt lat="46.82773" lon="6.31104">
        <ele>895.8</ele>
        <time>2022-12-01T09:51:07Z</time>
      </trkpt>
      <trkpt lat="46.82776" lon="6.31109">
        <ele>896.6</ele>
        <time>2022-12-01T09:51:11Z</time>
      </trkpt>
      <trkpt lat="46.82779" lon="6.31115">
        <ele>896.6</ele>
        <time>2022-12-01T09:51:15Z</time>
      </trkpt>
      <trkpt lat="46.82781" lon="6.31122">
        <ele>896.4</ele>
        <time>2022-12-01T09:51:19Z</time>
      </trkpt>
      <trkpt lat="46.82783" lon="6.31129">
        <ele>896.3</ele>
        <time>2022-12-01T09:51:23Z</time>
      </trkpt>
      <trkpt lat="46.82786" lon="6.31135">
        <ele>896.2</ele>
        <time>2022-12-01T09:51:29Z</time>
      </trkpt>
      <trkpt lat="46.82791" lon="6.3114">
        <ele>895.8</ele>
        <time>2022-12-01T09:51:34Z</time>
      </trkpt>
      <trkpt lat="46.82795" lon="6.31145">
        <ele>895.5</ele>
        <time>2022-12-01T09:51:39Z</time>
      </trkpt>
      <trkpt lat="46.82799" lon="6.31148">
        <ele>895.3</ele>
        <time>2022-12-01T09:51:46Z</time>
      </trkpt>
      <trkpt lat="46.82805" lon="6.31149">
        <ele>895.4</ele>
        <time>2022-12-01T09:51:53Z</time>
      </trkpt>
      <trkpt lat="46.8281" lon="6.31151">
        <ele>895.4</ele>
        <time>2022-12-01T09:51:59Z</time>
      </trkpt>
      <trkpt lat="46.82813" lon="6.31157">
        <ele>895.1</ele>
        <time>2022-12-01T09:52:03Z</time>
      </trkpt>
      <trkpt lat="46.82815" lon="6.31164">
        <ele>895.5</ele>
        <time>2022-12-01T09:52:07Z</time>
      </trkpt>
      <trkpt lat="46.82817" lon="6.31171">
        <ele>896.7</ele>
        <time>2022-12-01T09:52:11Z</time>
      </trkpt>
      <trkpt lat="46.8282" lon="6.31177">
        <ele>897.9</ele>
        <time>2022-12-01T09:52:17Z</time>
      </trkpt>
      <trkpt lat="46.82824" lon="6.31181">
        <ele>898.1</ele>
        <time>2022-12-01T09:52:23Z</time>
      </trkpt>
      <trkpt lat="46.82828" lon="6.31183">
        <ele>897.6</ele>
        <time>2022-12-01T09:52:27Z</time>
      </trkpt>
      <trkpt lat="46.82832" lon="6.31187">
        <ele>897.1</ele>
        <time>2022-12-01T09:52:31Z</time>
      </trkpt>
      <trkpt lat="46.82835" lon="6.31192">
        <ele>897.2</ele>
        <time>2022-12-01T09:52:35Z</time>
      </trkpt>
      <trkpt lat="46.82838" lon="6.31197">
        <ele>897.6</ele>
        <time>2022-12-01T09:52:39Z</time>
      </trkpt>
      <trkpt lat="46.82842" lon="6.312">
        <ele>898.2</ele>
        <time>2022-12-01T09:52:43Z</time>
      </trkpt>
      <trkpt lat="46.82845" lon="6.31207">
        <ele>899.5</ele>
        <time>2022-12-01T09:52:47Z</time>
      </trkpt>
      <trkpt lat="46.82849" lon="6.31211">
        <ele>901</ele>
        <time>2022-12-01T09:52:52Z</time>
      </trkpt>
      <trkpt lat="46.82853" lon="6.31214">
        <ele>901.8</ele>
        <time>2022-12-01T09:52:57Z</time>
      </trkpt>
      <trkpt lat="46.82857" lon="6.31218">
        <ele>901.6</ele>
        <time>2022-12-01T09:53:02Z</time>
      </trkpt>
      <trkpt lat="46.82861" lon="6.31222">
        <ele>901.1</ele>
        <time>2022-12-01T09:53:07Z</time>
      </trkpt>
      <trkpt lat="46.82866" lon="6.31226">
        <ele>901.3</ele>
        <time>2022-12-01T09:53:12Z</time>
      </trkpt>
      <trkpt lat="46.8287" lon="6.31231">
        <ele>901.7</ele>
        <time>2022-12-01T09:53:16Z</time>
      </trkpt>
      <trkpt lat="46.82873" lon="6.31235">
        <ele>902.9</ele>
        <time>2022-12-01T09:53:21Z</time>
      </trkpt>
      <trkpt lat="46.82878" lon="6.31239">
        <ele>904.2</ele>
        <time>2022-12-01T09:53:27Z</time>
      </trkpt>
      <trkpt lat="46.82881" lon="6.31244">
        <ele>904.9</ele>
        <time>2022-12-01T09:53:32Z</time>
      </trkpt>
      <trkpt lat="46.82885" lon="6.31248">
        <ele>905.3</ele>
        <time>2022-12-01T09:53:37Z</time>
      </trkpt>
      <trkpt lat="46.82889" lon="6.31252">
        <ele>905</ele>
        <time>2022-12-01T09:53:42Z</time>
      </trkpt>
      <trkpt lat="46.82894" lon="6.31256">
        <ele>903.7</ele>
        <time>2022-12-01T09:53:47Z</time>
      </trkpt>
      <trkpt lat="46.82897" lon="6.31262">
        <ele>902.6</ele>
        <time>2022-12-01T09:53:52Z</time>
      </trkpt>
      <trkpt lat="46.82901" lon="6.31267">
        <ele>901.4</ele>
        <time>2022-12-01T09:53:57Z</time>
      </trkpt>
      <trkpt lat="46.82905" lon="6.31271">
        <ele>900.6</ele>
        <time>2022-12-01T09:54:01Z</time>
      </trkpt>
      <trkpt lat="46.82909" lon="6.31274">
        <ele>900.7</ele>
        <time>2022-12-01T09:54:05Z</time>
      </trkpt>
      <trkpt lat="46.82913" lon="6.31278">
        <ele>901.2</ele>
        <time>2022-12-01T09:54:09Z</time>
      </trkpt>
      <trkpt lat="46.82917" lon="6.31282">
        <ele>901.7</ele>
        <time>2022-12-01T09:54:13Z</time>
      </trkpt>
      <trkpt lat="46.82921" lon="6.31287">
        <ele>902.4</ele>
        <time>2022-12-01T09:54:19Z</time>
      </trkpt>
      <trkpt lat="46.82925" lon="6.31291">
        <ele>902.7</ele>
        <time>2022-12-01T09:54:24Z</time>
      </trkpt>
      <trkpt lat="46.82929" lon="6.31295">
        <ele>902.9</ele>
        <time>2022-12-01T09:54:28Z</time>
      </trkpt>
      <trkpt lat="46.82933" lon="6.31299">
        <ele>903.7</ele>
        <time>2022-12-01T09:54:33Z</time>
      </trkpt>
      <trkpt lat="46.82937" lon="6.31305">
        <ele>904.5</ele>
        <time>2022-12-01T09:54:38Z</time>
      </trkpt>
      <trkpt lat="46.82939" lon="6.31311">
        <ele>905.2</ele>
        <time>2022-12-01T09:54:43Z</time>
      </trkpt>
      <trkpt lat="46.8294" lon="6.31318">
        <ele>905.6</ele>
        <time>2022-12-01T09:54:47Z</time>
      </trkpt>
      <trkpt lat="46.82943" lon="6.31323">
        <ele>905</ele>
        <time>2022-12-01T09:54:53Z</time>
      </trkpt>
      <trkpt lat="46.82948" lon="6.31322">
        <ele>903.6</ele>
        <time>2022-12-01T09:54:59Z</time>
      </trkpt>
      <trkpt lat="46.82953" lon="6.31318">
        <ele>902.7</ele>
        <time>2022-12-01T09:55:04Z</time>
      </trkpt>
      <trkpt lat="46.82956" lon="6.31313">
        <ele>902.5</ele>
        <time>2022-12-01T09:55:08Z</time>
      </trkpt>
      <trkpt lat="46.82959" lon="6.31307">
        <ele>902.4</ele>
        <time>2022-12-01T09:55:12Z</time>
      </trkpt>
      <trkpt lat="46.82961" lon="6.313">
        <ele>901.9</ele>
        <time>2022-12-01T09:55:17Z</time>
      </trkpt>
      <trkpt lat="46.82964" lon="6.31294">
        <ele>901.4</ele>
        <time>2022-12-01T09:55:22Z</time>
      </trkpt>
      <trkpt lat="46.82968" lon="6.31289">
        <ele>901.1</ele>
        <time>2022-12-01T09:55:27Z</time>
      </trkpt>
      <trkpt lat="46.82973" lon="6.31283">
        <ele>902.5</ele>
        <time>2022-12-01T09:55:45Z</time>
      </trkpt>
      <trkpt lat="46.82977" lon="6.31278">
        <ele>904</ele>
        <time>2022-12-01T09:55:50Z</time>
      </trkpt>
      <trkpt lat="46.82982" lon="6.31278">
        <ele>905.2</ele>
        <time>2022-12-01T09:55:56Z</time>
      </trkpt>
      <trkpt lat="46.82986" lon="6.31283">
        <ele>905.8</ele>
        <time>2022-12-01T09:56:01Z</time>
      </trkpt>
      <trkpt lat="46.8299" lon="6.31286">
        <ele>906.2</ele>
        <time>2022-12-01T09:56:07Z</time>
      </trkpt>
      <trkpt lat="46.82995" lon="6.31291">
        <ele>906.6</ele>
        <time>2022-12-01T09:56:13Z</time>
      </trkpt>
      <trkpt lat="46.82998" lon="6.31296">
        <ele>906</ele>
        <time>2022-12-01T09:56:17Z</time>
      </trkpt>
      <trkpt lat="46.83" lon="6.31302">
        <ele>905</ele>
        <time>2022-12-01T09:56:21Z</time>
      </trkpt>
      <trkpt lat="46.83004" lon="6.31306">
        <ele>903.8</ele>
        <time>2022-12-01T09:56:26Z</time>
      </trkpt>
      <trkpt lat="46.8301" lon="6.31308">
        <ele>902.9</ele>
        <time>2022-12-01T09:56:31Z</time>
      </trkpt>
      <trkpt lat="46.83014" lon="6.3131">
        <ele>902.2</ele>
        <time>2022-12-01T09:56:35Z</time>
      </trkpt>
      <trkpt lat="46.83018" lon="6.31314">
        <ele>900.8</ele>
        <time>2022-12-01T09:56:41Z</time>
      </trkpt>
      <trkpt lat="46.83022" lon="6.31318">
        <ele>900.1</ele>
        <time>2022-12-01T09:56:46Z</time>
      </trkpt>
      <trkpt lat="46.83026" lon="6.31323">
        <ele>899.8</ele>
        <time>2022-12-01T09:56:51Z</time>
      </trkpt>
      <trkpt lat="46.8303" lon="6.31328">
        <ele>899.5</ele>
        <time>2022-12-01T09:56:56Z</time>
      </trkpt>
      <trkpt lat="46.83034" lon="6.31332">
        <ele>899.3</ele>
        <time>2022-12-01T09:57:00Z</time>
      </trkpt>
      <trkpt lat="46.83039" lon="6.31335">
        <ele>899.2</ele>
        <time>2022-12-01T09:57:05Z</time>
      </trkpt>
      <trkpt lat="46.83042" lon="6.3134">
        <ele>899.2</ele>
        <time>2022-12-01T09:57:09Z</time>
      </trkpt>
      <trkpt lat="46.83045" lon="6.31346">
        <ele>899.2</ele>
        <time>2022-12-01T09:57:13Z</time>
      </trkpt>
      <trkpt lat="46.83049" lon="6.31351">
        <ele>898.9</ele>
        <time>2022-12-01T09:57:18Z</time>
      </trkpt>
      <trkpt lat="46.83053" lon="6.31355">
        <ele>898.8</ele>
        <time>2022-12-01T09:57:23Z</time>
      </trkpt>
      <trkpt lat="46.83057" lon="6.31358">
        <ele>898.6</ele>
        <time>2022-12-01T09:57:28Z</time>
      </trkpt>
      <trkpt lat="46.8306" lon="6.31363">
        <ele>898.2</ele>
        <time>2022-12-01T09:57:33Z</time>
      </trkpt>
      <trkpt lat="46.83064" lon="6.31366">
        <ele>897.8</ele>
        <time>2022-12-01T09:57:38Z</time>
      </trkpt>
      <trkpt lat="46.83067" lon="6.31371">
        <ele>897.5</ele>
        <time>2022-12-01T09:57:43Z</time>
      </trkpt>
      <trkpt lat="46.83071" lon="6.31376">
        <ele>897.3</ele>
        <time>2022-12-01T09:57:48Z</time>
      </trkpt>
      <trkpt lat="46.83076" lon="6.31381">
        <ele>896.9</ele>
        <time>2022-12-01T09:57:53Z</time>
      </trkpt>
      <trkpt lat="46.8308" lon="6.31385">
        <ele>896.6</ele>
        <time>2022-12-01T09:57:58Z</time>
      </trkpt>
      <trkpt lat="46.83084" lon="6.31388">
        <ele>897</ele>
        <time>2022-12-01T09:58:02Z</time>
      </trkpt>
      <trkpt lat="46.83088" lon="6.31393">
        <ele>897.8</ele>
        <time>2022-12-01T09:58:07Z</time>
      </trkpt>
      <trkpt lat="46.83091" lon="6.31399">
        <ele>898</ele>
        <time>2022-12-01T09:58:11Z</time>
      </trkpt>
      <trkpt lat="46.83095" lon="6.31404">
        <ele>897.5</ele>
        <time>2022-12-01T09:58:17Z</time>
      </trkpt>
      <trkpt lat="46.83098" lon="6.31408">
        <ele>896.6</ele>
        <time>2022-12-01T09:58:23Z</time>
      </trkpt>
      <trkpt lat="46.83103" lon="6.3141">
        <ele>895.9</ele>
        <time>2022-12-01T09:58:27Z</time>
      </trkpt>
      <trkpt lat="46.83108" lon="6.31414">
        <ele>895.1</ele>
        <time>2022-12-01T09:58:32Z</time>
      </trkpt>
      <trkpt lat="46.83111" lon="6.31418">
        <ele>894.5</ele>
        <time>2022-12-01T09:58:36Z</time>
      </trkpt>
      <trkpt lat="46.83116" lon="6.31421">
        <ele>893.8</ele>
        <time>2022-12-01T09:58:41Z</time>
      </trkpt>
      <trkpt lat="46.8312" lon="6.31425">
        <ele>893.1</ele>
        <time>2022-12-01T09:58:46Z</time>
      </trkpt>
      <trkpt lat="46.83125" lon="6.3143">
        <ele>893.4</ele>
        <time>2022-12-01T09:58:51Z</time>
      </trkpt>
      <trkpt lat="46.83129" lon="6.31434">
        <ele>893.4</ele>
        <time>2022-12-01T09:58:55Z</time>
      </trkpt>
      <trkpt lat="46.83133" lon="6.31436">
        <ele>893.6</ele>
        <time>2022-12-01T09:59:00Z</time>
      </trkpt>
      <trkpt lat="46.83137" lon="6.3144">
        <ele>894.1</ele>
        <time>2022-12-01T09:59:06Z</time>
      </trkpt>
      <trkpt lat="46.83141" lon="6.31443">
        <ele>894.7</ele>
        <time>2022-12-01T09:59:11Z</time>
      </trkpt>
      <trkpt lat="46.83145" lon="6.31446">
        <ele>895.2</ele>
        <time>2022-12-01T09:59:15Z</time>
      </trkpt>
      <trkpt lat="46.8315" lon="6.3145">
        <ele>895.7</ele>
        <time>2022-12-01T09:59:19Z</time>
      </trkpt>
      <trkpt lat="46.83155" lon="6.31452">
        <ele>896.3</ele>
        <time>2022-12-01T09:59:24Z</time>
      </trkpt>
      <trkpt lat="46.83159" lon="6.31456">
        <ele>896.4</ele>
        <time>2022-12-01T09:59:29Z</time>
      </trkpt>
      <trkpt lat="46.83164" lon="6.31459">
        <ele>896.5</ele>
        <time>2022-12-01T09:59:33Z</time>
      </trkpt>
      <trkpt lat="46.83168" lon="6.31464">
        <ele>896.7</ele>
        <time>2022-12-01T09:59:38Z</time>
      </trkpt>
      <trkpt lat="46.8317" lon="6.3147">
        <ele>897.2</ele>
        <time>2022-12-01T09:59:42Z</time>
      </trkpt>
      <trkpt lat="46.83173" lon="6.31475">
        <ele>897.3</ele>
        <time>2022-12-01T09:59:47Z</time>
      </trkpt>
      <trkpt lat="46.83177" lon="6.3148">
        <ele>897.2</ele>
        <time>2022-12-01T09:59:52Z</time>
      </trkpt>
      <trkpt lat="46.83179" lon="6.31486">
        <ele>897.5</ele>
        <time>2022-12-01T09:59:57Z</time>
      </trkpt>
      <trkpt lat="46.83183" lon="6.31492">
        <ele>898.3</ele>
        <time>2022-12-01T10:00:02Z</time>
      </trkpt>
      <trkpt lat="46.83186" lon="6.31496">
        <ele>899.3</ele>
        <time>2022-12-01T10:00:06Z</time>
      </trkpt>
      <trkpt lat="46.8319" lon="6.31501">
        <ele>900.2</ele>
        <time>2022-12-01T10:00:11Z</time>
      </trkpt>
      <trkpt lat="46.83193" lon="6.31506">
        <ele>901.1</ele>
        <time>2022-12-01T10:00:16Z</time>
      </trkpt>
      <trkpt lat="46.83198" lon="6.31511">
        <ele>901.6</ele>
        <time>2022-12-01T10:00:21Z</time>
      </trkpt>
      <trkpt lat="46.83202" lon="6.31515">
        <ele>902</ele>
        <time>2022-12-01T10:00:25Z</time>
      </trkpt>
      <trkpt lat="46.83206" lon="6.31521">
        <ele>902.7</ele>
        <time>2022-12-01T10:00:29Z</time>
      </trkpt>
      <trkpt lat="46.8321" lon="6.31525">
        <ele>903.4</ele>
        <time>2022-12-01T10:00:33Z</time>
      </trkpt>
      <trkpt lat="46.83213" lon="6.3153">
        <ele>904.3</ele>
        <time>2022-12-01T10:00:38Z</time>
      </trkpt>
      <trkpt lat="46.83217" lon="6.31536">
        <ele>904.6</ele>
        <time>2022-12-01T10:00:43Z</time>
      </trkpt>
      <trkpt lat="46.8322" lon="6.31541">
        <ele>904.5</ele>
        <time>2022-12-01T10:00:47Z</time>
      </trkpt>
      <trkpt lat="46.83224" lon="6.31546">
        <ele>904</ele>
        <time>2022-12-01T10:00:52Z</time>
      </trkpt>
      <trkpt lat="46.83228" lon="6.3155">
        <ele>902.6</ele>
        <time>2022-12-01T10:00:59Z</time>
      </trkpt>
      <trkpt lat="46.83232" lon="6.31556">
        <ele>901.8</ele>
        <time>2022-12-01T10:01:05Z</time>
      </trkpt>
      <trkpt lat="46.83235" lon="6.3156">
        <ele>901.8</ele>
        <time>2022-12-01T10:01:10Z</time>
      </trkpt>
      <trkpt lat="46.83239" lon="6.31564">
        <ele>901.7</ele>
        <time>2022-12-01T10:01:15Z</time>
      </trkpt>
      <trkpt lat="46.83243" lon="6.31567">
        <ele>901.6</ele>
        <time>2022-12-01T10:01:19Z</time>
      </trkpt>
      <trkpt lat="46.83247" lon="6.31572">
        <ele>901.3</ele>
        <time>2022-12-01T10:01:24Z</time>
      </trkpt>
      <trkpt lat="46.83251" lon="6.31576">
        <ele>900.8</ele>
        <time>2022-12-01T10:01:29Z</time>
      </trkpt>
      <trkpt lat="46.83256" lon="6.3158">
        <ele>900.7</ele>
        <time>2022-12-01T10:01:33Z</time>
      </trkpt>
      <trkpt lat="46.8326" lon="6.31584">
        <ele>900.6</ele>
        <time>2022-12-01T10:01:38Z</time>
      </trkpt>
      <trkpt lat="46.83264" lon="6.31587">
        <ele>900.2</ele>
        <time>2022-12-01T10:01:43Z</time>
      </trkpt>
      <trkpt lat="46.83268" lon="6.31591">
        <ele>899.9</ele>
        <time>2022-12-01T10:01:48Z</time>
      </trkpt>
      <trkpt lat="46.83272" lon="6.31595">
        <ele>900.3</ele>
        <time>2022-12-01T10:01:53Z</time>
      </trkpt>
      <trkpt lat="46.83276" lon="6.31599">
        <ele>901.2</ele>
        <time>2022-12-01T10:01:57Z</time>
      </trkpt>
      <trkpt lat="46.83281" lon="6.31603">
        <ele>902.6</ele>
        <time>2022-12-01T10:02:01Z</time>
      </trkpt>
      <trkpt lat="46.83286" lon="6.31607">
        <ele>903.9</ele>
        <time>2022-12-01T10:02:05Z</time>
      </trkpt>
      <trkpt lat="46.8329" lon="6.31612">
        <ele>905.5</ele>
        <time>2022-12-01T10:02:10Z</time>
      </trkpt>
      <trkpt lat="46.83293" lon="6.31618">
        <ele>906.7</ele>
        <time>2022-12-01T10:02:15Z</time>
      </trkpt>
      <trkpt lat="46.83296" lon="6.31623">
        <ele>906.9</ele>
        <time>2022-12-01T10:02:19Z</time>
      </trkpt>
      <trkpt lat="46.833" lon="6.31628">
        <ele>906.4</ele>
        <time>2022-12-01T10:02:24Z</time>
      </trkpt>
      <trkpt lat="46.83303" lon="6.31633">
        <ele>905.3</ele>
        <time>2022-12-01T10:02:28Z</time>
      </trkpt>
      <trkpt lat="46.83307" lon="6.31639">
        <ele>904</ele>
        <time>2022-12-01T10:02:33Z</time>
      </trkpt>
      <trkpt lat="46.8331" lon="6.31644">
        <ele>902.4</ele>
        <time>2022-12-01T10:02:46Z</time>
      </trkpt>
      <trkpt lat="46.83315" lon="6.31647">
        <ele>902.6</ele>
        <time>2022-12-01T10:02:52Z</time>
      </trkpt>
      <trkpt lat="46.83318" lon="6.31651">
        <ele>902.9</ele>
        <time>2022-12-01T10:02:57Z</time>
      </trkpt>
      <trkpt lat="46.83322" lon="6.31657">
        <ele>903.1</ele>
        <time>2022-12-01T10:03:02Z</time>
      </trkpt>
      <trkpt lat="46.83326" lon="6.31661">
        <ele>903.2</ele>
        <time>2022-12-01T10:03:06Z</time>
      </trkpt>
      <trkpt lat="46.8333" lon="6.31666">
        <ele>902.6</ele>
        <time>2022-12-01T10:03:11Z</time>
      </trkpt>
      <trkpt lat="46.83334" lon="6.3167">
        <ele>902</ele>
        <time>2022-12-01T10:03:16Z</time>
      </trkpt>
      <trkpt lat="46.83338" lon="6.31674">
        <ele>901.4</ele>
        <time>2022-12-01T10:03:21Z</time>
      </trkpt>
      <trkpt lat="46.83341" lon="6.31678">
        <ele>901.2</ele>
        <time>2022-12-01T10:03:25Z</time>
      </trkpt>
      <trkpt lat="46.83345" lon="6.31682">
        <ele>901.8</ele>
        <time>2022-12-01T10:03:29Z</time>
      </trkpt>
      <trkpt lat="46.83351" lon="6.31686">
        <ele>902.5</ele>
        <time>2022-12-01T10:03:34Z</time>
      </trkpt>
      <trkpt lat="46.83355" lon="6.3169">
        <ele>903.3</ele>
        <time>2022-12-01T10:03:38Z</time>
      </trkpt>
      <trkpt lat="46.8336" lon="6.31694">
        <ele>904.5</ele>
        <time>2022-12-01T10:03:42Z</time>
      </trkpt>
      <trkpt lat="46.83365" lon="6.31698">
        <ele>905.9</ele>
        <time>2022-12-01T10:03:46Z</time>
      </trkpt>
      <trkpt lat="46.83367" lon="6.31704">
        <ele>906.7</ele>
        <time>2022-12-01T10:03:51Z</time>
      </trkpt>
      <trkpt lat="46.83371" lon="6.31709">
        <ele>906.8</ele>
        <time>2022-12-01T10:03:55Z</time>
      </trkpt>
      <trkpt lat="46.83375" lon="6.31715">
        <ele>906.7</ele>
        <time>2022-12-01T10:03:59Z</time>
      </trkpt>
      <trkpt lat="46.83377" lon="6.31722">
        <ele>906.3</ele>
        <time>2022-12-01T10:04:05Z</time>
      </trkpt>
      <trkpt lat="46.83379" lon="6.31729">
        <ele>905.9</ele>
        <time>2022-12-01T10:04:10Z</time>
      </trkpt>
      <trkpt lat="46.83382" lon="6.31734">
        <ele>904.9</ele>
        <time>2022-12-01T10:04:15Z</time>
      </trkpt>
      <trkpt lat="46.83386" lon="6.31739">
        <ele>904</ele>
        <time>2022-12-01T10:04:20Z</time>
      </trkpt>
      <trkpt lat="46.83389" lon="6.31745">
        <ele>903</ele>
        <time>2022-12-01T10:04:26Z</time>
      </trkpt>
      <trkpt lat="46.83393" lon="6.31749">
        <ele>902.1</ele>
        <time>2022-12-01T10:04:31Z</time>
      </trkpt>
      <trkpt lat="46.83397" lon="6.31752">
        <ele>901.6</ele>
        <time>2022-12-01T10:04:35Z</time>
      </trkpt>
      <trkpt lat="46.83401" lon="6.31755">
        <ele>901.6</ele>
        <time>2022-12-01T10:04:39Z</time>
      </trkpt>
      <trkpt lat="46.83405" lon="6.3176">
        <ele>902.2</ele>
        <time>2022-12-01T10:04:44Z</time>
      </trkpt>
      <trkpt lat="46.83409" lon="6.31763">
        <ele>901.9</ele>
        <time>2022-12-01T10:04:49Z</time>
      </trkpt>
      <trkpt lat="46.83414" lon="6.31766">
        <ele>901.2</ele>
        <time>2022-12-01T10:04:54Z</time>
      </trkpt>
      <trkpt lat="46.83418" lon="6.3177">
        <ele>900.9</ele>
        <time>2022-12-01T10:04:58Z</time>
      </trkpt>
      <trkpt lat="46.83421" lon="6.31774">
        <ele>900.3</ele>
        <time>2022-12-01T10:05:02Z</time>
      </trkpt>
      <trkpt lat="46.83426" lon="6.31777">
        <ele>899.4</ele>
        <time>2022-12-01T10:05:06Z</time>
      </trkpt>
      <trkpt lat="46.8343" lon="6.31782">
        <ele>898.4</ele>
        <time>2022-12-01T10:05:10Z</time>
      </trkpt>
      <trkpt lat="46.83434" lon="6.31785">
        <ele>897.9</ele>
        <time>2022-12-01T10:05:14Z</time>
      </trkpt>
      <trkpt lat="46.83437" lon="6.3179">
        <ele>897.2</ele>
        <time>2022-12-01T10:05:18Z</time>
      </trkpt>
      <trkpt lat="46.8344" lon="6.31797">
        <ele>896.4</ele>
        <time>2022-12-01T10:05:23Z</time>
      </trkpt>
      <trkpt lat="46.83442" lon="6.31803">
        <ele>895.7</ele>
        <time>2022-12-01T10:05:27Z</time>
      </trkpt>
      <trkpt lat="46.83445" lon="6.3181">
        <ele>895.6</ele>
        <time>2022-12-01T10:05:31Z</time>
      </trkpt>
      <trkpt lat="46.83448" lon="6.31816">
        <ele>895.3</ele>
        <time>2022-12-01T10:05:37Z</time>
      </trkpt>
      <trkpt lat="46.83452" lon="6.31819">
        <ele>894.9</ele>
        <time>2022-12-01T10:05:42Z</time>
      </trkpt>
      <trkpt lat="46.83457" lon="6.31821">
        <ele>894.5</ele>
        <time>2022-12-01T10:05:46Z</time>
      </trkpt>
      <trkpt lat="46.83462" lon="6.31822">
        <ele>894.4</ele>
        <time>2022-12-01T10:05:49Z</time>
      </trkpt>
      <trkpt lat="46.83467" lon="6.31823">
        <ele>894.3</ele>
        <time>2022-12-01T10:05:52Z</time>
      </trkpt>
      <trkpt lat="46.83472" lon="6.31823">
        <ele>894.3</ele>
        <time>2022-12-01T10:05:56Z</time>
      </trkpt>
      <trkpt lat="46.83477" lon="6.31827">
        <ele>894.8</ele>
        <time>2022-12-01T10:06:01Z</time>
      </trkpt>
      <trkpt lat="46.83481" lon="6.31831">
        <ele>895</ele>
        <time>2022-12-01T10:06:05Z</time>
      </trkpt>
      <trkpt lat="46.83485" lon="6.31836">
        <ele>895.6</ele>
        <time>2022-12-01T10:06:09Z</time>
      </trkpt>
      <trkpt lat="46.83488" lon="6.31842">
        <ele>896.8</ele>
        <time>2022-12-01T10:06:14Z</time>
      </trkpt>
      <trkpt lat="46.83489" lon="6.31848">
        <ele>897.6</ele>
        <time>2022-12-01T10:06:19Z</time>
      </trkpt>
      <trkpt lat="46.83492" lon="6.31856">
        <ele>898.1</ele>
        <time>2022-12-01T10:06:24Z</time>
      </trkpt>
      <trkpt lat="46.83494" lon="6.31862">
        <ele>898.6</ele>
        <time>2022-12-01T10:06:30Z</time>
      </trkpt>
      <trkpt lat="46.83497" lon="6.31868">
        <ele>898.5</ele>
        <time>2022-12-01T10:06:36Z</time>
      </trkpt>
      <trkpt lat="46.83497" lon="6.31875">
        <ele>898.2</ele>
        <time>2022-12-01T10:06:43Z</time>
      </trkpt>
      <trkpt lat="46.83499" lon="6.31883">
        <ele>898.2</ele>
        <time>2022-12-01T10:06:48Z</time>
      </trkpt>
      <trkpt lat="46.835" lon="6.3189">
        <ele>898.4</ele>
        <time>2022-12-01T10:06:52Z</time>
      </trkpt>
      <trkpt lat="46.83502" lon="6.31897">
        <ele>898.9</ele>
        <time>2022-12-01T10:06:58Z</time>
      </trkpt>
      <trkpt lat="46.83504" lon="6.31903">
        <ele>899.5</ele>
        <time>2022-12-01T10:07:03Z</time>
      </trkpt>
      <trkpt lat="46.83506" lon="6.31909">
        <ele>900.6</ele>
        <time>2022-12-01T10:07:08Z</time>
      </trkpt>
      <trkpt lat="46.83509" lon="6.31915">
        <ele>901.3</ele>
        <time>2022-12-01T10:07:13Z</time>
      </trkpt>
      <trkpt lat="46.83512" lon="6.3192">
        <ele>901.5</ele>
        <time>2022-12-01T10:07:18Z</time>
      </trkpt>
      <trkpt lat="46.83516" lon="6.31925">
        <ele>901.8</ele>
        <time>2022-12-01T10:07:23Z</time>
      </trkpt>
      <trkpt lat="46.8352" lon="6.31931">
        <ele>902.7</ele>
        <time>2022-12-01T10:07:29Z</time>
      </trkpt>
      <trkpt lat="46.83524" lon="6.31935">
        <ele>903.2</ele>
        <time>2022-12-01T10:07:34Z</time>
      </trkpt>
      <trkpt lat="46.83528" lon="6.31938">
        <ele>902.4</ele>
        <time>2022-12-01T10:07:39Z</time>
      </trkpt>
      <trkpt lat="46.83531" lon="6.31943">
        <ele>901.5</ele>
        <time>2022-12-01T10:07:44Z</time>
      </trkpt>
      <trkpt lat="46.83534" lon="6.31949">
        <ele>900.4</ele>
        <time>2022-12-01T10:07:50Z</time>
      </trkpt>
      <trkpt lat="46.83537" lon="6.31955">
        <ele>899.6</ele>
        <time>2022-12-01T10:07:56Z</time>
      </trkpt>
      <trkpt lat="46.83541" lon="6.3196">
        <ele>899.1</ele>
        <time>2022-12-01T10:08:03Z</time>
      </trkpt>
      <trkpt lat="46.83545" lon="6.31962">
        <ele>899.4</ele>
        <time>2022-12-01T10:08:09Z</time>
      </trkpt>
      <trkpt lat="46.83548" lon="6.31967">
        <ele>899.1</ele>
        <time>2022-12-01T10:08:14Z</time>
      </trkpt>
      <trkpt lat="46.83547" lon="6.31974">
        <ele>899.4</ele>
        <time>2022-12-01T10:08:20Z</time>
      </trkpt>
      <trkpt lat="46.83548" lon="6.31981">
        <ele>899.1</ele>
        <time>2022-12-01T10:08:25Z</time>
      </trkpt>
      <trkpt lat="46.83551" lon="6.31988">
        <ele>899.1</ele>
        <time>2022-12-01T10:08:30Z</time>
      </trkpt>
      <trkpt lat="46.83552" lon="6.31996">
        <ele>899</ele>
        <time>2022-12-01T10:08:35Z</time>
      </trkpt>
      <trkpt lat="46.8355" lon="6.32003">
        <ele>899.5</ele>
        <time>2022-12-01T10:08:41Z</time>
      </trkpt>
      <trkpt lat="46.83546" lon="6.32006">
        <ele>899.5</ele>
        <time>2022-12-01T10:08:46Z</time>
      </trkpt>
      <trkpt lat="46.83541" lon="6.3201">
        <ele>898.9</ele>
        <time>2022-12-01T10:08:50Z</time>
      </trkpt>
      <trkpt lat="46.83537" lon="6.32015">
        <ele>897</ele>
        <time>2022-12-01T10:08:56Z</time>
      </trkpt>
      <trkpt lat="46.83533" lon="6.3202">
        <ele>895.6</ele>
        <time>2022-12-01T10:09:01Z</time>
      </trkpt>
      <trkpt lat="46.8353" lon="6.32025">
        <ele>894.6</ele>
        <time>2022-12-01T10:09:06Z</time>
      </trkpt>
      <trkpt lat="46.83526" lon="6.32029">
        <ele>893.6</ele>
        <time>2022-12-01T10:09:11Z</time>
      </trkpt>
      <trkpt lat="46.83523" lon="6.32034">
        <ele>893.1</ele>
        <time>2022-12-01T10:09:16Z</time>
      </trkpt>
      <trkpt lat="46.83518" lon="6.32036">
        <ele>892.2</ele>
        <time>2022-12-01T10:09:21Z</time>
      </trkpt>
      <trkpt lat="46.83514" lon="6.3204">
        <ele>891.4</ele>
        <time>2022-12-01T10:09:26Z</time>
      </trkpt>
      <trkpt lat="46.8351" lon="6.32044">
        <ele>890.4</ele>
        <time>2022-12-01T10:09:31Z</time>
      </trkpt>
      <trkpt lat="46.83506" lon="6.3205">
        <ele>889.8</ele>
        <time>2022-12-01T10:09:36Z</time>
      </trkpt>
      <trkpt lat="46.83505" lon="6.32056">
        <ele>889.5</ele>
        <time>2022-12-01T10:09:41Z</time>
      </trkpt>
      <trkpt lat="46.83504" lon="6.32063">
        <ele>888.8</ele>
        <time>2022-12-01T10:09:47Z</time>
      </trkpt>
      <trkpt lat="46.83502" lon="6.32071">
        <ele>888</ele>
        <time>2022-12-01T10:09:52Z</time>
      </trkpt>
      <trkpt lat="46.83501" lon="6.32078">
        <ele>887.1</ele>
        <time>2022-12-01T10:09:57Z</time>
      </trkpt>
      <trkpt lat="46.83499" lon="6.32085">
        <ele>886.2</ele>
        <time>2022-12-01T10:10:02Z</time>
      </trkpt>
      <trkpt lat="46.83496" lon="6.3209">
        <ele>885.6</ele>
        <time>2022-12-01T10:10:07Z</time>
      </trkpt>
      <trkpt lat="46.83491" lon="6.32095">
        <ele>885.7</ele>
        <time>2022-12-01T10:10:13Z</time>
      </trkpt>
      <trkpt lat="46.83488" lon="6.321">
        <ele>885.1</ele>
        <time>2022-12-01T10:10:18Z</time>
      </trkpt>
      <trkpt lat="46.83484" lon="6.32105">
        <ele>883.8</ele>
        <time>2022-12-01T10:10:24Z</time>
      </trkpt>
      <trkpt lat="46.8348" lon="6.32109">
        <ele>882.4</ele>
        <time>2022-12-01T10:10:29Z</time>
      </trkpt>
      <trkpt lat="46.83477" lon="6.32114">
        <ele>881.4</ele>
        <time>2022-12-01T10:10:34Z</time>
      </trkpt>
      <trkpt lat="46.83474" lon="6.32119">
        <ele>881</ele>
        <time>2022-12-01T10:10:38Z</time>
      </trkpt>
      <trkpt lat="46.8347" lon="6.32123">
        <ele>881</ele>
        <time>2022-12-01T10:10:42Z</time>
      </trkpt>
      <trkpt lat="46.83467" lon="6.32129">
        <ele>881.1</ele>
        <time>2022-12-01T10:10:47Z</time>
      </trkpt>
      <trkpt lat="46.83463" lon="6.32133">
        <ele>881.1</ele>
        <time>2022-12-01T10:10:52Z</time>
      </trkpt>
      <trkpt lat="46.8346" lon="6.32138">
        <ele>881</ele>
        <time>2022-12-01T10:10:56Z</time>
      </trkpt>
      <trkpt lat="46.83456" lon="6.32141">
        <ele>880.6</ele>
        <time>2022-12-01T10:11:00Z</time>
      </trkpt>
      <trkpt lat="46.83452" lon="6.32145">
        <ele>880.1</ele>
        <time>2022-12-01T10:11:05Z</time>
      </trkpt>
      <trkpt lat="46.83448" lon="6.32151">
        <ele>879.6</ele>
        <time>2022-12-01T10:11:10Z</time>
      </trkpt>
      <trkpt lat="46.83445" lon="6.32156">
        <ele>879</ele>
        <time>2022-12-01T10:11:15Z</time>
      </trkpt>
      <trkpt lat="46.83441" lon="6.32161">
        <ele>879.3</ele>
        <time>2022-12-01T10:11:20Z</time>
      </trkpt>
      <trkpt lat="46.83437" lon="6.32165">
        <ele>879.7</ele>
        <time>2022-12-01T10:11:24Z</time>
      </trkpt>
      <trkpt lat="46.83433" lon="6.32169">
        <ele>879.7</ele>
        <time>2022-12-01T10:11:29Z</time>
      </trkpt>
      <trkpt lat="46.8343" lon="6.32175">
        <ele>879.3</ele>
        <time>2022-12-01T10:11:34Z</time>
      </trkpt>
      <trkpt lat="46.83428" lon="6.32181">
        <ele>878.6</ele>
        <time>2022-12-01T10:11:41Z</time>
      </trkpt>
      <trkpt lat="46.83424" lon="6.32186">
        <ele>877.6</ele>
        <time>2022-12-01T10:11:48Z</time>
      </trkpt>
      <trkpt lat="46.83422" lon="6.32192">
        <ele>876.5</ele>
        <time>2022-12-01T10:11:54Z</time>
      </trkpt>
      <trkpt lat="46.83421" lon="6.32199">
        <ele>875.5</ele>
        <time>2022-12-01T10:12:02Z</time>
      </trkpt>
      <trkpt lat="46.83419" lon="6.32205">
        <ele>875.8</ele>
        <time>2022-12-01T10:12:10Z</time>
      </trkpt>
      <trkpt lat="46.83418" lon="6.32213">
        <ele>876.2</ele>
        <time>2022-12-01T10:12:16Z</time>
      </trkpt>
      <trkpt lat="46.83418" lon="6.3222">
        <ele>876.9</ele>
        <time>2022-12-01T10:12:21Z</time>
      </trkpt>
      <trkpt lat="46.83418" lon="6.32227">
        <ele>877.7</ele>
        <time>2022-12-01T10:12:27Z</time>
      </trkpt>
      <trkpt lat="46.83419" lon="6.32233">
        <ele>878.7</ele>
        <time>2022-12-01T10:12:33Z</time>
      </trkpt>
      <trkpt lat="46.83419" lon="6.3224">
        <ele>879.8</ele>
        <time>2022-12-01T10:12:41Z</time>
      </trkpt>
      <trkpt lat="46.83411" lon="6.32247">
        <ele>879.8</ele>
        <time>2022-12-01T10:16:52Z</time>
      </trkpt>
      <trkpt lat="46.83407" lon="6.32249">
        <ele>881.7</ele>
        <time>2022-12-01T10:17:01Z</time>
      </trkpt>
      <trkpt lat="46.83412" lon="6.3225">
        <ele>881.8</ele>
        <time>2022-12-01T10:18:10Z</time>
      </trkpt>
      <trkpt lat="46.83416" lon="6.32252">
        <ele>881.3</ele>
        <time>2022-12-01T10:18:18Z</time>
      </trkpt>
      <trkpt lat="46.83413" lon="6.32258">
        <ele>881.4</ele>
        <time>2022-12-01T10:18:36Z</time>
      </trkpt>
      <trkpt lat="46.83411" lon="6.32264">
        <ele>881.9</ele>
        <time>2022-12-01T10:18:46Z</time>
      </trkpt>
      <trkpt lat="46.83408" lon="6.32269">
        <ele>882.9</ele>
        <time>2022-12-01T10:18:52Z</time>
      </trkpt>
      <trkpt lat="46.83406" lon="6.32276">
        <ele>884.1</ele>
        <time>2022-12-01T10:18:59Z</time>
      </trkpt>
      <trkpt lat="46.83405" lon="6.32283">
        <ele>884.4</ele>
        <time>2022-12-01T10:19:04Z</time>
      </trkpt>
      <trkpt lat="46.83405" lon="6.3229">
        <ele>884.6</ele>
        <time>2022-12-01T10:19:11Z</time>
      </trkpt>
      <trkpt lat="46.83405" lon="6.32298">
        <ele>884.5</ele>
        <time>2022-12-01T10:19:18Z</time>
      </trkpt>
      <trkpt lat="46.83405" lon="6.32305">
        <ele>884.6</ele>
        <time>2022-12-01T10:19:24Z</time>
      </trkpt>
      <trkpt lat="46.83406" lon="6.32312">
        <ele>884.3</ele>
        <time>2022-12-01T10:19:29Z</time>
      </trkpt>
      <trkpt lat="46.83408" lon="6.32318">
        <ele>884</ele>
        <time>2022-12-01T10:19:34Z</time>
      </trkpt>
      <trkpt lat="46.83409" lon="6.32325">
        <ele>883.8</ele>
        <time>2022-12-01T10:19:39Z</time>
      </trkpt>
      <trkpt lat="46.8341" lon="6.32332">
        <ele>883.5</ele>
        <time>2022-12-01T10:19:45Z</time>
      </trkpt>
      <trkpt lat="46.83411" lon="6.32339">
        <ele>883.2</ele>
        <time>2022-12-01T10:19:52Z</time>
      </trkpt>
      <trkpt lat="46.83412" lon="6.32346">
        <ele>883.2</ele>
        <time>2022-12-01T10:19:58Z</time>
      </trkpt>
      <trkpt lat="46.83415" lon="6.32353">
        <ele>883</ele>
        <time>2022-12-01T10:20:03Z</time>
      </trkpt>
      <trkpt lat="46.83417" lon="6.3236">
        <ele>882.8</ele>
        <time>2022-12-01T10:20:09Z</time>
      </trkpt>
      <trkpt lat="46.83419" lon="6.32367">
        <ele>882.6</ele>
        <time>2022-12-01T10:20:17Z</time>
      </trkpt>
      <trkpt lat="46.8342" lon="6.32373">
        <ele>882.4</ele>
        <time>2022-12-01T10:20:24Z</time>
      </trkpt>
      <trkpt lat="46.83422" lon="6.32379">
        <ele>882</ele>
        <time>2022-12-01T10:20:29Z</time>
      </trkpt>
      <trkpt lat="46.83425" lon="6.32385">
        <ele>881.3</ele>
        <time>2022-12-01T10:20:35Z</time>
      </trkpt>
      <trkpt lat="46.83427" lon="6.32391">
        <ele>880.8</ele>
        <time>2022-12-01T10:20:40Z</time>
      </trkpt>
      <trkpt lat="46.8343" lon="6.32398">
        <ele>881.1</ele>
        <time>2022-12-01T10:20:45Z</time>
      </trkpt>
      <trkpt lat="46.83433" lon="6.32404">
        <ele>881.3</ele>
        <time>2022-12-01T10:20:50Z</time>
      </trkpt>
      <trkpt lat="46.83434" lon="6.32411">
        <ele>881.9</ele>
        <time>2022-12-01T10:20:55Z</time>
      </trkpt>
      <trkpt lat="46.83436" lon="6.32417">
        <ele>883.7</ele>
        <time>2022-12-01T10:21:01Z</time>
      </trkpt>
      <trkpt lat="46.83437" lon="6.32425">
        <ele>885.6</ele>
        <time>2022-12-01T10:21:07Z</time>
      </trkpt>
      <trkpt lat="46.8344" lon="6.32432">
        <ele>887.2</ele>
        <time>2022-12-01T10:21:13Z</time>
      </trkpt>
      <trkpt lat="46.83442" lon="6.32438">
        <ele>888.2</ele>
        <time>2022-12-01T10:21:18Z</time>
      </trkpt>
      <trkpt lat="46.83445" lon="6.32444">
        <ele>889.5</ele>
        <time>2022-12-01T10:21:23Z</time>
      </trkpt>
      <trkpt lat="46.83448" lon="6.3245">
        <ele>890.8</ele>
        <time>2022-12-01T10:21:28Z</time>
      </trkpt>
      <trkpt lat="46.8345" lon="6.32456">
        <ele>892.1</ele>
        <time>2022-12-01T10:21:36Z</time>
      </trkpt>
      <trkpt lat="46.83453" lon="6.32463">
        <ele>893.7</ele>
        <time>2022-12-01T10:21:44Z</time>
      </trkpt>
      <trkpt lat="46.83456" lon="6.32467">
        <ele>894.2</ele>
        <time>2022-12-01T10:21:50Z</time>
      </trkpt>
      <trkpt lat="46.83461" lon="6.3247">
        <ele>894.8</ele>
        <time>2022-12-01T10:21:57Z</time>
      </trkpt>
      <trkpt lat="46.83465" lon="6.32473">
        <ele>894.6</ele>
        <time>2022-12-01T10:22:06Z</time>
      </trkpt>
      <trkpt lat="46.83468" lon="6.32479">
        <ele>895.2</ele>
        <time>2022-12-01T10:22:19Z</time>
      </trkpt>
      <trkpt lat="46.83472" lon="6.32484">
        <ele>895.7</ele>
        <time>2022-12-01T10:22:23Z</time>
      </trkpt>
      <trkpt lat="46.83476" lon="6.32488">
        <ele>895.8</ele>
        <time>2022-12-01T10:22:28Z</time>
      </trkpt>
      <trkpt lat="46.83479" lon="6.32493">
        <ele>896.1</ele>
        <time>2022-12-01T10:22:33Z</time>
      </trkpt>
      <trkpt lat="46.83482" lon="6.32498">
        <ele>897.4</ele>
        <time>2022-12-01T10:22:38Z</time>
      </trkpt>
      <trkpt lat="46.83485" lon="6.32502">
        <ele>898.7</ele>
        <time>2022-12-01T10:22:44Z</time>
      </trkpt>
      <trkpt lat="46.83489" lon="6.32507">
        <ele>899</ele>
        <time>2022-12-01T10:22:51Z</time>
      </trkpt>
      <trkpt lat="46.83491" lon="6.32514">
        <ele>899</ele>
        <time>2022-12-01T10:22:57Z</time>
      </trkpt>
      <trkpt lat="46.83493" lon="6.32522">
        <ele>898.9</ele>
        <time>2022-12-01T10:23:03Z</time>
      </trkpt>
      <trkpt lat="46.83494" lon="6.32529">
        <ele>898.7</ele>
        <time>2022-12-01T10:23:07Z</time>
      </trkpt>
      <trkpt lat="46.83495" lon="6.32536">
        <ele>898.4</ele>
        <time>2022-12-01T10:23:12Z</time>
      </trkpt>
      <trkpt lat="46.83495" lon="6.32543">
        <ele>898.6</ele>
        <time>2022-12-01T10:23:18Z</time>
      </trkpt>
      <trkpt lat="46.83497" lon="6.32551">
        <ele>899</ele>
        <time>2022-12-01T10:23:23Z</time>
      </trkpt>
      <trkpt lat="46.83498" lon="6.32558">
        <ele>899.3</ele>
        <time>2022-12-01T10:23:28Z</time>
      </trkpt>
      <trkpt lat="46.83499" lon="6.32565">
        <ele>899.5</ele>
        <time>2022-12-01T10:23:33Z</time>
      </trkpt>
      <trkpt lat="46.83501" lon="6.32573">
        <ele>900.1</ele>
        <time>2022-12-01T10:23:38Z</time>
      </trkpt>
      <trkpt lat="46.83503" lon="6.32578">
        <ele>900.6</ele>
        <time>2022-12-01T10:23:43Z</time>
      </trkpt>
      <trkpt lat="46.83506" lon="6.32585">
        <ele>901.1</ele>
        <time>2022-12-01T10:23:48Z</time>
      </trkpt>
      <trkpt lat="46.83509" lon="6.32592">
        <ele>900.5</ele>
        <time>2022-12-01T10:23:53Z</time>
      </trkpt>
      <trkpt lat="46.83511" lon="6.32599">
        <ele>900</ele>
        <time>2022-12-01T10:23:58Z</time>
      </trkpt>
      <trkpt lat="46.83512" lon="6.32605">
        <ele>900</ele>
        <time>2022-12-01T10:24:03Z</time>
      </trkpt>
      <trkpt lat="46.83514" lon="6.32613">
        <ele>900.2</ele>
        <time>2022-12-01T10:24:08Z</time>
      </trkpt>
      <trkpt lat="46.83516" lon="6.3262">
        <ele>900.4</ele>
        <time>2022-12-01T10:24:13Z</time>
      </trkpt>
      <trkpt lat="46.83518" lon="6.32626">
        <ele>900.8</ele>
        <time>2022-12-01T10:24:18Z</time>
      </trkpt>
      <trkpt lat="46.83521" lon="6.32633">
        <ele>901.1</ele>
        <time>2022-12-01T10:24:23Z</time>
      </trkpt>
      <trkpt lat="46.83524" lon="6.32638">
        <ele>900.9</ele>
        <time>2022-12-01T10:24:27Z</time>
      </trkpt>
      <trkpt lat="46.83527" lon="6.32645">
        <ele>900</ele>
        <time>2022-12-01T10:24:33Z</time>
      </trkpt>
      <trkpt lat="46.8353" lon="6.3265">
        <ele>899.1</ele>
        <time>2022-12-01T10:24:39Z</time>
      </trkpt>
      <trkpt lat="46.83534" lon="6.32654">
        <ele>899.3</ele>
        <time>2022-12-01T10:24:44Z</time>
      </trkpt>
      <trkpt lat="46.83538" lon="6.32659">
        <ele>899.7</ele>
        <time>2022-12-01T10:24:49Z</time>
      </trkpt>
      <trkpt lat="46.8354" lon="6.32665">
        <ele>899.9</ele>
        <time>2022-12-01T10:24:53Z</time>
      </trkpt>
      <trkpt lat="46.83544" lon="6.32671">
        <ele>900</ele>
        <time>2022-12-01T10:24:59Z</time>
      </trkpt>
      <trkpt lat="46.83547" lon="6.32676">
        <ele>899.5</ele>
        <time>2022-12-01T10:25:04Z</time>
      </trkpt>
      <trkpt lat="46.83549" lon="6.32682">
        <ele>899.2</ele>
        <time>2022-12-01T10:25:08Z</time>
      </trkpt>
      <trkpt lat="46.83551" lon="6.32688">
        <ele>898.9</ele>
        <time>2022-12-01T10:25:12Z</time>
      </trkpt>
      <trkpt lat="46.83553" lon="6.32694">
        <ele>898.9</ele>
        <time>2022-12-01T10:25:17Z</time>
      </trkpt>
      <trkpt lat="46.83556" lon="6.32701">
        <ele>899.2</ele>
        <time>2022-12-01T10:25:22Z</time>
      </trkpt>
      <trkpt lat="46.83558" lon="6.32708">
        <ele>899.4</ele>
        <time>2022-12-01T10:25:27Z</time>
      </trkpt>
      <trkpt lat="46.8356" lon="6.32715">
        <ele>899.8</ele>
        <time>2022-12-01T10:25:32Z</time>
      </trkpt>
      <trkpt lat="46.83563" lon="6.32722">
        <ele>900</ele>
        <time>2022-12-01T10:25:37Z</time>
      </trkpt>
      <trkpt lat="46.83565" lon="6.32729">
        <ele>900.1</ele>
        <time>2022-12-01T10:25:43Z</time>
      </trkpt>
      <trkpt lat="46.83568" lon="6.32736">
        <ele>900</ele>
        <time>2022-12-01T10:25:48Z</time>
      </trkpt>
      <trkpt lat="46.83569" lon="6.32742">
        <ele>899.8</ele>
        <time>2022-12-01T10:25:52Z</time>
      </trkpt>
      <trkpt lat="46.8357" lon="6.32749">
        <ele>899.9</ele>
        <time>2022-12-01T10:25:57Z</time>
      </trkpt>
      <trkpt lat="46.83571" lon="6.32756">
        <ele>899.8</ele>
        <time>2022-12-01T10:26:02Z</time>
      </trkpt>
      <trkpt lat="46.83573" lon="6.32762">
        <ele>899.6</ele>
        <time>2022-12-01T10:26:06Z</time>
      </trkpt>
      <trkpt lat="46.83575" lon="6.32768">
        <ele>899.3</ele>
        <time>2022-12-01T10:26:10Z</time>
      </trkpt>
      <trkpt lat="46.83576" lon="6.32775">
        <ele>898.5</ele>
        <time>2022-12-01T10:26:16Z</time>
      </trkpt>
      <trkpt lat="46.83576" lon="6.32782">
        <ele>898.4</ele>
        <time>2022-12-01T10:26:21Z</time>
      </trkpt>
      <trkpt lat="46.83576" lon="6.32789">
        <ele>898.1</ele>
        <time>2022-12-01T10:26:25Z</time>
      </trkpt>
      <trkpt lat="46.83576" lon="6.32796">
        <ele>898</ele>
        <time>2022-12-01T10:26:30Z</time>
      </trkpt>
      <trkpt lat="46.83577" lon="6.32804">
        <ele>898</ele>
        <time>2022-12-01T10:26:36Z</time>
      </trkpt>
      <trkpt lat="46.83579" lon="6.3281">
        <ele>898.1</ele>
        <time>2022-12-01T10:26:40Z</time>
      </trkpt>
      <trkpt lat="46.83581" lon="6.32817">
        <ele>897.9</ele>
        <time>2022-12-01T10:26:45Z</time>
      </trkpt>
      <trkpt lat="46.83583" lon="6.32824">
        <ele>897.5</ele>
        <time>2022-12-01T10:26:50Z</time>
      </trkpt>
      <trkpt lat="46.83584" lon="6.32831">
        <ele>897.2</ele>
        <time>2022-12-01T10:26:55Z</time>
      </trkpt>
      <trkpt lat="46.83586" lon="6.32838">
        <ele>895.9</ele>
        <time>2022-12-01T10:27:01Z</time>
      </trkpt>
      <trkpt lat="46.83587" lon="6.32845">
        <ele>894.7</ele>
        <time>2022-12-01T10:27:06Z</time>
      </trkpt>
      <trkpt lat="46.83588" lon="6.32851">
        <ele>893.9</ele>
        <time>2022-12-01T10:27:11Z</time>
      </trkpt>
      <trkpt lat="46.8359" lon="6.32859">
        <ele>890.9</ele>
        <time>2022-12-01T10:27:51Z</time>
      </trkpt>
      <trkpt lat="46.83591" lon="6.32866">
        <ele>890</ele>
        <time>2022-12-01T10:27:55Z</time>
      </trkpt>
      <trkpt lat="46.83592" lon="6.32872">
        <ele>889.6</ele>
        <time>2022-12-01T10:27:59Z</time>
      </trkpt>
      <trkpt lat="46.83594" lon="6.32879">
        <ele>889.4</ele>
        <time>2022-12-01T10:28:03Z</time>
      </trkpt>
      <trkpt lat="46.83595" lon="6.32886">
        <ele>890</ele>
        <time>2022-12-01T10:28:07Z</time>
      </trkpt>
      <trkpt lat="46.83597" lon="6.32892">
        <ele>890.6</ele>
        <time>2022-12-01T10:28:11Z</time>
      </trkpt>
      <trkpt lat="46.836" lon="6.32898">
        <ele>890.6</ele>
        <time>2022-12-01T10:28:15Z</time>
      </trkpt>
      <trkpt lat="46.83604" lon="6.32903">
        <ele>890.4</ele>
        <time>2022-12-01T10:28:19Z</time>
      </trkpt>
      <trkpt lat="46.83606" lon="6.32909">
        <ele>890.4</ele>
        <time>2022-12-01T10:28:23Z</time>
      </trkpt>
      <trkpt lat="46.83609" lon="6.32915">
        <ele>890.2</ele>
        <time>2022-12-01T10:28:27Z</time>
      </trkpt>
      <trkpt lat="46.83612" lon="6.3292">
        <ele>890</ele>
        <time>2022-12-01T10:28:31Z</time>
      </trkpt>
      <trkpt lat="46.83615" lon="6.32925">
        <ele>889.9</ele>
        <time>2022-12-01T10:28:35Z</time>
      </trkpt>
      <trkpt lat="46.83619" lon="6.32931">
        <ele>889.8</ele>
        <time>2022-12-01T10:28:39Z</time>
      </trkpt>
      <trkpt lat="46.83622" lon="6.32936">
        <ele>889.7</ele>
        <time>2022-12-01T10:28:42Z</time>
      </trkpt>
      <trkpt lat="46.83625" lon="6.32941">
        <ele>889.6</ele>
        <time>2022-12-01T10:28:45Z</time>
      </trkpt>
      <trkpt lat="46.83628" lon="6.32947">
        <ele>889.5</ele>
        <time>2022-12-01T10:28:49Z</time>
      </trkpt>
      <trkpt lat="46.83631" lon="6.32953">
        <ele>889.6</ele>
        <time>2022-12-01T10:28:54Z</time>
      </trkpt>
      <trkpt lat="46.83636" lon="6.32957">
        <ele>889.6</ele>
        <time>2022-12-01T10:28:58Z</time>
      </trkpt>
      <trkpt lat="46.8364" lon="6.32961">
        <ele>889.8</ele>
        <time>2022-12-01T10:29:01Z</time>
      </trkpt>
      <trkpt lat="46.83644" lon="6.32965">
        <ele>890.2</ele>
        <time>2022-12-01T10:29:04Z</time>
      </trkpt>
      <trkpt lat="46.83648" lon="6.32971">
        <ele>890.8</ele>
        <time>2022-12-01T10:29:08Z</time>
      </trkpt>
      <trkpt lat="46.83651" lon="6.32978">
        <ele>891.4</ele>
        <time>2022-12-01T10:29:12Z</time>
      </trkpt>
      <trkpt lat="46.83651" lon="6.32984">
        <ele>891.8</ele>
        <time>2022-12-01T10:29:17Z</time>
      </trkpt>
      <trkpt lat="46.8365" lon="6.32993">
        <ele>891.1</ele>
        <time>2022-12-01T10:29:22Z</time>
      </trkpt>
      <trkpt lat="46.8365" lon="6.33001">
        <ele>890.4</ele>
        <time>2022-12-01T10:29:26Z</time>
      </trkpt>
      <trkpt lat="46.8365" lon="6.33009">
        <ele>889.9</ele>
        <time>2022-12-01T10:29:30Z</time>
      </trkpt>
      <trkpt lat="46.83648" lon="6.33015">
        <ele>889.6</ele>
        <time>2022-12-01T10:29:34Z</time>
      </trkpt>
      <trkpt lat="46.83646" lon="6.33022">
        <ele>888.7</ele>
        <time>2022-12-01T10:29:39Z</time>
      </trkpt>
      <trkpt lat="46.83649" lon="6.33029">
        <ele>887.5</ele>
        <time>2022-12-01T10:29:45Z</time>
      </trkpt>
      <trkpt lat="46.8365" lon="6.33037">
        <ele>886.4</ele>
        <time>2022-12-01T10:29:50Z</time>
      </trkpt>
      <trkpt lat="46.83649" lon="6.33044">
        <ele>885.7</ele>
        <time>2022-12-01T10:29:55Z</time>
      </trkpt>
      <trkpt lat="46.83648" lon="6.3305">
        <ele>885.2</ele>
        <time>2022-12-01T10:30:00Z</time>
      </trkpt>
      <trkpt lat="46.83648" lon="6.33057">
        <ele>884.4</ele>
        <time>2022-12-01T10:30:06Z</time>
      </trkpt>
      <trkpt lat="46.83647" lon="6.33063">
        <ele>883.9</ele>
        <time>2022-12-01T10:30:11Z</time>
      </trkpt>
      <trkpt lat="46.83646" lon="6.3307">
        <ele>883.4</ele>
        <time>2022-12-01T10:30:16Z</time>
      </trkpt>
      <trkpt lat="46.83646" lon="6.33077">
        <ele>882.8</ele>
        <time>2022-12-01T10:30:22Z</time>
      </trkpt>
      <trkpt lat="46.83647" lon="6.33084">
        <ele>881.7</ele>
        <time>2022-12-01T10:30:29Z</time>
      </trkpt>
      <trkpt lat="46.83647" lon="6.33091">
        <ele>880.4</ele>
        <time>2022-12-01T10:30:34Z</time>
      </trkpt>
      <trkpt lat="46.83649" lon="6.33098">
        <ele>878.6</ele>
        <time>2022-12-01T10:30:40Z</time>
      </trkpt>
      <trkpt lat="46.83651" lon="6.33105">
        <ele>877.4</ele>
        <time>2022-12-01T10:30:45Z</time>
      </trkpt>
      <trkpt lat="46.83651" lon="6.33112">
        <ele>876.8</ele>
        <time>2022-12-01T10:30:50Z</time>
      </trkpt>
      <trkpt lat="46.83654" lon="6.33118">
        <ele>876.7</ele>
        <time>2022-12-01T10:30:55Z</time>
      </trkpt>
      <trkpt lat="46.83658" lon="6.33121">
        <ele>876.3</ele>
        <time>2022-12-01T10:31:00Z</time>
      </trkpt>
      <trkpt lat="46.83663" lon="6.33122">
        <ele>875.8</ele>
        <time>2022-12-01T10:31:06Z</time>
      </trkpt>
      <trkpt lat="46.83668" lon="6.33123">
        <ele>875.3</ele>
        <time>2022-12-01T10:31:11Z</time>
      </trkpt>
      <trkpt lat="46.83673" lon="6.33124">
        <ele>874.7</ele>
        <time>2022-12-01T10:31:17Z</time>
      </trkpt>
      <trkpt lat="46.83678" lon="6.33127">
        <ele>874.9</ele>
        <time>2022-12-01T10:31:22Z</time>
      </trkpt>
      <trkpt lat="46.83683" lon="6.33129">
        <ele>875</ele>
        <time>2022-12-01T10:31:27Z</time>
      </trkpt>
      <trkpt lat="46.83687" lon="6.33132">
        <ele>874.4</ele>
        <time>2022-12-01T10:31:32Z</time>
      </trkpt>
      <trkpt lat="46.8369" lon="6.33138">
        <ele>873.9</ele>
        <time>2022-12-01T10:31:36Z</time>
      </trkpt>
      <trkpt lat="46.83691" lon="6.33145">
        <ele>872.3</ele>
        <time>2022-12-01T10:31:42Z</time>
      </trkpt>
      <trkpt lat="46.83689" lon="6.33152">
        <ele>870.3</ele>
        <time>2022-12-01T10:31:47Z</time>
      </trkpt>
      <trkpt lat="46.83687" lon="6.33159">
        <ele>869</ele>
        <time>2022-12-01T10:31:52Z</time>
      </trkpt>
      <trkpt lat="46.83685" lon="6.33165">
        <ele>868.3</ele>
        <time>2022-12-01T10:31:57Z</time>
      </trkpt>
      <trkpt lat="46.83685" lon="6.33173">
        <ele>868</ele>
        <time>2022-12-01T10:32:03Z</time>
      </trkpt>
      <trkpt lat="46.83687" lon="6.3318">
        <ele>868.4</ele>
        <time>2022-12-01T10:32:08Z</time>
      </trkpt>
      <trkpt lat="46.8369" lon="6.33186">
        <ele>868.9</ele>
        <time>2022-12-01T10:32:14Z</time>
      </trkpt>
      <trkpt lat="46.83694" lon="6.3319">
        <ele>869.3</ele>
        <time>2022-12-01T10:32:21Z</time>
      </trkpt>
      <trkpt lat="46.83698" lon="6.33195">
        <ele>870.5</ele>
        <time>2022-12-01T10:32:30Z</time>
      </trkpt>
      <trkpt lat="46.83701" lon="6.33198">
        <ele>870.9</ele>
        <time>2022-12-01T10:32:38Z</time>
      </trkpt>
      <trkpt lat="46.83706" lon="6.33202">
        <ele>870.9</ele>
        <time>2022-12-01T10:32:44Z</time>
      </trkpt>
      <trkpt lat="46.8371" lon="6.33204">
        <ele>870.4</ele>
        <time>2022-12-01T10:32:50Z</time>
      </trkpt>
      <trkpt lat="46.83714" lon="6.33208">
        <ele>869.1</ele>
        <time>2022-12-01T10:32:56Z</time>
      </trkpt>
      <trkpt lat="46.83718" lon="6.33212">
        <ele>867.8</ele>
        <time>2022-12-01T10:33:03Z</time>
      </trkpt>
      <trkpt lat="46.83722" lon="6.33215">
        <ele>867.4</ele>
        <time>2022-12-01T10:33:08Z</time>
      </trkpt>
      <trkpt lat="46.83727" lon="6.33219">
        <ele>867.3</ele>
        <time>2022-12-01T10:33:12Z</time>
      </trkpt>
      <trkpt lat="46.83731" lon="6.33222">
        <ele>867.3</ele>
        <time>2022-12-01T10:33:16Z</time>
      </trkpt>
      <trkpt lat="46.83735" lon="6.33227">
        <ele>866.9</ele>
        <time>2022-12-01T10:33:21Z</time>
      </trkpt>
      <trkpt lat="46.83738" lon="6.33231">
        <ele>866.4</ele>
        <time>2022-12-01T10:33:27Z</time>
      </trkpt>
      <trkpt lat="46.83743" lon="6.33233">
        <ele>865</ele>
        <time>2022-12-01T10:33:33Z</time>
      </trkpt>
      <trkpt lat="46.83746" lon="6.33238">
        <ele>862.6</ele>
        <time>2022-12-01T10:33:39Z</time>
      </trkpt>
      <trkpt lat="46.8375" lon="6.33243">
        <ele>861.8</ele>
        <time>2022-12-01T10:33:44Z</time>
      </trkpt>
      <trkpt lat="46.83752" lon="6.33249">
        <ele>861.5</ele>
        <time>2022-12-01T10:33:49Z</time>
      </trkpt>
      <trkpt lat="46.83755" lon="6.33255">
        <ele>860.7</ele>
        <time>2022-12-01T10:33:55Z</time>
      </trkpt>
      <trkpt lat="46.83758" lon="6.3326">
        <ele>859.9</ele>
        <time>2022-12-01T10:34:01Z</time>
      </trkpt>
      <trkpt lat="46.83759" lon="6.33267">
        <ele>859.7</ele>
        <time>2022-12-01T10:34:07Z</time>
      </trkpt>
      <trkpt lat="46.83761" lon="6.33273">
        <ele>859.5</ele>
        <time>2022-12-01T10:34:14Z</time>
      </trkpt>
      <trkpt lat="46.83765" lon="6.33278">
        <ele>859.1</ele>
        <time>2022-12-01T10:34:19Z</time>
      </trkpt>
      <trkpt lat="46.83769" lon="6.3328">
        <ele>858.1</ele>
        <time>2022-12-01T10:34:25Z</time>
      </trkpt>
      <trkpt lat="46.83774" lon="6.33282">
        <ele>857.4</ele>
        <time>2022-12-01T10:34:30Z</time>
      </trkpt>
      <trkpt lat="46.83779" lon="6.33284">
        <ele>856.2</ele>
        <time>2022-12-01T10:34:35Z</time>
      </trkpt>
      <trkpt lat="46.83784" lon="6.33286">
        <ele>854.6</ele>
        <time>2022-12-01T10:34:42Z</time>
      </trkpt>
      <trkpt lat="46.83789" lon="6.33288">
        <ele>853.6</ele>
        <time>2022-12-01T10:34:48Z</time>
      </trkpt>
      <trkpt lat="46.83793" lon="6.33289">
        <ele>852.9</ele>
        <time>2022-12-01T10:34:52Z</time>
      </trkpt>
      <trkpt lat="46.83798" lon="6.33288">
        <ele>852.2</ele>
        <time>2022-12-01T10:34:56Z</time>
      </trkpt>
      <trkpt lat="46.83802" lon="6.33288">
        <ele>851.7</ele>
        <time>2022-12-01T10:35:00Z</time>
      </trkpt>
      <trkpt lat="46.83807" lon="6.33289">
        <ele>851.4</ele>
        <time>2022-12-01T10:35:05Z</time>
      </trkpt>
      <trkpt lat="46.83812" lon="6.3329">
        <ele>851.3</ele>
        <time>2022-12-01T10:35:10Z</time>
      </trkpt>
      <trkpt lat="46.83817" lon="6.33291">
        <ele>851.2</ele>
        <time>2022-12-01T10:35:15Z</time>
      </trkpt>
      <trkpt lat="46.83822" lon="6.33293">
        <ele>851.3</ele>
        <time>2022-12-01T10:35:19Z</time>
      </trkpt>
      <trkpt lat="46.83827" lon="6.33294">
        <ele>851.5</ele>
        <time>2022-12-01T10:35:23Z</time>
      </trkpt>
      <trkpt lat="46.83832" lon="6.33291">
        <ele>851.7</ele>
        <time>2022-12-01T10:35:28Z</time>
      </trkpt>
      <trkpt lat="46.83837" lon="6.33293">
        <ele>851.9</ele>
        <time>2022-12-01T10:35:32Z</time>
      </trkpt>
      <trkpt lat="46.83842" lon="6.33295">
        <ele>851.9</ele>
        <time>2022-12-01T10:35:37Z</time>
      </trkpt>
      <trkpt lat="46.83846" lon="6.33299">
        <ele>851.6</ele>
        <time>2022-12-01T10:35:43Z</time>
      </trkpt>
      <trkpt lat="46.83851" lon="6.333">
        <ele>851.3</ele>
        <time>2022-12-01T10:35:48Z</time>
      </trkpt>
      <trkpt lat="46.83856" lon="6.33301">
        <ele>851.4</ele>
        <time>2022-12-01T10:35:53Z</time>
      </trkpt>
      <trkpt lat="46.8386" lon="6.33301">
        <ele>851.1</ele>
        <time>2022-12-01T10:35:58Z</time>
      </trkpt>
      <trkpt lat="46.83866" lon="6.333">
        <ele>850.7</ele>
        <time>2022-12-01T10:36:04Z</time>
      </trkpt>
      <trkpt lat="46.83871" lon="6.33299">
        <ele>850.6</ele>
        <time>2022-12-01T10:36:09Z</time>
      </trkpt>
      <trkpt lat="46.83876" lon="6.33298">
        <ele>850.2</ele>
        <time>2022-12-01T10:36:13Z</time>
      </trkpt>
      <trkpt lat="46.83881" lon="6.33298">
        <ele>850.2</ele>
        <time>2022-12-01T10:36:17Z</time>
      </trkpt>
      <trkpt lat="46.83886" lon="6.33298">
        <ele>850.1</ele>
        <time>2022-12-01T10:36:22Z</time>
      </trkpt>
      <trkpt lat="46.83892" lon="6.33298">
        <ele>849.7</ele>
        <time>2022-12-01T10:36:27Z</time>
      </trkpt>
      <trkpt lat="46.83897" lon="6.33296">
        <ele>849.4</ele>
        <time>2022-12-01T10:36:32Z</time>
      </trkpt>
      <trkpt lat="46.83902" lon="6.33296">
        <ele>849.6</ele>
        <time>2022-12-01T10:36:37Z</time>
      </trkpt>
      <trkpt lat="46.83907" lon="6.33298">
        <ele>850.1</ele>
        <time>2022-12-01T10:36:41Z</time>
      </trkpt>
      <trkpt lat="46.83912" lon="6.33299">
        <ele>850.6</ele>
        <time>2022-12-01T10:36:46Z</time>
      </trkpt>
      <trkpt lat="46.83916" lon="6.33303">
        <ele>851.2</ele>
        <time>2022-12-01T10:36:50Z</time>
      </trkpt>
      <trkpt lat="46.83921" lon="6.33308">
        <ele>852</ele>
        <time>2022-12-01T10:36:54Z</time>
      </trkpt>
      <trkpt lat="46.83925" lon="6.33312">
        <ele>852.2</ele>
        <time>2022-12-01T10:36:58Z</time>
      </trkpt>
      <trkpt lat="46.83928" lon="6.33317">
        <ele>852.2</ele>
        <time>2022-12-01T10:37:02Z</time>
      </trkpt>
      <trkpt lat="46.83932" lon="6.33321">
        <ele>852.1</ele>
        <time>2022-12-01T10:37:06Z</time>
      </trkpt>
      <trkpt lat="46.83935" lon="6.33327">
        <ele>852.2</ele>
        <time>2022-12-01T10:37:10Z</time>
      </trkpt>
      <trkpt lat="46.8394" lon="6.33331">
        <ele>851.8</ele>
        <time>2022-12-01T10:37:15Z</time>
      </trkpt>
      <trkpt lat="46.83945" lon="6.33334">
        <ele>851</ele>
        <time>2022-12-01T10:37:20Z</time>
      </trkpt>
      <trkpt lat="46.8395" lon="6.33337">
        <ele>850.3</ele>
        <time>2022-12-01T10:37:26Z</time>
      </trkpt>
      <trkpt lat="46.83954" lon="6.33339">
        <ele>849.5</ele>
        <time>2022-12-01T10:37:31Z</time>
      </trkpt>
      <trkpt lat="46.83958" lon="6.33344">
        <ele>849.2</ele>
        <time>2022-12-01T10:37:36Z</time>
      </trkpt>
      <trkpt lat="46.83962" lon="6.33348">
        <ele>849.5</ele>
        <time>2022-12-01T10:37:41Z</time>
      </trkpt>
      <trkpt lat="46.83967" lon="6.3335">
        <ele>849.9</ele>
        <time>2022-12-01T10:37:47Z</time>
      </trkpt>
      <trkpt lat="46.83971" lon="6.33354">
        <ele>850</ele>
        <time>2022-12-01T10:37:52Z</time>
      </trkpt>
      <trkpt lat="46.83975" lon="6.33358">
        <ele>849.9</ele>
        <time>2022-12-01T10:37:56Z</time>
      </trkpt>
      <trkpt lat="46.83979" lon="6.33362">
        <ele>850.1</ele>
        <time>2022-12-01T10:38:00Z</time>
      </trkpt>
      <trkpt lat="46.83984" lon="6.33364">
        <ele>850.2</ele>
        <time>2022-12-01T10:38:04Z</time>
      </trkpt>
      <trkpt lat="46.83987" lon="6.33368">
        <ele>850.8</ele>
        <time>2022-12-01T10:38:09Z</time>
      </trkpt>
      <trkpt lat="46.83991" lon="6.33372">
        <ele>850.8</ele>
        <time>2022-12-01T10:38:14Z</time>
      </trkpt>
      <trkpt lat="46.83996" lon="6.33373">
        <ele>851.4</ele>
        <time>2022-12-01T10:38:21Z</time>
      </trkpt>
      <trkpt lat="46.84001" lon="6.33375">
        <ele>853.6</ele>
        <time>2022-12-01T10:38:27Z</time>
      </trkpt>
      <trkpt lat="46.84006" lon="6.33378">
        <ele>856</ele>
        <time>2022-12-01T10:38:32Z</time>
      </trkpt>
      <trkpt lat="46.8401" lon="6.33381">
        <ele>857.5</ele>
        <time>2022-12-01T10:38:37Z</time>
      </trkpt>
      <trkpt lat="46.84013" lon="6.33387">
        <ele>858.4</ele>
        <time>2022-12-01T10:38:42Z</time>
      </trkpt>
      <trkpt lat="46.84017" lon="6.33392">
        <ele>858.7</ele>
        <time>2022-12-01T10:38:48Z</time>
      </trkpt>
      <trkpt lat="46.8402" lon="6.33396">
        <ele>858.2</ele>
        <time>2022-12-01T10:38:53Z</time>
      </trkpt>
      <trkpt lat="46.84025" lon="6.334">
        <ele>857.5</ele>
        <time>2022-12-01T10:38:59Z</time>
      </trkpt>
      <trkpt lat="46.84029" lon="6.33403">
        <ele>857.3</ele>
        <time>2022-12-01T10:39:03Z</time>
      </trkpt>
      <trkpt lat="46.84034" lon="6.33405">
        <ele>857</ele>
        <time>2022-12-01T10:39:08Z</time>
      </trkpt>
      <trkpt lat="46.84039" lon="6.33407">
        <ele>856.3</ele>
        <time>2022-12-01T10:39:14Z</time>
      </trkpt>
      <trkpt lat="46.84041" lon="6.33413">
        <ele>855.9</ele>
        <time>2022-12-01T10:39:21Z</time>
      </trkpt>
      <trkpt lat="46.84041" lon="6.3342">
        <ele>855.6</ele>
        <time>2022-12-01T10:39:29Z</time>
      </trkpt>
      <trkpt lat="46.84041" lon="6.33428">
        <ele>854.3</ele>
        <time>2022-12-01T10:39:35Z</time>
      </trkpt>
      <trkpt lat="46.84042" lon="6.33436">
        <ele>854.2</ele>
        <time>2022-12-01T10:39:39Z</time>
      </trkpt>
      <trkpt lat="46.84042" lon="6.33442">
        <ele>854.7</ele>
        <time>2022-12-01T10:39:43Z</time>
      </trkpt>
      <trkpt lat="46.84043" lon="6.33449">
        <ele>855.1</ele>
        <time>2022-12-01T10:39:49Z</time>
      </trkpt>
      <trkpt lat="46.84044" lon="6.33457">
        <ele>855</ele>
        <time>2022-12-01T10:39:55Z</time>
      </trkpt>
      <trkpt lat="46.84045" lon="6.33464">
        <ele>855</ele>
        <time>2022-12-01T10:40:00Z</time>
      </trkpt>
      <trkpt lat="46.84047" lon="6.3347">
        <ele>854.6</ele>
        <time>2022-12-01T10:40:06Z</time>
      </trkpt>
      <trkpt lat="46.84048" lon="6.33478">
        <ele>853.8</ele>
        <time>2022-12-01T10:40:12Z</time>
      </trkpt>
      <trkpt lat="46.84048" lon="6.33484">
        <ele>853.7</ele>
        <time>2022-12-01T10:40:16Z</time>
      </trkpt>
      <trkpt lat="46.84049" lon="6.33491">
        <ele>853.2</ele>
        <time>2022-12-01T10:40:22Z</time>
      </trkpt>
      <trkpt lat="46.84053" lon="6.33491">
        <ele>854.7</ele>
        <time>2022-12-01T10:40:38Z</time>
      </trkpt>
      <trkpt lat="46.84057" lon="6.33494">
        <ele>855.7</ele>
        <time>2022-12-01T10:41:16Z</time>
      </trkpt>
      <trkpt lat="46.84052" lon="6.33496">
        <ele>853.2</ele>
        <time>2022-12-01T10:41:34Z</time>
      </trkpt>
      <trkpt lat="46.84049" lon="6.335">
        <ele>852.5</ele>
        <time>2022-12-01T10:41:42Z</time>
      </trkpt>
      <trkpt lat="46.84044" lon="6.33503">
        <ele>852.2</ele>
        <time>2022-12-01T10:41:52Z</time>
      </trkpt>
      <trkpt lat="46.84039" lon="6.335">
        <ele>852.6</ele>
        <time>2022-12-01T10:41:58Z</time>
      </trkpt>
      <trkpt lat="46.84038" lon="6.33493">
        <ele>853.3</ele>
        <time>2022-12-01T10:42:04Z</time>
      </trkpt>
      <trkpt lat="46.84039" lon="6.33487">
        <ele>853.8</ele>
        <time>2022-12-01T10:42:10Z</time>
      </trkpt>
      <trkpt lat="46.84043" lon="6.33489">
        <ele>853.3</ele>
        <time>2022-12-01T11:16:03Z</time>
      </trkpt>
      <trkpt lat="46.84039" lon="6.33492">
        <ele>854.7</ele>
        <time>2022-12-01T11:16:43Z</time>
      </trkpt>
      <trkpt lat="46.84035" lon="6.33498">
        <ele>855.1</ele>
        <time>2022-12-01T11:16:59Z</time>
      </trkpt>
      <trkpt lat="46.84033" lon="6.33504">
        <ele>854.4</ele>
        <time>2022-12-01T11:17:04Z</time>
      </trkpt>
      <trkpt lat="46.84029" lon="6.33508">
        <ele>854.2</ele>
        <time>2022-12-01T11:17:10Z</time>
      </trkpt>
      <trkpt lat="46.84024" lon="6.33512">
        <ele>854.3</ele>
        <time>2022-12-01T11:17:16Z</time>
      </trkpt>
      <trkpt lat="46.84021" lon="6.33517">
        <ele>854.4</ele>
        <time>2022-12-01T11:17:21Z</time>
      </trkpt>
      <trkpt lat="46.84018" lon="6.33523">
        <ele>854.2</ele>
        <time>2022-12-01T11:17:28Z</time>
      </trkpt>
      <trkpt lat="46.84015" lon="6.33528">
        <ele>853.9</ele>
        <time>2022-12-01T11:17:34Z</time>
      </trkpt>
      <trkpt lat="46.84012" lon="6.33535">
        <ele>853.1</ele>
        <time>2022-12-01T11:17:40Z</time>
      </trkpt>
      <trkpt lat="46.84008" lon="6.33539">
        <ele>852.8</ele>
        <time>2022-12-01T11:17:45Z</time>
      </trkpt>
      <trkpt lat="46.84005" lon="6.33543">
        <ele>852.6</ele>
        <time>2022-12-01T11:17:50Z</time>
      </trkpt>
      <trkpt lat="46.84001" lon="6.33547">
        <ele>852.3</ele>
        <time>2022-12-01T11:17:56Z</time>
      </trkpt>
      <trkpt lat="46.83997" lon="6.33553">
        <ele>852.1</ele>
        <time>2022-12-01T11:18:03Z</time>
      </trkpt>
      <trkpt lat="46.83993" lon="6.33557">
        <ele>851.4</ele>
        <time>2022-12-01T11:18:09Z</time>
      </trkpt>
      <trkpt lat="46.83989" lon="6.33561">
        <ele>850.3</ele>
        <time>2022-12-01T11:18:14Z</time>
      </trkpt>
      <trkpt lat="46.83985" lon="6.33567">
        <ele>849</ele>
        <time>2022-12-01T11:18:20Z</time>
      </trkpt>
      <trkpt lat="46.83982" lon="6.33572">
        <ele>848.6</ele>
        <time>2022-12-01T11:18:27Z</time>
      </trkpt>
      <trkpt lat="46.83978" lon="6.33577">
        <ele>848.9</ele>
        <time>2022-12-01T11:18:34Z</time>
      </trkpt>
      <trkpt lat="46.83975" lon="6.33583">
        <ele>848.8</ele>
        <time>2022-12-01T11:18:42Z</time>
      </trkpt>
      <trkpt lat="46.83972" lon="6.33588">
        <ele>848.4</ele>
        <time>2022-12-01T11:18:48Z</time>
      </trkpt>
      <trkpt lat="46.83969" lon="6.33592">
        <ele>848.5</ele>
        <time>2022-12-01T11:18:52Z</time>
      </trkpt>
      <trkpt lat="46.83965" lon="6.33597">
        <ele>849.2</ele>
        <time>2022-12-01T11:18:57Z</time>
      </trkpt>
      <trkpt lat="46.83962" lon="6.33602">
        <ele>850.6</ele>
        <time>2022-12-01T11:19:03Z</time>
      </trkpt>
      <trkpt lat="46.83958" lon="6.33606">
        <ele>852.3</ele>
        <time>2022-12-01T11:19:09Z</time>
      </trkpt>
      <trkpt lat="46.83955" lon="6.33611">
        <ele>853.2</ele>
        <time>2022-12-01T11:19:15Z</time>
      </trkpt>
      <trkpt lat="46.83952" lon="6.33618">
        <ele>853.6</ele>
        <time>2022-12-01T11:19:21Z</time>
      </trkpt>
      <trkpt lat="46.83949" lon="6.33624">
        <ele>854.1</ele>
        <time>2022-12-01T11:19:27Z</time>
      </trkpt>
      <trkpt lat="46.83945" lon="6.33629">
        <ele>854.3</ele>
        <time>2022-12-01T11:19:33Z</time>
      </trkpt>
      <trkpt lat="46.83941" lon="6.33636">
        <ele>854.5</ele>
        <time>2022-12-01T11:19:55Z</time>
      </trkpt>
      <trkpt lat="46.83936" lon="6.33638">
        <ele>855.3</ele>
        <time>2022-12-01T11:20:00Z</time>
      </trkpt>
      <trkpt lat="46.83932" lon="6.3364">
        <ele>856</ele>
        <time>2022-12-01T11:20:06Z</time>
      </trkpt>
      <trkpt lat="46.83928" lon="6.33645">
        <ele>856</ele>
        <time>2022-12-01T11:20:12Z</time>
      </trkpt>
      <trkpt lat="46.83923" lon="6.33647">
        <ele>855.9</ele>
        <time>2022-12-01T11:20:17Z</time>
      </trkpt>
      <trkpt lat="46.83918" lon="6.33649">
        <ele>855.4</ele>
        <time>2022-12-01T11:20:22Z</time>
      </trkpt>
      <trkpt lat="46.83914" lon="6.33652">
        <ele>855.1</ele>
        <time>2022-12-01T11:20:26Z</time>
      </trkpt>
      <trkpt lat="46.8391" lon="6.33656">
        <ele>854.8</ele>
        <time>2022-12-01T11:20:30Z</time>
      </trkpt>
      <trkpt lat="46.83906" lon="6.33661">
        <ele>854.8</ele>
        <time>2022-12-01T11:20:36Z</time>
      </trkpt>
      <trkpt lat="46.83902" lon="6.33665">
        <ele>855.3</ele>
        <time>2022-12-01T11:20:41Z</time>
      </trkpt>
      <trkpt lat="46.83898" lon="6.3367">
        <ele>855.8</ele>
        <time>2022-12-01T11:20:46Z</time>
      </trkpt>
      <trkpt lat="46.83895" lon="6.33675">
        <ele>856.1</ele>
        <time>2022-12-01T11:20:51Z</time>
      </trkpt>
      <trkpt lat="46.83891" lon="6.3368">
        <ele>856.5</ele>
        <time>2022-12-01T11:20:56Z</time>
      </trkpt>
      <trkpt lat="46.83888" lon="6.33686">
        <ele>856.5</ele>
        <time>2022-12-01T11:21:02Z</time>
      </trkpt>
      <trkpt lat="46.83885" lon="6.33691">
        <ele>856.7</ele>
        <time>2022-12-01T11:21:07Z</time>
      </trkpt>
      <trkpt lat="46.83881" lon="6.33696">
        <ele>857.1</ele>
        <time>2022-12-01T11:21:12Z</time>
      </trkpt>
      <trkpt lat="46.83878" lon="6.337">
        <ele>857.1</ele>
        <time>2022-12-01T11:21:17Z</time>
      </trkpt>
      <trkpt lat="46.83874" lon="6.33705">
        <ele>856.6</ele>
        <time>2022-12-01T11:21:22Z</time>
      </trkpt>
      <trkpt lat="46.83871" lon="6.33711">
        <ele>856</ele>
        <time>2022-12-01T11:21:28Z</time>
      </trkpt>
      <trkpt lat="46.83868" lon="6.33716">
        <ele>856.1</ele>
        <time>2022-12-01T11:21:33Z</time>
      </trkpt>
      <trkpt lat="46.83864" lon="6.33722">
        <ele>856.3</ele>
        <time>2022-12-01T11:21:38Z</time>
      </trkpt>
      <trkpt lat="46.8386" lon="6.33727">
        <ele>856.6</ele>
        <time>2022-12-01T11:21:42Z</time>
      </trkpt>
      <trkpt lat="46.83857" lon="6.33734">
        <ele>856.6</ele>
        <time>2022-12-01T11:21:47Z</time>
      </trkpt>
      <trkpt lat="46.83854" lon="6.3374">
        <ele>856</ele>
        <time>2022-12-01T11:21:52Z</time>
      </trkpt>
      <trkpt lat="46.83851" lon="6.33746">
        <ele>855.4</ele>
        <time>2022-12-01T11:21:57Z</time>
      </trkpt>
      <trkpt lat="46.83849" lon="6.33752">
        <ele>855.2</ele>
        <time>2022-12-01T11:22:01Z</time>
      </trkpt>
      <trkpt lat="46.83846" lon="6.33758">
        <ele>855.3</ele>
        <time>2022-12-01T11:22:06Z</time>
      </trkpt>
      <trkpt lat="46.83843" lon="6.33764">
        <ele>855.4</ele>
        <time>2022-12-01T11:22:11Z</time>
      </trkpt>
      <trkpt lat="46.83841" lon="6.3377">
        <ele>855.3</ele>
        <time>2022-12-01T11:22:16Z</time>
      </trkpt>
      <trkpt lat="46.8384" lon="6.33778">
        <ele>855.3</ele>
        <time>2022-12-01T11:22:21Z</time>
      </trkpt>
      <trkpt lat="46.83841" lon="6.33785">
        <ele>855.5</ele>
        <time>2022-12-01T11:22:25Z</time>
      </trkpt>
      <trkpt lat="46.83842" lon="6.33792">
        <ele>856</ele>
        <time>2022-12-01T11:22:32Z</time>
      </trkpt>
      <trkpt lat="46.83841" lon="6.33799">
        <ele>856.4</ele>
        <time>2022-12-01T11:22:38Z</time>
      </trkpt>
      <trkpt lat="46.8384" lon="6.33805">
        <ele>856.5</ele>
        <time>2022-12-01T11:22:43Z</time>
      </trkpt>
      <trkpt lat="46.83837" lon="6.33812">
        <ele>856.7</ele>
        <time>2022-12-01T11:22:48Z</time>
      </trkpt>
      <trkpt lat="46.83834" lon="6.33818">
        <ele>857.1</ele>
        <time>2022-12-01T11:22:55Z</time>
      </trkpt>
      <trkpt lat="46.8383" lon="6.33824">
        <ele>857.5</ele>
        <time>2022-12-01T11:23:00Z</time>
      </trkpt>
      <trkpt lat="46.83827" lon="6.33829">
        <ele>857.7</ele>
        <time>2022-12-01T11:23:05Z</time>
      </trkpt>
      <trkpt lat="46.83825" lon="6.33836">
        <ele>857.9</ele>
        <time>2022-12-01T11:23:10Z</time>
      </trkpt>
      <trkpt lat="46.83821" lon="6.33841">
        <ele>857.9</ele>
        <time>2022-12-01T11:23:15Z</time>
      </trkpt>
      <trkpt lat="46.83818" lon="6.33846">
        <ele>857.3</ele>
        <time>2022-12-01T11:23:20Z</time>
      </trkpt>
      <trkpt lat="46.83814" lon="6.33852">
        <ele>857.2</ele>
        <time>2022-12-01T11:23:25Z</time>
      </trkpt>
      <trkpt lat="46.8381" lon="6.33855">
        <ele>857.5</ele>
        <time>2022-12-01T11:23:30Z</time>
      </trkpt>
      <trkpt lat="46.83805" lon="6.33856">
        <ele>858.6</ele>
        <time>2022-12-01T11:23:36Z</time>
      </trkpt>
      <trkpt lat="46.838" lon="6.33859">
        <ele>859.8</ele>
        <time>2022-12-01T11:23:42Z</time>
      </trkpt>
      <trkpt lat="46.83796" lon="6.33862">
        <ele>860.5</ele>
        <time>2022-12-01T11:23:46Z</time>
      </trkpt>
      <trkpt lat="46.83792" lon="6.33865">
        <ele>861.1</ele>
        <time>2022-12-01T11:23:50Z</time>
      </trkpt>
      <trkpt lat="46.83788" lon="6.33869">
        <ele>861.8</ele>
        <time>2022-12-01T11:23:54Z</time>
      </trkpt>
      <trkpt lat="46.83784" lon="6.33874">
        <ele>861.7</ele>
        <time>2022-12-01T11:23:59Z</time>
      </trkpt>
      <trkpt lat="46.8378" lon="6.33879">
        <ele>861</ele>
        <time>2022-12-01T11:24:04Z</time>
      </trkpt>
      <trkpt lat="46.83776" lon="6.33882">
        <ele>859.9</ele>
        <time>2022-12-01T11:24:09Z</time>
      </trkpt>
      <trkpt lat="46.83772" lon="6.33887">
        <ele>859.2</ele>
        <time>2022-12-01T11:24:14Z</time>
      </trkpt>
      <trkpt lat="46.83768" lon="6.33892">
        <ele>858.5</ele>
        <time>2022-12-01T11:24:20Z</time>
      </trkpt>
      <trkpt lat="46.83765" lon="6.33898">
        <ele>858</ele>
        <time>2022-12-01T11:24:25Z</time>
      </trkpt>
      <trkpt lat="46.83761" lon="6.33902">
        <ele>857.7</ele>
        <time>2022-12-01T11:24:29Z</time>
      </trkpt>
      <trkpt lat="46.83757" lon="6.33907">
        <ele>857.2</ele>
        <time>2022-12-01T11:24:33Z</time>
      </trkpt>
      <trkpt lat="46.83753" lon="6.3391">
        <ele>856.7</ele>
        <time>2022-12-01T11:24:38Z</time>
      </trkpt>
      <trkpt lat="46.83749" lon="6.33914">
        <ele>856.1</ele>
        <time>2022-12-01T11:24:43Z</time>
      </trkpt>
      <trkpt lat="46.83744" lon="6.33919">
        <ele>855.5</ele>
        <time>2022-12-01T11:24:48Z</time>
      </trkpt>
      <trkpt lat="46.8374" lon="6.33924">
        <ele>854.9</ele>
        <time>2022-12-01T11:24:53Z</time>
      </trkpt>
      <trkpt lat="46.83736" lon="6.33929">
        <ele>854.4</ele>
        <time>2022-12-01T11:24:59Z</time>
      </trkpt>
      <trkpt lat="46.83732" lon="6.33931">
        <ele>855.3</ele>
        <time>2022-12-01T11:25:04Z</time>
      </trkpt>
      <trkpt lat="46.83727" lon="6.33931">
        <ele>856.5</ele>
        <time>2022-12-01T11:25:08Z</time>
      </trkpt>
      <trkpt lat="46.83722" lon="6.33929">
        <ele>857.6</ele>
        <time>2022-12-01T11:25:14Z</time>
      </trkpt>
      <trkpt lat="46.83717" lon="6.3393">
        <ele>857.4</ele>
        <time>2022-12-01T11:25:19Z</time>
      </trkpt>
      <trkpt lat="46.83712" lon="6.33931">
        <ele>856.8</ele>
        <time>2022-12-01T11:25:23Z</time>
      </trkpt>
      <trkpt lat="46.83708" lon="6.33933">
        <ele>856.8</ele>
        <time>2022-12-01T11:25:27Z</time>
      </trkpt>
      <trkpt lat="46.83703" lon="6.33937">
        <ele>857.2</ele>
        <time>2022-12-01T11:25:33Z</time>
      </trkpt>
      <trkpt lat="46.83698" lon="6.33938">
        <ele>856.7</ele>
        <time>2022-12-01T11:25:39Z</time>
      </trkpt>
      <trkpt lat="46.83693" lon="6.3394">
        <ele>856.5</ele>
        <time>2022-12-01T11:25:43Z</time>
      </trkpt>
      <trkpt lat="46.83688" lon="6.3394">
        <ele>856.4</ele>
        <time>2022-12-01T11:25:47Z</time>
      </trkpt>
      <trkpt lat="46.83683" lon="6.33941">
        <ele>856.3</ele>
        <time>2022-12-01T11:25:52Z</time>
      </trkpt>
      <trkpt lat="46.83679" lon="6.33943">
        <ele>856</ele>
        <time>2022-12-01T11:25:58Z</time>
      </trkpt>
      <trkpt lat="46.83673" lon="6.33945">
        <ele>856.3</ele>
        <time>2022-12-01T11:26:03Z</time>
      </trkpt>
      <trkpt lat="46.83669" lon="6.33946">
        <ele>856.4</ele>
        <time>2022-12-01T11:26:07Z</time>
      </trkpt>
      <trkpt lat="46.83663" lon="6.33946">
        <ele>856.8</ele>
        <time>2022-12-01T11:26:12Z</time>
      </trkpt>
      <trkpt lat="46.83658" lon="6.33946">
        <ele>856.9</ele>
        <time>2022-12-01T11:26:16Z</time>
      </trkpt>
      <trkpt lat="46.83653" lon="6.33946">
        <ele>857.3</ele>
        <time>2022-12-01T11:26:21Z</time>
      </trkpt>
      <trkpt lat="46.83648" lon="6.33946">
        <ele>857.5</ele>
        <time>2022-12-01T11:26:25Z</time>
      </trkpt>
      <trkpt lat="46.83643" lon="6.33946">
        <ele>857.8</ele>
        <time>2022-12-01T11:26:30Z</time>
      </trkpt>
      <trkpt lat="46.83638" lon="6.33947">
        <ele>858.4</ele>
        <time>2022-12-01T11:26:35Z</time>
      </trkpt>
      <trkpt lat="46.83633" lon="6.33947">
        <ele>858.9</ele>
        <time>2022-12-01T11:26:40Z</time>
      </trkpt>
      <trkpt lat="46.83628" lon="6.33947">
        <ele>859.1</ele>
        <time>2022-12-01T11:26:45Z</time>
      </trkpt>
      <trkpt lat="46.83623" lon="6.33949">
        <ele>858.5</ele>
        <time>2022-12-01T11:26:52Z</time>
      </trkpt>
      <trkpt lat="46.83618" lon="6.3395">
        <ele>857.5</ele>
        <time>2022-12-01T11:26:56Z</time>
      </trkpt>
      <trkpt lat="46.83612" lon="6.33951">
        <ele>856.8</ele>
        <time>2022-12-01T11:27:00Z</time>
      </trkpt>
      <trkpt lat="46.83608" lon="6.33954">
        <ele>856.5</ele>
        <time>2022-12-01T11:27:04Z</time>
      </trkpt>
      <trkpt lat="46.83603" lon="6.33955">
        <ele>856.6</ele>
        <time>2022-12-01T11:27:08Z</time>
      </trkpt>
      <trkpt lat="46.83599" lon="6.33958">
        <ele>857</ele>
        <time>2022-12-01T11:27:13Z</time>
      </trkpt>
      <trkpt lat="46.83594" lon="6.3396">
        <ele>857.3</ele>
        <time>2022-12-01T11:27:18Z</time>
      </trkpt>
      <trkpt lat="46.83589" lon="6.33961">
        <ele>857.4</ele>
        <time>2022-12-01T11:27:23Z</time>
      </trkpt>
      <trkpt lat="46.83584" lon="6.33963">
        <ele>857.8</ele>
        <time>2022-12-01T11:27:28Z</time>
      </trkpt>
      <trkpt lat="46.83579" lon="6.33965">
        <ele>858.3</ele>
        <time>2022-12-01T11:27:33Z</time>
      </trkpt>
      <trkpt lat="46.83573" lon="6.33966">
        <ele>858.5</ele>
        <time>2022-12-01T11:27:38Z</time>
      </trkpt>
      <trkpt lat="46.83569" lon="6.33968">
        <ele>858.5</ele>
        <time>2022-12-01T11:27:43Z</time>
      </trkpt>
      <trkpt lat="46.83565" lon="6.3397">
        <ele>858.3</ele>
        <time>2022-12-01T11:27:48Z</time>
      </trkpt>
      <trkpt lat="46.8356" lon="6.33972">
        <ele>857.9</ele>
        <time>2022-12-01T11:27:53Z</time>
      </trkpt>
      <trkpt lat="46.83555" lon="6.33972">
        <ele>857.6</ele>
        <time>2022-12-01T11:27:59Z</time>
      </trkpt>
      <trkpt lat="46.8355" lon="6.33973">
        <ele>857.2</ele>
        <time>2022-12-01T11:28:05Z</time>
      </trkpt>
      <trkpt lat="46.83545" lon="6.33974">
        <ele>857.4</ele>
        <time>2022-12-01T11:28:12Z</time>
      </trkpt>
      <trkpt lat="46.8354" lon="6.33975">
        <ele>857.1</ele>
        <time>2022-12-01T11:28:17Z</time>
      </trkpt>
      <trkpt lat="46.83536" lon="6.33978">
        <ele>856.5</ele>
        <time>2022-12-01T11:28:21Z</time>
      </trkpt>
      <trkpt lat="46.8353" lon="6.3398">
        <ele>855.6</ele>
        <time>2022-12-01T11:28:25Z</time>
      </trkpt>
      <trkpt lat="46.83525" lon="6.33983">
        <ele>855.4</ele>
        <time>2022-12-01T11:28:29Z</time>
      </trkpt>
      <trkpt lat="46.8352" lon="6.33985">
        <ele>854.9</ele>
        <time>2022-12-01T11:28:34Z</time>
      </trkpt>
      <trkpt lat="46.83515" lon="6.33988">
        <ele>854.5</ele>
        <time>2022-12-01T11:28:39Z</time>
      </trkpt>
      <trkpt lat="46.8351" lon="6.3399">
        <ele>853.8</ele>
        <time>2022-12-01T11:28:45Z</time>
      </trkpt>
      <trkpt lat="46.83506" lon="6.33991">
        <ele>852.9</ele>
        <time>2022-12-01T11:28:49Z</time>
      </trkpt>
      <trkpt lat="46.83501" lon="6.33993">
        <ele>851.8</ele>
        <time>2022-12-01T11:28:53Z</time>
      </trkpt>
      <trkpt lat="46.83496" lon="6.33996">
        <ele>850.8</ele>
        <time>2022-12-01T11:28:58Z</time>
      </trkpt>
      <trkpt lat="46.83493" lon="6.34">
        <ele>850.9</ele>
        <time>2022-12-01T11:29:03Z</time>
      </trkpt>
      <trkpt lat="46.83488" lon="6.34003">
        <ele>851.9</ele>
        <time>2022-12-01T11:29:08Z</time>
      </trkpt>
      <trkpt lat="46.83483" lon="6.34004">
        <ele>852.7</ele>
        <time>2022-12-01T11:29:13Z</time>
      </trkpt>
      <trkpt lat="46.83479" lon="6.34006">
        <ele>853.8</ele>
        <time>2022-12-01T11:29:18Z</time>
      </trkpt>
      <trkpt lat="46.83474" lon="6.3401">
        <ele>855.2</ele>
        <time>2022-12-01T11:29:23Z</time>
      </trkpt>
      <trkpt lat="46.83469" lon="6.34011">
        <ele>856.8</ele>
        <time>2022-12-01T11:29:29Z</time>
      </trkpt>
      <trkpt lat="46.83464" lon="6.34012">
        <ele>858</ele>
        <time>2022-12-01T11:29:33Z</time>
      </trkpt>
      <trkpt lat="46.83458" lon="6.34012">
        <ele>859.3</ele>
        <time>2022-12-01T11:29:37Z</time>
      </trkpt>
      <trkpt lat="46.83454" lon="6.3401">
        <ele>860.1</ele>
        <time>2022-12-01T11:29:41Z</time>
      </trkpt>
      <trkpt lat="46.83448" lon="6.3401">
        <ele>860.9</ele>
        <time>2022-12-01T11:29:46Z</time>
      </trkpt>
      <trkpt lat="46.83443" lon="6.3401">
        <ele>861.1</ele>
        <time>2022-12-01T11:29:51Z</time>
      </trkpt>
      <trkpt lat="46.83438" lon="6.3401">
        <ele>861.7</ele>
        <time>2022-12-01T11:29:56Z</time>
      </trkpt>
      <trkpt lat="46.83433" lon="6.34008">
        <ele>862.3</ele>
        <time>2022-12-01T11:30:00Z</time>
      </trkpt>
      <trkpt lat="46.83428" lon="6.34007">
        <ele>863.2</ele>
        <time>2022-12-01T11:30:05Z</time>
      </trkpt>
      <trkpt lat="46.83423" lon="6.34007">
        <ele>863.5</ele>
        <time>2022-12-01T11:30:11Z</time>
      </trkpt>
      <trkpt lat="46.83418" lon="6.34007">
        <ele>862.7</ele>
        <time>2022-12-01T11:30:16Z</time>
      </trkpt>
      <trkpt lat="46.83413" lon="6.34006">
        <ele>861.7</ele>
        <time>2022-12-01T11:30:21Z</time>
      </trkpt>
      <trkpt lat="46.83408" lon="6.34007">
        <ele>860.5</ele>
        <time>2022-12-01T11:30:25Z</time>
      </trkpt>
      <trkpt lat="46.83403" lon="6.34006">
        <ele>859.5</ele>
        <time>2022-12-01T11:30:29Z</time>
      </trkpt>
      <trkpt lat="46.83398" lon="6.34007">
        <ele>859.1</ele>
        <time>2022-12-01T11:30:34Z</time>
      </trkpt>
      <trkpt lat="46.83393" lon="6.34008">
        <ele>859.3</ele>
        <time>2022-12-01T11:30:39Z</time>
      </trkpt>
      <trkpt lat="46.83388" lon="6.34007">
        <ele>859.8</ele>
        <time>2022-12-01T11:30:43Z</time>
      </trkpt>
      <trkpt lat="46.83384" lon="6.34004">
        <ele>860.1</ele>
        <time>2022-12-01T11:30:46Z</time>
      </trkpt>
      <trkpt lat="46.83379" lon="6.34001">
        <ele>860.4</ele>
        <time>2022-12-01T11:30:50Z</time>
      </trkpt>
      <trkpt lat="46.83375" lon="6.33997">
        <ele>860.4</ele>
        <time>2022-12-01T11:30:54Z</time>
      </trkpt>
      <trkpt lat="46.83371" lon="6.33994">
        <ele>860</ele>
        <time>2022-12-01T11:30:58Z</time>
      </trkpt>
      <trkpt lat="46.83367" lon="6.33991">
        <ele>859.5</ele>
        <time>2022-12-01T11:31:02Z</time>
      </trkpt>
      <trkpt lat="46.83363" lon="6.33988">
        <ele>859.2</ele>
        <time>2022-12-01T11:31:06Z</time>
      </trkpt>
      <trkpt lat="46.83358" lon="6.33984">
        <ele>859.1</ele>
        <time>2022-12-01T11:31:11Z</time>
      </trkpt>
      <trkpt lat="46.83354" lon="6.3398">
        <ele>858.3</ele>
        <time>2022-12-01T11:31:16Z</time>
      </trkpt>
      <trkpt lat="46.83349" lon="6.33977">
        <ele>857.2</ele>
        <time>2022-12-01T11:31:21Z</time>
      </trkpt>
      <trkpt lat="46.83344" lon="6.33974">
        <ele>855.2</ele>
        <time>2022-12-01T11:31:26Z</time>
      </trkpt>
      <trkpt lat="46.83339" lon="6.33973">
        <ele>853.8</ele>
        <time>2022-12-01T11:31:30Z</time>
      </trkpt>
      <trkpt lat="46.83335" lon="6.33973">
        <ele>852.7</ele>
        <time>2022-12-01T11:31:34Z</time>
      </trkpt>
      <trkpt lat="46.8333" lon="6.33973">
        <ele>852</ele>
        <time>2022-12-01T11:31:38Z</time>
      </trkpt>
      <trkpt lat="46.83325" lon="6.33974">
        <ele>850.9</ele>
        <time>2022-12-01T11:31:43Z</time>
      </trkpt>
      <trkpt lat="46.8332" lon="6.33975">
        <ele>850</ele>
        <time>2022-12-01T11:31:48Z</time>
      </trkpt>
      <trkpt lat="46.83315" lon="6.33976">
        <ele>849.6</ele>
        <time>2022-12-01T11:31:52Z</time>
      </trkpt>
      <trkpt lat="46.8331" lon="6.33977">
        <ele>849.1</ele>
        <time>2022-12-01T11:31:56Z</time>
      </trkpt>
      <trkpt lat="46.83305" lon="6.33977">
        <ele>848.9</ele>
        <time>2022-12-01T11:32:00Z</time>
      </trkpt>
      <trkpt lat="46.83301" lon="6.33977">
        <ele>848.5</ele>
        <time>2022-12-01T11:32:05Z</time>
      </trkpt>
      <trkpt lat="46.83296" lon="6.33979">
        <ele>848.9</ele>
        <time>2022-12-01T11:32:09Z</time>
      </trkpt>
      <trkpt lat="46.83291" lon="6.33982">
        <ele>849.6</ele>
        <time>2022-12-01T11:32:13Z</time>
      </trkpt>
      <trkpt lat="46.83286" lon="6.33983">
        <ele>850.1</ele>
        <time>2022-12-01T11:32:17Z</time>
      </trkpt>
      <trkpt lat="46.83281" lon="6.33985">
        <ele>850.5</ele>
        <time>2022-12-01T11:32:21Z</time>
      </trkpt>
      <trkpt lat="46.83276" lon="6.33987">
        <ele>851.3</ele>
        <time>2022-12-01T11:32:24Z</time>
      </trkpt>
      <trkpt lat="46.8327" lon="6.33986">
        <ele>852.7</ele>
        <time>2022-12-01T11:32:28Z</time>
      </trkpt>
      <trkpt lat="46.83266" lon="6.33985">
        <ele>854.2</ele>
        <time>2022-12-01T11:32:32Z</time>
      </trkpt>
      <trkpt lat="46.8326" lon="6.33986">
        <ele>857</ele>
        <time>2022-12-01T11:32:38Z</time>
      </trkpt>
      <trkpt lat="46.83255" lon="6.33986">
        <ele>859.8</ele>
        <time>2022-12-01T11:32:43Z</time>
      </trkpt>
      <trkpt lat="46.8325" lon="6.33987">
        <ele>861.9</ele>
        <time>2022-12-01T11:32:47Z</time>
      </trkpt>
      <trkpt lat="46.83245" lon="6.33986">
        <ele>863.4</ele>
        <time>2022-12-01T11:32:51Z</time>
      </trkpt>
      <trkpt lat="46.8324" lon="6.33985">
        <ele>865.1</ele>
        <time>2022-12-01T11:32:56Z</time>
      </trkpt>
      <trkpt lat="46.83236" lon="6.33984">
        <ele>867</ele>
        <time>2022-12-01T11:33:01Z</time>
      </trkpt>
      <trkpt lat="46.83231" lon="6.3398">
        <ele>868.7</ele>
        <time>2022-12-01T11:33:07Z</time>
      </trkpt>
      <trkpt lat="46.83227" lon="6.33976">
        <ele>869</ele>
        <time>2022-12-01T11:33:11Z</time>
      </trkpt>
      <trkpt lat="46.83222" lon="6.33973">
        <ele>868.7</ele>
        <time>2022-12-01T11:33:15Z</time>
      </trkpt>
      <trkpt lat="46.83218" lon="6.3397">
        <ele>867.8</ele>
        <time>2022-12-01T11:33:19Z</time>
      </trkpt>
      <trkpt lat="46.83215" lon="6.33966">
        <ele>866.5</ele>
        <time>2022-12-01T11:33:24Z</time>
      </trkpt>
      <trkpt lat="46.8321" lon="6.33963">
        <ele>865</ele>
        <time>2022-12-01T11:33:29Z</time>
      </trkpt>
      <trkpt lat="46.83206" lon="6.33959">
        <ele>863.8</ele>
        <time>2022-12-01T11:33:34Z</time>
      </trkpt>
      <trkpt lat="46.83202" lon="6.33954">
        <ele>863.6</ele>
        <time>2022-12-01T11:33:38Z</time>
      </trkpt>
      <trkpt lat="46.83198" lon="6.33948">
        <ele>863.8</ele>
        <time>2022-12-01T11:33:41Z</time>
      </trkpt>
      <trkpt lat="46.83195" lon="6.33943">
        <ele>863.8</ele>
        <time>2022-12-01T11:33:45Z</time>
      </trkpt>
      <trkpt lat="46.83191" lon="6.33937">
        <ele>863.4</ele>
        <time>2022-12-01T11:33:49Z</time>
      </trkpt>
      <trkpt lat="46.83188" lon="6.3393">
        <ele>862.5</ele>
        <time>2022-12-01T11:33:54Z</time>
      </trkpt>
      <trkpt lat="46.83185" lon="6.33924">
        <ele>861.6</ele>
        <time>2022-12-01T11:33:58Z</time>
      </trkpt>
      <trkpt lat="46.83182" lon="6.33919">
        <ele>860.6</ele>
        <time>2022-12-01T11:34:02Z</time>
      </trkpt>
      <trkpt lat="46.83178" lon="6.33915">
        <ele>859.8</ele>
        <time>2022-12-01T11:34:06Z</time>
      </trkpt>
      <trkpt lat="46.83174" lon="6.3391">
        <ele>859.4</ele>
        <time>2022-12-01T11:34:10Z</time>
      </trkpt>
      <trkpt lat="46.83172" lon="6.33905">
        <ele>859.3</ele>
        <time>2022-12-01T11:34:14Z</time>
      </trkpt>
      <trkpt lat="46.83168" lon="6.33899">
        <ele>859.5</ele>
        <time>2022-12-01T11:34:18Z</time>
      </trkpt>
      <trkpt lat="46.83165" lon="6.33894">
        <ele>859.5</ele>
        <time>2022-12-01T11:34:22Z</time>
      </trkpt>
      <trkpt lat="46.83162" lon="6.3389">
        <ele>859.3</ele>
        <time>2022-12-01T11:34:27Z</time>
      </trkpt>
      <trkpt lat="46.83158" lon="6.33885">
        <ele>859.1</ele>
        <time>2022-12-01T11:34:32Z</time>
      </trkpt>
      <trkpt lat="46.83154" lon="6.33879">
        <ele>858.9</ele>
        <time>2022-12-01T11:34:37Z</time>
      </trkpt>
      <trkpt lat="46.8315" lon="6.33873">
        <ele>859.1</ele>
        <time>2022-12-01T11:34:42Z</time>
      </trkpt>
      <trkpt lat="46.83147" lon="6.33868">
        <ele>859.4</ele>
        <time>2022-12-01T11:34:47Z</time>
      </trkpt>
      <trkpt lat="46.83143" lon="6.33863">
        <ele>859.2</ele>
        <time>2022-12-01T11:34:51Z</time>
      </trkpt>
      <trkpt lat="46.8314" lon="6.33859">
        <ele>858.5</ele>
        <time>2022-12-01T11:34:55Z</time>
      </trkpt>
      <trkpt lat="46.83136" lon="6.33855">
        <ele>857.7</ele>
        <time>2022-12-01T11:34:59Z</time>
      </trkpt>
      <trkpt lat="46.83132" lon="6.3385">
        <ele>857</ele>
        <time>2022-12-01T11:35:03Z</time>
      </trkpt>
      <trkpt lat="46.83128" lon="6.33846">
        <ele>856.7</ele>
        <time>2022-12-01T11:35:07Z</time>
      </trkpt>
      <trkpt lat="46.83124" lon="6.33841">
        <ele>856.9</ele>
        <time>2022-12-01T11:35:12Z</time>
      </trkpt>
      <trkpt lat="46.83121" lon="6.33836">
        <ele>857.2</ele>
        <time>2022-12-01T11:35:16Z</time>
      </trkpt>
      <trkpt lat="46.83117" lon="6.33832">
        <ele>857.3</ele>
        <time>2022-12-01T11:35:20Z</time>
      </trkpt>
      <trkpt lat="46.83112" lon="6.33828">
        <ele>857</ele>
        <time>2022-12-01T11:35:24Z</time>
      </trkpt>
      <trkpt lat="46.83108" lon="6.33824">
        <ele>856.4</ele>
        <time>2022-12-01T11:35:28Z</time>
      </trkpt>
      <trkpt lat="46.83104" lon="6.3382">
        <ele>856.1</ele>
        <time>2022-12-01T11:35:33Z</time>
      </trkpt>
      <trkpt lat="46.831" lon="6.33816">
        <ele>856.2</ele>
        <time>2022-12-01T11:35:37Z</time>
      </trkpt>
      <trkpt lat="46.83095" lon="6.33811">
        <ele>856.6</ele>
        <time>2022-12-01T11:35:42Z</time>
      </trkpt>
      <trkpt lat="46.8309" lon="6.33808">
        <ele>857</ele>
        <time>2022-12-01T11:35:47Z</time>
      </trkpt>
      <trkpt lat="46.83085" lon="6.33804">
        <ele>857.9</ele>
        <time>2022-12-01T11:35:53Z</time>
      </trkpt>
      <trkpt lat="46.8308" lon="6.33802">
        <ele>858.5</ele>
        <time>2022-12-01T11:35:58Z</time>
      </trkpt>
      <trkpt lat="46.83076" lon="6.33798">
        <ele>859.8</ele>
        <time>2022-12-01T11:36:04Z</time>
      </trkpt>
      <trkpt lat="46.83072" lon="6.33795">
        <ele>861.1</ele>
        <time>2022-12-01T11:36:09Z</time>
      </trkpt>
      <trkpt lat="46.83068" lon="6.33791">
        <ele>862.1</ele>
        <time>2022-12-01T11:36:14Z</time>
      </trkpt>
      <trkpt lat="46.83065" lon="6.33786">
        <ele>863</ele>
        <time>2022-12-01T11:36:19Z</time>
      </trkpt>
      <trkpt lat="46.8306" lon="6.33782">
        <ele>863.1</ele>
        <time>2022-12-01T11:36:24Z</time>
      </trkpt>
      <trkpt lat="46.83057" lon="6.33778">
        <ele>862.8</ele>
        <time>2022-12-01T11:36:28Z</time>
      </trkpt>
      <trkpt lat="46.83052" lon="6.33774">
        <ele>862.9</ele>
        <time>2022-12-01T11:36:33Z</time>
      </trkpt>
      <trkpt lat="46.83048" lon="6.33771">
        <ele>863.5</ele>
        <time>2022-12-01T11:36:38Z</time>
      </trkpt>
      <trkpt lat="46.83043" lon="6.33769">
        <ele>864.3</ele>
        <time>2022-12-01T11:36:43Z</time>
      </trkpt>
      <trkpt lat="46.83039" lon="6.33765">
        <ele>864.9</ele>
        <time>2022-12-01T11:36:48Z</time>
      </trkpt>
      <trkpt lat="46.83034" lon="6.33761">
        <ele>865.1</ele>
        <time>2022-12-01T11:36:54Z</time>
      </trkpt>
      <trkpt lat="46.8303" lon="6.33757">
        <ele>865.4</ele>
        <time>2022-12-01T11:36:59Z</time>
      </trkpt>
      <trkpt lat="46.83026" lon="6.33753">
        <ele>866.2</ele>
        <time>2022-12-01T11:37:05Z</time>
      </trkpt>
      <trkpt lat="46.83021" lon="6.33751">
        <ele>867.2</ele>
        <time>2022-12-01T11:37:10Z</time>
      </trkpt>
      <trkpt lat="46.83016" lon="6.33748">
        <ele>868.1</ele>
        <time>2022-12-01T11:37:15Z</time>
      </trkpt>
      <trkpt lat="46.83012" lon="6.33744">
        <ele>868.8</ele>
        <time>2022-12-01T11:37:21Z</time>
      </trkpt>
      <trkpt lat="46.83008" lon="6.3374">
        <ele>868.7</ele>
        <time>2022-12-01T11:37:27Z</time>
      </trkpt>
      <trkpt lat="46.83004" lon="6.33736">
        <ele>868.5</ele>
        <time>2022-12-01T11:37:32Z</time>
      </trkpt>
      <trkpt lat="46.82999" lon="6.33733">
        <ele>868.1</ele>
        <time>2022-12-01T11:37:37Z</time>
      </trkpt>
      <trkpt lat="46.82996" lon="6.33728">
        <ele>868.5</ele>
        <time>2022-12-01T11:37:43Z</time>
      </trkpt>
      <trkpt lat="46.82991" lon="6.33725">
        <ele>869.8</ele>
        <time>2022-12-01T11:37:48Z</time>
      </trkpt>
      <trkpt lat="46.82987" lon="6.33722">
        <ele>871.2</ele>
        <time>2022-12-01T11:37:52Z</time>
      </trkpt>
      <trkpt lat="46.82983" lon="6.33719">
        <ele>872.4</ele>
        <time>2022-12-01T11:37:57Z</time>
      </trkpt>
      <trkpt lat="46.82977" lon="6.33717">
        <ele>874.1</ele>
        <time>2022-12-01T11:38:03Z</time>
      </trkpt>
      <trkpt lat="46.82973" lon="6.33712">
        <ele>875.4</ele>
        <time>2022-12-01T11:38:08Z</time>
      </trkpt>
      <trkpt lat="46.82969" lon="6.33707">
        <ele>876.8</ele>
        <time>2022-12-01T11:38:13Z</time>
      </trkpt>
      <trkpt lat="46.82965" lon="6.33704">
        <ele>878.1</ele>
        <time>2022-12-01T11:38:18Z</time>
      </trkpt>
      <trkpt lat="46.8296" lon="6.33701">
        <ele>879</ele>
        <time>2022-12-01T11:38:24Z</time>
      </trkpt>
      <trkpt lat="46.82955" lon="6.33697">
        <ele>879.5</ele>
        <time>2022-12-01T11:38:29Z</time>
      </trkpt>
      <trkpt lat="46.82951" lon="6.33695">
        <ele>880.3</ele>
        <time>2022-12-01T11:38:35Z</time>
      </trkpt>
      <trkpt lat="46.82947" lon="6.33691">
        <ele>880.9</ele>
        <time>2022-12-01T11:38:40Z</time>
      </trkpt>
      <trkpt lat="46.82943" lon="6.33687">
        <ele>881.5</ele>
        <time>2022-12-01T11:38:45Z</time>
      </trkpt>
      <trkpt lat="46.82939" lon="6.33682">
        <ele>881.7</ele>
        <time>2022-12-01T11:38:49Z</time>
      </trkpt>
      <trkpt lat="46.82936" lon="6.33676">
        <ele>881.6</ele>
        <time>2022-12-01T11:38:54Z</time>
      </trkpt>
      <trkpt lat="46.82931" lon="6.33674">
        <ele>881.6</ele>
        <time>2022-12-01T11:39:00Z</time>
      </trkpt>
      <trkpt lat="46.82927" lon="6.33671">
        <ele>881.8</ele>
        <time>2022-12-01T11:39:05Z</time>
      </trkpt>
      <trkpt lat="46.82922" lon="6.33667">
        <ele>882.9</ele>
        <time>2022-12-01T11:39:11Z</time>
      </trkpt>
      <trkpt lat="46.82918" lon="6.33664">
        <ele>883.4</ele>
        <time>2022-12-01T11:39:16Z</time>
      </trkpt>
      <trkpt lat="46.82913" lon="6.33659">
        <ele>883.7</ele>
        <time>2022-12-01T11:39:21Z</time>
      </trkpt>
      <trkpt lat="46.82908" lon="6.33657">
        <ele>883.1</ele>
        <time>2022-12-01T11:39:27Z</time>
      </trkpt>
      <trkpt lat="46.82904" lon="6.33652">
        <ele>883</ele>
        <time>2022-12-01T11:39:32Z</time>
      </trkpt>
      <trkpt lat="46.829" lon="6.33649">
        <ele>883.1</ele>
        <time>2022-12-01T11:39:36Z</time>
      </trkpt>
      <trkpt lat="46.82896" lon="6.33645">
        <ele>883</ele>
        <time>2022-12-01T11:39:41Z</time>
      </trkpt>
      <trkpt lat="46.82893" lon="6.33641">
        <ele>883</ele>
        <time>2022-12-01T11:39:45Z</time>
      </trkpt>
      <trkpt lat="46.8289" lon="6.33636">
        <ele>882.9</ele>
        <time>2022-12-01T11:39:49Z</time>
      </trkpt>
      <trkpt lat="46.82886" lon="6.33631">
        <ele>882.7</ele>
        <time>2022-12-01T11:39:54Z</time>
      </trkpt>
      <trkpt lat="46.82882" lon="6.33627">
        <ele>883.1</ele>
        <time>2022-12-01T11:39:59Z</time>
      </trkpt>
      <trkpt lat="46.82876" lon="6.33624">
        <ele>883.7</ele>
        <time>2022-12-01T11:40:04Z</time>
      </trkpt>
      <trkpt lat="46.82873" lon="6.3362">
        <ele>884.5</ele>
        <time>2022-12-01T11:40:09Z</time>
      </trkpt>
      <trkpt lat="46.82869" lon="6.33614">
        <ele>885.8</ele>
        <time>2022-12-01T11:40:15Z</time>
      </trkpt>
      <trkpt lat="46.82866" lon="6.33608">
        <ele>886.5</ele>
        <time>2022-12-01T11:40:19Z</time>
      </trkpt>
      <trkpt lat="46.82863" lon="6.33602">
        <ele>886.8</ele>
        <time>2022-12-01T11:40:24Z</time>
      </trkpt>
      <trkpt lat="46.8286" lon="6.33598">
        <ele>886.7</ele>
        <time>2022-12-01T11:40:29Z</time>
      </trkpt>
      <trkpt lat="46.82857" lon="6.33592">
        <ele>886.8</ele>
        <time>2022-12-01T11:40:34Z</time>
      </trkpt>
      <trkpt lat="46.82854" lon="6.33586">
        <ele>887</ele>
        <time>2022-12-01T11:40:39Z</time>
      </trkpt>
      <trkpt lat="46.8285" lon="6.33579">
        <ele>887.4</ele>
        <time>2022-12-01T11:40:43Z</time>
      </trkpt>
      <trkpt lat="46.82848" lon="6.33573">
        <ele>887.3</ele>
        <time>2022-12-01T11:40:48Z</time>
      </trkpt>
      <trkpt lat="46.82844" lon="6.33569">
        <ele>887.2</ele>
        <time>2022-12-01T11:40:54Z</time>
      </trkpt>
      <trkpt lat="46.82839" lon="6.33565">
        <ele>887.6</ele>
        <time>2022-12-01T11:40:59Z</time>
      </trkpt>
      <trkpt lat="46.82835" lon="6.3356">
        <ele>887.8</ele>
        <time>2022-12-01T11:41:04Z</time>
      </trkpt>
      <trkpt lat="46.82831" lon="6.33556">
        <ele>887.9</ele>
        <time>2022-12-01T11:41:10Z</time>
      </trkpt>
      <trkpt lat="46.82826" lon="6.33553">
        <ele>887.9</ele>
        <time>2022-12-01T11:41:16Z</time>
      </trkpt>
      <trkpt lat="46.82822" lon="6.3355">
        <ele>888.7</ele>
        <time>2022-12-01T11:41:21Z</time>
      </trkpt>
      <trkpt lat="46.82817" lon="6.33546">
        <ele>889.5</ele>
        <time>2022-12-01T11:41:26Z</time>
      </trkpt>
      <trkpt lat="46.82813" lon="6.33541">
        <ele>889.8</ele>
        <time>2022-12-01T11:41:31Z</time>
      </trkpt>
      <trkpt lat="46.82809" lon="6.33537">
        <ele>889.6</ele>
        <time>2022-12-01T11:41:35Z</time>
      </trkpt>
      <trkpt lat="46.82805" lon="6.33533">
        <ele>889.1</ele>
        <time>2022-12-01T11:41:38Z</time>
      </trkpt>
      <trkpt lat="46.82801" lon="6.33529">
        <ele>888.5</ele>
        <time>2022-12-01T11:41:41Z</time>
      </trkpt>
      <trkpt lat="46.82796" lon="6.33525">
        <ele>888.1</ele>
        <time>2022-12-01T11:41:45Z</time>
      </trkpt>
      <trkpt lat="46.82791" lon="6.33521">
        <ele>887.8</ele>
        <time>2022-12-01T11:41:50Z</time>
      </trkpt>
      <trkpt lat="46.82786" lon="6.33517">
        <ele>888.2</ele>
        <time>2022-12-01T11:41:55Z</time>
      </trkpt>
      <trkpt lat="46.82782" lon="6.33513">
        <ele>888.7</ele>
        <time>2022-12-01T11:42:00Z</time>
      </trkpt>
      <trkpt lat="46.82778" lon="6.3351">
        <ele>889</ele>
        <time>2022-12-01T11:42:05Z</time>
      </trkpt>
      <trkpt lat="46.82774" lon="6.33506">
        <ele>888.9</ele>
        <time>2022-12-01T11:42:09Z</time>
      </trkpt>
      <trkpt lat="46.8277" lon="6.335">
        <ele>888.6</ele>
        <time>2022-12-01T11:42:14Z</time>
      </trkpt>
      <trkpt lat="46.82767" lon="6.33495">
        <ele>888.6</ele>
        <time>2022-12-01T11:42:19Z</time>
      </trkpt>
      <trkpt lat="46.82764" lon="6.3349">
        <ele>888.4</ele>
        <time>2022-12-01T11:42:24Z</time>
      </trkpt>
      <trkpt lat="46.82762" lon="6.33484">
        <ele>888.7</ele>
        <time>2022-12-01T11:42:30Z</time>
      </trkpt>
      <trkpt lat="46.8276" lon="6.33477">
        <ele>888.9</ele>
        <time>2022-12-01T11:42:35Z</time>
      </trkpt>
      <trkpt lat="46.82759" lon="6.33471">
        <ele>888.9</ele>
        <time>2022-12-01T11:42:39Z</time>
      </trkpt>
      <trkpt lat="46.82759" lon="6.33463">
        <ele>889</ele>
        <time>2022-12-01T11:42:43Z</time>
      </trkpt>
      <trkpt lat="46.82758" lon="6.33456">
        <ele>889</ele>
        <time>2022-12-01T11:42:47Z</time>
      </trkpt>
      <trkpt lat="46.82758" lon="6.3345">
        <ele>888.9</ele>
        <time>2022-12-01T11:42:51Z</time>
      </trkpt>
      <trkpt lat="46.82757" lon="6.33442">
        <ele>889</ele>
        <time>2022-12-01T11:42:56Z</time>
      </trkpt>
      <trkpt lat="46.82758" lon="6.33435">
        <ele>889</ele>
        <time>2022-12-01T11:43:02Z</time>
      </trkpt>
      <trkpt lat="46.82757" lon="6.33428">
        <ele>888.9</ele>
        <time>2022-12-01T11:43:07Z</time>
      </trkpt>
      <trkpt lat="46.82757" lon="6.3342">
        <ele>889</ele>
        <time>2022-12-01T11:43:12Z</time>
      </trkpt>
      <trkpt lat="46.82756" lon="6.33413">
        <ele>889.1</ele>
        <time>2022-12-01T11:43:18Z</time>
      </trkpt>
      <trkpt lat="46.82755" lon="6.33406">
        <ele>888.9</ele>
        <time>2022-12-01T11:43:23Z</time>
      </trkpt>
      <trkpt lat="46.82753" lon="6.33398">
        <ele>889</ele>
        <time>2022-12-01T11:43:28Z</time>
      </trkpt>
      <trkpt lat="46.82751" lon="6.33392">
        <ele>889.3</ele>
        <time>2022-12-01T11:43:32Z</time>
      </trkpt>
      <trkpt lat="46.82749" lon="6.33385">
        <ele>889.6</ele>
        <time>2022-12-01T11:43:37Z</time>
      </trkpt>
      <trkpt lat="46.82747" lon="6.33379">
        <ele>889.4</ele>
        <time>2022-12-01T11:43:42Z</time>
      </trkpt>
      <trkpt lat="46.82743" lon="6.33373">
        <ele>889.5</ele>
        <time>2022-12-01T11:43:47Z</time>
      </trkpt>
      <trkpt lat="46.82741" lon="6.33367">
        <ele>889.9</ele>
        <time>2022-12-01T11:43:51Z</time>
      </trkpt>
      <trkpt lat="46.82738" lon="6.33361">
        <ele>890.1</ele>
        <time>2022-12-01T11:43:56Z</time>
      </trkpt>
      <trkpt lat="46.82735" lon="6.33356">
        <ele>890.2</ele>
        <time>2022-12-01T11:44:00Z</time>
      </trkpt>
      <trkpt lat="46.82731" lon="6.3335">
        <ele>891.1</ele>
        <time>2022-12-01T11:44:04Z</time>
      </trkpt>
      <trkpt lat="46.82728" lon="6.33344">
        <ele>891.9</ele>
        <time>2022-12-01T11:44:08Z</time>
      </trkpt>
      <trkpt lat="46.82726" lon="6.33338">
        <ele>892.7</ele>
        <time>2022-12-01T11:44:13Z</time>
      </trkpt>
      <trkpt lat="46.82725" lon="6.33331">
        <ele>894.2</ele>
        <time>2022-12-01T11:44:19Z</time>
      </trkpt>
      <trkpt lat="46.82728" lon="6.33326">
        <ele>895</ele>
        <time>2022-12-01T11:44:26Z</time>
      </trkpt>
      <trkpt lat="46.82733" lon="6.33323">
        <ele>894.8</ele>
        <time>2022-12-01T11:44:32Z</time>
      </trkpt>
      <trkpt lat="46.82737" lon="6.33319">
        <ele>894</ele>
        <time>2022-12-01T11:44:38Z</time>
      </trkpt>
      <trkpt lat="46.82741" lon="6.33315">
        <ele>893.7</ele>
        <time>2022-12-01T11:44:43Z</time>
      </trkpt>
      <trkpt lat="46.82745" lon="6.33311">
        <ele>893.3</ele>
        <time>2022-12-01T11:44:49Z</time>
      </trkpt>
      <trkpt lat="46.82748" lon="6.33305">
        <ele>892.7</ele>
        <time>2022-12-01T11:44:55Z</time>
      </trkpt>
      <trkpt lat="46.82752" lon="6.333">
        <ele>892</ele>
        <time>2022-12-01T11:45:01Z</time>
      </trkpt>
      <trkpt lat="46.82755" lon="6.33294">
        <ele>890.4</ele>
        <time>2022-12-01T11:45:08Z</time>
      </trkpt>
      <trkpt lat="46.82756" lon="6.33288">
        <ele>889.7</ele>
        <time>2022-12-01T11:45:14Z</time>
      </trkpt>
      <trkpt lat="46.82758" lon="6.33282">
        <ele>888.7</ele>
        <time>2022-12-01T11:45:20Z</time>
      </trkpt>
      <trkpt lat="46.82761" lon="6.33275">
        <ele>887.3</ele>
        <time>2022-12-01T11:45:26Z</time>
      </trkpt>
      <trkpt lat="46.82764" lon="6.33269">
        <ele>886.1</ele>
        <time>2022-12-01T11:45:32Z</time>
      </trkpt>
      <trkpt lat="46.82766" lon="6.33262">
        <ele>884.3</ele>
        <time>2022-12-01T11:45:40Z</time>
      </trkpt>
      <trkpt lat="46.82768" lon="6.33255">
        <ele>883.4</ele>
        <time>2022-12-01T11:45:46Z</time>
      </trkpt>
      <trkpt lat="46.82769" lon="6.33248">
        <ele>882.4</ele>
        <time>2022-12-01T11:45:52Z</time>
      </trkpt>
      <trkpt lat="46.8277" lon="6.33241">
        <ele>881.1</ele>
        <time>2022-12-01T11:45:58Z</time>
      </trkpt>
      <trkpt lat="46.8277" lon="6.33233">
        <ele>879.4</ele>
        <time>2022-12-01T11:46:06Z</time>
      </trkpt>
      <trkpt lat="46.82772" lon="6.33226">
        <ele>878.6</ele>
        <time>2022-12-01T11:46:12Z</time>
      </trkpt>
      <trkpt lat="46.82772" lon="6.33219">
        <ele>878.5</ele>
        <time>2022-12-01T11:46:17Z</time>
      </trkpt>
      <trkpt lat="46.82772" lon="6.33212">
        <ele>877.9</ele>
        <time>2022-12-01T11:46:23Z</time>
      </trkpt>
      <trkpt lat="46.82771" lon="6.33205">
        <ele>876.1</ele>
        <time>2022-12-01T11:46:30Z</time>
      </trkpt>
      <trkpt lat="46.8277" lon="6.33198">
        <ele>874.7</ele>
        <time>2022-12-01T11:46:37Z</time>
      </trkpt>
      <trkpt lat="46.82768" lon="6.33191">
        <ele>873.7</ele>
        <time>2022-12-01T11:46:45Z</time>
      </trkpt>
      <trkpt lat="46.82766" lon="6.33185">
        <ele>873</ele>
        <time>2022-12-01T11:46:51Z</time>
      </trkpt>
      <trkpt lat="46.82762" lon="6.33179">
        <ele>872.3</ele>
        <time>2022-12-01T11:46:57Z</time>
      </trkpt>
      <trkpt lat="46.82759" lon="6.33174">
        <ele>872</ele>
        <time>2022-12-01T11:47:02Z</time>
      </trkpt>
      <trkpt lat="46.82755" lon="6.33169">
        <ele>872.1</ele>
        <time>2022-12-01T11:47:07Z</time>
      </trkpt>
      <trkpt lat="46.82752" lon="6.33164">
        <ele>872.4</ele>
        <time>2022-12-01T11:47:12Z</time>
      </trkpt>
      <trkpt lat="46.82748" lon="6.33159">
        <ele>872.7</ele>
        <time>2022-12-01T11:47:19Z</time>
      </trkpt>
      <trkpt lat="46.82745" lon="6.33154">
        <ele>872.2</ele>
        <time>2022-12-01T11:47:26Z</time>
      </trkpt>
      <trkpt lat="46.82742" lon="6.33149">
        <ele>870.9</ele>
        <time>2022-12-01T11:47:34Z</time>
      </trkpt>
      <trkpt lat="46.82737" lon="6.33146">
        <ele>868.9</ele>
        <time>2022-12-01T11:47:42Z</time>
      </trkpt>
      <trkpt lat="46.82733" lon="6.33141">
        <ele>867.3</ele>
        <time>2022-12-01T11:47:49Z</time>
      </trkpt>
      <trkpt lat="46.82729" lon="6.33137">
        <ele>866.3</ele>
        <time>2022-12-01T11:47:54Z</time>
      </trkpt>
      <trkpt lat="46.82725" lon="6.33132">
        <ele>865.8</ele>
        <time>2022-12-01T11:48:00Z</time>
      </trkpt>
      <trkpt lat="46.82721" lon="6.33127">
        <ele>865.5</ele>
        <time>2022-12-01T11:48:06Z</time>
      </trkpt>
      <trkpt lat="46.82717" lon="6.33122">
        <ele>865.1</ele>
        <time>2022-12-01T11:48:12Z</time>
      </trkpt>
      <trkpt lat="46.82713" lon="6.33118">
        <ele>864.6</ele>
        <time>2022-12-01T11:48:18Z</time>
      </trkpt>
      <trkpt lat="46.8271" lon="6.33113">
        <ele>864.5</ele>
        <time>2022-12-01T11:48:23Z</time>
      </trkpt>
      <trkpt lat="46.82707" lon="6.33109">
        <ele>864.4</ele>
        <time>2022-12-01T11:48:27Z</time>
      </trkpt>
      <trkpt lat="46.82703" lon="6.33104">
        <ele>863.8</ele>
        <time>2022-12-01T11:48:32Z</time>
      </trkpt>
      <trkpt lat="46.82699" lon="6.331">
        <ele>863.2</ele>
        <time>2022-12-01T11:48:36Z</time>
      </trkpt>
      <trkpt lat="46.82695" lon="6.33096">
        <ele>862.7</ele>
        <time>2022-12-01T11:48:40Z</time>
      </trkpt>
      <trkpt lat="46.82692" lon="6.33091">
        <ele>862.6</ele>
        <time>2022-12-01T11:48:46Z</time>
      </trkpt>
      <trkpt lat="46.82687" lon="6.33085">
        <ele>862.5</ele>
        <time>2022-12-01T11:48:50Z</time>
      </trkpt>
      <trkpt lat="46.82684" lon="6.33079">
        <ele>862.7</ele>
        <time>2022-12-01T11:48:53Z</time>
      </trkpt>
      <trkpt lat="46.82679" lon="6.33075">
        <ele>862.9</ele>
        <time>2022-12-01T11:48:57Z</time>
      </trkpt>
      <trkpt lat="46.82674" lon="6.33072">
        <ele>863.2</ele>
        <time>2022-12-01T11:49:02Z</time>
      </trkpt>
      <trkpt lat="46.82669" lon="6.3307">
        <ele>863.1</ele>
        <time>2022-12-01T11:49:08Z</time>
      </trkpt>
      <trkpt lat="46.82665" lon="6.33065">
        <ele>862</ele>
        <time>2022-12-01T11:49:13Z</time>
      </trkpt>
      <trkpt lat="46.82662" lon="6.3306">
        <ele>860.7</ele>
        <time>2022-12-01T11:49:18Z</time>
      </trkpt>
      <trkpt lat="46.82659" lon="6.33054">
        <ele>859.8</ele>
        <time>2022-12-01T11:49:24Z</time>
      </trkpt>
      <trkpt lat="46.82656" lon="6.3305">
        <ele>859.1</ele>
        <time>2022-12-01T11:49:30Z</time>
      </trkpt>
      <trkpt lat="46.82651" lon="6.33046">
        <ele>858</ele>
        <time>2022-12-01T11:49:36Z</time>
      </trkpt>
      <trkpt lat="46.82648" lon="6.33042">
        <ele>857.1</ele>
        <time>2022-12-01T11:49:40Z</time>
      </trkpt>
      <trkpt lat="46.82643" lon="6.33038">
        <ele>856.5</ele>
        <time>2022-12-01T11:49:45Z</time>
      </trkpt>
      <trkpt lat="46.82639" lon="6.33033">
        <ele>855.9</ele>
        <time>2022-12-01T11:49:49Z</time>
      </trkpt>
      <trkpt lat="46.82636" lon="6.33028">
        <ele>855.9</ele>
        <time>2022-12-01T11:49:53Z</time>
      </trkpt>
      <trkpt lat="46.82632" lon="6.33022">
        <ele>856.3</ele>
        <time>2022-12-01T11:49:57Z</time>
      </trkpt>
      <trkpt lat="46.82628" lon="6.33019">
        <ele>856.5</ele>
        <time>2022-12-01T11:50:01Z</time>
      </trkpt>
      <trkpt lat="46.82624" lon="6.33017">
        <ele>856.6</ele>
        <time>2022-12-01T11:50:05Z</time>
      </trkpt>
      <trkpt lat="46.82619" lon="6.33014">
        <ele>856.8</ele>
        <time>2022-12-01T11:50:09Z</time>
      </trkpt>
      <trkpt lat="46.82616" lon="6.3301">
        <ele>857.4</ele>
        <time>2022-12-01T11:50:13Z</time>
      </trkpt>
      <trkpt lat="46.82612" lon="6.33007">
        <ele>857.4</ele>
        <time>2022-12-01T11:50:18Z</time>
      </trkpt>
      <trkpt lat="46.82607" lon="6.33002">
        <ele>857.4</ele>
        <time>2022-12-01T11:50:24Z</time>
      </trkpt>
      <trkpt lat="46.82603" lon="6.32999">
        <ele>856.9</ele>
        <time>2022-12-01T11:50:28Z</time>
      </trkpt>
      <trkpt lat="46.82599" lon="6.32995">
        <ele>856.4</ele>
        <time>2022-12-01T11:50:32Z</time>
      </trkpt>
      <trkpt lat="46.82596" lon="6.32989">
        <ele>855.8</ele>
        <time>2022-12-01T11:50:36Z</time>
      </trkpt>
      <trkpt lat="46.82591" lon="6.32986">
        <ele>855.3</ele>
        <time>2022-12-01T11:50:40Z</time>
      </trkpt>
      <trkpt lat="46.82587" lon="6.32982">
        <ele>855.2</ele>
        <time>2022-12-01T11:50:45Z</time>
      </trkpt>
      <trkpt lat="46.82584" lon="6.32976">
        <ele>854.7</ele>
        <time>2022-12-01T11:50:51Z</time>
      </trkpt>
      <trkpt lat="46.8258" lon="6.32972">
        <ele>854.3</ele>
        <time>2022-12-01T11:50:56Z</time>
      </trkpt>
      <trkpt lat="46.82577" lon="6.32967">
        <ele>854.1</ele>
        <time>2022-12-01T11:51:01Z</time>
      </trkpt>
      <trkpt lat="46.82573" lon="6.32962">
        <ele>853.9</ele>
        <time>2022-12-01T11:51:06Z</time>
      </trkpt>
      <trkpt lat="46.82568" lon="6.32957">
        <ele>853.8</ele>
        <time>2022-12-01T11:51:11Z</time>
      </trkpt>
      <trkpt lat="46.82564" lon="6.32954">
        <ele>853</ele>
        <time>2022-12-01T11:51:18Z</time>
      </trkpt>
      <trkpt lat="46.82559" lon="6.3295">
        <ele>852.4</ele>
        <time>2022-12-01T11:51:23Z</time>
      </trkpt>
      <trkpt lat="46.82554" lon="6.32945">
        <ele>852.4</ele>
        <time>2022-12-01T11:51:27Z</time>
      </trkpt>
      <trkpt lat="46.8255" lon="6.32942">
        <ele>852.6</ele>
        <time>2022-12-01T11:51:31Z</time>
      </trkpt>
      <trkpt lat="46.82545" lon="6.32938">
        <ele>852.9</ele>
        <time>2022-12-01T11:51:36Z</time>
      </trkpt>
      <trkpt lat="46.82541" lon="6.32935">
        <ele>853</ele>
        <time>2022-12-01T11:51:42Z</time>
      </trkpt>
      <trkpt lat="46.82536" lon="6.32931">
        <ele>852.8</ele>
        <time>2022-12-01T11:51:48Z</time>
      </trkpt>
      <trkpt lat="46.82531" lon="6.3293">
        <ele>852</ele>
        <time>2022-12-01T11:51:54Z</time>
      </trkpt>
      <trkpt lat="46.82526" lon="6.32925">
        <ele>851.9</ele>
        <time>2022-12-01T11:51:58Z</time>
      </trkpt>
      <trkpt lat="46.82522" lon="6.32923">
        <ele>851.7</ele>
        <time>2022-12-01T11:52:03Z</time>
      </trkpt>
      <trkpt lat="46.82517" lon="6.32921">
        <ele>851.7</ele>
        <time>2022-12-01T11:52:08Z</time>
      </trkpt>
      <trkpt lat="46.82513" lon="6.32917">
        <ele>851.6</ele>
        <time>2022-12-01T11:52:13Z</time>
      </trkpt>
      <trkpt lat="46.82509" lon="6.32914">
        <ele>851.1</ele>
        <time>2022-12-01T11:52:20Z</time>
      </trkpt>
      <trkpt lat="46.82504" lon="6.32912">
        <ele>850.7</ele>
        <time>2022-12-01T11:52:25Z</time>
      </trkpt>
      <trkpt lat="46.82499" lon="6.32908">
        <ele>850.4</ele>
        <time>2022-12-01T11:52:29Z</time>
      </trkpt>
      <trkpt lat="46.82494" lon="6.32905">
        <ele>850.4</ele>
        <time>2022-12-01T11:52:33Z</time>
      </trkpt>
      <trkpt lat="46.8249" lon="6.32901">
        <ele>850.7</ele>
        <time>2022-12-01T11:52:38Z</time>
      </trkpt>
      <trkpt lat="46.82485" lon="6.32898">
        <ele>851</ele>
        <time>2022-12-01T11:52:42Z</time>
      </trkpt>
      <trkpt lat="46.82481" lon="6.32896">
        <ele>851.2</ele>
        <time>2022-12-01T11:52:47Z</time>
      </trkpt>
      <trkpt lat="46.82477" lon="6.32892">
        <ele>851.4</ele>
        <time>2022-12-01T11:52:51Z</time>
      </trkpt>
      <trkpt lat="46.82473" lon="6.32887">
        <ele>851.5</ele>
        <time>2022-12-01T11:52:56Z</time>
      </trkpt>
      <trkpt lat="46.82469" lon="6.32884">
        <ele>851.6</ele>
        <time>2022-12-01T11:53:01Z</time>
      </trkpt>
      <trkpt lat="46.82464" lon="6.32883">
        <ele>851.4</ele>
        <time>2022-12-01T11:53:07Z</time>
      </trkpt>
      <trkpt lat="46.82458" lon="6.3288">
        <ele>851.5</ele>
        <time>2022-12-01T11:53:12Z</time>
      </trkpt>
      <trkpt lat="46.82454" lon="6.32877">
        <ele>851.9</ele>
        <time>2022-12-01T11:53:16Z</time>
      </trkpt>
      <trkpt lat="46.8245" lon="6.32874">
        <ele>852.5</ele>
        <time>2022-12-01T11:53:20Z</time>
      </trkpt>
      <trkpt lat="46.82446" lon="6.32869">
        <ele>853</ele>
        <time>2022-12-01T11:53:24Z</time>
      </trkpt>
      <trkpt lat="46.82442" lon="6.32866">
        <ele>853.1</ele>
        <time>2022-12-01T11:53:28Z</time>
      </trkpt>
      <trkpt lat="46.82438" lon="6.32861">
        <ele>853.4</ele>
        <time>2022-12-01T11:53:33Z</time>
      </trkpt>
      <trkpt lat="46.82433" lon="6.32858">
        <ele>853.8</ele>
        <time>2022-12-01T11:53:37Z</time>
      </trkpt>
      <trkpt lat="46.82429" lon="6.32853">
        <ele>854.1</ele>
        <time>2022-12-01T11:53:41Z</time>
      </trkpt>
      <trkpt lat="46.82425" lon="6.3285">
        <ele>854.5</ele>
        <time>2022-12-01T11:53:45Z</time>
      </trkpt>
      <trkpt lat="46.8242" lon="6.32848">
        <ele>854.7</ele>
        <time>2022-12-01T11:53:51Z</time>
      </trkpt>
      <trkpt lat="46.82415" lon="6.32844">
        <ele>854.6</ele>
        <time>2022-12-01T11:53:56Z</time>
      </trkpt>
      <trkpt lat="46.82411" lon="6.32842">
        <ele>854.6</ele>
        <time>2022-12-01T11:54:01Z</time>
      </trkpt>
      <trkpt lat="46.82406" lon="6.32841">
        <ele>854.1</ele>
        <time>2022-12-01T11:54:07Z</time>
      </trkpt>
      <trkpt lat="46.82402" lon="6.32838">
        <ele>853.9</ele>
        <time>2022-12-01T11:54:11Z</time>
      </trkpt>
      <trkpt lat="46.82398" lon="6.32833">
        <ele>853.7</ele>
        <time>2022-12-01T11:54:15Z</time>
      </trkpt>
      <trkpt lat="46.82394" lon="6.3283">
        <ele>853.6</ele>
        <time>2022-12-01T11:54:21Z</time>
      </trkpt>
      <trkpt lat="46.8239" lon="6.32827">
        <ele>854</ele>
        <time>2022-12-01T11:54:25Z</time>
      </trkpt>
      <trkpt lat="46.82385" lon="6.32825">
        <ele>853.6</ele>
        <time>2022-12-01T11:54:31Z</time>
      </trkpt>
      <trkpt lat="46.8238" lon="6.3282">
        <ele>853.5</ele>
        <time>2022-12-01T11:54:35Z</time>
      </trkpt>
      <trkpt lat="46.82376" lon="6.32818">
        <ele>853.3</ele>
        <time>2022-12-01T11:54:40Z</time>
      </trkpt>
      <trkpt lat="46.82372" lon="6.32814">
        <ele>853.4</ele>
        <time>2022-12-01T11:54:46Z</time>
      </trkpt>
      <trkpt lat="46.82368" lon="6.3281">
        <ele>853.8</ele>
        <time>2022-12-01T11:54:50Z</time>
      </trkpt>
      <trkpt lat="46.82364" lon="6.32806">
        <ele>853.7</ele>
        <time>2022-12-01T11:54:54Z</time>
      </trkpt>
      <trkpt lat="46.82359" lon="6.32802">
        <ele>853.8</ele>
        <time>2022-12-01T11:54:58Z</time>
      </trkpt>
      <trkpt lat="46.82355" lon="6.328">
        <ele>854</ele>
        <time>2022-12-01T11:55:03Z</time>
      </trkpt>
      <trkpt lat="46.8235" lon="6.32797">
        <ele>854</ele>
        <time>2022-12-01T11:55:08Z</time>
      </trkpt>
      <trkpt lat="46.82346" lon="6.32794">
        <ele>854</ele>
        <time>2022-12-01T11:55:13Z</time>
      </trkpt>
      <trkpt lat="46.82341" lon="6.32792">
        <ele>854</ele>
        <time>2022-12-01T11:55:18Z</time>
      </trkpt>
      <trkpt lat="46.82336" lon="6.32787">
        <ele>854</ele>
        <time>2022-12-01T11:55:23Z</time>
      </trkpt>
      <trkpt lat="46.82333" lon="6.32782">
        <ele>854</ele>
        <time>2022-12-01T11:55:28Z</time>
      </trkpt>
      <trkpt lat="46.82328" lon="6.32779">
        <ele>853.3</ele>
        <time>2022-12-01T11:55:34Z</time>
      </trkpt>
      <trkpt lat="46.82323" lon="6.32774">
        <ele>853.4</ele>
        <time>2022-12-01T11:55:38Z</time>
      </trkpt>
      <trkpt lat="46.82319" lon="6.3277">
        <ele>853.7</ele>
        <time>2022-12-01T11:55:44Z</time>
      </trkpt>
      <trkpt lat="46.82314" lon="6.32768">
        <ele>853.2</ele>
        <time>2022-12-01T11:55:50Z</time>
      </trkpt>
      <trkpt lat="46.8231" lon="6.32764">
        <ele>852.5</ele>
        <time>2022-12-01T11:55:55Z</time>
      </trkpt>
      <trkpt lat="46.82305" lon="6.32761">
        <ele>852.4</ele>
        <time>2022-12-01T11:55:59Z</time>
      </trkpt>
      <trkpt lat="46.82301" lon="6.32759">
        <ele>852.2</ele>
        <time>2022-12-01T11:56:03Z</time>
      </trkpt>
      <trkpt lat="46.82297" lon="6.32757">
        <ele>852.2</ele>
        <time>2022-12-01T11:56:07Z</time>
      </trkpt>
      <trkpt lat="46.82292" lon="6.32755">
        <ele>852</ele>
        <time>2022-12-01T11:56:12Z</time>
      </trkpt>
      <trkpt lat="46.82288" lon="6.32753">
        <ele>851.8</ele>
        <time>2022-12-01T11:56:17Z</time>
      </trkpt>
      <trkpt lat="46.82282" lon="6.32753">
        <ele>851.4</ele>
        <time>2022-12-01T11:56:22Z</time>
      </trkpt>
      <trkpt lat="46.82277" lon="6.32753">
        <ele>851</ele>
        <time>2022-12-01T11:56:26Z</time>
      </trkpt>
      <trkpt lat="46.82272" lon="6.32752">
        <ele>850.2</ele>
        <time>2022-12-01T11:56:30Z</time>
      </trkpt>
      <trkpt lat="46.82267" lon="6.3275">
        <ele>849.3</ele>
        <time>2022-12-01T11:56:35Z</time>
      </trkpt>
      <trkpt lat="46.82262" lon="6.32747">
        <ele>849.2</ele>
        <time>2022-12-01T11:56:40Z</time>
      </trkpt>
      <trkpt lat="46.82258" lon="6.32744">
        <ele>849.6</ele>
        <time>2022-12-01T11:56:46Z</time>
      </trkpt>
      <trkpt lat="46.82253" lon="6.32741">
        <ele>849.9</ele>
        <time>2022-12-01T11:56:51Z</time>
      </trkpt>
      <trkpt lat="46.82249" lon="6.32738">
        <ele>850.2</ele>
        <time>2022-12-01T11:56:58Z</time>
      </trkpt>
      <trkpt lat="46.82245" lon="6.32737">
        <ele>850.6</ele>
        <time>2022-12-01T11:57:02Z</time>
      </trkpt>
      <trkpt lat="46.8224" lon="6.32736">
        <ele>850.9</ele>
        <time>2022-12-01T11:57:06Z</time>
      </trkpt>
      <trkpt lat="46.82235" lon="6.32736">
        <ele>850.8</ele>
        <time>2022-12-01T11:57:10Z</time>
      </trkpt>
      <trkpt lat="46.8223" lon="6.32737">
        <ele>850.5</ele>
        <time>2022-12-01T11:57:14Z</time>
      </trkpt>
      <trkpt lat="46.82225" lon="6.32735">
        <ele>850.9</ele>
        <time>2022-12-01T11:57:18Z</time>
      </trkpt>
      <trkpt lat="46.8222" lon="6.32734">
        <ele>851.4</ele>
        <time>2022-12-01T11:57:23Z</time>
      </trkpt>
      <trkpt lat="46.82216" lon="6.32736">
        <ele>851.7</ele>
        <time>2022-12-01T11:57:30Z</time>
      </trkpt>
      <trkpt lat="46.82211" lon="6.32735">
        <ele>851.8</ele>
        <time>2022-12-01T11:57:34Z</time>
      </trkpt>
      <trkpt lat="46.82207" lon="6.32734">
        <ele>852</ele>
        <time>2022-12-01T11:57:37Z</time>
      </trkpt>
      <trkpt lat="46.82202" lon="6.32733">
        <ele>852.2</ele>
        <time>2022-12-01T11:57:41Z</time>
      </trkpt>
      <trkpt lat="46.82197" lon="6.32733">
        <ele>852.4</ele>
        <time>2022-12-01T11:57:46Z</time>
      </trkpt>
      <trkpt lat="46.82192" lon="6.3273">
        <ele>852.7</ele>
        <time>2022-12-01T11:57:51Z</time>
      </trkpt>
      <trkpt lat="46.82188" lon="6.32726">
        <ele>852.9</ele>
        <time>2022-12-01T11:57:55Z</time>
      </trkpt>
      <trkpt lat="46.82185" lon="6.32721">
        <ele>853.3</ele>
        <time>2022-12-01T11:57:59Z</time>
      </trkpt>
      <trkpt lat="46.8218" lon="6.32717">
        <ele>853.9</ele>
        <time>2022-12-01T11:58:03Z</time>
      </trkpt>
      <trkpt lat="46.82176" lon="6.32713">
        <ele>854.5</ele>
        <time>2022-12-01T11:58:08Z</time>
      </trkpt>
      <trkpt lat="46.82172" lon="6.32708">
        <ele>854.9</ele>
        <time>2022-12-01T11:58:15Z</time>
      </trkpt>
      <trkpt lat="46.82168" lon="6.32704">
        <ele>854.9</ele>
        <time>2022-12-01T11:58:20Z</time>
      </trkpt>
      <trkpt lat="46.82164" lon="6.327">
        <ele>855</ele>
        <time>2022-12-01T11:58:26Z</time>
      </trkpt>
      <trkpt lat="46.82159" lon="6.32696">
        <ele>854.8</ele>
        <time>2022-12-01T11:58:31Z</time>
      </trkpt>
      <trkpt lat="46.82155" lon="6.32694">
        <ele>854.5</ele>
        <time>2022-12-01T11:58:36Z</time>
      </trkpt>
      <trkpt lat="46.8215" lon="6.32691">
        <ele>854.2</ele>
        <time>2022-12-01T11:58:40Z</time>
      </trkpt>
      <trkpt lat="46.82146" lon="6.32688">
        <ele>853.9</ele>
        <time>2022-12-01T11:58:45Z</time>
      </trkpt>
      <trkpt lat="46.82142" lon="6.32684">
        <ele>853.4</ele>
        <time>2022-12-01T11:58:50Z</time>
      </trkpt>
      <trkpt lat="46.82139" lon="6.32679">
        <ele>853.2</ele>
        <time>2022-12-01T11:58:54Z</time>
      </trkpt>
      <trkpt lat="46.82134" lon="6.32675">
        <ele>852.8</ele>
        <time>2022-12-01T11:58:58Z</time>
      </trkpt>
      <trkpt lat="46.8213" lon="6.3267">
        <ele>852.6</ele>
        <time>2022-12-01T11:59:04Z</time>
      </trkpt>
      <trkpt lat="46.82126" lon="6.32666">
        <ele>851.4</ele>
        <time>2022-12-01T11:59:11Z</time>
      </trkpt>
      <trkpt lat="46.82121" lon="6.32663">
        <ele>850.4</ele>
        <time>2022-12-01T11:59:16Z</time>
      </trkpt>
      <trkpt lat="46.82117" lon="6.3266">
        <ele>849.9</ele>
        <time>2022-12-01T11:59:20Z</time>
      </trkpt>
      <trkpt lat="46.82113" lon="6.32657">
        <ele>849.7</ele>
        <time>2022-12-01T11:59:24Z</time>
      </trkpt>
      <trkpt lat="46.82109" lon="6.32652">
        <ele>849.7</ele>
        <time>2022-12-01T11:59:29Z</time>
      </trkpt>
      <trkpt lat="46.82105" lon="6.32648">
        <ele>850.2</ele>
        <time>2022-12-01T11:59:34Z</time>
      </trkpt>
      <trkpt lat="46.821" lon="6.32645">
        <ele>851</ele>
        <time>2022-12-01T11:59:39Z</time>
      </trkpt>
      <trkpt lat="46.82096" lon="6.32642">
        <ele>852.2</ele>
        <time>2022-12-01T11:59:43Z</time>
      </trkpt>
      <trkpt lat="46.82091" lon="6.32638">
        <ele>853.5</ele>
        <time>2022-12-01T11:59:48Z</time>
      </trkpt>
      <trkpt lat="46.82087" lon="6.32635">
        <ele>854.3</ele>
        <time>2022-12-01T11:59:52Z</time>
      </trkpt>
      <trkpt lat="46.82082" lon="6.32632">
        <ele>854.8</ele>
        <time>2022-12-01T11:59:56Z</time>
      </trkpt>
      <trkpt lat="46.82078" lon="6.32629">
        <ele>855.4</ele>
        <time>2022-12-01T12:00:01Z</time>
      </trkpt>
      <trkpt lat="46.82073" lon="6.32627">
        <ele>856.3</ele>
        <time>2022-12-01T12:00:07Z</time>
      </trkpt>
      <trkpt lat="46.82068" lon="6.32627">
        <ele>856.5</ele>
        <time>2022-12-01T12:00:12Z</time>
      </trkpt>
      <trkpt lat="46.82063" lon="6.32626">
        <ele>856.5</ele>
        <time>2022-12-01T12:00:16Z</time>
      </trkpt>
      <trkpt lat="46.82059" lon="6.32624">
        <ele>855.9</ele>
        <time>2022-12-01T12:00:21Z</time>
      </trkpt>
      <trkpt lat="46.82054" lon="6.32622">
        <ele>854.8</ele>
        <time>2022-12-01T12:00:25Z</time>
      </trkpt>
      <trkpt lat="46.82049" lon="6.32621">
        <ele>853.5</ele>
        <time>2022-12-01T12:00:29Z</time>
      </trkpt>
      <trkpt lat="46.82044" lon="6.32621">
        <ele>852.5</ele>
        <time>2022-12-01T12:00:34Z</time>
      </trkpt>
      <trkpt lat="46.82039" lon="6.32619">
        <ele>852.1</ele>
        <time>2022-12-01T12:00:40Z</time>
      </trkpt>
      <trkpt lat="46.82034" lon="6.32618">
        <ele>851.9</ele>
        <time>2022-12-01T12:00:45Z</time>
      </trkpt>
      <trkpt lat="46.82029" lon="6.32617">
        <ele>851.5</ele>
        <time>2022-12-01T12:00:50Z</time>
      </trkpt>
      <trkpt lat="46.82024" lon="6.32615">
        <ele>851.5</ele>
        <time>2022-12-01T12:00:54Z</time>
      </trkpt>
      <trkpt lat="46.8202" lon="6.32611">
        <ele>851.7</ele>
        <time>2022-12-01T12:00:58Z</time>
      </trkpt>
      <trkpt lat="46.82015" lon="6.32609">
        <ele>852.3</ele>
        <time>2022-12-01T12:01:03Z</time>
      </trkpt>
      <trkpt lat="46.82011" lon="6.32607">
        <ele>852.9</ele>
        <time>2022-12-01T12:01:07Z</time>
      </trkpt>
      <trkpt lat="46.82007" lon="6.32606">
        <ele>853.8</ele>
        <time>2022-12-01T12:01:11Z</time>
      </trkpt>
      <trkpt lat="46.82002" lon="6.32605">
        <ele>855.1</ele>
        <time>2022-12-01T12:01:15Z</time>
      </trkpt>
      <trkpt lat="46.81996" lon="6.32602">
        <ele>856.3</ele>
        <time>2022-12-01T12:01:20Z</time>
      </trkpt>
      <trkpt lat="46.81991" lon="6.326">
        <ele>856.9</ele>
        <time>2022-12-01T12:01:25Z</time>
      </trkpt>
      <trkpt lat="46.81986" lon="6.32599">
        <ele>857.7</ele>
        <time>2022-12-01T12:01:30Z</time>
      </trkpt>
      <trkpt lat="46.81982" lon="6.32594">
        <ele>858</ele>
        <time>2022-12-01T12:01:36Z</time>
      </trkpt>
      <trkpt lat="46.81977" lon="6.32593">
        <ele>858.1</ele>
        <time>2022-12-01T12:01:42Z</time>
      </trkpt>
      <trkpt lat="46.81972" lon="6.32594">
        <ele>858.8</ele>
        <time>2022-12-01T12:01:47Z</time>
      </trkpt>
      <trkpt lat="46.81967" lon="6.32594">
        <ele>859.7</ele>
        <time>2022-12-01T12:01:52Z</time>
      </trkpt>
      <trkpt lat="46.81963" lon="6.32592">
        <ele>860.3</ele>
        <time>2022-12-01T12:01:59Z</time>
      </trkpt>
      <trkpt lat="46.81959" lon="6.32589">
        <ele>860.4</ele>
        <time>2022-12-01T12:02:05Z</time>
      </trkpt>
      <trkpt lat="46.81953" lon="6.32587">
        <ele>860.7</ele>
        <time>2022-12-01T12:02:11Z</time>
      </trkpt>
      <trkpt lat="46.81949" lon="6.32585">
        <ele>861.1</ele>
        <time>2022-12-01T12:02:17Z</time>
      </trkpt>
      <trkpt lat="46.81944" lon="6.32582">
        <ele>861.6</ele>
        <time>2022-12-01T12:02:23Z</time>
      </trkpt>
      <trkpt lat="46.8194" lon="6.32577">
        <ele>862</ele>
        <time>2022-12-01T12:02:29Z</time>
      </trkpt>
      <trkpt lat="46.81936" lon="6.32574">
        <ele>862.4</ele>
        <time>2022-12-01T12:02:34Z</time>
      </trkpt>
      <trkpt lat="46.81932" lon="6.32569">
        <ele>863</ele>
        <time>2022-12-01T12:02:39Z</time>
      </trkpt>
      <trkpt lat="46.81929" lon="6.32564">
        <ele>864.4</ele>
        <time>2022-12-01T12:02:44Z</time>
      </trkpt>
      <trkpt lat="46.81925" lon="6.3256">
        <ele>865.2</ele>
        <time>2022-12-01T12:02:49Z</time>
      </trkpt>
      <trkpt lat="46.81921" lon="6.32555">
        <ele>865.8</ele>
        <time>2022-12-01T12:02:55Z</time>
      </trkpt>
      <trkpt lat="46.81917" lon="6.32552">
        <ele>866.3</ele>
        <time>2022-12-01T12:03:00Z</time>
      </trkpt>
      <trkpt lat="46.81913" lon="6.32549">
        <ele>866.6</ele>
        <time>2022-12-01T12:03:05Z</time>
      </trkpt>
      <trkpt lat="46.81909" lon="6.32543">
        <ele>866.4</ele>
        <time>2022-12-01T12:03:10Z</time>
      </trkpt>
      <trkpt lat="46.81906" lon="6.32539">
        <ele>866.4</ele>
        <time>2022-12-01T12:03:15Z</time>
      </trkpt>
      <trkpt lat="46.81902" lon="6.32535">
        <ele>866.7</ele>
        <time>2022-12-01T12:03:20Z</time>
      </trkpt>
      <trkpt lat="46.81899" lon="6.32529">
        <ele>866.9</ele>
        <time>2022-12-01T12:03:25Z</time>
      </trkpt>
      <trkpt lat="46.81895" lon="6.32526">
        <ele>867.2</ele>
        <time>2022-12-01T12:03:30Z</time>
      </trkpt>
      <trkpt lat="46.8189" lon="6.32524">
        <ele>867.8</ele>
        <time>2022-12-01T12:03:35Z</time>
      </trkpt>
      <trkpt lat="46.81886" lon="6.32521">
        <ele>868.2</ele>
        <time>2022-12-01T12:03:39Z</time>
      </trkpt>
      <trkpt lat="46.81883" lon="6.32515">
        <ele>868.9</ele>
        <time>2022-12-01T12:03:44Z</time>
      </trkpt>
      <trkpt lat="46.8188" lon="6.32509">
        <ele>869.6</ele>
        <time>2022-12-01T12:03:49Z</time>
      </trkpt>
      <trkpt lat="46.81876" lon="6.32504">
        <ele>869.7</ele>
        <time>2022-12-01T12:03:54Z</time>
      </trkpt>
      <trkpt lat="46.81872" lon="6.325">
        <ele>869.8</ele>
        <time>2022-12-01T12:03:59Z</time>
      </trkpt>
      <trkpt lat="46.81868" lon="6.32496">
        <ele>870.5</ele>
        <time>2022-12-01T12:04:05Z</time>
      </trkpt>
      <trkpt lat="46.81864" lon="6.3249">
        <ele>871.1</ele>
        <time>2022-12-01T12:04:10Z</time>
      </trkpt>
      <trkpt lat="46.81861" lon="6.32484">
        <ele>871.3</ele>
        <time>2022-12-01T12:04:14Z</time>
      </trkpt>
      <trkpt lat="46.81858" lon="6.32477">
        <ele>870.8</ele>
        <time>2022-12-01T12:04:19Z</time>
      </trkpt>
      <trkpt lat="46.81854" lon="6.32472">
        <ele>870.1</ele>
        <time>2022-12-01T12:04:25Z</time>
      </trkpt>
      <trkpt lat="46.81852" lon="6.32466">
        <ele>869.7</ele>
        <time>2022-12-01T12:04:30Z</time>
      </trkpt>
      <trkpt lat="46.8185" lon="6.32459">
        <ele>869.8</ele>
        <time>2022-12-01T12:04:35Z</time>
      </trkpt>
      <trkpt lat="46.81847" lon="6.32452">
        <ele>870.5</ele>
        <time>2022-12-01T12:04:40Z</time>
      </trkpt>
      <trkpt lat="46.81846" lon="6.32445">
        <ele>871.2</ele>
        <time>2022-12-01T12:04:44Z</time>
      </trkpt>
      <trkpt lat="46.81847" lon="6.32438">
        <ele>871.6</ele>
        <time>2022-12-01T12:04:49Z</time>
      </trkpt>
      <trkpt lat="46.81849" lon="6.32431">
        <ele>871.3</ele>
        <time>2022-12-01T12:04:55Z</time>
      </trkpt>
      <trkpt lat="46.81851" lon="6.32425">
        <ele>870.4</ele>
        <time>2022-12-01T12:05:01Z</time>
      </trkpt>
      <trkpt lat="46.81854" lon="6.3242">
        <ele>869.3</ele>
        <time>2022-12-01T12:05:07Z</time>
      </trkpt>
      <trkpt lat="46.81856" lon="6.32412">
        <ele>868.3</ele>
        <time>2022-12-01T12:05:13Z</time>
      </trkpt>
      <trkpt lat="46.81858" lon="6.32406">
        <ele>867.8</ele>
        <time>2022-12-01T12:05:18Z</time>
      </trkpt>
      <trkpt lat="46.81861" lon="6.324">
        <ele>867.8</ele>
        <time>2022-12-01T12:05:23Z</time>
      </trkpt>
      <trkpt lat="46.81863" lon="6.32395">
        <ele>867.3</ele>
        <time>2022-12-01T12:05:27Z</time>
      </trkpt>
      <trkpt lat="46.81866" lon="6.32389">
        <ele>866.6</ele>
        <time>2022-12-01T12:05:33Z</time>
      </trkpt>
      <trkpt lat="46.81869" lon="6.32383">
        <ele>865.8</ele>
        <time>2022-12-01T12:05:40Z</time>
      </trkpt>
      <trkpt lat="46.81872" lon="6.32377">
        <ele>864.9</ele>
        <time>2022-12-01T12:05:47Z</time>
      </trkpt>
      <trkpt lat="46.81875" lon="6.32372">
        <ele>863.6</ele>
        <time>2022-12-01T12:05:53Z</time>
      </trkpt>
      <trkpt lat="46.81878" lon="6.32367">
        <ele>861.9</ele>
        <time>2022-12-01T12:05:59Z</time>
      </trkpt>
      <trkpt lat="46.81881" lon="6.32362">
        <ele>860</ele>
        <time>2022-12-01T12:06:05Z</time>
      </trkpt>
      <trkpt lat="46.81884" lon="6.32355">
        <ele>859.1</ele>
        <time>2022-12-01T12:06:10Z</time>
      </trkpt>
      <trkpt lat="46.81887" lon="6.32351">
        <ele>858.8</ele>
        <time>2022-12-01T12:06:15Z</time>
      </trkpt>
      <trkpt lat="46.8189" lon="6.32344">
        <ele>859</ele>
        <time>2022-12-01T12:06:20Z</time>
      </trkpt>
      <trkpt lat="46.81892" lon="6.32338">
        <ele>858.8</ele>
        <time>2022-12-01T12:06:26Z</time>
      </trkpt>
      <trkpt lat="46.81896" lon="6.32333">
        <ele>857.6</ele>
        <time>2022-12-01T12:06:32Z</time>
      </trkpt>
      <trkpt lat="46.81899" lon="6.32327">
        <ele>856.3</ele>
        <time>2022-12-01T12:06:37Z</time>
      </trkpt>
      <trkpt lat="46.819" lon="6.32321">
        <ele>855.6</ele>
        <time>2022-12-01T12:06:42Z</time>
      </trkpt>
      <trkpt lat="46.81901" lon="6.32314">
        <ele>856</ele>
        <time>2022-12-01T12:06:49Z</time>
      </trkpt>
      <trkpt lat="46.819" lon="6.32307">
        <ele>856.4</ele>
        <time>2022-12-01T12:06:55Z</time>
      </trkpt>
      <trkpt lat="46.81896" lon="6.32301">
        <ele>856</ele>
        <time>2022-12-01T12:07:03Z</time>
      </trkpt>
      <trkpt lat="46.81892" lon="6.32297">
        <ele>855.4</ele>
        <time>2022-12-01T12:07:09Z</time>
      </trkpt>
      <trkpt lat="46.81888" lon="6.32293">
        <ele>855.4</ele>
        <time>2022-12-01T12:07:15Z</time>
      </trkpt>
      <trkpt lat="46.81885" lon="6.32287">
        <ele>855.5</ele>
        <time>2022-12-01T12:07:20Z</time>
      </trkpt>
      <trkpt lat="46.81881" lon="6.32281">
        <ele>855.8</ele>
        <time>2022-12-01T12:07:26Z</time>
      </trkpt>
      <trkpt lat="46.81877" lon="6.32277">
        <ele>855.9</ele>
        <time>2022-12-01T12:07:32Z</time>
      </trkpt>
      <trkpt lat="46.81872" lon="6.32274">
        <ele>855.4</ele>
        <time>2022-12-01T12:07:38Z</time>
      </trkpt>
      <trkpt lat="46.81867" lon="6.32271">
        <ele>854.8</ele>
        <time>2022-12-01T12:07:44Z</time>
      </trkpt>
      <trkpt lat="46.81862" lon="6.32268">
        <ele>854.7</ele>
        <time>2022-12-01T12:07:49Z</time>
      </trkpt>
      <trkpt lat="46.81858" lon="6.32265">
        <ele>854.5</ele>
        <time>2022-12-01T12:07:55Z</time>
      </trkpt>
      <trkpt lat="46.81853" lon="6.32262">
        <ele>854.6</ele>
        <time>2022-12-01T12:08:01Z</time>
      </trkpt>
      <trkpt lat="46.81848" lon="6.3226">
        <ele>854.8</ele>
        <time>2022-12-01T12:08:06Z</time>
      </trkpt>
      <trkpt lat="46.81843" lon="6.32257">
        <ele>855.1</ele>
        <time>2022-12-01T12:08:11Z</time>
      </trkpt>
      <trkpt lat="46.81839" lon="6.32254">
        <ele>855.8</ele>
        <time>2022-12-01T12:08:17Z</time>
      </trkpt>
      <trkpt lat="46.81834" lon="6.32251">
        <ele>856.4</ele>
        <time>2022-12-01T12:08:23Z</time>
      </trkpt>
      <trkpt lat="46.81829" lon="6.3225">
        <ele>856.7</ele>
        <time>2022-12-01T12:08:28Z</time>
      </trkpt>
      <trkpt lat="46.81825" lon="6.32249">
        <ele>856.7</ele>
        <time>2022-12-01T12:08:34Z</time>
      </trkpt>
      <trkpt lat="46.8182" lon="6.3225">
        <ele>856.6</ele>
        <time>2022-12-01T12:08:40Z</time>
      </trkpt>
      <trkpt lat="46.81816" lon="6.32254">
        <ele>857.1</ele>
        <time>2022-12-01T12:08:45Z</time>
      </trkpt>
      <trkpt lat="46.81812" lon="6.32259">
        <ele>857.7</ele>
        <time>2022-12-01T12:08:50Z</time>
      </trkpt>
      <trkpt lat="46.81809" lon="6.32263">
        <ele>858.3</ele>
        <time>2022-12-01T12:08:54Z</time>
      </trkpt>
      <trkpt lat="46.81806" lon="6.32268">
        <ele>859.1</ele>
        <time>2022-12-01T12:08:58Z</time>
      </trkpt>
      <trkpt lat="46.81802" lon="6.32273">
        <ele>860</ele>
        <time>2022-12-01T12:09:03Z</time>
      </trkpt>
      <trkpt lat="46.81798" lon="6.32277">
        <ele>860.5</ele>
        <time>2022-12-01T12:09:08Z</time>
      </trkpt>
      <trkpt lat="46.81793" lon="6.32276">
        <ele>860.4</ele>
        <time>2022-12-01T12:09:14Z</time>
      </trkpt>
      <trkpt lat="46.81788" lon="6.32275">
        <ele>860.5</ele>
        <time>2022-12-01T12:09:19Z</time>
      </trkpt>
      <trkpt lat="46.81783" lon="6.32274">
        <ele>860.7</ele>
        <time>2022-12-01T12:09:24Z</time>
      </trkpt>
      <trkpt lat="46.81778" lon="6.32269">
        <ele>860.8</ele>
        <time>2022-12-01T12:09:30Z</time>
      </trkpt>
      <trkpt lat="46.81775" lon="6.32263">
        <ele>861.1</ele>
        <time>2022-12-01T12:09:35Z</time>
      </trkpt>
      <trkpt lat="46.81772" lon="6.32258">
        <ele>861.7</ele>
        <time>2022-12-01T12:09:40Z</time>
      </trkpt>
      <trkpt lat="46.81769" lon="6.32252">
        <ele>862.2</ele>
        <time>2022-12-01T12:09:45Z</time>
      </trkpt>
      <trkpt lat="46.81765" lon="6.32247">
        <ele>862.5</ele>
        <time>2022-12-01T12:09:50Z</time>
      </trkpt>
      <trkpt lat="46.81762" lon="6.32242">
        <ele>862.4</ele>
        <time>2022-12-01T12:09:55Z</time>
      </trkpt>
      <trkpt lat="46.81758" lon="6.32236">
        <ele>861.6</ele>
        <time>2022-12-01T12:10:00Z</time>
      </trkpt>
      <trkpt lat="46.81755" lon="6.32231">
        <ele>860.9</ele>
        <time>2022-12-01T12:10:05Z</time>
      </trkpt>
      <trkpt lat="46.81751" lon="6.32225">
        <ele>859.9</ele>
        <time>2022-12-01T12:10:11Z</time>
      </trkpt>
      <trkpt lat="46.81747" lon="6.3222">
        <ele>859.4</ele>
        <time>2022-12-01T12:10:16Z</time>
      </trkpt>
      <trkpt lat="46.81743" lon="6.32215">
        <ele>859.2</ele>
        <time>2022-12-01T12:10:21Z</time>
      </trkpt>
      <trkpt lat="46.8174" lon="6.32211">
        <ele>859.4</ele>
        <time>2022-12-01T12:10:26Z</time>
      </trkpt>
      <trkpt lat="46.81736" lon="6.32205">
        <ele>859.6</ele>
        <time>2022-12-01T12:10:31Z</time>
      </trkpt>
      <trkpt lat="46.81733" lon="6.322">
        <ele>859.6</ele>
        <time>2022-12-01T12:10:36Z</time>
      </trkpt>
      <trkpt lat="46.81729" lon="6.32195">
        <ele>859.6</ele>
        <time>2022-12-01T12:10:41Z</time>
      </trkpt>
      <trkpt lat="46.81726" lon="6.32189">
        <ele>860</ele>
        <time>2022-12-01T12:10:46Z</time>
      </trkpt>
      <trkpt lat="46.81723" lon="6.32183">
        <ele>860.6</ele>
        <time>2022-12-01T12:10:51Z</time>
      </trkpt>
      <trkpt lat="46.8172" lon="6.32176">
        <ele>861.1</ele>
        <time>2022-12-01T12:10:56Z</time>
      </trkpt>
      <trkpt lat="46.81718" lon="6.3217">
        <ele>861.2</ele>
        <time>2022-12-01T12:11:01Z</time>
      </trkpt>
      <trkpt lat="46.81716" lon="6.32164">
        <ele>861.5</ele>
        <time>2022-12-01T12:11:06Z</time>
      </trkpt>
      <trkpt lat="46.81714" lon="6.32158">
        <ele>861.8</ele>
        <time>2022-12-01T12:11:12Z</time>
      </trkpt>
      <trkpt lat="46.81715" lon="6.3215">
        <ele>862</ele>
        <time>2022-12-01T12:11:19Z</time>
      </trkpt>
      <trkpt lat="46.81714" lon="6.32144">
        <ele>861.7</ele>
        <time>2022-12-01T12:11:26Z</time>
      </trkpt>
      <trkpt lat="46.8171" lon="6.32138">
        <ele>861.2</ele>
        <time>2022-12-01T12:11:32Z</time>
      </trkpt>
      <trkpt lat="46.81707" lon="6.32133">
        <ele>860.5</ele>
        <time>2022-12-01T12:11:37Z</time>
      </trkpt>
      <trkpt lat="46.81705" lon="6.32126">
        <ele>859.5</ele>
        <time>2022-12-01T12:11:43Z</time>
      </trkpt>
      <trkpt lat="46.81703" lon="6.3212">
        <ele>858.6</ele>
        <time>2022-12-01T12:11:48Z</time>
      </trkpt>
      <trkpt lat="46.817" lon="6.32114">
        <ele>857.7</ele>
        <time>2022-12-01T12:11:53Z</time>
      </trkpt>
      <trkpt lat="46.81697" lon="6.32108">
        <ele>857</ele>
        <time>2022-12-01T12:11:58Z</time>
      </trkpt>
      <trkpt lat="46.81695" lon="6.32102">
        <ele>855.6</ele>
        <time>2022-12-01T12:12:05Z</time>
      </trkpt>
      <trkpt lat="46.81692" lon="6.32095">
        <ele>855.2</ele>
        <time>2022-12-01T12:12:10Z</time>
      </trkpt>
      <trkpt lat="46.81691" lon="6.32088">
        <ele>855</ele>
        <time>2022-12-01T12:12:15Z</time>
      </trkpt>
      <trkpt lat="46.8169" lon="6.32081">
        <ele>855.1</ele>
        <time>2022-12-01T12:12:20Z</time>
      </trkpt>
      <trkpt lat="46.8169" lon="6.32074">
        <ele>855.2</ele>
        <time>2022-12-01T12:12:26Z</time>
      </trkpt>
      <trkpt lat="46.81689" lon="6.32067">
        <ele>855.4</ele>
        <time>2022-12-01T12:12:31Z</time>
      </trkpt>
      <trkpt lat="46.81688" lon="6.32061">
        <ele>855.6</ele>
        <time>2022-12-01T12:12:37Z</time>
      </trkpt>
      <trkpt lat="46.81688" lon="6.32053">
        <ele>855.6</ele>
        <time>2022-12-01T12:12:42Z</time>
      </trkpt>
      <trkpt lat="46.81687" lon="6.32046">
        <ele>856.3</ele>
        <time>2022-12-01T12:12:46Z</time>
      </trkpt>
      <trkpt lat="46.81686" lon="6.3204">
        <ele>857.4</ele>
        <time>2022-12-01T12:12:50Z</time>
      </trkpt>
      <trkpt lat="46.81685" lon="6.32033">
        <ele>859</ele>
        <time>2022-12-01T12:12:55Z</time>
      </trkpt>
      <trkpt lat="46.81684" lon="6.32026">
        <ele>861.2</ele>
        <time>2022-12-01T12:13:02Z</time>
      </trkpt>
      <trkpt lat="46.81683" lon="6.32019">
        <ele>862</ele>
        <time>2022-12-01T12:13:06Z</time>
      </trkpt>
      <trkpt lat="46.8168" lon="6.32012">
        <ele>862.6</ele>
        <time>2022-12-01T12:13:10Z</time>
      </trkpt>
      <trkpt lat="46.81678" lon="6.32005">
        <ele>863.3</ele>
        <time>2022-12-01T12:13:15Z</time>
      </trkpt>
      <trkpt lat="46.81677" lon="6.31998">
        <ele>863.6</ele>
        <time>2022-12-01T12:13:19Z</time>
      </trkpt>
      <trkpt lat="46.81675" lon="6.31991">
        <ele>863.7</ele>
        <time>2022-12-01T12:13:23Z</time>
      </trkpt>
      <trkpt lat="46.81674" lon="6.31985">
        <ele>863.6</ele>
        <time>2022-12-01T12:13:27Z</time>
      </trkpt>
      <trkpt lat="46.81672" lon="6.31978">
        <ele>863.4</ele>
        <time>2022-12-01T12:13:33Z</time>
      </trkpt>
      <trkpt lat="46.81671" lon="6.31972">
        <ele>863.2</ele>
        <time>2022-12-01T12:13:39Z</time>
      </trkpt>
      <trkpt lat="46.81669" lon="6.31965">
        <ele>862.8</ele>
        <time>2022-12-01T12:13:44Z</time>
      </trkpt>
      <trkpt lat="46.81666" lon="6.31959">
        <ele>862.2</ele>
        <time>2022-12-01T12:13:49Z</time>
      </trkpt>
      <trkpt lat="46.81665" lon="6.31952">
        <ele>861.8</ele>
        <time>2022-12-01T12:13:54Z</time>
      </trkpt>
      <trkpt lat="46.81664" lon="6.31945">
        <ele>860.9</ele>
        <time>2022-12-01T12:14:00Z</time>
      </trkpt>
      <trkpt lat="46.81664" lon="6.31938">
        <ele>859.9</ele>
        <time>2022-12-01T12:14:07Z</time>
      </trkpt>
      <trkpt lat="46.81662" lon="6.31932">
        <ele>858.9</ele>
        <time>2022-12-01T12:14:13Z</time>
      </trkpt>
      <trkpt lat="46.81661" lon="6.31925">
        <ele>857.8</ele>
        <time>2022-12-01T12:14:17Z</time>
      </trkpt>
      <trkpt lat="46.81659" lon="6.31918">
        <ele>856.9</ele>
        <time>2022-12-01T12:14:21Z</time>
      </trkpt>
      <trkpt lat="46.81656" lon="6.31913">
        <ele>856</ele>
        <time>2022-12-01T12:14:25Z</time>
      </trkpt>
      <trkpt lat="46.81653" lon="6.31906">
        <ele>855.3</ele>
        <time>2022-12-01T12:14:30Z</time>
      </trkpt>
      <trkpt lat="46.8165" lon="6.31901">
        <ele>855.3</ele>
        <time>2022-12-01T12:14:34Z</time>
      </trkpt>
      <trkpt lat="46.81646" lon="6.31896">
        <ele>855.4</ele>
        <time>2022-12-01T12:14:38Z</time>
      </trkpt>
      <trkpt lat="46.81642" lon="6.31892">
        <ele>855.8</ele>
        <time>2022-12-01T12:14:42Z</time>
      </trkpt>
      <trkpt lat="46.81638" lon="6.31887">
        <ele>855.7</ele>
        <time>2022-12-01T12:14:47Z</time>
      </trkpt>
      <trkpt lat="46.81634" lon="6.31884">
        <ele>855.3</ele>
        <time>2022-12-01T12:14:52Z</time>
      </trkpt>
      <trkpt lat="46.8163" lon="6.31881">
        <ele>855.5</ele>
        <time>2022-12-01T12:14:56Z</time>
      </trkpt>
      <trkpt lat="46.81626" lon="6.31876">
        <ele>856.2</ele>
        <time>2022-12-01T12:15:01Z</time>
      </trkpt>
      <trkpt lat="46.81622" lon="6.31871">
        <ele>856.4</ele>
        <time>2022-12-01T12:15:06Z</time>
      </trkpt>
      <trkpt lat="46.81621" lon="6.31865">
        <ele>856.2</ele>
        <time>2022-12-01T12:15:11Z</time>
      </trkpt>
      <trkpt lat="46.81619" lon="6.31859">
        <ele>855.9</ele>
        <time>2022-12-01T12:15:16Z</time>
      </trkpt>
      <trkpt lat="46.81616" lon="6.31852">
        <ele>855.5</ele>
        <time>2022-12-01T12:15:21Z</time>
      </trkpt>
      <trkpt lat="46.81614" lon="6.31845">
        <ele>854.9</ele>
        <time>2022-12-01T12:15:26Z</time>
      </trkpt>
      <trkpt lat="46.81611" lon="6.31839">
        <ele>854.2</ele>
        <time>2022-12-01T12:15:31Z</time>
      </trkpt>
      <trkpt lat="46.81608" lon="6.31834">
        <ele>853.8</ele>
        <time>2022-12-01T12:15:35Z</time>
      </trkpt>
      <trkpt lat="46.81604" lon="6.3183">
        <ele>854.1</ele>
        <time>2022-12-01T12:15:39Z</time>
      </trkpt>
      <trkpt lat="46.81601" lon="6.31826">
        <ele>854.3</ele>
        <time>2022-12-01T12:15:43Z</time>
      </trkpt>
      <trkpt lat="46.81597" lon="6.31822">
        <ele>854.4</ele>
        <time>2022-12-01T12:15:47Z</time>
      </trkpt>
      <trkpt lat="46.81593" lon="6.31817">
        <ele>854.7</ele>
        <time>2022-12-01T12:15:51Z</time>
      </trkpt>
      <trkpt lat="46.81589" lon="6.31813">
        <ele>855.7</ele>
        <time>2022-12-01T12:15:55Z</time>
      </trkpt>
      <trkpt lat="46.81585" lon="6.31808">
        <ele>857.1</ele>
        <time>2022-12-01T12:16:00Z</time>
      </trkpt>
      <trkpt lat="46.81582" lon="6.31801">
        <ele>857.7</ele>
        <time>2022-12-01T12:16:05Z</time>
      </trkpt>
      <trkpt lat="46.81578" lon="6.31796">
        <ele>858</ele>
        <time>2022-12-01T12:16:11Z</time>
      </trkpt>
      <trkpt lat="46.81574" lon="6.31793">
        <ele>857.6</ele>
        <time>2022-12-01T12:16:15Z</time>
      </trkpt>
      <trkpt lat="46.8157" lon="6.3179">
        <ele>857.1</ele>
        <time>2022-12-01T12:16:20Z</time>
      </trkpt>
      <trkpt lat="46.81565" lon="6.31785">
        <ele>856.6</ele>
        <time>2022-12-01T12:16:25Z</time>
      </trkpt>
      <trkpt lat="46.81561" lon="6.3178">
        <ele>856.2</ele>
        <time>2022-12-01T12:16:30Z</time>
      </trkpt>
      <trkpt lat="46.81557" lon="6.31775">
        <ele>856.2</ele>
        <time>2022-12-01T12:16:34Z</time>
      </trkpt>
      <trkpt lat="46.81554" lon="6.31769">
        <ele>856.3</ele>
        <time>2022-12-01T12:16:39Z</time>
      </trkpt>
      <trkpt lat="46.81551" lon="6.31762">
        <ele>856.6</ele>
        <time>2022-12-01T12:16:44Z</time>
      </trkpt>
      <trkpt lat="46.81548" lon="6.31756">
        <ele>856.6</ele>
        <time>2022-12-01T12:16:48Z</time>
      </trkpt>
      <trkpt lat="46.81544" lon="6.31752">
        <ele>856.4</ele>
        <time>2022-12-01T12:16:53Z</time>
      </trkpt>
      <trkpt lat="46.81539" lon="6.31749">
        <ele>856.5</ele>
        <time>2022-12-01T12:16:58Z</time>
      </trkpt>
      <trkpt lat="46.81534" lon="6.31748">
        <ele>856.9</ele>
        <time>2022-12-01T12:17:05Z</time>
      </trkpt>
      <trkpt lat="46.81529" lon="6.31751">
        <ele>856.2</ele>
        <time>2022-12-01T12:17:12Z</time>
      </trkpt>
      <trkpt lat="46.81525" lon="6.31755">
        <ele>855.8</ele>
        <time>2022-12-01T12:17:17Z</time>
      </trkpt>
      <trkpt lat="46.8152" lon="6.31757">
        <ele>855.9</ele>
        <time>2022-12-01T12:17:23Z</time>
      </trkpt>
      <trkpt lat="46.81515" lon="6.3176">
        <ele>855.7</ele>
        <time>2022-12-01T12:17:28Z</time>
      </trkpt>
      <trkpt lat="46.81511" lon="6.31765">
        <ele>855.7</ele>
        <time>2022-12-01T12:17:33Z</time>
      </trkpt>
      <trkpt lat="46.81506" lon="6.3177">
        <ele>855.9</ele>
        <time>2022-12-01T12:17:38Z</time>
      </trkpt>
      <trkpt lat="46.81502" lon="6.31774">
        <ele>856.6</ele>
        <time>2022-12-01T12:17:42Z</time>
      </trkpt>
      <trkpt lat="46.81498" lon="6.31779">
        <ele>857.6</ele>
        <time>2022-12-01T12:17:46Z</time>
      </trkpt>
      <trkpt lat="46.81494" lon="6.31783">
        <ele>858.9</ele>
        <time>2022-12-01T12:17:51Z</time>
      </trkpt>
      <trkpt lat="46.81489" lon="6.31786">
        <ele>859.3</ele>
        <time>2022-12-01T12:17:57Z</time>
      </trkpt>
      <trkpt lat="46.81484" lon="6.31789">
        <ele>859</ele>
        <time>2022-12-01T12:18:02Z</time>
      </trkpt>
      <trkpt lat="46.81479" lon="6.31793">
        <ele>858.8</ele>
        <time>2022-12-01T12:18:07Z</time>
      </trkpt>
      <trkpt lat="46.81475" lon="6.31794">
        <ele>859</ele>
        <time>2022-12-01T12:18:11Z</time>
      </trkpt>
      <trkpt lat="46.81471" lon="6.31797">
        <ele>859.6</ele>
        <time>2022-12-01T12:18:14Z</time>
      </trkpt>
      <trkpt lat="46.81466" lon="6.31801">
        <ele>860.6</ele>
        <time>2022-12-01T12:18:18Z</time>
      </trkpt>
      <trkpt lat="46.81461" lon="6.31801">
        <ele>860.8</ele>
        <time>2022-12-01T12:18:22Z</time>
      </trkpt>
      <trkpt lat="46.81456" lon="6.318">
        <ele>860.9</ele>
        <time>2022-12-01T12:18:26Z</time>
      </trkpt>
      <trkpt lat="46.81452" lon="6.31798">
        <ele>861</ele>
        <time>2022-12-01T12:18:31Z</time>
      </trkpt>
      <trkpt lat="46.81447" lon="6.31794">
        <ele>860.8</ele>
        <time>2022-12-01T12:18:35Z</time>
      </trkpt>
      <trkpt lat="46.81443" lon="6.3179">
        <ele>860.6</ele>
        <time>2022-12-01T12:18:39Z</time>
      </trkpt>
      <trkpt lat="46.8144" lon="6.31785">
        <ele>860.4</ele>
        <time>2022-12-01T12:18:43Z</time>
      </trkpt>
      <trkpt lat="46.81437" lon="6.31779">
        <ele>859.9</ele>
        <time>2022-12-01T12:18:47Z</time>
      </trkpt>
      <trkpt lat="46.81433" lon="6.31776">
        <ele>859.3</ele>
        <time>2022-12-01T12:18:51Z</time>
      </trkpt>
      <trkpt lat="46.81429" lon="6.31772">
        <ele>858.7</ele>
        <time>2022-12-01T12:18:56Z</time>
      </trkpt>
      <trkpt lat="46.81425" lon="6.31768">
        <ele>858.1</ele>
        <time>2022-12-01T12:19:02Z</time>
      </trkpt>
      <trkpt lat="46.81419" lon="6.31767">
        <ele>857.6</ele>
        <time>2022-12-01T12:19:07Z</time>
      </trkpt>
      <trkpt lat="46.81415" lon="6.31766">
        <ele>857.3</ele>
        <time>2022-12-01T12:19:12Z</time>
      </trkpt>
      <trkpt lat="46.81411" lon="6.31771">
        <ele>857.7</ele>
        <time>2022-12-01T12:19:24Z</time>
      </trkpt>
      <trkpt lat="46.81407" lon="6.31766">
        <ele>859.8</ele>
        <time>2022-12-01T12:19:49Z</time>
      </trkpt>
      <trkpt lat="46.81404" lon="6.3176">
        <ele>860.9</ele>
        <time>2022-12-01T12:19:54Z</time>
      </trkpt>
      <trkpt lat="46.81401" lon="6.31754">
        <ele>861.4</ele>
        <time>2022-12-01T12:20:00Z</time>
      </trkpt>
      <trkpt lat="46.81397" lon="6.3175">
        <ele>861.5</ele>
        <time>2022-12-01T12:20:06Z</time>
      </trkpt>
      <trkpt lat="46.81394" lon="6.31744">
        <ele>861.3</ele>
        <time>2022-12-01T12:20:13Z</time>
      </trkpt>
      <trkpt lat="46.81391" lon="6.31738">
        <ele>861.8</ele>
        <time>2022-12-01T12:20:19Z</time>
      </trkpt>
      <trkpt lat="46.81388" lon="6.31734">
        <ele>862.9</ele>
        <time>2022-12-01T12:20:24Z</time>
      </trkpt>
      <trkpt lat="46.81385" lon="6.31727">
        <ele>863.9</ele>
        <time>2022-12-01T12:20:30Z</time>
      </trkpt>
      <trkpt lat="46.81383" lon="6.3172">
        <ele>864.2</ele>
        <time>2022-12-01T12:20:36Z</time>
      </trkpt>
      <trkpt lat="46.81381" lon="6.31713">
        <ele>864.3</ele>
        <time>2022-12-01T12:20:41Z</time>
      </trkpt>
      <trkpt lat="46.81377" lon="6.31709">
        <ele>864</ele>
        <time>2022-12-01T12:20:46Z</time>
      </trkpt>
      <trkpt lat="46.81374" lon="6.31704">
        <ele>863.6</ele>
        <time>2022-12-01T12:20:50Z</time>
      </trkpt>
      <trkpt lat="46.8137" lon="6.31699">
        <ele>863.2</ele>
        <time>2022-12-01T12:20:54Z</time>
      </trkpt>
      <trkpt lat="46.81368" lon="6.31693">
        <ele>861.9</ele>
        <time>2022-12-01T12:20:59Z</time>
      </trkpt>
      <trkpt lat="46.81364" lon="6.31689">
        <ele>860.9</ele>
        <time>2022-12-01T12:21:04Z</time>
      </trkpt>
      <trkpt lat="46.81361" lon="6.31684">
        <ele>860.9</ele>
        <time>2022-12-01T12:21:08Z</time>
      </trkpt>
      <trkpt lat="46.81357" lon="6.31678">
        <ele>861.6</ele>
        <time>2022-12-01T12:21:13Z</time>
      </trkpt>
      <trkpt lat="46.81354" lon="6.31673">
        <ele>861.8</ele>
        <time>2022-12-01T12:21:17Z</time>
      </trkpt>
      <trkpt lat="46.8135" lon="6.31668">
        <ele>861.6</ele>
        <time>2022-12-01T12:21:23Z</time>
      </trkpt>
      <trkpt lat="46.81346" lon="6.31665">
        <ele>861.2</ele>
        <time>2022-12-01T12:21:28Z</time>
      </trkpt>
      <trkpt lat="46.81341" lon="6.31663">
        <ele>860.5</ele>
        <time>2022-12-01T12:21:33Z</time>
      </trkpt>
      <trkpt lat="46.81337" lon="6.31658">
        <ele>860.7</ele>
        <time>2022-12-01T12:21:39Z</time>
      </trkpt>
      <trkpt lat="46.81334" lon="6.31654">
        <ele>860.5</ele>
        <time>2022-12-01T12:21:45Z</time>
      </trkpt>
      <trkpt lat="46.81328" lon="6.31651">
        <ele>860.3</ele>
        <time>2022-12-01T12:21:50Z</time>
      </trkpt>
      <trkpt lat="46.81325" lon="6.31647">
        <ele>859.9</ele>
        <time>2022-12-01T12:21:54Z</time>
      </trkpt>
      <trkpt lat="46.8132" lon="6.31644">
        <ele>859.8</ele>
        <time>2022-12-01T12:21:59Z</time>
      </trkpt>
      <trkpt lat="46.81316" lon="6.3164">
        <ele>859.8</ele>
        <time>2022-12-01T12:22:04Z</time>
      </trkpt>
      <trkpt lat="46.81312" lon="6.31635">
        <ele>859.7</ele>
        <time>2022-12-01T12:22:09Z</time>
      </trkpt>
      <trkpt lat="46.81307" lon="6.31631">
        <ele>859.3</ele>
        <time>2022-12-01T12:22:14Z</time>
      </trkpt>
      <trkpt lat="46.81303" lon="6.31627">
        <ele>859.1</ele>
        <time>2022-12-01T12:22:19Z</time>
      </trkpt>
      <trkpt lat="46.81299" lon="6.31624">
        <ele>859.4</ele>
        <time>2022-12-01T12:22:24Z</time>
      </trkpt>
      <trkpt lat="46.81296" lon="6.31618">
        <ele>859.7</ele>
        <time>2022-12-01T12:22:29Z</time>
      </trkpt>
      <trkpt lat="46.81294" lon="6.31611">
        <ele>860.1</ele>
        <time>2022-12-01T12:22:33Z</time>
      </trkpt>
      <trkpt lat="46.81293" lon="6.31604">
        <ele>860.8</ele>
        <time>2022-12-01T12:22:37Z</time>
      </trkpt>
      <trkpt lat="46.81291" lon="6.31598">
        <ele>861.5</ele>
        <time>2022-12-01T12:22:41Z</time>
      </trkpt>
      <trkpt lat="46.8129" lon="6.3159">
        <ele>862.5</ele>
        <time>2022-12-01T12:22:47Z</time>
      </trkpt>
      <trkpt lat="46.81287" lon="6.31585">
        <ele>862.6</ele>
        <time>2022-12-01T12:22:53Z</time>
      </trkpt>
      <trkpt lat="46.81284" lon="6.31579">
        <ele>862.3</ele>
        <time>2022-12-01T12:23:00Z</time>
      </trkpt>
      <trkpt lat="46.81281" lon="6.31574">
        <ele>861.9</ele>
        <time>2022-12-01T12:23:06Z</time>
      </trkpt>
      <trkpt lat="46.81281" lon="6.31567">
        <ele>861.6</ele>
        <time>2022-12-01T12:23:12Z</time>
      </trkpt>
      <trkpt lat="46.81278" lon="6.31562">
        <ele>861.2</ele>
        <time>2022-12-01T12:23:18Z</time>
      </trkpt>
      <trkpt lat="46.81274" lon="6.31557">
        <ele>861.4</ele>
        <time>2022-12-01T12:24:19Z</time>
      </trkpt>
      <trkpt lat="46.8127" lon="6.31554">
        <ele>861.7</ele>
        <time>2022-12-01T12:24:23Z</time>
      </trkpt>
      <trkpt lat="46.81265" lon="6.31551">
        <ele>861.6</ele>
        <time>2022-12-01T12:24:27Z</time>
      </trkpt>
      <trkpt lat="46.8126" lon="6.31549">
        <ele>861.6</ele>
        <time>2022-12-01T12:24:30Z</time>
      </trkpt>
      <trkpt lat="46.81255" lon="6.31546">
        <ele>861.5</ele>
        <time>2022-12-01T12:24:34Z</time>
      </trkpt>
      <trkpt lat="46.8125" lon="6.31542">
        <ele>861.7</ele>
        <time>2022-12-01T12:24:38Z</time>
      </trkpt>
      <trkpt lat="46.81245" lon="6.31539">
        <ele>861.8</ele>
        <time>2022-12-01T12:24:42Z</time>
      </trkpt>
      <trkpt lat="46.81239" lon="6.31537">
        <ele>861.5</ele>
        <time>2022-12-01T12:24:46Z</time>
      </trkpt>
      <trkpt lat="46.81234" lon="6.31535">
        <ele>861</ele>
        <time>2022-12-01T12:24:50Z</time>
      </trkpt>
      <trkpt lat="46.81229" lon="6.31533">
        <ele>859.9</ele>
        <time>2022-12-01T12:24:54Z</time>
      </trkpt>
      <trkpt lat="46.81224" lon="6.3153">
        <ele>858.5</ele>
        <time>2022-12-01T12:24:59Z</time>
      </trkpt>
      <trkpt lat="46.81221" lon="6.31525">
        <ele>857.1</ele>
        <time>2022-12-01T12:25:04Z</time>
      </trkpt>
      <trkpt lat="46.81217" lon="6.3152">
        <ele>856</ele>
        <time>2022-12-01T12:25:10Z</time>
      </trkpt>
      <trkpt lat="46.81212" lon="6.31515">
        <ele>855.6</ele>
        <time>2022-12-01T12:25:15Z</time>
      </trkpt>
      <trkpt lat="46.81209" lon="6.31511">
        <ele>855.7</ele>
        <time>2022-12-01T12:25:19Z</time>
      </trkpt>
      <trkpt lat="46.81204" lon="6.31506">
        <ele>855.8</ele>
        <time>2022-12-01T12:25:24Z</time>
      </trkpt>
      <trkpt lat="46.81201" lon="6.31502">
        <ele>855.8</ele>
        <time>2022-12-01T12:25:29Z</time>
      </trkpt>
      <trkpt lat="46.81198" lon="6.31497">
        <ele>855.9</ele>
        <time>2022-12-01T12:25:34Z</time>
      </trkpt>
      <trkpt lat="46.81195" lon="6.31491">
        <ele>856.4</ele>
        <time>2022-12-01T12:25:39Z</time>
      </trkpt>
      <trkpt lat="46.81191" lon="6.31484">
        <ele>857.2</ele>
        <time>2022-12-01T12:25:44Z</time>
      </trkpt>
      <trkpt lat="46.81187" lon="6.31479">
        <ele>857.8</ele>
        <time>2022-12-01T12:25:48Z</time>
      </trkpt>
      <trkpt lat="46.81182" lon="6.31474">
        <ele>858</ele>
        <time>2022-12-01T12:25:52Z</time>
      </trkpt>
      <trkpt lat="46.81178" lon="6.3147">
        <ele>858.1</ele>
        <time>2022-12-01T12:25:55Z</time>
      </trkpt>
      <trkpt lat="46.81175" lon="6.31465">
        <ele>857.6</ele>
        <time>2022-12-01T12:25:59Z</time>
      </trkpt>
      <trkpt lat="46.81171" lon="6.31459">
        <ele>857.5</ele>
        <time>2022-12-01T12:26:04Z</time>
      </trkpt>
      <trkpt lat="46.81166" lon="6.31456">
        <ele>858.5</ele>
        <time>2022-12-01T12:26:10Z</time>
      </trkpt>
      <trkpt lat="46.81162" lon="6.31453">
        <ele>859.6</ele>
        <time>2022-12-01T12:26:15Z</time>
      </trkpt>
      <trkpt lat="46.81157" lon="6.31449">
        <ele>861</ele>
        <time>2022-12-01T12:26:21Z</time>
      </trkpt>
      <trkpt lat="46.81153" lon="6.31445">
        <ele>861.7</ele>
        <time>2022-12-01T12:26:26Z</time>
      </trkpt>
      <trkpt lat="46.81148" lon="6.31443">
        <ele>861.1</ele>
        <time>2022-12-01T12:26:32Z</time>
      </trkpt>
      <trkpt lat="46.81144" lon="6.3144">
        <ele>859.8</ele>
        <time>2022-12-01T12:26:37Z</time>
      </trkpt>
      <trkpt lat="46.81139" lon="6.31436">
        <ele>858.8</ele>
        <time>2022-12-01T12:26:41Z</time>
      </trkpt>
      <trkpt lat="46.81134" lon="6.31433">
        <ele>857.8</ele>
        <time>2022-12-01T12:26:45Z</time>
      </trkpt>
      <trkpt lat="46.8113" lon="6.3143">
        <ele>856.8</ele>
        <time>2022-12-01T12:26:50Z</time>
      </trkpt>
      <trkpt lat="46.81126" lon="6.31425">
        <ele>855.9</ele>
        <time>2022-12-01T12:26:55Z</time>
      </trkpt>
      <trkpt lat="46.81124" lon="6.31418">
        <ele>855.1</ele>
        <time>2022-12-01T12:27:00Z</time>
      </trkpt>
      <trkpt lat="46.81122" lon="6.31412">
        <ele>854.4</ele>
        <time>2022-12-01T12:27:04Z</time>
      </trkpt>
      <trkpt lat="46.8112" lon="6.31406">
        <ele>853.9</ele>
        <time>2022-12-01T12:27:08Z</time>
      </trkpt>
      <trkpt lat="46.81117" lon="6.31401">
        <ele>853.4</ele>
        <time>2022-12-01T12:27:12Z</time>
      </trkpt>
      <trkpt lat="46.81114" lon="6.31396">
        <ele>852.7</ele>
        <time>2022-12-01T12:27:16Z</time>
      </trkpt>
      <trkpt lat="46.81111" lon="6.31389">
        <ele>852.3</ele>
        <time>2022-12-01T12:27:21Z</time>
      </trkpt>
      <trkpt lat="46.81107" lon="6.31383">
        <ele>851.8</ele>
        <time>2022-12-01T12:27:26Z</time>
      </trkpt>
      <trkpt lat="46.81105" lon="6.31377">
        <ele>851.8</ele>
        <time>2022-12-01T12:27:30Z</time>
      </trkpt>
      <trkpt lat="46.81102" lon="6.3137">
        <ele>852.2</ele>
        <time>2022-12-01T12:27:34Z</time>
      </trkpt>
      <trkpt lat="46.81099" lon="6.31365">
        <ele>852.5</ele>
        <time>2022-12-01T12:27:38Z</time>
      </trkpt>
      <trkpt lat="46.81094" lon="6.3136">
        <ele>852.6</ele>
        <time>2022-12-01T12:27:43Z</time>
      </trkpt>
      <trkpt lat="46.81091" lon="6.31354">
        <ele>852</ele>
        <time>2022-12-01T12:27:48Z</time>
      </trkpt>
      <trkpt lat="46.81088" lon="6.31348">
        <ele>851.4</ele>
        <time>2022-12-01T12:27:53Z</time>
      </trkpt>
      <trkpt lat="46.81084" lon="6.31344">
        <ele>851</ele>
        <time>2022-12-01T12:27:57Z</time>
      </trkpt>
      <trkpt lat="46.8108" lon="6.31339">
        <ele>850.8</ele>
        <time>2022-12-01T12:28:02Z</time>
      </trkpt>
      <trkpt lat="46.81077" lon="6.31333">
        <ele>851.3</ele>
        <time>2022-12-01T12:28:07Z</time>
      </trkpt>
      <trkpt lat="46.81074" lon="6.31327">
        <ele>851.9</ele>
        <time>2022-12-01T12:28:12Z</time>
      </trkpt>
      <trkpt lat="46.81071" lon="6.31322">
        <ele>852.1</ele>
        <time>2022-12-01T12:28:16Z</time>
      </trkpt>
      <trkpt lat="46.81067" lon="6.31316">
        <ele>852.5</ele>
        <time>2022-12-01T12:28:21Z</time>
      </trkpt>
      <trkpt lat="46.81062" lon="6.31312">
        <ele>853.1</ele>
        <time>2022-12-01T12:28:26Z</time>
      </trkpt>
      <trkpt lat="46.81058" lon="6.31308">
        <ele>853.8</ele>
        <time>2022-12-01T12:28:31Z</time>
      </trkpt>
      <trkpt lat="46.81054" lon="6.31303">
        <ele>854.1</ele>
        <time>2022-12-01T12:28:37Z</time>
      </trkpt>
      <trkpt lat="46.81051" lon="6.31298">
        <ele>854.2</ele>
        <time>2022-12-01T12:28:41Z</time>
      </trkpt>
      <trkpt lat="46.81048" lon="6.31294">
        <ele>854.1</ele>
        <time>2022-12-01T12:28:45Z</time>
      </trkpt>
      <trkpt lat="46.81044" lon="6.31288">
        <ele>854.3</ele>
        <time>2022-12-01T12:28:50Z</time>
      </trkpt>
      <trkpt lat="46.81041" lon="6.31282">
        <ele>854.1</ele>
        <time>2022-12-01T12:28:55Z</time>
      </trkpt>
      <trkpt lat="46.81038" lon="6.31276">
        <ele>854.2</ele>
        <time>2022-12-01T12:29:00Z</time>
      </trkpt>
      <trkpt lat="46.81034" lon="6.31271">
        <ele>854.4</ele>
        <time>2022-12-01T12:29:05Z</time>
      </trkpt>
      <trkpt lat="46.8103" lon="6.31267">
        <ele>854.6</ele>
        <time>2022-12-01T12:29:10Z</time>
      </trkpt>
      <trkpt lat="46.81026" lon="6.31264">
        <ele>855.1</ele>
        <time>2022-12-01T12:29:14Z</time>
      </trkpt>
      <trkpt lat="46.81022" lon="6.31259">
        <ele>855.1</ele>
        <time>2022-12-01T12:29:19Z</time>
      </trkpt>
      <trkpt lat="46.81018" lon="6.31254">
        <ele>854.3</ele>
        <time>2022-12-01T12:29:24Z</time>
      </trkpt>
      <trkpt lat="46.81014" lon="6.3125">
        <ele>854.1</ele>
        <time>2022-12-01T12:29:28Z</time>
      </trkpt>
      <trkpt lat="46.8101" lon="6.31246">
        <ele>853.8</ele>
        <time>2022-12-01T12:29:32Z</time>
      </trkpt>
      <trkpt lat="46.81006" lon="6.31243">
        <ele>853.8</ele>
        <time>2022-12-01T12:29:36Z</time>
      </trkpt>
      <trkpt lat="46.81002" lon="6.31239">
        <ele>854</ele>
        <time>2022-12-01T12:29:41Z</time>
      </trkpt>
      <trkpt lat="46.80997" lon="6.31236">
        <ele>854.3</ele>
        <time>2022-12-01T12:29:46Z</time>
      </trkpt>
      <trkpt lat="46.80992" lon="6.31232">
        <ele>854.1</ele>
        <time>2022-12-01T12:29:51Z</time>
      </trkpt>
      <trkpt lat="46.80988" lon="6.31229">
        <ele>854</ele>
        <time>2022-12-01T12:29:55Z</time>
      </trkpt>
      <trkpt lat="46.80984" lon="6.31226">
        <ele>853.8</ele>
        <time>2022-12-01T12:29:59Z</time>
      </trkpt>
      <trkpt lat="46.8098" lon="6.3122">
        <ele>853.3</ele>
        <time>2022-12-01T12:30:04Z</time>
      </trkpt>
      <trkpt lat="46.80977" lon="6.31215">
        <ele>853.3</ele>
        <time>2022-12-01T12:30:08Z</time>
      </trkpt>
      <trkpt lat="46.80972" lon="6.31212">
        <ele>853.3</ele>
        <time>2022-12-01T12:30:13Z</time>
      </trkpt>
      <trkpt lat="46.80968" lon="6.31208">
        <ele>853.7</ele>
        <time>2022-12-01T12:30:19Z</time>
      </trkpt>
      <trkpt lat="46.80964" lon="6.31202">
        <ele>853.4</ele>
        <time>2022-12-01T12:30:24Z</time>
      </trkpt>
      <trkpt lat="46.8096" lon="6.31198">
        <ele>853.1</ele>
        <time>2022-12-01T12:30:28Z</time>
      </trkpt>
      <trkpt lat="46.80956" lon="6.31193">
        <ele>852.8</ele>
        <time>2022-12-01T12:30:33Z</time>
      </trkpt>
      <trkpt lat="46.80953" lon="6.31188">
        <ele>852.5</ele>
        <time>2022-12-01T12:30:37Z</time>
      </trkpt>
      <trkpt lat="46.80949" lon="6.31183">
        <ele>852.5</ele>
        <time>2022-12-01T12:30:41Z</time>
      </trkpt>
      <trkpt lat="46.80946" lon="6.31178">
        <ele>852.4</ele>
        <time>2022-12-01T12:30:46Z</time>
      </trkpt>
      <trkpt lat="46.80942" lon="6.31174">
        <ele>852.1</ele>
        <time>2022-12-01T12:30:51Z</time>
      </trkpt>
      <trkpt lat="46.80937" lon="6.31169">
        <ele>851.9</ele>
        <time>2022-12-01T12:30:56Z</time>
      </trkpt>
      <trkpt lat="46.80934" lon="6.31165">
        <ele>852</ele>
        <time>2022-12-01T12:31:00Z</time>
      </trkpt>
      <trkpt lat="46.8093" lon="6.3116">
        <ele>852.2</ele>
        <time>2022-12-01T12:31:04Z</time>
      </trkpt>
      <trkpt lat="46.80926" lon="6.31156">
        <ele>852.6</ele>
        <time>2022-12-01T12:31:09Z</time>
      </trkpt>
      <trkpt lat="46.80922" lon="6.31152">
        <ele>853.1</ele>
        <time>2022-12-01T12:31:13Z</time>
      </trkpt>
      <trkpt lat="46.80917" lon="6.31149">
        <ele>853.8</ele>
        <time>2022-12-01T12:31:18Z</time>
      </trkpt>
      <trkpt lat="46.80913" lon="6.31144">
        <ele>854.1</ele>
        <time>2022-12-01T12:31:23Z</time>
      </trkpt>
      <trkpt lat="46.8091" lon="6.31138">
        <ele>854.2</ele>
        <time>2022-12-01T12:31:27Z</time>
      </trkpt>
      <trkpt lat="46.80907" lon="6.31132">
        <ele>853.8</ele>
        <time>2022-12-01T12:31:32Z</time>
      </trkpt>
      <trkpt lat="46.80903" lon="6.31127">
        <ele>853</ele>
        <time>2022-12-01T12:31:37Z</time>
      </trkpt>
      <trkpt lat="46.80899" lon="6.31122">
        <ele>851.2</ele>
        <time>2022-12-01T12:31:43Z</time>
      </trkpt>
      <trkpt lat="46.80897" lon="6.31116">
        <ele>850.5</ele>
        <time>2022-12-01T12:31:47Z</time>
      </trkpt>
      <trkpt lat="46.80893" lon="6.31112">
        <ele>850.3</ele>
        <time>2022-12-01T12:31:51Z</time>
      </trkpt>
      <trkpt lat="46.8089" lon="6.31106">
        <ele>850.4</ele>
        <time>2022-12-01T12:31:56Z</time>
      </trkpt>
      <trkpt lat="46.80887" lon="6.31101">
        <ele>850.5</ele>
        <time>2022-12-01T12:32:00Z</time>
      </trkpt>
      <trkpt lat="46.80885" lon="6.31095">
        <ele>850.9</ele>
        <time>2022-12-01T12:32:04Z</time>
      </trkpt>
      <trkpt lat="46.80881" lon="6.31091">
        <ele>851.7</ele>
        <time>2022-12-01T12:32:08Z</time>
      </trkpt>
      <trkpt lat="46.80876" lon="6.31088">
        <ele>852.4</ele>
        <time>2022-12-01T12:32:13Z</time>
      </trkpt>
      <trkpt lat="46.80872" lon="6.31085">
        <ele>852.9</ele>
        <time>2022-12-01T12:32:19Z</time>
      </trkpt>
      <trkpt lat="46.80867" lon="6.31084">
        <ele>853.2</ele>
        <time>2022-12-01T12:32:24Z</time>
      </trkpt>
      <trkpt lat="46.80862" lon="6.31087">
        <ele>853.4</ele>
        <time>2022-12-01T12:32:28Z</time>
      </trkpt>
      <trkpt lat="46.80857" lon="6.31088">
        <ele>853.7</ele>
        <time>2022-12-01T12:32:34Z</time>
      </trkpt>
      <trkpt lat="46.80853" lon="6.31086">
        <ele>853.6</ele>
        <time>2022-12-01T12:32:38Z</time>
      </trkpt>
      <trkpt lat="46.80848" lon="6.31083">
        <ele>853.7</ele>
        <time>2022-12-01T12:32:42Z</time>
      </trkpt>
      <trkpt lat="46.80845" lon="6.31079">
        <ele>853.8</ele>
        <time>2022-12-01T12:32:46Z</time>
      </trkpt>
      <trkpt lat="46.80842" lon="6.31073">
        <ele>853.5</ele>
        <time>2022-12-01T12:32:51Z</time>
      </trkpt>
      <trkpt lat="46.80838" lon="6.31068">
        <ele>852.8</ele>
        <time>2022-12-01T12:32:56Z</time>
      </trkpt>
      <trkpt lat="46.80835" lon="6.31063">
        <ele>852.3</ele>
        <time>2022-12-01T12:33:01Z</time>
      </trkpt>
      <trkpt lat="46.80831" lon="6.31059">
        <ele>851.7</ele>
        <time>2022-12-01T12:33:06Z</time>
      </trkpt>
      <trkpt lat="46.80828" lon="6.31053">
        <ele>851.6</ele>
        <time>2022-12-01T12:33:10Z</time>
      </trkpt>
      <trkpt lat="46.80825" lon="6.31047">
        <ele>851.9</ele>
        <time>2022-12-01T12:33:15Z</time>
      </trkpt>
      <trkpt lat="46.80822" lon="6.3104">
        <ele>852.2</ele>
        <time>2022-12-01T12:33:20Z</time>
      </trkpt>
      <trkpt lat="46.80818" lon="6.31034">
        <ele>852.6</ele>
        <time>2022-12-01T12:33:24Z</time>
      </trkpt>
      <trkpt lat="46.80815" lon="6.31029">
        <ele>853.2</ele>
        <time>2022-12-01T12:33:29Z</time>
      </trkpt>
      <trkpt lat="46.80811" lon="6.31025">
        <ele>853.6</ele>
        <time>2022-12-01T12:33:34Z</time>
      </trkpt>
      <trkpt lat="46.80807" lon="6.31021">
        <ele>854.2</ele>
        <time>2022-12-01T12:33:39Z</time>
      </trkpt>
      <trkpt lat="46.80804" lon="6.31015">
        <ele>854.8</ele>
        <time>2022-12-01T12:33:44Z</time>
      </trkpt>
      <trkpt lat="46.80801" lon="6.31008">
        <ele>856.2</ele>
        <time>2022-12-01T12:33:49Z</time>
      </trkpt>
      <trkpt lat="46.80798" lon="6.31003">
        <ele>857.5</ele>
        <time>2022-12-01T12:33:54Z</time>
      </trkpt>
      <trkpt lat="46.80794" lon="6.30998">
        <ele>858.3</ele>
        <time>2022-12-01T12:33:59Z</time>
      </trkpt>
      <trkpt lat="46.8079" lon="6.30993">
        <ele>858.8</ele>
        <time>2022-12-01T12:34:04Z</time>
      </trkpt>
      <trkpt lat="46.80787" lon="6.30987">
        <ele>859.4</ele>
        <time>2022-12-01T12:34:09Z</time>
      </trkpt>
      <trkpt lat="46.80783" lon="6.30981">
        <ele>859.7</ele>
        <time>2022-12-01T12:34:14Z</time>
      </trkpt>
      <trkpt lat="46.80781" lon="6.30974">
        <ele>859.9</ele>
        <time>2022-12-01T12:34:19Z</time>
      </trkpt>
      <trkpt lat="46.8078" lon="6.30967">
        <ele>860.1</ele>
        <time>2022-12-01T12:34:24Z</time>
      </trkpt>
      <trkpt lat="46.80781" lon="6.3096">
        <ele>859.7</ele>
        <time>2022-12-01T12:34:31Z</time>
      </trkpt>
      <trkpt lat="46.80778" lon="6.30955">
        <ele>858.7</ele>
        <time>2022-12-01T12:34:40Z</time>
      </trkpt>
      <trkpt lat="46.80773" lon="6.30959">
        <ele>857.7</ele>
        <time>2022-12-01T12:34:46Z</time>
      </trkpt>
      <trkpt lat="46.80768" lon="6.30957">
        <ele>856</ele>
        <time>2022-12-01T12:34:52Z</time>
      </trkpt>
      <trkpt lat="46.80763" lon="6.30953">
        <ele>854.9</ele>
        <time>2022-12-01T12:34:57Z</time>
      </trkpt>
      <trkpt lat="46.8076" lon="6.30949">
        <ele>854.7</ele>
        <time>2022-12-01T12:35:02Z</time>
      </trkpt>
      <trkpt lat="46.80757" lon="6.30943">
        <ele>854.7</ele>
        <time>2022-12-01T12:35:07Z</time>
      </trkpt>
      <trkpt lat="46.80754" lon="6.30937">
        <ele>854.4</ele>
        <time>2022-12-01T12:35:12Z</time>
      </trkpt>
      <trkpt lat="46.8075" lon="6.30932">
        <ele>854.4</ele>
        <time>2022-12-01T12:35:16Z</time>
      </trkpt>
      <trkpt lat="46.80747" lon="6.30927">
        <ele>854.7</ele>
        <time>2022-12-01T12:35:21Z</time>
      </trkpt>
      <trkpt lat="46.80742" lon="6.30922">
        <ele>854.7</ele>
        <time>2022-12-01T12:35:26Z</time>
      </trkpt>
      <trkpt lat="46.80739" lon="6.30917">
        <ele>854.7</ele>
        <time>2022-12-01T12:35:30Z</time>
      </trkpt>
      <trkpt lat="46.80735" lon="6.30911">
        <ele>855</ele>
        <time>2022-12-01T12:35:35Z</time>
      </trkpt>
      <trkpt lat="46.80732" lon="6.30905">
        <ele>855.1</ele>
        <time>2022-12-01T12:35:39Z</time>
      </trkpt>
      <trkpt lat="46.80729" lon="6.30899">
        <ele>855.4</ele>
        <time>2022-12-01T12:35:44Z</time>
      </trkpt>
      <trkpt lat="46.80726" lon="6.30893">
        <ele>855.5</ele>
        <time>2022-12-01T12:35:49Z</time>
      </trkpt>
      <trkpt lat="46.80722" lon="6.30888">
        <ele>855.5</ele>
        <time>2022-12-01T12:35:55Z</time>
      </trkpt>
      <trkpt lat="46.80719" lon="6.30884">
        <ele>855.7</ele>
        <time>2022-12-01T12:35:59Z</time>
      </trkpt>
      <trkpt lat="46.80715" lon="6.30879">
        <ele>855.9</ele>
        <time>2022-12-01T12:36:04Z</time>
      </trkpt>
      <trkpt lat="46.80712" lon="6.30874">
        <ele>856.1</ele>
        <time>2022-12-01T12:36:09Z</time>
      </trkpt>
      <trkpt lat="46.80708" lon="6.30868">
        <ele>856.6</ele>
        <time>2022-12-01T12:36:15Z</time>
      </trkpt>
      <trkpt lat="46.80704" lon="6.30865">
        <ele>857.4</ele>
        <time>2022-12-01T12:36:20Z</time>
      </trkpt>
      <trkpt lat="46.807" lon="6.3086">
        <ele>859</ele>
        <time>2022-12-01T12:36:28Z</time>
      </trkpt>
      <trkpt lat="46.80697" lon="6.30854">
        <ele>860.3</ele>
        <time>2022-12-01T12:36:33Z</time>
      </trkpt>
      <trkpt lat="46.80693" lon="6.30848">
        <ele>861.7</ele>
        <time>2022-12-01T12:36:38Z</time>
      </trkpt>
      <trkpt lat="46.80691" lon="6.30842">
        <ele>862.5</ele>
        <time>2022-12-01T12:36:42Z</time>
      </trkpt>
      <trkpt lat="46.80687" lon="6.30838">
        <ele>862.5</ele>
        <time>2022-12-01T12:36:48Z</time>
      </trkpt>
      <trkpt lat="46.80682" lon="6.30842">
        <ele>860.8</ele>
        <time>2022-12-01T12:36:56Z</time>
      </trkpt>
      <trkpt lat="46.80678" lon="6.30846">
        <ele>860.2</ele>
        <time>2022-12-01T12:37:01Z</time>
      </trkpt>
      <trkpt lat="46.80674" lon="6.3085">
        <ele>860</ele>
        <time>2022-12-01T12:37:07Z</time>
      </trkpt>
      <trkpt lat="46.8067" lon="6.30855">
        <ele>860.6</ele>
        <time>2022-12-01T12:37:12Z</time>
      </trkpt>
      <trkpt lat="46.80665" lon="6.3086">
        <ele>861.2</ele>
        <time>2022-12-01T12:37:16Z</time>
      </trkpt>
      <trkpt lat="46.80661" lon="6.30864">
        <ele>862.5</ele>
        <time>2022-12-01T12:37:20Z</time>
      </trkpt>
      <trkpt lat="46.80657" lon="6.30868">
        <ele>864.4</ele>
        <time>2022-12-01T12:37:26Z</time>
      </trkpt>
      <trkpt lat="46.80653" lon="6.30872">
        <ele>867.1</ele>
        <time>2022-12-01T12:37:34Z</time>
      </trkpt>
      <trkpt lat="46.80649" lon="6.30875">
        <ele>868.7</ele>
        <time>2022-12-01T12:37:40Z</time>
      </trkpt>
      <trkpt lat="46.80644" lon="6.30875">
        <ele>869.9</ele>
        <time>2022-12-01T12:37:47Z</time>
      </trkpt>
      <trkpt lat="46.80639" lon="6.30871">
        <ele>870.5</ele>
        <time>2022-12-01T12:37:54Z</time>
      </trkpt>
      <trkpt lat="46.80635" lon="6.30869">
        <ele>870.9</ele>
        <time>2022-12-01T12:37:59Z</time>
      </trkpt>
      <trkpt lat="46.8063" lon="6.30867">
        <ele>871.2</ele>
        <time>2022-12-01T12:38:04Z</time>
      </trkpt>
      <trkpt lat="46.80626" lon="6.30865">
        <ele>871.2</ele>
        <time>2022-12-01T12:38:08Z</time>
      </trkpt>
      <trkpt lat="46.80621" lon="6.30863">
        <ele>871.5</ele>
        <time>2022-12-01T12:38:15Z</time>
      </trkpt>
      <trkpt lat="46.80616" lon="6.30863">
        <ele>871.3</ele>
        <time>2022-12-01T12:38:20Z</time>
      </trkpt>
      <trkpt lat="46.80612" lon="6.30861">
        <ele>871.2</ele>
        <time>2022-12-01T12:38:25Z</time>
      </trkpt>
      <trkpt lat="46.80607" lon="6.3086">
        <ele>871.5</ele>
        <time>2022-12-01T12:38:30Z</time>
      </trkpt>
      <trkpt lat="46.80601" lon="6.30859">
        <ele>871.5</ele>
        <time>2022-12-01T12:38:35Z</time>
      </trkpt>
      <trkpt lat="46.80596" lon="6.30859">
        <ele>871.4</ele>
        <time>2022-12-01T12:38:39Z</time>
      </trkpt>
      <trkpt lat="46.80591" lon="6.30859">
        <ele>870.9</ele>
        <time>2022-12-01T12:38:43Z</time>
      </trkpt>
      <trkpt lat="46.80587" lon="6.30859">
        <ele>870.2</ele>
        <time>2022-12-01T12:38:47Z</time>
      </trkpt>
      <trkpt lat="46.80582" lon="6.30858">
        <ele>869.7</ele>
        <time>2022-12-01T12:38:51Z</time>
      </trkpt>
      <trkpt lat="46.80577" lon="6.30856">
        <ele>869.3</ele>
        <time>2022-12-01T12:38:55Z</time>
      </trkpt>
      <trkpt lat="46.80573" lon="6.30854">
        <ele>869.2</ele>
        <time>2022-12-01T12:39:00Z</time>
      </trkpt>
      <trkpt lat="46.80568" lon="6.30853">
        <ele>868.8</ele>
        <time>2022-12-01T12:39:04Z</time>
      </trkpt>
      <trkpt lat="46.80563" lon="6.30852">
        <ele>868.5</ele>
        <time>2022-12-01T12:39:08Z</time>
      </trkpt>
      <trkpt lat="46.80558" lon="6.30851">
        <ele>868.7</ele>
        <time>2022-12-01T12:39:13Z</time>
      </trkpt>
      <trkpt lat="46.80553" lon="6.30849">
        <ele>869</ele>
        <time>2022-12-01T12:39:18Z</time>
      </trkpt>
      <trkpt lat="46.80549" lon="6.30846">
        <ele>869.1</ele>
        <time>2022-12-01T12:39:24Z</time>
      </trkpt>
      <trkpt lat="46.80544" lon="6.30845">
        <ele>869.2</ele>
        <time>2022-12-01T12:39:30Z</time>
      </trkpt>
      <trkpt lat="46.80539" lon="6.30843">
        <ele>869.4</ele>
        <time>2022-12-01T12:39:36Z</time>
      </trkpt>
      <trkpt lat="46.80534" lon="6.30841">
        <ele>869.8</ele>
        <time>2022-12-01T12:39:42Z</time>
      </trkpt>
      <trkpt lat="46.80529" lon="6.3084">
        <ele>869.9</ele>
        <time>2022-12-01T12:39:48Z</time>
      </trkpt>
      <trkpt lat="46.80524" lon="6.30839">
        <ele>869.5</ele>
        <time>2022-12-01T12:39:53Z</time>
      </trkpt>
      <trkpt lat="46.80519" lon="6.30836">
        <ele>868.4</ele>
        <time>2022-12-01T12:39:59Z</time>
      </trkpt>
      <trkpt lat="46.80514" lon="6.30837">
        <ele>867.5</ele>
        <time>2022-12-01T12:40:04Z</time>
      </trkpt>
      <trkpt lat="46.8051" lon="6.30838">
        <ele>867.3</ele>
        <time>2022-12-01T12:40:08Z</time>
      </trkpt>
      <trkpt lat="46.80504" lon="6.30838">
        <ele>867.8</ele>
        <time>2022-12-01T12:40:13Z</time>
      </trkpt>
      <trkpt lat="46.80499" lon="6.30835">
        <ele>869.1</ele>
        <time>2022-12-01T12:40:19Z</time>
      </trkpt>
      <trkpt lat="46.80495" lon="6.30834">
        <ele>870.3</ele>
        <time>2022-12-01T12:40:24Z</time>
      </trkpt>
      <trkpt lat="46.8049" lon="6.30833">
        <ele>870.9</ele>
        <time>2022-12-01T12:40:29Z</time>
      </trkpt>
      <trkpt lat="46.80484" lon="6.30833">
        <ele>871.3</ele>
        <time>2022-12-01T12:40:34Z</time>
      </trkpt>
      <trkpt lat="46.8048" lon="6.30832">
        <ele>871.1</ele>
        <time>2022-12-01T12:40:39Z</time>
      </trkpt>
      <trkpt lat="46.80475" lon="6.30832">
        <ele>871.3</ele>
        <time>2022-12-01T12:40:43Z</time>
      </trkpt>
      <trkpt lat="46.8047" lon="6.30833">
        <ele>871.5</ele>
        <time>2022-12-01T12:40:49Z</time>
      </trkpt>
      <trkpt lat="46.80466" lon="6.30835">
        <ele>871.1</ele>
        <time>2022-12-01T12:40:54Z</time>
      </trkpt>
      <trkpt lat="46.8046" lon="6.30835">
        <ele>871.5</ele>
        <time>2022-12-01T12:40:59Z</time>
      </trkpt>
      <trkpt lat="46.80456" lon="6.30833">
        <ele>872.8</ele>
        <time>2022-12-01T12:41:04Z</time>
      </trkpt>
      <trkpt lat="46.80452" lon="6.30828">
        <ele>874.5</ele>
        <time>2022-12-01T12:41:10Z</time>
      </trkpt>
      <trkpt lat="46.80448" lon="6.30823">
        <ele>875.5</ele>
        <time>2022-12-01T12:41:15Z</time>
      </trkpt>
      <trkpt lat="46.80445" lon="6.30818">
        <ele>875.4</ele>
        <time>2022-12-01T12:41:20Z</time>
      </trkpt>
      <trkpt lat="46.80442" lon="6.30812">
        <ele>875.4</ele>
        <time>2022-12-01T12:41:24Z</time>
      </trkpt>
      <trkpt lat="46.8044" lon="6.30805">
        <ele>876.2</ele>
        <time>2022-12-01T12:41:28Z</time>
      </trkpt>
      <trkpt lat="46.80437" lon="6.30798">
        <ele>878.1</ele>
        <time>2022-12-01T12:41:33Z</time>
      </trkpt>
      <trkpt lat="46.80434" lon="6.30794">
        <ele>879.8</ele>
        <time>2022-12-01T12:41:38Z</time>
      </trkpt>
      <trkpt lat="46.8043" lon="6.30788">
        <ele>881.4</ele>
        <time>2022-12-01T12:41:43Z</time>
      </trkpt>
      <trkpt lat="46.80426" lon="6.30784">
        <ele>882.5</ele>
        <time>2022-12-01T12:41:48Z</time>
      </trkpt>
      <trkpt lat="46.80423" lon="6.30779">
        <ele>882.4</ele>
        <time>2022-12-01T12:41:54Z</time>
      </trkpt>
      <trkpt lat="46.80418" lon="6.30775">
        <ele>881.9</ele>
        <time>2022-12-01T12:42:00Z</time>
      </trkpt>
      <trkpt lat="46.80415" lon="6.3077">
        <ele>881.6</ele>
        <time>2022-12-01T12:42:05Z</time>
      </trkpt>
      <trkpt lat="46.8041" lon="6.30766">
        <ele>881.6</ele>
        <time>2022-12-01T12:42:10Z</time>
      </trkpt>
      <trkpt lat="46.80406" lon="6.30762">
        <ele>881.6</ele>
        <time>2022-12-01T12:42:15Z</time>
      </trkpt>
      <trkpt lat="46.80402" lon="6.30756">
        <ele>881.4</ele>
        <time>2022-12-01T12:42:20Z</time>
      </trkpt>
      <trkpt lat="46.80398" lon="6.30751">
        <ele>881.1</ele>
        <time>2022-12-01T12:42:25Z</time>
      </trkpt>
      <trkpt lat="46.80395" lon="6.30746">
        <ele>880.6</ele>
        <time>2022-12-01T12:42:29Z</time>
      </trkpt>
      <trkpt lat="46.80392" lon="6.3074">
        <ele>879.9</ele>
        <time>2022-12-01T12:42:34Z</time>
      </trkpt>
      <trkpt lat="46.80389" lon="6.30735">
        <ele>879.6</ele>
        <time>2022-12-01T12:42:39Z</time>
      </trkpt>
      <trkpt lat="46.80386" lon="6.30729">
        <ele>879.6</ele>
        <time>2022-12-01T12:42:44Z</time>
      </trkpt>
      <trkpt lat="46.80382" lon="6.30724">
        <ele>879.2</ele>
        <time>2022-12-01T12:42:49Z</time>
      </trkpt>
      <trkpt lat="46.80378" lon="6.30718">
        <ele>879</ele>
        <time>2022-12-01T12:42:54Z</time>
      </trkpt>
      <trkpt lat="46.80375" lon="6.30714">
        <ele>879</ele>
        <time>2022-12-01T12:42:58Z</time>
      </trkpt>
      <trkpt lat="46.8037" lon="6.30709">
        <ele>879</ele>
        <time>2022-12-01T12:43:03Z</time>
      </trkpt>
      <trkpt lat="46.80367" lon="6.30704">
        <ele>878.8</ele>
        <time>2022-12-01T12:43:08Z</time>
      </trkpt>
      <trkpt lat="46.80363" lon="6.307">
        <ele>878.6</ele>
        <time>2022-12-01T12:43:13Z</time>
      </trkpt>
      <trkpt lat="46.8036" lon="6.30695">
        <ele>878.5</ele>
        <time>2022-12-01T12:43:18Z</time>
      </trkpt>
      <trkpt lat="46.80356" lon="6.3069">
        <ele>878.7</ele>
        <time>2022-12-01T12:43:23Z</time>
      </trkpt>
      <trkpt lat="46.80353" lon="6.30685">
        <ele>878.8</ele>
        <time>2022-12-01T12:43:29Z</time>
      </trkpt>
      <trkpt lat="46.80353" lon="6.30677">
        <ele>878.8</ele>
        <time>2022-12-01T12:43:34Z</time>
      </trkpt>
      <trkpt lat="46.80354" lon="6.3067">
        <ele>878.5</ele>
        <time>2022-12-01T12:43:39Z</time>
      </trkpt>
      <trkpt lat="46.80353" lon="6.30662">
        <ele>878.3</ele>
        <time>2022-12-01T12:43:44Z</time>
      </trkpt>
      <trkpt lat="46.80353" lon="6.30656">
        <ele>878</ele>
        <time>2022-12-01T12:43:48Z</time>
      </trkpt>
      <trkpt lat="46.80353" lon="6.30648">
        <ele>877.5</ele>
        <time>2022-12-01T12:43:52Z</time>
      </trkpt>
      <trkpt lat="46.80352" lon="6.30641">
        <ele>877</ele>
        <time>2022-12-01T12:43:57Z</time>
      </trkpt>
      <trkpt lat="46.80352" lon="6.30634">
        <ele>876.8</ele>
        <time>2022-12-01T12:44:02Z</time>
      </trkpt>
      <trkpt lat="46.80351" lon="6.30627">
        <ele>876.1</ele>
        <time>2022-12-01T12:44:07Z</time>
      </trkpt>
      <trkpt lat="46.8035" lon="6.3062">
        <ele>875.8</ele>
        <time>2022-12-01T12:44:12Z</time>
      </trkpt>
      <trkpt lat="46.8035" lon="6.30612">
        <ele>875.5</ele>
        <time>2022-12-01T12:44:18Z</time>
      </trkpt>
      <trkpt lat="46.80349" lon="6.30606">
        <ele>874.4</ele>
        <time>2022-12-01T12:44:25Z</time>
      </trkpt>
      <trkpt lat="46.80345" lon="6.306">
        <ele>874.7</ele>
        <time>2022-12-01T12:44:29Z</time>
      </trkpt>
      <trkpt lat="46.80342" lon="6.30595">
        <ele>875.2</ele>
        <time>2022-12-01T12:44:34Z</time>
      </trkpt>
      <trkpt lat="46.8034" lon="6.30588">
        <ele>875.5</ele>
        <time>2022-12-01T12:44:39Z</time>
      </trkpt>
      <trkpt lat="46.80337" lon="6.30582">
        <ele>875.2</ele>
        <time>2022-12-01T12:44:44Z</time>
      </trkpt>
      <trkpt lat="46.80333" lon="6.30578">
        <ele>874</ele>
        <time>2022-12-01T12:44:50Z</time>
      </trkpt>
      <trkpt lat="46.80328" lon="6.30576">
        <ele>873</ele>
        <time>2022-12-01T12:44:55Z</time>
      </trkpt>
      <trkpt lat="46.80323" lon="6.30574">
        <ele>872.1</ele>
        <time>2022-12-01T12:45:00Z</time>
      </trkpt>
      <trkpt lat="46.80319" lon="6.30572">
        <ele>871</ele>
        <time>2022-12-01T12:45:05Z</time>
      </trkpt>
      <trkpt lat="46.80314" lon="6.3057">
        <ele>870.2</ele>
        <time>2022-12-01T12:45:10Z</time>
      </trkpt>
      <trkpt lat="46.80309" lon="6.30568">
        <ele>870</ele>
        <time>2022-12-01T12:45:15Z</time>
      </trkpt>
      <trkpt lat="46.80304" lon="6.30565">
        <ele>870.2</ele>
        <time>2022-12-01T12:45:20Z</time>
      </trkpt>
      <trkpt lat="46.803" lon="6.30561">
        <ele>870.6</ele>
        <time>2022-12-01T12:45:25Z</time>
      </trkpt>
      <trkpt lat="46.80295" lon="6.30558">
        <ele>871.3</ele>
        <time>2022-12-01T12:45:31Z</time>
      </trkpt>
      <trkpt lat="46.80291" lon="6.30555">
        <ele>871.3</ele>
        <time>2022-12-01T12:45:35Z</time>
      </trkpt>
      <trkpt lat="46.80286" lon="6.30554">
        <ele>871.3</ele>
        <time>2022-12-01T12:45:40Z</time>
      </trkpt>
      <trkpt lat="46.80282" lon="6.30556">
        <ele>870.9</ele>
        <time>2022-12-01T12:45:44Z</time>
      </trkpt>
      <trkpt lat="46.80277" lon="6.30556">
        <ele>869.6</ele>
        <time>2022-12-01T12:45:49Z</time>
      </trkpt>
      <trkpt lat="46.80272" lon="6.30555">
        <ele>868</ele>
        <time>2022-12-01T12:45:54Z</time>
      </trkpt>
      <trkpt lat="46.80267" lon="6.30553">
        <ele>865.2</ele>
        <time>2022-12-01T12:46:02Z</time>
      </trkpt>
      <trkpt lat="46.80264" lon="6.30549">
        <ele>864.5</ele>
        <time>2022-12-01T12:46:08Z</time>
      </trkpt>
      <trkpt lat="46.80261" lon="6.30542">
        <ele>864.9</ele>
        <time>2022-12-01T12:46:13Z</time>
      </trkpt>
      <trkpt lat="46.80257" lon="6.30538">
        <ele>866.5</ele>
        <time>2022-12-01T12:46:20Z</time>
      </trkpt>
      <trkpt lat="46.80253" lon="6.30533">
        <ele>866.7</ele>
        <time>2022-12-01T12:46:27Z</time>
      </trkpt>
      <trkpt lat="46.8025" lon="6.30528">
        <ele>866.2</ele>
        <time>2022-12-01T12:46:37Z</time>
      </trkpt>
      <trkpt lat="46.80246" lon="6.30524">
        <ele>866.3</ele>
        <time>2022-12-01T12:46:42Z</time>
      </trkpt>
      <trkpt lat="46.80241" lon="6.30522">
        <ele>866.3</ele>
        <time>2022-12-01T12:46:46Z</time>
      </trkpt>
      <trkpt lat="46.80237" lon="6.30519">
        <ele>866.1</ele>
        <time>2022-12-01T12:46:50Z</time>
      </trkpt>
      <trkpt lat="46.80232" lon="6.30515">
        <ele>866.6</ele>
        <time>2022-12-01T12:46:55Z</time>
      </trkpt>
      <trkpt lat="46.80228" lon="6.30512">
        <ele>866.9</ele>
        <time>2022-12-01T12:47:01Z</time>
      </trkpt>
      <trkpt lat="46.80223" lon="6.30509">
        <ele>867</ele>
        <time>2022-12-01T12:47:07Z</time>
      </trkpt>
      <trkpt lat="46.80221" lon="6.30502">
        <ele>866.4</ele>
        <time>2022-12-01T12:47:12Z</time>
      </trkpt>
      <trkpt lat="46.80217" lon="6.30497">
        <ele>863.3</ele>
        <time>2022-12-01T12:47:20Z</time>
      </trkpt>
      <trkpt lat="46.8022" lon="6.30491">
        <ele>861.5</ele>
        <time>2022-12-01T12:47:26Z</time>
      </trkpt>
      <trkpt lat="46.80224" lon="6.30485">
        <ele>860.2</ele>
        <time>2022-12-01T12:47:32Z</time>
      </trkpt>
      <trkpt lat="46.80227" lon="6.30481">
        <ele>859.3</ele>
        <time>2022-12-01T12:47:37Z</time>
      </trkpt>
      <trkpt lat="46.80231" lon="6.30476">
        <ele>858.1</ele>
        <time>2022-12-01T12:47:43Z</time>
      </trkpt>
      <trkpt lat="46.80232" lon="6.30469">
        <ele>853.4</ele>
        <time>2022-12-01T12:48:50Z</time>
      </trkpt>
      <trkpt lat="46.80227" lon="6.30467">
        <ele>853.2</ele>
        <time>2022-12-01T12:48:57Z</time>
      </trkpt>
      <trkpt lat="46.80222" lon="6.30466">
        <ele>853.7</ele>
        <time>2022-12-01T12:49:02Z</time>
      </trkpt>
      <trkpt lat="46.80217" lon="6.30465">
        <ele>853.8</ele>
        <time>2022-12-01T12:49:08Z</time>
      </trkpt>
      <trkpt lat="46.80212" lon="6.30465">
        <ele>853.9</ele>
        <time>2022-12-01T12:49:12Z</time>
      </trkpt>
      <trkpt lat="46.80207" lon="6.30464">
        <ele>854.4</ele>
        <time>2022-12-01T12:49:18Z</time>
      </trkpt>
      <trkpt lat="46.80202" lon="6.30461">
        <ele>854.7</ele>
        <time>2022-12-01T12:49:23Z</time>
      </trkpt>
      <trkpt lat="46.80198" lon="6.30457">
        <ele>854.8</ele>
        <time>2022-12-01T12:49:28Z</time>
      </trkpt>
      <trkpt lat="46.80194" lon="6.30454">
        <ele>854.9</ele>
        <time>2022-12-01T12:49:33Z</time>
      </trkpt>
      <trkpt lat="46.80189" lon="6.3045">
        <ele>854.8</ele>
        <time>2022-12-01T12:49:38Z</time>
      </trkpt>
      <trkpt lat="46.80184" lon="6.30447">
        <ele>854.7</ele>
        <time>2022-12-01T12:49:42Z</time>
      </trkpt>
      <trkpt lat="46.8018" lon="6.30443">
        <ele>854.1</ele>
        <time>2022-12-01T12:49:47Z</time>
      </trkpt>
      <trkpt lat="46.80176" lon="6.30439">
        <ele>853.5</ele>
        <time>2022-12-01T12:49:52Z</time>
      </trkpt>
      <trkpt lat="46.80171" lon="6.30436">
        <ele>853</ele>
        <time>2022-12-01T12:49:57Z</time>
      </trkpt>
      <trkpt lat="46.80166" lon="6.30435">
        <ele>853.1</ele>
        <time>2022-12-01T12:50:03Z</time>
      </trkpt>
      <trkpt lat="46.80161" lon="6.30434">
        <ele>853.3</ele>
        <time>2022-12-01T12:50:08Z</time>
      </trkpt>
      <trkpt lat="46.80156" lon="6.30433">
        <ele>853.8</ele>
        <time>2022-12-01T12:50:13Z</time>
      </trkpt>
      <trkpt lat="46.80152" lon="6.30433">
        <ele>855.1</ele>
        <time>2022-12-01T12:50:19Z</time>
      </trkpt>
      <trkpt lat="46.80147" lon="6.30433">
        <ele>855.9</ele>
        <time>2022-12-01T12:50:24Z</time>
      </trkpt>
      <trkpt lat="46.80145" lon="6.30427">
        <ele>856.6</ele>
        <time>2022-12-01T12:50:30Z</time>
      </trkpt>
      <trkpt lat="46.80141" lon="6.30422">
        <ele>856.8</ele>
        <time>2022-12-01T12:50:36Z</time>
      </trkpt>
      <trkpt lat="46.80136" lon="6.30418">
        <ele>857.2</ele>
        <time>2022-12-01T12:50:41Z</time>
      </trkpt>
      <trkpt lat="46.80132" lon="6.30418">
        <ele>858.1</ele>
        <time>2022-12-01T12:50:46Z</time>
      </trkpt>
      <trkpt lat="46.80127" lon="6.30418">
        <ele>859</ele>
        <time>2022-12-01T12:50:52Z</time>
      </trkpt>
      <trkpt lat="46.80122" lon="6.30415">
        <ele>859.3</ele>
        <time>2022-12-01T12:50:58Z</time>
      </trkpt>
      <trkpt lat="46.80117" lon="6.30415">
        <ele>859.6</ele>
        <time>2022-12-01T12:51:03Z</time>
      </trkpt>
      <trkpt lat="46.80113" lon="6.30414">
        <ele>859.4</ele>
        <time>2022-12-01T12:51:08Z</time>
      </trkpt>
      <trkpt lat="46.8011" lon="6.30409">
        <ele>859.5</ele>
        <time>2022-12-01T12:52:17Z</time>
      </trkpt>
      <trkpt lat="46.80107" lon="6.30403">
        <ele>859.7</ele>
        <time>2022-12-01T12:52:22Z</time>
      </trkpt>
      <trkpt lat="46.80102" lon="6.304">
        <ele>859.4</ele>
        <time>2022-12-01T12:52:26Z</time>
      </trkpt>
      <trkpt lat="46.80097" lon="6.30398">
        <ele>859.2</ele>
        <time>2022-12-01T12:52:31Z</time>
      </trkpt>
      <trkpt lat="46.80093" lon="6.30394">
        <ele>858.2</ele>
        <time>2022-12-01T12:52:39Z</time>
      </trkpt>
      <trkpt lat="46.80088" lon="6.30392">
        <ele>857</ele>
        <time>2022-12-01T12:52:45Z</time>
      </trkpt>
      <trkpt lat="46.80084" lon="6.30388">
        <ele>855.7</ele>
        <time>2022-12-01T12:52:51Z</time>
      </trkpt>
      <trkpt lat="46.8008" lon="6.30382">
        <ele>854.7</ele>
        <time>2022-12-01T12:52:57Z</time>
      </trkpt>
      <trkpt lat="46.80077" lon="6.30377">
        <ele>854.8</ele>
        <time>2022-12-01T12:53:05Z</time>
      </trkpt>
      <trkpt lat="46.80074" lon="6.30371">
        <ele>856.8</ele>
        <time>2022-12-01T12:53:24Z</time>
      </trkpt>
      <trkpt lat="46.8007" lon="6.30366">
        <ele>856.7</ele>
        <time>2022-12-01T12:53:32Z</time>
      </trkpt>
      <trkpt lat="46.80065" lon="6.30362">
        <ele>856.9</ele>
        <time>2022-12-01T12:53:37Z</time>
      </trkpt>
      <trkpt lat="46.80061" lon="6.30359">
        <ele>857.2</ele>
        <time>2022-12-01T12:53:42Z</time>
      </trkpt>
      <trkpt lat="46.80058" lon="6.30355">
        <ele>856.4</ele>
        <time>2022-12-01T12:53:48Z</time>
      </trkpt>
      <trkpt lat="46.80053" lon="6.30352">
        <ele>855.8</ele>
        <time>2022-12-01T12:53:52Z</time>
      </trkpt>
      <trkpt lat="46.80049" lon="6.30349">
        <ele>854.9</ele>
        <time>2022-12-01T12:53:57Z</time>
      </trkpt>
      <trkpt lat="46.80046" lon="6.30344">
        <ele>854.6</ele>
        <time>2022-12-01T12:54:01Z</time>
      </trkpt>
      <trkpt lat="46.80042" lon="6.30339">
        <ele>854.9</ele>
        <time>2022-12-01T12:54:06Z</time>
      </trkpt>
      <trkpt lat="46.80038" lon="6.30335">
        <ele>855.2</ele>
        <time>2022-12-01T12:54:10Z</time>
      </trkpt>
      <trkpt lat="46.80035" lon="6.3033">
        <ele>855.2</ele>
        <time>2022-12-01T12:54:15Z</time>
      </trkpt>
      <trkpt lat="46.80031" lon="6.30325">
        <ele>854.6</ele>
        <time>2022-12-01T12:54:21Z</time>
      </trkpt>
      <trkpt lat="46.80027" lon="6.3032">
        <ele>853.8</ele>
        <time>2022-12-01T12:54:26Z</time>
      </trkpt>
      <trkpt lat="46.80023" lon="6.30315">
        <ele>852.8</ele>
        <time>2022-12-01T12:54:31Z</time>
      </trkpt>
      <trkpt lat="46.8002" lon="6.30309">
        <ele>851.6</ele>
        <time>2022-12-01T12:54:37Z</time>
      </trkpt>
      <trkpt lat="46.80017" lon="6.30305">
        <ele>850.8</ele>
        <time>2022-12-01T12:54:42Z</time>
      </trkpt>
      <trkpt lat="46.80013" lon="6.30299">
        <ele>849.3</ele>
        <time>2022-12-01T12:54:48Z</time>
      </trkpt>
      <trkpt lat="46.8001" lon="6.30295">
        <ele>847.9</ele>
        <time>2022-12-01T12:54:53Z</time>
      </trkpt>
      <trkpt lat="46.80007" lon="6.30289">
        <ele>847</ele>
        <time>2022-12-01T12:54:58Z</time>
      </trkpt>
      <trkpt lat="46.80004" lon="6.30284">
        <ele>846.7</ele>
        <time>2022-12-01T12:55:02Z</time>
      </trkpt>
      <trkpt lat="46.8" lon="6.30278">
        <ele>846.4</ele>
        <time>2022-12-01T12:55:07Z</time>
      </trkpt>
      <trkpt lat="46.79997" lon="6.30273">
        <ele>846.3</ele>
        <time>2022-12-01T12:55:12Z</time>
      </trkpt>
      <trkpt lat="46.79994" lon="6.30266">
        <ele>846.5</ele>
        <time>2022-12-01T12:55:17Z</time>
      </trkpt>
      <trkpt lat="46.79991" lon="6.30261">
        <ele>847.2</ele>
        <time>2022-12-01T12:55:21Z</time>
      </trkpt>
      <trkpt lat="46.79988" lon="6.30255">
        <ele>847.8</ele>
        <time>2022-12-01T12:55:25Z</time>
      </trkpt>
      <trkpt lat="46.79985" lon="6.3025">
        <ele>848.4</ele>
        <time>2022-12-01T12:55:29Z</time>
      </trkpt>
      <trkpt lat="46.79981" lon="6.30245">
        <ele>848.9</ele>
        <time>2022-12-01T12:55:33Z</time>
      </trkpt>
      <trkpt lat="46.79977" lon="6.30242">
        <ele>849</ele>
        <time>2022-12-01T12:55:37Z</time>
      </trkpt>
      <trkpt lat="46.79973" lon="6.30237">
        <ele>849.1</ele>
        <time>2022-12-01T12:55:42Z</time>
      </trkpt>
      <trkpt lat="46.7997" lon="6.30232">
        <ele>849.3</ele>
        <time>2022-12-01T12:55:47Z</time>
      </trkpt>
      <trkpt lat="46.79966" lon="6.30226">
        <ele>850</ele>
        <time>2022-12-01T12:55:52Z</time>
      </trkpt>
      <trkpt lat="46.79962" lon="6.30221">
        <ele>850.8</ele>
        <time>2022-12-01T12:55:57Z</time>
      </trkpt>
      <trkpt lat="46.79957" lon="6.30217">
        <ele>851.4</ele>
        <time>2022-12-01T12:56:02Z</time>
      </trkpt>
      <trkpt lat="46.79953" lon="6.30214">
        <ele>851.5</ele>
        <time>2022-12-01T12:56:06Z</time>
      </trkpt>
      <trkpt lat="46.7995" lon="6.3021">
        <ele>851.4</ele>
        <time>2022-12-01T12:56:10Z</time>
      </trkpt>
      <trkpt lat="46.79947" lon="6.30204">
        <ele>851.8</ele>
        <time>2022-12-01T12:56:14Z</time>
      </trkpt>
      <trkpt lat="46.79943" lon="6.30199">
        <ele>852.7</ele>
        <time>2022-12-01T12:56:19Z</time>
      </trkpt>
      <trkpt lat="46.79938" lon="6.30195">
        <ele>853.1</ele>
        <time>2022-12-01T12:56:23Z</time>
      </trkpt>
      <trkpt lat="46.79934" lon="6.30192">
        <ele>853.3</ele>
        <time>2022-12-01T12:56:27Z</time>
      </trkpt>
      <trkpt lat="46.79929" lon="6.30188">
        <ele>853.2</ele>
        <time>2022-12-01T12:56:32Z</time>
      </trkpt>
      <trkpt lat="46.79925" lon="6.30185">
        <ele>853.4</ele>
        <time>2022-12-01T12:56:36Z</time>
      </trkpt>
      <trkpt lat="46.7992" lon="6.30182">
        <ele>853.9</ele>
        <time>2022-12-01T12:56:40Z</time>
      </trkpt>
      <trkpt lat="46.79916" lon="6.30177">
        <ele>854.7</ele>
        <time>2022-12-01T12:56:44Z</time>
      </trkpt>
      <trkpt lat="46.79912" lon="6.30174">
        <ele>855</ele>
        <time>2022-12-01T12:56:48Z</time>
      </trkpt>
      <trkpt lat="46.79908" lon="6.3017">
        <ele>855.4</ele>
        <time>2022-12-01T12:56:52Z</time>
      </trkpt>
      <trkpt lat="46.79904" lon="6.30166">
        <ele>855.5</ele>
        <time>2022-12-01T12:56:56Z</time>
      </trkpt>
      <trkpt lat="46.799" lon="6.30163">
        <ele>855.7</ele>
        <time>2022-12-01T12:57:00Z</time>
      </trkpt>
      <trkpt lat="46.79896" lon="6.30158">
        <ele>855.7</ele>
        <time>2022-12-01T12:57:05Z</time>
      </trkpt>
      <trkpt lat="46.79891" lon="6.30153">
        <ele>856</ele>
        <time>2022-12-01T12:57:10Z</time>
      </trkpt>
      <trkpt lat="46.79887" lon="6.30148">
        <ele>856.6</ele>
        <time>2022-12-01T12:57:14Z</time>
      </trkpt>
      <trkpt lat="46.79883" lon="6.30144">
        <ele>856.9</ele>
        <time>2022-12-01T12:57:18Z</time>
      </trkpt>
      <trkpt lat="46.79879" lon="6.3014">
        <ele>856.9</ele>
        <time>2022-12-01T12:57:22Z</time>
      </trkpt>
      <trkpt lat="46.79875" lon="6.30135">
        <ele>856.6</ele>
        <time>2022-12-01T12:57:27Z</time>
      </trkpt>
      <trkpt lat="46.7987" lon="6.30132">
        <ele>856.5</ele>
        <time>2022-12-01T12:57:32Z</time>
      </trkpt>
      <trkpt lat="46.79865" lon="6.30128">
        <ele>857.1</ele>
        <time>2022-12-01T12:57:37Z</time>
      </trkpt>
      <trkpt lat="46.79862" lon="6.30124">
        <ele>857.1</ele>
        <time>2022-12-01T12:57:42Z</time>
      </trkpt>
      <trkpt lat="46.79858" lon="6.30118">
        <ele>856.1</ele>
        <time>2022-12-01T12:57:47Z</time>
      </trkpt>
      <trkpt lat="46.79854" lon="6.30114">
        <ele>855.4</ele>
        <time>2022-12-01T12:57:52Z</time>
      </trkpt>
      <trkpt lat="46.7985" lon="6.3011">
        <ele>854.9</ele>
        <time>2022-12-01T12:57:57Z</time>
      </trkpt>
      <trkpt lat="46.79846" lon="6.30106">
        <ele>854.5</ele>
        <time>2022-12-01T12:58:02Z</time>
      </trkpt>
      <trkpt lat="46.79842" lon="6.30102">
        <ele>854.2</ele>
        <time>2022-12-01T12:58:06Z</time>
      </trkpt>
      <trkpt lat="46.79838" lon="6.30098">
        <ele>854.1</ele>
        <time>2022-12-01T12:58:10Z</time>
      </trkpt>
      <trkpt lat="46.79834" lon="6.30094">
        <ele>854.2</ele>
        <time>2022-12-01T12:58:14Z</time>
      </trkpt>
      <trkpt lat="46.79831" lon="6.30089">
        <ele>854</ele>
        <time>2022-12-01T12:58:18Z</time>
      </trkpt>
      <trkpt lat="46.79828" lon="6.30083">
        <ele>853.8</ele>
        <time>2022-12-01T12:58:23Z</time>
      </trkpt>
      <trkpt lat="46.79824" lon="6.30079">
        <ele>854</ele>
        <time>2022-12-01T12:58:29Z</time>
      </trkpt>
      <trkpt lat="46.7982" lon="6.30073">
        <ele>853.9</ele>
        <time>2022-12-01T12:58:34Z</time>
      </trkpt>
      <trkpt lat="46.79816" lon="6.30069">
        <ele>853.9</ele>
        <time>2022-12-01T12:58:38Z</time>
      </trkpt>
      <trkpt lat="46.79813" lon="6.30064">
        <ele>853.7</ele>
        <time>2022-12-01T12:58:42Z</time>
      </trkpt>
      <trkpt lat="46.7981" lon="6.30059">
        <ele>853.8</ele>
        <time>2022-12-01T12:58:46Z</time>
      </trkpt>
      <trkpt lat="46.79806" lon="6.30054">
        <ele>853.5</ele>
        <time>2022-12-01T12:58:52Z</time>
      </trkpt>
      <trkpt lat="46.79802" lon="6.3005">
        <ele>853.2</ele>
        <time>2022-12-01T12:58:56Z</time>
      </trkpt>
      <trkpt lat="46.79798" lon="6.30045">
        <ele>852.5</ele>
        <time>2022-12-01T12:59:01Z</time>
      </trkpt>
      <trkpt lat="46.79794" lon="6.3004">
        <ele>851.4</ele>
        <time>2022-12-01T12:59:07Z</time>
      </trkpt>
      <trkpt lat="46.7979" lon="6.30036">
        <ele>850.6</ele>
        <time>2022-12-01T12:59:12Z</time>
      </trkpt>
      <trkpt lat="46.79787" lon="6.30031">
        <ele>850.3</ele>
        <time>2022-12-01T12:59:17Z</time>
      </trkpt>
      <trkpt lat="46.79783" lon="6.30025">
        <ele>850</ele>
        <time>2022-12-01T12:59:22Z</time>
      </trkpt>
      <trkpt lat="46.7978" lon="6.30019">
        <ele>849.9</ele>
        <time>2022-12-01T12:59:26Z</time>
      </trkpt>
      <trkpt lat="46.79776" lon="6.30014">
        <ele>849.8</ele>
        <time>2022-12-01T12:59:30Z</time>
      </trkpt>
      <trkpt lat="46.79773" lon="6.30008">
        <ele>850</ele>
        <time>2022-12-01T12:59:36Z</time>
      </trkpt>
      <trkpt lat="46.79769" lon="6.30004">
        <ele>850.2</ele>
        <time>2022-12-01T12:59:41Z</time>
      </trkpt>
      <trkpt lat="46.79765" lon="6.30001">
        <ele>849.6</ele>
        <time>2022-12-01T12:59:47Z</time>
      </trkpt>
      <trkpt lat="46.7976" lon="6.29997">
        <ele>849.1</ele>
        <time>2022-12-01T12:59:51Z</time>
      </trkpt>
      <trkpt lat="46.79757" lon="6.29991">
        <ele>849</ele>
        <time>2022-12-01T12:59:56Z</time>
      </trkpt>
      <trkpt lat="46.79753" lon="6.29986">
        <ele>848.9</ele>
        <time>2022-12-01T13:00:01Z</time>
      </trkpt>
      <trkpt lat="46.79748" lon="6.29982">
        <ele>848.8</ele>
        <time>2022-12-01T13:00:06Z</time>
      </trkpt>
      <trkpt lat="46.79744" lon="6.29976">
        <ele>848.6</ele>
        <time>2022-12-01T13:00:11Z</time>
      </trkpt>
      <trkpt lat="46.79742" lon="6.2997">
        <ele>849</ele>
        <time>2022-12-01T13:00:16Z</time>
      </trkpt>
      <trkpt lat="46.79739" lon="6.29964">
        <ele>849.8</ele>
        <time>2022-12-01T13:00:21Z</time>
      </trkpt>
      <trkpt lat="46.79736" lon="6.29958">
        <ele>850.4</ele>
        <time>2022-12-01T13:00:26Z</time>
      </trkpt>
      <trkpt lat="46.79732" lon="6.29952">
        <ele>850.3</ele>
        <time>2022-12-01T13:00:32Z</time>
      </trkpt>
      <trkpt lat="46.79728" lon="6.29947">
        <ele>850</ele>
        <time>2022-12-01T13:00:36Z</time>
      </trkpt>
      <trkpt lat="46.79724" lon="6.29942">
        <ele>849.8</ele>
        <time>2022-12-01T13:00:40Z</time>
      </trkpt>
      <trkpt lat="46.79721" lon="6.29936">
        <ele>849.8</ele>
        <time>2022-12-01T13:00:44Z</time>
      </trkpt>
      <trkpt lat="46.79717" lon="6.2993">
        <ele>850.1</ele>
        <time>2022-12-01T13:00:48Z</time>
      </trkpt>
      <trkpt lat="46.79714" lon="6.29923">
        <ele>850.3</ele>
        <time>2022-12-01T13:00:53Z</time>
      </trkpt>
      <trkpt lat="46.7971" lon="6.29918">
        <ele>850.2</ele>
        <time>2022-12-01T13:00:58Z</time>
      </trkpt>
      <trkpt lat="46.79707" lon="6.29913">
        <ele>850.3</ele>
        <time>2022-12-01T13:01:03Z</time>
      </trkpt>
      <trkpt lat="46.79703" lon="6.29907">
        <ele>850.9</ele>
        <time>2022-12-01T13:01:08Z</time>
      </trkpt>
      <trkpt lat="46.79701" lon="6.29901">
        <ele>851.3</ele>
        <time>2022-12-01T13:01:12Z</time>
      </trkpt>
      <trkpt lat="46.79698" lon="6.29895">
        <ele>851.2</ele>
        <time>2022-12-01T13:01:17Z</time>
      </trkpt>
      <trkpt lat="46.79695" lon="6.2989">
        <ele>851.2</ele>
        <time>2022-12-01T13:01:21Z</time>
      </trkpt>
      <trkpt lat="46.79692" lon="6.29885">
        <ele>851.1</ele>
        <time>2022-12-01T13:01:25Z</time>
      </trkpt>
      <trkpt lat="46.7969" lon="6.29879">
        <ele>851.3</ele>
        <time>2022-12-01T13:01:29Z</time>
      </trkpt>
      <trkpt lat="46.79686" lon="6.29873">
        <ele>851.4</ele>
        <time>2022-12-01T13:01:35Z</time>
      </trkpt>
      <trkpt lat="46.79683" lon="6.29867">
        <ele>851.4</ele>
        <time>2022-12-01T13:01:40Z</time>
      </trkpt>
      <trkpt lat="46.79679" lon="6.29861">
        <ele>851.8</ele>
        <time>2022-12-01T13:01:45Z</time>
      </trkpt>
      <trkpt lat="46.79677" lon="6.29855">
        <ele>852</ele>
        <time>2022-12-01T13:01:49Z</time>
      </trkpt>
      <trkpt lat="46.79675" lon="6.29848">
        <ele>852</ele>
        <time>2022-12-01T13:01:54Z</time>
      </trkpt>
      <trkpt lat="46.79672" lon="6.29841">
        <ele>851.8</ele>
        <time>2022-12-01T13:01:59Z</time>
      </trkpt>
      <trkpt lat="46.79668" lon="6.29836">
        <ele>852.2</ele>
        <time>2022-12-01T13:02:04Z</time>
      </trkpt>
      <trkpt lat="46.79665" lon="6.2983">
        <ele>852.7</ele>
        <time>2022-12-01T13:02:09Z</time>
      </trkpt>
      <trkpt lat="46.79662" lon="6.29824">
        <ele>853</ele>
        <time>2022-12-01T13:02:14Z</time>
      </trkpt>
      <trkpt lat="46.79658" lon="6.29819">
        <ele>853.2</ele>
        <time>2022-12-01T13:02:19Z</time>
      </trkpt>
      <trkpt lat="46.79654" lon="6.29815">
        <ele>853.6</ele>
        <time>2022-12-01T13:02:24Z</time>
      </trkpt>
      <trkpt lat="46.7965" lon="6.2981">
        <ele>853.8</ele>
        <time>2022-12-01T13:02:29Z</time>
      </trkpt>
      <trkpt lat="46.79646" lon="6.29805">
        <ele>853.3</ele>
        <time>2022-12-01T13:02:34Z</time>
      </trkpt>
      <trkpt lat="46.79642" lon="6.29801">
        <ele>853.1</ele>
        <time>2022-12-01T13:02:38Z</time>
      </trkpt>
      <trkpt lat="46.79639" lon="6.29795">
        <ele>853.1</ele>
        <time>2022-12-01T13:02:42Z</time>
      </trkpt>
      <trkpt lat="46.79637" lon="6.29789">
        <ele>853.8</ele>
        <time>2022-12-01T13:02:46Z</time>
      </trkpt>
      <trkpt lat="46.79635" lon="6.29783">
        <ele>854.7</ele>
        <time>2022-12-01T13:02:50Z</time>
      </trkpt>
      <trkpt lat="46.79632" lon="6.29777">
        <ele>855.5</ele>
        <time>2022-12-01T13:02:54Z</time>
      </trkpt>
      <trkpt lat="46.79629" lon="6.29771">
        <ele>855.9</ele>
        <time>2022-12-01T13:02:59Z</time>
      </trkpt>
      <trkpt lat="46.79627" lon="6.29764">
        <ele>856.2</ele>
        <time>2022-12-01T13:03:04Z</time>
      </trkpt>
      <trkpt lat="46.79625" lon="6.29758">
        <ele>856.4</ele>
        <time>2022-12-01T13:03:09Z</time>
      </trkpt>
      <trkpt lat="46.79622" lon="6.29752">
        <ele>856.7</ele>
        <time>2022-12-01T13:03:13Z</time>
      </trkpt>
      <trkpt lat="46.7962" lon="6.29746">
        <ele>856.8</ele>
        <time>2022-12-01T13:03:18Z</time>
      </trkpt>
      <trkpt lat="46.79617" lon="6.2974">
        <ele>856.6</ele>
        <time>2022-12-01T13:03:24Z</time>
      </trkpt>
      <trkpt lat="46.79617" lon="6.29732">
        <ele>856.4</ele>
        <time>2022-12-01T13:03:30Z</time>
      </trkpt>
      <trkpt lat="46.79613" lon="6.29727">
        <ele>855.9</ele>
        <time>2022-12-01T13:03:37Z</time>
      </trkpt>
      <trkpt lat="46.79611" lon="6.29721">
        <ele>855.4</ele>
        <time>2022-12-01T13:03:44Z</time>
      </trkpt>
      <trkpt lat="46.79608" lon="6.29715">
        <ele>855</ele>
        <time>2022-12-01T13:03:50Z</time>
      </trkpt>
      <trkpt lat="46.79605" lon="6.2971">
        <ele>854.8</ele>
        <time>2022-12-01T13:03:55Z</time>
      </trkpt>
      <trkpt lat="46.79602" lon="6.29705">
        <ele>854.3</ele>
        <time>2022-12-01T13:04:00Z</time>
      </trkpt>
      <trkpt lat="46.79601" lon="6.29698">
        <ele>854.3</ele>
        <time>2022-12-01T13:04:05Z</time>
      </trkpt>
      <trkpt lat="46.796" lon="6.2969">
        <ele>854.6</ele>
        <time>2022-12-01T13:04:10Z</time>
      </trkpt>
      <trkpt lat="46.79599" lon="6.29683">
        <ele>855</ele>
        <time>2022-12-01T13:04:15Z</time>
      </trkpt>
      <trkpt lat="46.79597" lon="6.29677">
        <ele>855</ele>
        <time>2022-12-01T13:04:21Z</time>
      </trkpt>
      <trkpt lat="46.79594" lon="6.29671">
        <ele>855.2</ele>
        <time>2022-12-01T13:04:26Z</time>
      </trkpt>
      <trkpt lat="46.79592" lon="6.29666">
        <ele>855.6</ele>
        <time>2022-12-01T13:04:31Z</time>
      </trkpt>
      <trkpt lat="46.79589" lon="6.2966">
        <ele>855.6</ele>
        <time>2022-12-01T13:04:36Z</time>
      </trkpt>
      <trkpt lat="46.79586" lon="6.29653">
        <ele>855.2</ele>
        <time>2022-12-01T13:04:42Z</time>
      </trkpt>
      <trkpt lat="46.79584" lon="6.29647">
        <ele>854.9</ele>
        <time>2022-12-01T13:04:46Z</time>
      </trkpt>
      <trkpt lat="46.79581" lon="6.2964">
        <ele>854.4</ele>
        <time>2022-12-01T13:04:50Z</time>
      </trkpt>
      <trkpt lat="46.79578" lon="6.29634">
        <ele>854.2</ele>
        <time>2022-12-01T13:04:54Z</time>
      </trkpt>
      <trkpt lat="46.79575" lon="6.29629">
        <ele>854.1</ele>
        <time>2022-12-01T13:04:58Z</time>
      </trkpt>
      <trkpt lat="46.79572" lon="6.29623">
        <ele>853.4</ele>
        <time>2022-12-01T13:05:03Z</time>
      </trkpt>
      <trkpt lat="46.79568" lon="6.2962">
        <ele>852.4</ele>
        <time>2022-12-01T13:05:09Z</time>
      </trkpt>
      <trkpt lat="46.79563" lon="6.29619">
        <ele>852.1</ele>
        <time>2022-12-01T13:05:13Z</time>
      </trkpt>
      <trkpt lat="46.79558" lon="6.29618">
        <ele>852</ele>
        <time>2022-12-01T13:05:17Z</time>
      </trkpt>
      <trkpt lat="46.79553" lon="6.29617">
        <ele>852.2</ele>
        <time>2022-12-01T13:05:21Z</time>
      </trkpt>
      <trkpt lat="46.79548" lon="6.29615">
        <ele>852.6</ele>
        <time>2022-12-01T13:05:25Z</time>
      </trkpt>
      <trkpt lat="46.79544" lon="6.29612">
        <ele>853.5</ele>
        <time>2022-12-01T13:05:29Z</time>
      </trkpt>
      <trkpt lat="46.79539" lon="6.2961">
        <ele>854.7</ele>
        <time>2022-12-01T13:05:36Z</time>
      </trkpt>
      <trkpt lat="46.79534" lon="6.29609">
        <ele>854.5</ele>
        <time>2022-12-01T13:05:43Z</time>
      </trkpt>
      <trkpt lat="46.79529" lon="6.29608">
        <ele>853.6</ele>
        <time>2022-12-01T13:05:48Z</time>
      </trkpt>
      <trkpt lat="46.79524" lon="6.29606">
        <ele>853.3</ele>
        <time>2022-12-01T13:05:52Z</time>
      </trkpt>
      <trkpt lat="46.79519" lon="6.29604">
        <ele>853.4</ele>
        <time>2022-12-01T13:05:57Z</time>
      </trkpt>
      <trkpt lat="46.79513" lon="6.29603">
        <ele>853.5</ele>
        <time>2022-12-01T13:06:02Z</time>
      </trkpt>
      <trkpt lat="46.79508" lon="6.29602">
        <ele>853</ele>
        <time>2022-12-01T13:06:07Z</time>
      </trkpt>
      <trkpt lat="46.79503" lon="6.296">
        <ele>853.1</ele>
        <time>2022-12-01T13:06:11Z</time>
      </trkpt>
      <trkpt lat="46.79498" lon="6.296">
        <ele>853.3</ele>
        <time>2022-12-01T13:06:14Z</time>
      </trkpt>
      <trkpt lat="46.79493" lon="6.296">
        <ele>854.2</ele>
        <time>2022-12-01T13:06:18Z</time>
      </trkpt>
      <trkpt lat="46.79488" lon="6.29598">
        <ele>855.5</ele>
        <time>2022-12-01T13:06:24Z</time>
      </trkpt>
      <trkpt lat="46.79483" lon="6.29598">
        <ele>855.7</ele>
        <time>2022-12-01T13:06:29Z</time>
      </trkpt>
      <trkpt lat="46.79478" lon="6.29597">
        <ele>855.5</ele>
        <time>2022-12-01T13:06:34Z</time>
      </trkpt>
      <trkpt lat="46.79473" lon="6.29595">
        <ele>854.9</ele>
        <time>2022-12-01T13:06:40Z</time>
      </trkpt>
      <trkpt lat="46.79467" lon="6.29594">
        <ele>854.6</ele>
        <time>2022-12-01T13:06:45Z</time>
      </trkpt>
      <trkpt lat="46.79463" lon="6.29592">
        <ele>854.2</ele>
        <time>2022-12-01T13:06:49Z</time>
      </trkpt>
      <trkpt lat="46.79458" lon="6.29591">
        <ele>854.1</ele>
        <time>2022-12-01T13:06:53Z</time>
      </trkpt>
      <trkpt lat="46.79453" lon="6.29589">
        <ele>853.7</ele>
        <time>2022-12-01T13:06:58Z</time>
      </trkpt>
      <trkpt lat="46.79448" lon="6.29587">
        <ele>853.4</ele>
        <time>2022-12-01T13:07:03Z</time>
      </trkpt>
      <trkpt lat="46.79444" lon="6.29586">
        <ele>853.1</ele>
        <time>2022-12-01T13:07:07Z</time>
      </trkpt>
      <trkpt lat="46.79439" lon="6.29585">
        <ele>853.3</ele>
        <time>2022-12-01T13:07:11Z</time>
      </trkpt>
      <trkpt lat="46.79434" lon="6.29583">
        <ele>854</ele>
        <time>2022-12-01T13:07:15Z</time>
      </trkpt>
      <trkpt lat="46.7943" lon="6.29579">
        <ele>854.9</ele>
        <time>2022-12-01T13:07:19Z</time>
      </trkpt>
      <trkpt lat="46.79426" lon="6.29576">
        <ele>855.8</ele>
        <time>2022-12-01T13:07:23Z</time>
      </trkpt>
      <trkpt lat="46.79421" lon="6.29572">
        <ele>856.9</ele>
        <time>2022-12-01T13:07:28Z</time>
      </trkpt>
      <trkpt lat="46.79416" lon="6.29568">
        <ele>857.6</ele>
        <time>2022-12-01T13:07:33Z</time>
      </trkpt>
      <trkpt lat="46.79413" lon="6.29563">
        <ele>857.6</ele>
        <time>2022-12-01T13:07:38Z</time>
      </trkpt>
      <trkpt lat="46.7941" lon="6.29557">
        <ele>857</ele>
        <time>2022-12-01T13:07:43Z</time>
      </trkpt>
      <trkpt lat="46.79407" lon="6.29551">
        <ele>856</ele>
        <time>2022-12-01T13:07:48Z</time>
      </trkpt>
      <trkpt lat="46.79404" lon="6.29546">
        <ele>855.3</ele>
        <time>2022-12-01T13:07:53Z</time>
      </trkpt>
      <trkpt lat="46.79401" lon="6.29539">
        <ele>854.4</ele>
        <time>2022-12-01T13:07:59Z</time>
      </trkpt>
      <trkpt lat="46.79398" lon="6.29533">
        <ele>854</ele>
        <time>2022-12-01T13:08:04Z</time>
      </trkpt>
      <trkpt lat="46.79395" lon="6.29526">
        <ele>853.8</ele>
        <time>2022-12-01T13:08:09Z</time>
      </trkpt>
      <trkpt lat="46.79392" lon="6.29521">
        <ele>853.9</ele>
        <time>2022-12-01T13:08:13Z</time>
      </trkpt>
      <trkpt lat="46.79388" lon="6.29517">
        <ele>854.1</ele>
        <time>2022-12-01T13:08:17Z</time>
      </trkpt>
      <trkpt lat="46.79383" lon="6.29514">
        <ele>854.2</ele>
        <time>2022-12-01T13:08:21Z</time>
      </trkpt>
      <trkpt lat="46.79379" lon="6.29511">
        <ele>854.3</ele>
        <time>2022-12-01T13:08:25Z</time>
      </trkpt>
      <trkpt lat="46.79374" lon="6.29509">
        <ele>853.8</ele>
        <time>2022-12-01T13:08:30Z</time>
      </trkpt>
      <trkpt lat="46.7937" lon="6.29504">
        <ele>853.3</ele>
        <time>2022-12-01T13:08:35Z</time>
      </trkpt>
      <trkpt lat="46.79366" lon="6.295">
        <ele>852.9</ele>
        <time>2022-12-01T13:08:40Z</time>
      </trkpt>
      <trkpt lat="46.79362" lon="6.29496">
        <ele>852.7</ele>
        <time>2022-12-01T13:08:45Z</time>
      </trkpt>
      <trkpt lat="46.79358" lon="6.29492">
        <ele>852.6</ele>
        <time>2022-12-01T13:08:50Z</time>
      </trkpt>
      <trkpt lat="46.79353" lon="6.29488">
        <ele>852.4</ele>
        <time>2022-12-01T13:08:55Z</time>
      </trkpt>
      <trkpt lat="46.79349" lon="6.29486">
        <ele>852.5</ele>
        <time>2022-12-01T13:09:01Z</time>
      </trkpt>
      <trkpt lat="46.79344" lon="6.29487">
        <ele>852.9</ele>
        <time>2022-12-01T13:09:07Z</time>
      </trkpt>
      <trkpt lat="46.79339" lon="6.2949">
        <ele>853.5</ele>
        <time>2022-12-01T13:09:12Z</time>
      </trkpt>
      <trkpt lat="46.79334" lon="6.29488">
        <ele>853.9</ele>
        <time>2022-12-01T13:09:18Z</time>
      </trkpt>
      <trkpt lat="46.7933" lon="6.29483">
        <ele>854.5</ele>
        <time>2022-12-01T13:09:23Z</time>
      </trkpt>
      <trkpt lat="46.79326" lon="6.29479">
        <ele>855</ele>
        <time>2022-12-01T13:09:27Z</time>
      </trkpt>
      <trkpt lat="46.79323" lon="6.29473">
        <ele>855.4</ele>
        <time>2022-12-01T13:09:32Z</time>
      </trkpt>
      <trkpt lat="46.79319" lon="6.29468">
        <ele>855.4</ele>
        <time>2022-12-01T13:09:38Z</time>
      </trkpt>
      <trkpt lat="46.79316" lon="6.29461">
        <ele>855.2</ele>
        <time>2022-12-01T13:09:43Z</time>
      </trkpt>
      <trkpt lat="46.79312" lon="6.29455">
        <ele>854.8</ele>
        <time>2022-12-01T13:09:48Z</time>
      </trkpt>
      <trkpt lat="46.79309" lon="6.2945">
        <ele>854.6</ele>
        <time>2022-12-01T13:09:52Z</time>
      </trkpt>
      <trkpt lat="46.79305" lon="6.29446">
        <ele>854.5</ele>
        <time>2022-12-01T13:09:57Z</time>
      </trkpt>
      <trkpt lat="46.79301" lon="6.29441">
        <ele>854.7</ele>
        <time>2022-12-01T13:10:02Z</time>
      </trkpt>
      <trkpt lat="46.79297" lon="6.29436">
        <ele>854.7</ele>
        <time>2022-12-01T13:10:08Z</time>
      </trkpt>
      <trkpt lat="46.79293" lon="6.29432">
        <ele>854.5</ele>
        <time>2022-12-01T13:10:13Z</time>
      </trkpt>
      <trkpt lat="46.79288" lon="6.29428">
        <ele>854.2</ele>
        <time>2022-12-01T13:10:18Z</time>
      </trkpt>
      <trkpt lat="46.79284" lon="6.29425">
        <ele>854.1</ele>
        <time>2022-12-01T13:10:24Z</time>
      </trkpt>
      <trkpt lat="46.7928" lon="6.29421">
        <ele>853.9</ele>
        <time>2022-12-01T13:10:29Z</time>
      </trkpt>
      <trkpt lat="46.79276" lon="6.29417">
        <ele>853.8</ele>
        <time>2022-12-01T13:10:34Z</time>
      </trkpt>
      <trkpt lat="46.79273" lon="6.29413">
        <ele>853.6</ele>
        <time>2022-12-01T13:10:39Z</time>
      </trkpt>
      <trkpt lat="46.79269" lon="6.29408">
        <ele>853.5</ele>
        <time>2022-12-01T13:10:44Z</time>
      </trkpt>
      <trkpt lat="46.79266" lon="6.29403">
        <ele>853.3</ele>
        <time>2022-12-01T13:10:49Z</time>
      </trkpt>
      <trkpt lat="46.79262" lon="6.29399">
        <ele>853.4</ele>
        <time>2022-12-01T13:10:54Z</time>
      </trkpt>
      <trkpt lat="46.79258" lon="6.29394">
        <ele>853.8</ele>
        <time>2022-12-01T13:10:59Z</time>
      </trkpt>
      <trkpt lat="46.79253" lon="6.29391">
        <ele>854.4</ele>
        <time>2022-12-01T13:11:05Z</time>
      </trkpt>
      <trkpt lat="46.79248" lon="6.2939">
        <ele>854.9</ele>
        <time>2022-12-01T13:11:09Z</time>
      </trkpt>
      <trkpt lat="46.79243" lon="6.29389">
        <ele>855.3</ele>
        <time>2022-12-01T13:11:13Z</time>
      </trkpt>
      <trkpt lat="46.79238" lon="6.29387">
        <ele>856.6</ele>
        <time>2022-12-01T13:11:18Z</time>
      </trkpt>
      <trkpt lat="46.79233" lon="6.29388">
        <ele>857.9</ele>
        <time>2022-12-01T13:11:23Z</time>
      </trkpt>
      <trkpt lat="46.79231" lon="6.29394">
        <ele>859</ele>
        <time>2022-12-01T13:11:28Z</time>
      </trkpt>
      <trkpt lat="46.79228" lon="6.294">
        <ele>860.6</ele>
        <time>2022-12-01T13:11:34Z</time>
      </trkpt>
      <trkpt lat="46.79228" lon="6.29406">
        <ele>862</ele>
        <time>2022-12-01T13:11:40Z</time>
      </trkpt>
      <trkpt lat="46.79227" lon="6.29414">
        <ele>862.2</ele>
        <time>2022-12-01T13:11:46Z</time>
      </trkpt>
      <trkpt lat="46.79228" lon="6.29421">
        <ele>862.2</ele>
        <time>2022-12-01T13:11:51Z</time>
      </trkpt>
      <trkpt lat="46.79228" lon="6.29427">
        <ele>862.4</ele>
        <time>2022-12-01T13:11:56Z</time>
      </trkpt>
      <trkpt lat="46.79228" lon="6.29435">
        <ele>863.4</ele>
        <time>2022-12-01T13:12:02Z</time>
      </trkpt>
      <trkpt lat="46.79227" lon="6.29442">
        <ele>864.2</ele>
        <time>2022-12-01T13:12:07Z</time>
      </trkpt>
      <trkpt lat="46.79228" lon="6.29449">
        <ele>864.6</ele>
        <time>2022-12-01T13:12:12Z</time>
      </trkpt>
      <trkpt lat="46.79227" lon="6.29457">
        <ele>865.2</ele>
        <time>2022-12-01T13:12:17Z</time>
      </trkpt>
      <trkpt lat="46.79227" lon="6.29464">
        <ele>865.6</ele>
        <time>2022-12-01T13:12:22Z</time>
      </trkpt>
      <trkpt lat="46.79227" lon="6.29472">
        <ele>865.8</ele>
        <time>2022-12-01T13:12:27Z</time>
      </trkpt>
      <trkpt lat="46.79227" lon="6.29479">
        <ele>866</ele>
        <time>2022-12-01T13:12:32Z</time>
      </trkpt>
      <trkpt lat="46.79227" lon="6.29486">
        <ele>866</ele>
        <time>2022-12-01T13:12:37Z</time>
      </trkpt>
      <trkpt lat="46.79228" lon="6.29493">
        <ele>865.9</ele>
        <time>2022-12-01T13:12:41Z</time>
      </trkpt>
      <trkpt lat="46.79229" lon="6.295">
        <ele>865.9</ele>
        <time>2022-12-01T13:12:46Z</time>
      </trkpt>
      <trkpt lat="46.79231" lon="6.29507">
        <ele>865.4</ele>
        <time>2022-12-01T13:12:51Z</time>
      </trkpt>
      <trkpt lat="46.79234" lon="6.29514">
        <ele>864.9</ele>
        <time>2022-12-01T13:12:56Z</time>
      </trkpt>
      <trkpt lat="46.79236" lon="6.2952">
        <ele>865</ele>
        <time>2022-12-01T13:13:01Z</time>
      </trkpt>
      <trkpt lat="46.79239" lon="6.29526">
        <ele>864.9</ele>
        <time>2022-12-01T13:13:06Z</time>
      </trkpt>
      <trkpt lat="46.79242" lon="6.29533">
        <ele>864.8</ele>
        <time>2022-12-01T13:13:11Z</time>
      </trkpt>
      <trkpt lat="46.79245" lon="6.2954">
        <ele>864.6</ele>
        <time>2022-12-01T13:13:16Z</time>
      </trkpt>
      <trkpt lat="46.79247" lon="6.29546">
        <ele>864.5</ele>
        <time>2022-12-01T13:13:21Z</time>
      </trkpt>
      <trkpt lat="46.7925" lon="6.29552">
        <ele>864.7</ele>
        <time>2022-12-01T13:13:26Z</time>
      </trkpt>
      <trkpt lat="46.79253" lon="6.29558">
        <ele>865</ele>
        <time>2022-12-01T13:13:31Z</time>
      </trkpt>
      <trkpt lat="46.79256" lon="6.29563">
        <ele>865.3</ele>
        <time>2022-12-01T13:13:35Z</time>
      </trkpt>
      <trkpt lat="46.79259" lon="6.29568">
        <ele>865.5</ele>
        <time>2022-12-01T13:13:39Z</time>
      </trkpt>
      <trkpt lat="46.79263" lon="6.29573">
        <ele>865.8</ele>
        <time>2022-12-01T13:13:43Z</time>
      </trkpt>
      <trkpt lat="46.79267" lon="6.29577">
        <ele>866.1</ele>
        <time>2022-12-01T13:13:48Z</time>
      </trkpt>
      <trkpt lat="46.7927" lon="6.29584">
        <ele>866.6</ele>
        <time>2022-12-01T13:13:53Z</time>
      </trkpt>
      <trkpt lat="46.79273" lon="6.29591">
        <ele>867.1</ele>
        <time>2022-12-01T13:13:58Z</time>
      </trkpt>
      <trkpt lat="46.79275" lon="6.29597">
        <ele>867.3</ele>
        <time>2022-12-01T13:14:02Z</time>
      </trkpt>
      <trkpt lat="46.79277" lon="6.29604">
        <ele>867.3</ele>
        <time>2022-12-01T13:14:07Z</time>
      </trkpt>
      <trkpt lat="46.7928" lon="6.29611">
        <ele>867.3</ele>
        <time>2022-12-01T13:14:12Z</time>
      </trkpt>
      <trkpt lat="46.79283" lon="6.29616">
        <ele>867.4</ele>
        <time>2022-12-01T13:14:16Z</time>
      </trkpt>
      <trkpt lat="46.79285" lon="6.29623">
        <ele>867.7</ele>
        <time>2022-12-01T13:14:21Z</time>
      </trkpt>
      <trkpt lat="46.79288" lon="6.29629">
        <ele>868.1</ele>
        <time>2022-12-01T13:14:25Z</time>
      </trkpt>
      <trkpt lat="46.79291" lon="6.29634">
        <ele>868.3</ele>
        <time>2022-12-01T13:14:30Z</time>
      </trkpt>
      <trkpt lat="46.79295" lon="6.29639">
        <ele>868.3</ele>
        <time>2022-12-01T13:14:35Z</time>
      </trkpt>
      <trkpt lat="46.79298" lon="6.29646">
        <ele>868.6</ele>
        <time>2022-12-01T13:14:40Z</time>
      </trkpt>
      <trkpt lat="46.79302" lon="6.29652">
        <ele>869.5</ele>
        <time>2022-12-01T13:14:45Z</time>
      </trkpt>
      <trkpt lat="46.79305" lon="6.29658">
        <ele>869.9</ele>
        <time>2022-12-01T13:14:50Z</time>
      </trkpt>
      <trkpt lat="46.79308" lon="6.29663">
        <ele>869.9</ele>
        <time>2022-12-01T13:14:54Z</time>
      </trkpt>
      <trkpt lat="46.79311" lon="6.29668">
        <ele>869.9</ele>
        <time>2022-12-01T13:14:58Z</time>
      </trkpt>
      <trkpt lat="46.79316" lon="6.29674">
        <ele>870.2</ele>
        <time>2022-12-01T13:15:03Z</time>
      </trkpt>
      <trkpt lat="46.79319" lon="6.29679">
        <ele>869.8</ele>
        <time>2022-12-01T13:15:08Z</time>
      </trkpt>
      <trkpt lat="46.79322" lon="6.29686">
        <ele>869.2</ele>
        <time>2022-12-01T13:15:13Z</time>
      </trkpt>
      <trkpt lat="46.79324" lon="6.29692">
        <ele>870.4</ele>
        <time>2022-12-01T13:15:20Z</time>
      </trkpt>
      <trkpt lat="46.79321" lon="6.29697">
        <ele>871.5</ele>
        <time>2022-12-01T13:15:24Z</time>
      </trkpt>
      <trkpt lat="46.79317" lon="6.29702">
        <ele>872.3</ele>
        <time>2022-12-01T13:15:28Z</time>
      </trkpt>
      <trkpt lat="46.79313" lon="6.29706">
        <ele>873.1</ele>
        <time>2022-12-01T13:15:33Z</time>
      </trkpt>
      <trkpt lat="46.79309" lon="6.29709">
        <ele>873.8</ele>
        <time>2022-12-01T13:15:38Z</time>
      </trkpt>
      <trkpt lat="46.79304" lon="6.29711">
        <ele>874.3</ele>
        <time>2022-12-01T13:15:44Z</time>
      </trkpt>
      <trkpt lat="46.79299" lon="6.29713">
        <ele>874.3</ele>
        <time>2022-12-01T13:15:49Z</time>
      </trkpt>
      <trkpt lat="46.79294" lon="6.29715">
        <ele>874.6</ele>
        <time>2022-12-01T13:15:54Z</time>
      </trkpt>
      <trkpt lat="46.7929" lon="6.29719">
        <ele>875.4</ele>
        <time>2022-12-01T13:16:00Z</time>
      </trkpt>
      <trkpt lat="46.79285" lon="6.29722">
        <ele>876.1</ele>
        <time>2022-12-01T13:16:08Z</time>
      </trkpt>
      <trkpt lat="46.79281" lon="6.29724">
        <ele>877.3</ele>
        <time>2022-12-01T13:16:14Z</time>
      </trkpt>
      <trkpt lat="46.79277" lon="6.2972">
        <ele>879.6</ele>
        <time>2022-12-01T13:16:23Z</time>
      </trkpt>
      <trkpt lat="46.79272" lon="6.29717">
        <ele>880.7</ele>
        <time>2022-12-01T13:16:29Z</time>
      </trkpt>
      <trkpt lat="46.79269" lon="6.29712">
        <ele>881.1</ele>
        <time>2022-12-01T13:16:34Z</time>
      </trkpt>
      <trkpt lat="46.79264" lon="6.2971">
        <ele>881.1</ele>
        <time>2022-12-01T13:16:43Z</time>
      </trkpt>
      <trkpt lat="46.7926" lon="6.29706">
        <ele>882.1</ele>
        <time>2022-12-01T13:17:07Z</time>
      </trkpt>
      <trkpt lat="46.79257" lon="6.29701">
        <ele>882.6</ele>
        <time>2022-12-01T13:17:13Z</time>
      </trkpt>
      <trkpt lat="46.79253" lon="6.29697">
        <ele>883</ele>
        <time>2022-12-01T13:17:17Z</time>
      </trkpt>
      <trkpt lat="46.79249" lon="6.29692">
        <ele>883.2</ele>
        <time>2022-12-01T13:17:21Z</time>
      </trkpt>
      <trkpt lat="46.79246" lon="6.29687">
        <ele>883.9</ele>
        <time>2022-12-01T13:17:26Z</time>
      </trkpt>
      <trkpt lat="46.79243" lon="6.29681">
        <ele>884.4</ele>
        <time>2022-12-01T13:17:31Z</time>
      </trkpt>
      <trkpt lat="46.7924" lon="6.29675">
        <ele>884.3</ele>
        <time>2022-12-01T13:17:36Z</time>
      </trkpt>
      <trkpt lat="46.79237" lon="6.29669">
        <ele>883.8</ele>
        <time>2022-12-01T13:17:42Z</time>
      </trkpt>
      <trkpt lat="46.79233" lon="6.29665">
        <ele>883.1</ele>
        <time>2022-12-01T13:17:47Z</time>
      </trkpt>
      <trkpt lat="46.79229" lon="6.2966">
        <ele>882.5</ele>
        <time>2022-12-01T13:17:52Z</time>
      </trkpt>
      <trkpt lat="46.79225" lon="6.29654">
        <ele>882</ele>
        <time>2022-12-01T13:17:57Z</time>
      </trkpt>
      <trkpt lat="46.79222" lon="6.29648">
        <ele>882</ele>
        <time>2022-12-01T13:18:02Z</time>
      </trkpt>
      <trkpt lat="46.79218" lon="6.29644">
        <ele>882.2</ele>
        <time>2022-12-01T13:18:06Z</time>
      </trkpt>
      <trkpt lat="46.79214" lon="6.29639">
        <ele>882.2</ele>
        <time>2022-12-01T13:18:10Z</time>
      </trkpt>
      <trkpt lat="46.7921" lon="6.29635">
        <ele>882.1</ele>
        <time>2022-12-01T13:18:14Z</time>
      </trkpt>
      <trkpt lat="46.79206" lon="6.29632">
        <ele>882.4</ele>
        <time>2022-12-01T13:18:18Z</time>
      </trkpt>
      <trkpt lat="46.79203" lon="6.29626">
        <ele>882.9</ele>
        <time>2022-12-01T13:18:22Z</time>
      </trkpt>
      <trkpt lat="46.79199" lon="6.29621">
        <ele>883.3</ele>
        <time>2022-12-01T13:18:27Z</time>
      </trkpt>
      <trkpt lat="46.79194" lon="6.29616">
        <ele>883.2</ele>
        <time>2022-12-01T13:18:32Z</time>
      </trkpt>
      <trkpt lat="46.7919" lon="6.29613">
        <ele>882.5</ele>
        <time>2022-12-01T13:18:37Z</time>
      </trkpt>
      <trkpt lat="46.79186" lon="6.29608">
        <ele>881.8</ele>
        <time>2022-12-01T13:18:42Z</time>
      </trkpt>
      <trkpt lat="46.79182" lon="6.29602">
        <ele>881</ele>
        <time>2022-12-01T13:18:47Z</time>
      </trkpt>
      <trkpt lat="46.79178" lon="6.29597">
        <ele>880.9</ele>
        <time>2022-12-01T13:18:52Z</time>
      </trkpt>
      <trkpt lat="46.79175" lon="6.29592">
        <ele>880.8</ele>
        <time>2022-12-01T13:18:56Z</time>
      </trkpt>
      <trkpt lat="46.79171" lon="6.29587">
        <ele>880.9</ele>
        <time>2022-12-01T13:19:00Z</time>
      </trkpt>
      <trkpt lat="46.79168" lon="6.29581">
        <ele>881.5</ele>
        <time>2022-12-01T13:19:04Z</time>
      </trkpt>
      <trkpt lat="46.79164" lon="6.29576">
        <ele>882.1</ele>
        <time>2022-12-01T13:19:08Z</time>
      </trkpt>
      <trkpt lat="46.79161" lon="6.29571">
        <ele>882.7</ele>
        <time>2022-12-01T13:19:12Z</time>
      </trkpt>
      <trkpt lat="46.79157" lon="6.29567">
        <ele>883.4</ele>
        <time>2022-12-01T13:19:16Z</time>
      </trkpt>
      <trkpt lat="46.79154" lon="6.29562">
        <ele>884.1</ele>
        <time>2022-12-01T13:19:20Z</time>
      </trkpt>
      <trkpt lat="46.79151" lon="6.29558">
        <ele>884.6</ele>
        <time>2022-12-01T13:19:24Z</time>
      </trkpt>
      <trkpt lat="46.79147" lon="6.29553">
        <ele>884.4</ele>
        <time>2022-12-01T13:19:29Z</time>
      </trkpt>
      <trkpt lat="46.79143" lon="6.29549">
        <ele>883.4</ele>
        <time>2022-12-01T13:19:34Z</time>
      </trkpt>
      <trkpt lat="46.79138" lon="6.29546">
        <ele>882.3</ele>
        <time>2022-12-01T13:19:39Z</time>
      </trkpt>
      <trkpt lat="46.79133" lon="6.29543">
        <ele>881.1</ele>
        <time>2022-12-01T13:19:44Z</time>
      </trkpt>
      <trkpt lat="46.79129" lon="6.29538">
        <ele>880.5</ele>
        <time>2022-12-01T13:19:49Z</time>
      </trkpt>
      <trkpt lat="46.79126" lon="6.29533">
        <ele>880.3</ele>
        <time>2022-12-01T13:19:53Z</time>
      </trkpt>
      <trkpt lat="46.79122" lon="6.29528">
        <ele>879.8</ele>
        <time>2022-12-01T13:19:57Z</time>
      </trkpt>
      <trkpt lat="46.79119" lon="6.29523">
        <ele>879.1</ele>
        <time>2022-12-01T13:20:01Z</time>
      </trkpt>
      <trkpt lat="46.79114" lon="6.29519">
        <ele>878.4</ele>
        <time>2022-12-01T13:20:05Z</time>
      </trkpt>
      <trkpt lat="46.7911" lon="6.29514">
        <ele>877.9</ele>
        <time>2022-12-01T13:20:10Z</time>
      </trkpt>
      <trkpt lat="46.79107" lon="6.29508">
        <ele>877.5</ele>
        <time>2022-12-01T13:20:14Z</time>
      </trkpt>
      <trkpt lat="46.79104" lon="6.29502">
        <ele>877.7</ele>
        <time>2022-12-01T13:20:18Z</time>
      </trkpt>
      <trkpt lat="46.79102" lon="6.29496">
        <ele>878.1</ele>
        <time>2022-12-01T13:20:23Z</time>
      </trkpt>
      <trkpt lat="46.79098" lon="6.29491">
        <ele>878.7</ele>
        <time>2022-12-01T13:20:28Z</time>
      </trkpt>
      <trkpt lat="46.79094" lon="6.29485">
        <ele>879.4</ele>
        <time>2022-12-01T13:20:32Z</time>
      </trkpt>
      <trkpt lat="46.79092" lon="6.2948">
        <ele>879.9</ele>
        <time>2022-12-01T13:20:36Z</time>
      </trkpt>
      <trkpt lat="46.79088" lon="6.29474">
        <ele>880.4</ele>
        <time>2022-12-01T13:20:41Z</time>
      </trkpt>
      <trkpt lat="46.79083" lon="6.29471">
        <ele>880.6</ele>
        <time>2022-12-01T13:20:46Z</time>
      </trkpt>
      <trkpt lat="46.79079" lon="6.2947">
        <ele>880.3</ele>
        <time>2022-12-01T13:20:50Z</time>
      </trkpt>
      <trkpt lat="46.79074" lon="6.29468">
        <ele>879.9</ele>
        <time>2022-12-01T13:20:54Z</time>
      </trkpt>
      <trkpt lat="46.79069" lon="6.29468">
        <ele>879.7</ele>
        <time>2022-12-01T13:20:59Z</time>
      </trkpt>
      <trkpt lat="46.79064" lon="6.29465">
        <ele>879.8</ele>
        <time>2022-12-01T13:21:05Z</time>
      </trkpt>
      <trkpt lat="46.79061" lon="6.2946">
        <ele>881.5</ele>
        <time>2022-12-01T13:21:12Z</time>
      </trkpt>
      <trkpt lat="46.79058" lon="6.29455">
        <ele>882.4</ele>
        <time>2022-12-01T13:21:17Z</time>
      </trkpt>
      <trkpt lat="46.79055" lon="6.29449">
        <ele>883.7</ele>
        <time>2022-12-01T13:21:22Z</time>
      </trkpt>
      <trkpt lat="46.79051" lon="6.29444">
        <ele>884.5</ele>
        <time>2022-12-01T13:21:27Z</time>
      </trkpt>
      <trkpt lat="46.79049" lon="6.29438">
        <ele>884.9</ele>
        <time>2022-12-01T13:21:32Z</time>
      </trkpt>
      <trkpt lat="46.79044" lon="6.29432">
        <ele>885.7</ele>
        <time>2022-12-01T13:21:37Z</time>
      </trkpt>
      <trkpt lat="46.79041" lon="6.29428">
        <ele>885.8</ele>
        <time>2022-12-01T13:21:42Z</time>
      </trkpt>
      <trkpt lat="46.79037" lon="6.29422">
        <ele>885.7</ele>
        <time>2022-12-01T13:21:48Z</time>
      </trkpt>
      <trkpt lat="46.79034" lon="6.29416">
        <ele>885.7</ele>
        <time>2022-12-01T13:21:53Z</time>
      </trkpt>
      <trkpt lat="46.79031" lon="6.29411">
        <ele>885.8</ele>
        <time>2022-12-01T13:22:00Z</time>
      </trkpt>
      <trkpt lat="46.79028" lon="6.29406">
        <ele>885.5</ele>
        <time>2022-12-01T13:22:16Z</time>
      </trkpt>
      <trkpt lat="46.79024" lon="6.29402">
        <ele>884.9</ele>
        <time>2022-12-01T13:22:20Z</time>
      </trkpt>
      <trkpt lat="46.7902" lon="6.29397">
        <ele>884.6</ele>
        <time>2022-12-01T13:22:24Z</time>
      </trkpt>
      <trkpt lat="46.79016" lon="6.29393">
        <ele>884.3</ele>
        <time>2022-12-01T13:22:28Z</time>
      </trkpt>
      <trkpt lat="46.79013" lon="6.29388">
        <ele>884.2</ele>
        <time>2022-12-01T13:22:32Z</time>
      </trkpt>
      <trkpt lat="46.7901" lon="6.29384">
        <ele>884.1</ele>
        <time>2022-12-01T13:22:36Z</time>
      </trkpt>
      <trkpt lat="46.79006" lon="6.2938">
        <ele>883.9</ele>
        <time>2022-12-01T13:22:40Z</time>
      </trkpt>
      <trkpt lat="46.79002" lon="6.29376">
        <ele>883.5</ele>
        <time>2022-12-01T13:22:44Z</time>
      </trkpt>
      <trkpt lat="46.78998" lon="6.29371">
        <ele>883.1</ele>
        <time>2022-12-01T13:22:48Z</time>
      </trkpt>
      <trkpt lat="46.78993" lon="6.29368">
        <ele>882.7</ele>
        <time>2022-12-01T13:22:52Z</time>
      </trkpt>
      <trkpt lat="46.78989" lon="6.29363">
        <ele>882.1</ele>
        <time>2022-12-01T13:22:56Z</time>
      </trkpt>
      <trkpt lat="46.78986" lon="6.29358">
        <ele>881.7</ele>
        <time>2022-12-01T13:23:00Z</time>
      </trkpt>
      <trkpt lat="46.78983" lon="6.29353">
        <ele>881.1</ele>
        <time>2022-12-01T13:23:05Z</time>
      </trkpt>
      <trkpt lat="46.78979" lon="6.2935">
        <ele>880.4</ele>
        <time>2022-12-01T13:23:09Z</time>
      </trkpt>
      <trkpt lat="46.78975" lon="6.29345">
        <ele>879.3</ele>
        <time>2022-12-01T13:23:13Z</time>
      </trkpt>
      <trkpt lat="46.7897" lon="6.2934">
        <ele>878.3</ele>
        <time>2022-12-01T13:23:17Z</time>
      </trkpt>
      <trkpt lat="46.78967" lon="6.29336">
        <ele>877.5</ele>
        <time>2022-12-01T13:23:21Z</time>
      </trkpt>
      <trkpt lat="46.78963" lon="6.29331">
        <ele>876.7</ele>
        <time>2022-12-01T13:23:25Z</time>
      </trkpt>
      <trkpt lat="46.78959" lon="6.29325">
        <ele>876.1</ele>
        <time>2022-12-01T13:23:29Z</time>
      </trkpt>
      <trkpt lat="46.78956" lon="6.29319">
        <ele>875.9</ele>
        <time>2022-12-01T13:23:33Z</time>
      </trkpt>
      <trkpt lat="46.78952" lon="6.29314">
        <ele>876.4</ele>
        <time>2022-12-01T13:23:37Z</time>
      </trkpt>
      <trkpt lat="46.78948" lon="6.29308">
        <ele>877.3</ele>
        <time>2022-12-01T13:23:41Z</time>
      </trkpt>
      <trkpt lat="46.78945" lon="6.29304">
        <ele>878.2</ele>
        <time>2022-12-01T13:23:45Z</time>
      </trkpt>
      <trkpt lat="46.78942" lon="6.29299">
        <ele>879.1</ele>
        <time>2022-12-01T13:23:50Z</time>
      </trkpt>
      <trkpt lat="46.78939" lon="6.29293">
        <ele>879.6</ele>
        <time>2022-12-01T13:23:54Z</time>
      </trkpt>
      <trkpt lat="46.78935" lon="6.29289">
        <ele>879.9</ele>
        <time>2022-12-01T13:23:58Z</time>
      </trkpt>
      <trkpt lat="46.78932" lon="6.29284">
        <ele>880.3</ele>
        <time>2022-12-01T13:24:02Z</time>
      </trkpt>
      <trkpt lat="46.78929" lon="6.29279">
        <ele>880.5</ele>
        <time>2022-12-01T13:24:07Z</time>
      </trkpt>
      <trkpt lat="46.78926" lon="6.29273">
        <ele>880.9</ele>
        <time>2022-12-01T13:24:13Z</time>
      </trkpt>
      <trkpt lat="46.78922" lon="6.29269">
        <ele>881.1</ele>
        <time>2022-12-01T13:24:18Z</time>
      </trkpt>
      <trkpt lat="46.78918" lon="6.29264">
        <ele>881</ele>
        <time>2022-12-01T13:24:23Z</time>
      </trkpt>
      <trkpt lat="46.78915" lon="6.29259">
        <ele>880.7</ele>
        <time>2022-12-01T13:24:28Z</time>
      </trkpt>
      <trkpt lat="46.78912" lon="6.29253">
        <ele>880.2</ele>
        <time>2022-12-01T13:24:34Z</time>
      </trkpt>
      <trkpt lat="46.78909" lon="6.29247">
        <ele>879.8</ele>
        <time>2022-12-01T13:24:39Z</time>
      </trkpt>
      <trkpt lat="46.78906" lon="6.29241">
        <ele>879.6</ele>
        <time>2022-12-01T13:24:44Z</time>
      </trkpt>
      <trkpt lat="46.78901" lon="6.29237">
        <ele>879.3</ele>
        <time>2022-12-01T13:24:49Z</time>
      </trkpt>
      <trkpt lat="46.78898" lon="6.2923">
        <ele>879</ele>
        <time>2022-12-01T13:24:54Z</time>
      </trkpt>
      <trkpt lat="46.78895" lon="6.29225">
        <ele>879</ele>
        <time>2022-12-01T13:24:59Z</time>
      </trkpt>
      <trkpt lat="46.78891" lon="6.29219">
        <ele>878.8</ele>
        <time>2022-12-01T13:25:04Z</time>
      </trkpt>
      <trkpt lat="46.78887" lon="6.29214">
        <ele>877.8</ele>
        <time>2022-12-01T13:25:09Z</time>
      </trkpt>
      <trkpt lat="46.78884" lon="6.29208">
        <ele>877</ele>
        <time>2022-12-01T13:25:13Z</time>
      </trkpt>
      <trkpt lat="46.7888" lon="6.29203">
        <ele>876.7</ele>
        <time>2022-12-01T13:25:17Z</time>
      </trkpt>
      <trkpt lat="46.78878" lon="6.29198">
        <ele>876.3</ele>
        <time>2022-12-01T13:25:22Z</time>
      </trkpt>
      <trkpt lat="46.78874" lon="6.29191">
        <ele>876</ele>
        <time>2022-12-01T13:25:27Z</time>
      </trkpt>
      <trkpt lat="46.7887" lon="6.29186">
        <ele>876</ele>
        <time>2022-12-01T13:25:32Z</time>
      </trkpt>
      <trkpt lat="46.78867" lon="6.29181">
        <ele>876.2</ele>
        <time>2022-12-01T13:25:36Z</time>
      </trkpt>
      <trkpt lat="46.78863" lon="6.29176">
        <ele>876.4</ele>
        <time>2022-12-01T13:25:40Z</time>
      </trkpt>
      <trkpt lat="46.7886" lon="6.29173">
        <ele>876.9</ele>
        <time>2022-12-01T13:25:44Z</time>
      </trkpt>
      <trkpt lat="46.78855" lon="6.29168">
        <ele>877.6</ele>
        <time>2022-12-01T13:25:49Z</time>
      </trkpt>
      <trkpt lat="46.78851" lon="6.29164">
        <ele>877.7</ele>
        <time>2022-12-01T13:25:54Z</time>
      </trkpt>
      <trkpt lat="46.78847" lon="6.29161">
        <ele>877.3</ele>
        <time>2022-12-01T13:25:58Z</time>
      </trkpt>
      <trkpt lat="46.78843" lon="6.29155">
        <ele>876.6</ele>
        <time>2022-12-01T13:26:04Z</time>
      </trkpt>
      <trkpt lat="46.78841" lon="6.29149">
        <ele>875.8</ele>
        <time>2022-12-01T13:26:09Z</time>
      </trkpt>
      <trkpt lat="46.78838" lon="6.29144">
        <ele>875</ele>
        <time>2022-12-01T13:26:13Z</time>
      </trkpt>
      <trkpt lat="46.78834" lon="6.29139">
        <ele>874.4</ele>
        <time>2022-12-01T13:26:18Z</time>
      </trkpt>
      <trkpt lat="46.78829" lon="6.29136">
        <ele>874.6</ele>
        <time>2022-12-01T13:26:23Z</time>
      </trkpt>
      <trkpt lat="46.78825" lon="6.29131">
        <ele>874.6</ele>
        <time>2022-12-01T13:26:28Z</time>
      </trkpt>
      <trkpt lat="46.78821" lon="6.29126">
        <ele>874.5</ele>
        <time>2022-12-01T13:26:32Z</time>
      </trkpt>
      <trkpt lat="46.78817" lon="6.2912">
        <ele>875.1</ele>
        <time>2022-12-01T13:26:36Z</time>
      </trkpt>
      <trkpt lat="46.78814" lon="6.29114">
        <ele>876.2</ele>
        <time>2022-12-01T13:26:41Z</time>
      </trkpt>
      <trkpt lat="46.7881" lon="6.29109">
        <ele>877.2</ele>
        <time>2022-12-01T13:26:46Z</time>
      </trkpt>
      <trkpt lat="46.78807" lon="6.29104">
        <ele>877.7</ele>
        <time>2022-12-01T13:26:51Z</time>
      </trkpt>
      <trkpt lat="46.78803" lon="6.29098">
        <ele>877.9</ele>
        <time>2022-12-01T13:26:56Z</time>
      </trkpt>
      <trkpt lat="46.78799" lon="6.29094">
        <ele>878</ele>
        <time>2022-12-01T13:27:00Z</time>
      </trkpt>
      <trkpt lat="46.78796" lon="6.29089">
        <ele>878.3</ele>
        <time>2022-12-01T13:27:04Z</time>
      </trkpt>
      <trkpt lat="46.78792" lon="6.29083">
        <ele>878.4</ele>
        <time>2022-12-01T13:27:09Z</time>
      </trkpt>
      <trkpt lat="46.78789" lon="6.29078">
        <ele>878.3</ele>
        <time>2022-12-01T13:27:14Z</time>
      </trkpt>
      <trkpt lat="46.78785" lon="6.29074">
        <ele>878.8</ele>
        <time>2022-12-01T13:27:18Z</time>
      </trkpt>
      <trkpt lat="46.78782" lon="6.29068">
        <ele>879</ele>
        <time>2022-12-01T13:27:22Z</time>
      </trkpt>
      <trkpt lat="46.78778" lon="6.29065">
        <ele>878.6</ele>
        <time>2022-12-01T13:27:26Z</time>
      </trkpt>
      <trkpt lat="46.78775" lon="6.29059">
        <ele>878</ele>
        <time>2022-12-01T13:27:32Z</time>
      </trkpt>
      <trkpt lat="46.78772" lon="6.29053">
        <ele>877.8</ele>
        <time>2022-12-01T13:27:38Z</time>
      </trkpt>
      <trkpt lat="46.78768" lon="6.29048">
        <ele>877.7</ele>
        <time>2022-12-01T13:27:43Z</time>
      </trkpt>
      <trkpt lat="46.78765" lon="6.29041">
        <ele>876.9</ele>
        <time>2022-12-01T13:27:48Z</time>
      </trkpt>
      <trkpt lat="46.78762" lon="6.29037">
        <ele>876.1</ele>
        <time>2022-12-01T13:27:52Z</time>
      </trkpt>
      <trkpt lat="46.78759" lon="6.29032">
        <ele>875.3</ele>
        <time>2022-12-01T13:27:57Z</time>
      </trkpt>
      <trkpt lat="46.78756" lon="6.29026">
        <ele>874.2</ele>
        <time>2022-12-01T13:28:03Z</time>
      </trkpt>
      <trkpt lat="46.78753" lon="6.2902">
        <ele>872.8</ele>
        <time>2022-12-01T13:28:09Z</time>
      </trkpt>
      <trkpt lat="46.78749" lon="6.29015">
        <ele>871.4</ele>
        <time>2022-12-01T13:28:15Z</time>
      </trkpt>
      <trkpt lat="46.78747" lon="6.29008">
        <ele>870.8</ele>
        <time>2022-12-01T13:28:21Z</time>
      </trkpt>
      <trkpt lat="46.78745" lon="6.29002">
        <ele>870.2</ele>
        <time>2022-12-01T13:28:26Z</time>
      </trkpt>
      <trkpt lat="46.78746" lon="6.28994">
        <ele>869.1</ele>
        <time>2022-12-01T13:28:31Z</time>
      </trkpt>
      <trkpt lat="46.78749" lon="6.28987">
        <ele>868</ele>
        <time>2022-12-01T13:28:36Z</time>
      </trkpt>
      <trkpt lat="46.78751" lon="6.2898">
        <ele>867.2</ele>
        <time>2022-12-01T13:28:41Z</time>
      </trkpt>
      <trkpt lat="46.78752" lon="6.28974">
        <ele>867.3</ele>
        <time>2022-12-01T13:28:46Z</time>
      </trkpt>
      <trkpt lat="46.78751" lon="6.28967">
        <ele>867.7</ele>
        <time>2022-12-01T13:28:52Z</time>
      </trkpt>
      <trkpt lat="46.78748" lon="6.28962">
        <ele>867.9</ele>
        <time>2022-12-01T13:28:58Z</time>
      </trkpt>
      <trkpt lat="46.78748" lon="6.28954">
        <ele>867.6</ele>
        <time>2022-12-01T13:29:04Z</time>
      </trkpt>
      <trkpt lat="46.78749" lon="6.28948">
        <ele>867.2</ele>
        <time>2022-12-01T13:29:09Z</time>
      </trkpt>
      <trkpt lat="46.78752" lon="6.28942">
        <ele>866.1</ele>
        <time>2022-12-01T13:29:14Z</time>
      </trkpt>
      <trkpt lat="46.78754" lon="6.28937">
        <ele>864.7</ele>
        <time>2022-12-01T13:29:20Z</time>
      </trkpt>
      <trkpt lat="46.78754" lon="6.28929">
        <ele>863.2</ele>
        <time>2022-12-01T13:29:26Z</time>
      </trkpt>
      <trkpt lat="46.78751" lon="6.28924">
        <ele>862.2</ele>
        <time>2022-12-01T13:29:32Z</time>
      </trkpt>
      <trkpt lat="46.78746" lon="6.28922">
        <ele>861.7</ele>
        <time>2022-12-01T13:29:40Z</time>
      </trkpt>
      <trkpt lat="46.78742" lon="6.28919">
        <ele>862.1</ele>
        <time>2022-12-01T13:29:48Z</time>
      </trkpt>
      <trkpt lat="46.78738" lon="6.28914">
        <ele>862.1</ele>
        <time>2022-12-01T13:29:54Z</time>
      </trkpt>
      <trkpt lat="46.78736" lon="6.28908">
        <ele>861.6</ele>
        <time>2022-12-01T13:30:00Z</time>
      </trkpt>
      <trkpt lat="46.78731" lon="6.28907">
        <ele>861.4</ele>
        <time>2022-12-01T13:30:05Z</time>
      </trkpt>
      <trkpt lat="46.78728" lon="6.28912">
        <ele>862</ele>
        <time>2022-12-01T13:30:11Z</time>
      </trkpt>
      <trkpt lat="46.78726" lon="6.28918">
        <ele>863.4</ele>
        <time>2022-12-01T13:30:16Z</time>
      </trkpt>
      <trkpt lat="46.78724" lon="6.28925">
        <ele>865.9</ele>
        <time>2022-12-01T13:30:22Z</time>
      </trkpt>
      <trkpt lat="46.78721" lon="6.28931">
        <ele>867.9</ele>
        <time>2022-12-01T13:30:28Z</time>
      </trkpt>
      <trkpt lat="46.78716" lon="6.28934">
        <ele>869.3</ele>
        <time>2022-12-01T13:30:34Z</time>
      </trkpt>
      <trkpt lat="46.78712" lon="6.28932">
        <ele>869.3</ele>
        <time>2022-12-01T13:30:41Z</time>
      </trkpt>
      <trkpt lat="46.78708" lon="6.28928">
        <ele>868.8</ele>
        <time>2022-12-01T13:30:47Z</time>
      </trkpt>
      <trkpt lat="46.78703" lon="6.28926">
        <ele>868.1</ele>
        <time>2022-12-01T13:30:58Z</time>
      </trkpt>
      <trkpt lat="46.78699" lon="6.28923">
        <ele>867.7</ele>
        <time>2022-12-01T13:31:03Z</time>
      </trkpt>
      <trkpt lat="46.78694" lon="6.2892">
        <ele>867.3</ele>
        <time>2022-12-01T13:31:08Z</time>
      </trkpt>
      <trkpt lat="46.78691" lon="6.28916">
        <ele>866.6</ele>
        <time>2022-12-01T13:31:14Z</time>
      </trkpt>
      <trkpt lat="46.78688" lon="6.28911">
        <ele>866.1</ele>
        <time>2022-12-01T13:31:18Z</time>
      </trkpt>
      <trkpt lat="46.78684" lon="6.28906">
        <ele>865.9</ele>
        <time>2022-12-01T13:31:24Z</time>
      </trkpt>
      <trkpt lat="46.78679" lon="6.28902">
        <ele>865.7</ele>
        <time>2022-12-01T13:31:29Z</time>
      </trkpt>
      <trkpt lat="46.78675" lon="6.28897">
        <ele>865.5</ele>
        <time>2022-12-01T13:31:34Z</time>
      </trkpt>
      <trkpt lat="46.78671" lon="6.28892">
        <ele>865.6</ele>
        <time>2022-12-01T13:31:39Z</time>
      </trkpt>
      <trkpt lat="46.78667" lon="6.28888">
        <ele>865.9</ele>
        <time>2022-12-01T13:31:44Z</time>
      </trkpt>
      <trkpt lat="46.78662" lon="6.28882">
        <ele>866.3</ele>
        <time>2022-12-01T13:31:49Z</time>
      </trkpt>
      <trkpt lat="46.78658" lon="6.28879">
        <ele>866.7</ele>
        <time>2022-12-01T13:31:53Z</time>
      </trkpt>
      <trkpt lat="46.78655" lon="6.28874">
        <ele>867.2</ele>
        <time>2022-12-01T13:31:58Z</time>
      </trkpt>
      <trkpt lat="46.78651" lon="6.2887">
        <ele>867.2</ele>
        <time>2022-12-01T13:32:04Z</time>
      </trkpt>
      <trkpt lat="46.78647" lon="6.28866">
        <ele>867</ele>
        <time>2022-12-01T13:32:09Z</time>
      </trkpt>
      <trkpt lat="46.78642" lon="6.28863">
        <ele>867</ele>
        <time>2022-12-01T13:32:13Z</time>
      </trkpt>
      <trkpt lat="46.78639" lon="6.28859">
        <ele>867.1</ele>
        <time>2022-12-01T13:32:17Z</time>
      </trkpt>
      <trkpt lat="46.78635" lon="6.28854">
        <ele>867.3</ele>
        <time>2022-12-01T13:32:22Z</time>
      </trkpt>
      <trkpt lat="46.78631" lon="6.2885">
        <ele>867.2</ele>
        <time>2022-12-01T13:32:26Z</time>
      </trkpt>
      <trkpt lat="46.78627" lon="6.28845">
        <ele>866.9</ele>
        <time>2022-12-01T13:32:32Z</time>
      </trkpt>
      <trkpt lat="46.78624" lon="6.28841">
        <ele>866.5</ele>
        <time>2022-12-01T13:32:37Z</time>
      </trkpt>
      <trkpt lat="46.7862" lon="6.28837">
        <ele>866.4</ele>
        <time>2022-12-01T13:32:41Z</time>
      </trkpt>
      <trkpt lat="46.78616" lon="6.28832">
        <ele>866.4</ele>
        <time>2022-12-01T13:32:46Z</time>
      </trkpt>
      <trkpt lat="46.78612" lon="6.28827">
        <ele>866.4</ele>
        <time>2022-12-01T13:32:51Z</time>
      </trkpt>
      <trkpt lat="46.78608" lon="6.28822">
        <ele>866.3</ele>
        <time>2022-12-01T13:32:56Z</time>
      </trkpt>
      <trkpt lat="46.78604" lon="6.28818">
        <ele>866.3</ele>
        <time>2022-12-01T13:33:01Z</time>
      </trkpt>
      <trkpt lat="46.786" lon="6.28813">
        <ele>866.2</ele>
        <time>2022-12-01T13:33:06Z</time>
      </trkpt>
      <trkpt lat="46.78596" lon="6.28808">
        <ele>865.9</ele>
        <time>2022-12-01T13:33:11Z</time>
      </trkpt>
      <trkpt lat="46.78593" lon="6.28803">
        <ele>865.7</ele>
        <time>2022-12-01T13:33:16Z</time>
      </trkpt>
      <trkpt lat="46.78589" lon="6.28798">
        <ele>865.3</ele>
        <time>2022-12-01T13:33:21Z</time>
      </trkpt>
      <trkpt lat="46.78586" lon="6.28794">
        <ele>864.9</ele>
        <time>2022-12-01T13:33:25Z</time>
      </trkpt>
      <trkpt lat="46.78583" lon="6.28789">
        <ele>864.7</ele>
        <time>2022-12-01T13:33:29Z</time>
      </trkpt>
      <trkpt lat="46.7858" lon="6.28784">
        <ele>864.9</ele>
        <time>2022-12-01T13:33:33Z</time>
      </trkpt>
      <trkpt lat="46.78576" lon="6.28779">
        <ele>865.2</ele>
        <time>2022-12-01T13:33:38Z</time>
      </trkpt>
      <trkpt lat="46.78573" lon="6.28774">
        <ele>865</ele>
        <time>2022-12-01T13:33:43Z</time>
      </trkpt>
      <trkpt lat="46.78568" lon="6.28769">
        <ele>864.5</ele>
        <time>2022-12-01T13:33:48Z</time>
      </trkpt>
      <trkpt lat="46.78565" lon="6.28764">
        <ele>864.2</ele>
        <time>2022-12-01T13:33:53Z</time>
      </trkpt>
      <trkpt lat="46.78561" lon="6.2876">
        <ele>864</ele>
        <time>2022-12-01T13:33:59Z</time>
      </trkpt>
      <trkpt lat="46.78556" lon="6.28757">
        <ele>863.7</ele>
        <time>2022-12-01T13:34:05Z</time>
      </trkpt>
      <trkpt lat="46.78552" lon="6.28752">
        <ele>863.6</ele>
        <time>2022-12-01T13:34:10Z</time>
      </trkpt>
      <trkpt lat="46.78548" lon="6.28746">
        <ele>863.5</ele>
        <time>2022-12-01T13:34:15Z</time>
      </trkpt>
      <trkpt lat="46.78544" lon="6.28742">
        <ele>863.7</ele>
        <time>2022-12-01T13:34:19Z</time>
      </trkpt>
      <trkpt lat="46.7854" lon="6.28738">
        <ele>864.2</ele>
        <time>2022-12-01T13:34:23Z</time>
      </trkpt>
      <trkpt lat="46.78536" lon="6.28735">
        <ele>864.8</ele>
        <time>2022-12-01T13:34:28Z</time>
      </trkpt>
      <trkpt lat="46.78532" lon="6.28732">
        <ele>864.9</ele>
        <time>2022-12-01T13:34:33Z</time>
      </trkpt>
      <trkpt lat="46.78527" lon="6.28729">
        <ele>864.9</ele>
        <time>2022-12-01T13:34:38Z</time>
      </trkpt>
      <trkpt lat="46.78523" lon="6.28725">
        <ele>865.5</ele>
        <time>2022-12-01T13:34:43Z</time>
      </trkpt>
      <trkpt lat="46.78519" lon="6.2872">
        <ele>866</ele>
        <time>2022-12-01T13:34:48Z</time>
      </trkpt>
      <trkpt lat="46.78514" lon="6.28716">
        <ele>865.8</ele>
        <time>2022-12-01T13:34:53Z</time>
      </trkpt>
      <trkpt lat="46.7851" lon="6.28713">
        <ele>865.3</ele>
        <time>2022-12-01T13:34:59Z</time>
      </trkpt>
      <trkpt lat="46.78505" lon="6.28711">
        <ele>864.2</ele>
        <time>2022-12-01T13:35:05Z</time>
      </trkpt>
      <trkpt lat="46.785" lon="6.28709">
        <ele>863.6</ele>
        <time>2022-12-01T13:35:09Z</time>
      </trkpt>
      <trkpt lat="46.78496" lon="6.28706">
        <ele>862.8</ele>
        <time>2022-12-01T13:35:14Z</time>
      </trkpt>
      <trkpt lat="46.78492" lon="6.28702">
        <ele>862.3</ele>
        <time>2022-12-01T13:35:19Z</time>
      </trkpt>
      <trkpt lat="46.78487" lon="6.28698">
        <ele>861.5</ele>
        <time>2022-12-01T13:35:24Z</time>
      </trkpt>
      <trkpt lat="46.78483" lon="6.28695">
        <ele>861.2</ele>
        <time>2022-12-01T13:35:28Z</time>
      </trkpt>
      <trkpt lat="46.78478" lon="6.28692">
        <ele>861.2</ele>
        <time>2022-12-01T13:35:32Z</time>
      </trkpt>
      <trkpt lat="46.78473" lon="6.2869">
        <ele>861.5</ele>
        <time>2022-12-01T13:35:37Z</time>
      </trkpt>
      <trkpt lat="46.78468" lon="6.28688">
        <ele>862.1</ele>
        <time>2022-12-01T13:35:42Z</time>
      </trkpt>
      <trkpt lat="46.78463" lon="6.28684">
        <ele>862.9</ele>
        <time>2022-12-01T13:35:47Z</time>
      </trkpt>
      <trkpt lat="46.78458" lon="6.28683">
        <ele>862.8</ele>
        <time>2022-12-01T13:35:53Z</time>
      </trkpt>
      <trkpt lat="46.78455" lon="6.28678">
        <ele>861.8</ele>
        <time>2022-12-01T13:35:58Z</time>
      </trkpt>
      <trkpt lat="46.78452" lon="6.28671">
        <ele>860.8</ele>
        <time>2022-12-01T13:36:03Z</time>
      </trkpt>
      <trkpt lat="46.78451" lon="6.28664">
        <ele>860.2</ele>
        <time>2022-12-01T13:36:08Z</time>
      </trkpt>
      <trkpt lat="46.78453" lon="6.28657">
        <ele>860.5</ele>
        <time>2022-12-01T13:36:13Z</time>
      </trkpt>
      <trkpt lat="46.78454" lon="6.28651">
        <ele>861.2</ele>
        <time>2022-12-01T13:36:17Z</time>
      </trkpt>
      <trkpt lat="46.78457" lon="6.28644">
        <ele>861.9</ele>
        <time>2022-12-01T13:36:22Z</time>
      </trkpt>
      <trkpt lat="46.78459" lon="6.28638">
        <ele>861.8</ele>
        <time>2022-12-01T13:36:27Z</time>
      </trkpt>
      <trkpt lat="46.7846" lon="6.28631">
        <ele>861.6</ele>
        <time>2022-12-01T13:36:32Z</time>
      </trkpt>
      <trkpt lat="46.78462" lon="6.28624">
        <ele>861.4</ele>
        <time>2022-12-01T13:36:37Z</time>
      </trkpt>
      <trkpt lat="46.78463" lon="6.28616">
        <ele>861.2</ele>
        <time>2022-12-01T13:36:42Z</time>
      </trkpt>
      <trkpt lat="46.78464" lon="6.28609">
        <ele>860.4</ele>
        <time>2022-12-01T13:36:47Z</time>
      </trkpt>
      <trkpt lat="46.78464" lon="6.28602">
        <ele>859.9</ele>
        <time>2022-12-01T13:36:51Z</time>
      </trkpt>
      <trkpt lat="46.78464" lon="6.28594">
        <ele>859.7</ele>
        <time>2022-12-01T13:36:56Z</time>
      </trkpt>
      <trkpt lat="46.78463" lon="6.28587">
        <ele>859.8</ele>
        <time>2022-12-01T13:37:01Z</time>
      </trkpt>
      <trkpt lat="46.78464" lon="6.28579">
        <ele>860</ele>
        <time>2022-12-01T13:37:06Z</time>
      </trkpt>
      <trkpt lat="46.78465" lon="6.28572">
        <ele>860.5</ele>
        <time>2022-12-01T13:37:10Z</time>
      </trkpt>
      <trkpt lat="46.78466" lon="6.28565">
        <ele>860.4</ele>
        <time>2022-12-01T13:37:14Z</time>
      </trkpt>
      <trkpt lat="46.78464" lon="6.28558">
        <ele>859.8</ele>
        <time>2022-12-01T13:37:19Z</time>
      </trkpt>
      <trkpt lat="46.78462" lon="6.28552">
        <ele>859.2</ele>
        <time>2022-12-01T13:37:23Z</time>
      </trkpt>
      <trkpt lat="46.78461" lon="6.28545">
        <ele>858.2</ele>
        <time>2022-12-01T13:37:28Z</time>
      </trkpt>
      <trkpt lat="46.78461" lon="6.28538">
        <ele>857.5</ele>
        <time>2022-12-01T13:37:33Z</time>
      </trkpt>
      <trkpt lat="46.78459" lon="6.2853">
        <ele>857.2</ele>
        <time>2022-12-01T13:37:38Z</time>
      </trkpt>
      <trkpt lat="46.78457" lon="6.28524">
        <ele>856.7</ele>
        <time>2022-12-01T13:37:42Z</time>
      </trkpt>
      <trkpt lat="46.78455" lon="6.28518">
        <ele>856.2</ele>
        <time>2022-12-01T13:37:47Z</time>
      </trkpt>
      <trkpt lat="46.78452" lon="6.28511">
        <ele>855.5</ele>
        <time>2022-12-01T13:37:52Z</time>
      </trkpt>
      <trkpt lat="46.7845" lon="6.28505">
        <ele>854.9</ele>
        <time>2022-12-01T13:37:56Z</time>
      </trkpt>
      <trkpt lat="46.78449" lon="6.28498">
        <ele>854.6</ele>
        <time>2022-12-01T13:38:01Z</time>
      </trkpt>
      <trkpt lat="46.78448" lon="6.2849">
        <ele>854.6</ele>
        <time>2022-12-01T13:38:06Z</time>
      </trkpt>
      <trkpt lat="46.78446" lon="6.28484">
        <ele>854.9</ele>
        <time>2022-12-01T13:38:10Z</time>
      </trkpt>
      <trkpt lat="46.78444" lon="6.28477">
        <ele>855.2</ele>
        <time>2022-12-01T13:38:15Z</time>
      </trkpt>
      <trkpt lat="46.7844" lon="6.28471">
        <ele>855.4</ele>
        <time>2022-12-01T13:38:20Z</time>
      </trkpt>
      <trkpt lat="46.78438" lon="6.28465">
        <ele>855.6</ele>
        <time>2022-12-01T13:38:24Z</time>
      </trkpt>
      <trkpt lat="46.78437" lon="6.28458">
        <ele>855.8</ele>
        <time>2022-12-01T13:38:28Z</time>
      </trkpt>
      <trkpt lat="46.78435" lon="6.28451">
        <ele>855.7</ele>
        <time>2022-12-01T13:38:32Z</time>
      </trkpt>
      <trkpt lat="46.78432" lon="6.28445">
        <ele>855.4</ele>
        <time>2022-12-01T13:38:37Z</time>
      </trkpt>
      <trkpt lat="46.78429" lon="6.28439">
        <ele>855</ele>
        <time>2022-12-01T13:38:42Z</time>
      </trkpt>
      <trkpt lat="46.78427" lon="6.28432">
        <ele>854.9</ele>
        <time>2022-12-01T13:38:47Z</time>
      </trkpt>
      <trkpt lat="46.78424" lon="6.28426">
        <ele>854.8</ele>
        <time>2022-12-01T13:38:52Z</time>
      </trkpt>
      <trkpt lat="46.78422" lon="6.2842">
        <ele>854.7</ele>
        <time>2022-12-01T13:38:57Z</time>
      </trkpt>
      <trkpt lat="46.78419" lon="6.28414">
        <ele>854.9</ele>
        <time>2022-12-01T13:39:02Z</time>
      </trkpt>
      <trkpt lat="46.78417" lon="6.28408">
        <ele>855</ele>
        <time>2022-12-01T13:39:07Z</time>
      </trkpt>
      <trkpt lat="46.78416" lon="6.28402">
        <ele>855.1</ele>
        <time>2022-12-01T13:39:11Z</time>
      </trkpt>
      <trkpt lat="46.78414" lon="6.28395">
        <ele>855</ele>
        <time>2022-12-01T13:39:15Z</time>
      </trkpt>
      <trkpt lat="46.78412" lon="6.28389">
        <ele>854.6</ele>
        <time>2022-12-01T13:39:20Z</time>
      </trkpt>
      <trkpt lat="46.78413" lon="6.28382">
        <ele>853.7</ele>
        <time>2022-12-01T13:39:25Z</time>
      </trkpt>
      <trkpt lat="46.78416" lon="6.28378">
        <ele>852.4</ele>
        <time>2022-12-01T13:39:30Z</time>
      </trkpt>
      <trkpt lat="46.7842" lon="6.28373">
        <ele>851.5</ele>
        <time>2022-12-01T13:39:35Z</time>
      </trkpt>
      <trkpt lat="46.78424" lon="6.28368">
        <ele>851</ele>
        <time>2022-12-01T13:39:39Z</time>
      </trkpt>
      <trkpt lat="46.78427" lon="6.28363">
        <ele>850.8</ele>
        <time>2022-12-01T13:39:44Z</time>
      </trkpt>
      <trkpt lat="46.78431" lon="6.28358">
        <ele>851</ele>
        <time>2022-12-01T13:39:51Z</time>
      </trkpt>
      <trkpt lat="46.78435" lon="6.28354">
        <ele>851.3</ele>
        <time>2022-12-01T13:39:56Z</time>
      </trkpt>
      <trkpt lat="46.78438" lon="6.28348">
        <ele>851.4</ele>
        <time>2022-12-01T13:40:02Z</time>
      </trkpt>
      <trkpt lat="46.78442" lon="6.28343">
        <ele>851.8</ele>
        <time>2022-12-01T13:40:07Z</time>
      </trkpt>
      <trkpt lat="46.78445" lon="6.28338">
        <ele>852.2</ele>
        <time>2022-12-01T13:40:11Z</time>
      </trkpt>
      <trkpt lat="46.78449" lon="6.28334">
        <ele>852.7</ele>
        <time>2022-12-01T13:40:15Z</time>
      </trkpt>
      <trkpt lat="46.78453" lon="6.28328">
        <ele>853.1</ele>
        <time>2022-12-01T13:40:20Z</time>
      </trkpt>
      <trkpt lat="46.78457" lon="6.28324">
        <ele>853.5</ele>
        <time>2022-12-01T13:40:25Z</time>
      </trkpt>
      <trkpt lat="46.78461" lon="6.28319">
        <ele>853.3</ele>
        <time>2022-12-01T13:40:31Z</time>
      </trkpt>
      <trkpt lat="46.78464" lon="6.28314">
        <ele>853.4</ele>
        <time>2022-12-01T13:40:35Z</time>
      </trkpt>
      <trkpt lat="46.78467" lon="6.28308">
        <ele>853.4</ele>
        <time>2022-12-01T13:40:40Z</time>
      </trkpt>
      <trkpt lat="46.78471" lon="6.28303">
        <ele>853.1</ele>
        <time>2022-12-01T13:40:45Z</time>
      </trkpt>
      <trkpt lat="46.78474" lon="6.28298">
        <ele>853.1</ele>
        <time>2022-12-01T13:40:50Z</time>
      </trkpt>
      <trkpt lat="46.78478" lon="6.28293">
        <ele>853.2</ele>
        <time>2022-12-01T13:40:55Z</time>
      </trkpt>
      <trkpt lat="46.78482" lon="6.28288">
        <ele>853.2</ele>
        <time>2022-12-01T13:41:00Z</time>
      </trkpt>
      <trkpt lat="46.78486" lon="6.28283">
        <ele>853.4</ele>
        <time>2022-12-01T13:41:05Z</time>
      </trkpt>
      <trkpt lat="46.7849" lon="6.28279">
        <ele>853.7</ele>
        <time>2022-12-01T13:41:10Z</time>
      </trkpt>
      <trkpt lat="46.78494" lon="6.28275">
        <ele>854.2</ele>
        <time>2022-12-01T13:41:15Z</time>
      </trkpt>
      <trkpt lat="46.78498" lon="6.2827">
        <ele>854.4</ele>
        <time>2022-12-01T13:41:19Z</time>
      </trkpt>
      <trkpt lat="46.78501" lon="6.28264">
        <ele>854.6</ele>
        <time>2022-12-01T13:41:24Z</time>
      </trkpt>
      <trkpt lat="46.78505" lon="6.28259">
        <ele>854.7</ele>
        <time>2022-12-01T13:41:29Z</time>
      </trkpt>
      <trkpt lat="46.78508" lon="6.28254">
        <ele>854.8</ele>
        <time>2022-12-01T13:41:34Z</time>
      </trkpt>
      <trkpt lat="46.78512" lon="6.2825">
        <ele>854.7</ele>
        <time>2022-12-01T13:41:39Z</time>
      </trkpt>
      <trkpt lat="46.78516" lon="6.28244">
        <ele>854.5</ele>
        <time>2022-12-01T13:41:44Z</time>
      </trkpt>
      <trkpt lat="46.7852" lon="6.28239">
        <ele>854.5</ele>
        <time>2022-12-01T13:41:49Z</time>
      </trkpt>
      <trkpt lat="46.78524" lon="6.28234">
        <ele>854.4</ele>
        <time>2022-12-01T13:41:54Z</time>
      </trkpt>
      <trkpt lat="46.78528" lon="6.2823">
        <ele>854.3</ele>
        <time>2022-12-01T13:41:58Z</time>
      </trkpt>
      <trkpt lat="46.78531" lon="6.28224">
        <ele>853.9</ele>
        <time>2022-12-01T13:42:02Z</time>
      </trkpt>
      <trkpt lat="46.78535" lon="6.28218">
        <ele>853.5</ele>
        <time>2022-12-01T13:42:07Z</time>
      </trkpt>
      <trkpt lat="46.78538" lon="6.28213">
        <ele>853.1</ele>
        <time>2022-12-01T13:42:12Z</time>
      </trkpt>
      <trkpt lat="46.78542" lon="6.28208">
        <ele>852.7</ele>
        <time>2022-12-01T13:42:17Z</time>
      </trkpt>
      <trkpt lat="46.78545" lon="6.28202">
        <ele>852.5</ele>
        <time>2022-12-01T13:42:21Z</time>
      </trkpt>
      <trkpt lat="46.78548" lon="6.28198">
        <ele>852.3</ele>
        <time>2022-12-01T13:42:26Z</time>
      </trkpt>
      <trkpt lat="46.78552" lon="6.28193">
        <ele>852.1</ele>
        <time>2022-12-01T13:42:32Z</time>
      </trkpt>
      <trkpt lat="46.78557" lon="6.28188">
        <ele>851.6</ele>
        <time>2022-12-01T13:42:37Z</time>
      </trkpt>
      <trkpt lat="46.78561" lon="6.28183">
        <ele>851.8</ele>
        <time>2022-12-01T13:42:42Z</time>
      </trkpt>
      <trkpt lat="46.78565" lon="6.28178">
        <ele>852.6</ele>
        <time>2022-12-01T13:42:46Z</time>
      </trkpt>
      <trkpt lat="46.78568" lon="6.28173">
        <ele>853.5</ele>
        <time>2022-12-01T13:42:50Z</time>
      </trkpt>
      <trkpt lat="46.78572" lon="6.28167">
        <ele>854.7</ele>
        <time>2022-12-01T13:42:55Z</time>
      </trkpt>
      <trkpt lat="46.78575" lon="6.28163">
        <ele>855.8</ele>
        <time>2022-12-01T13:43:00Z</time>
      </trkpt>
      <trkpt lat="46.78579" lon="6.28158">
        <ele>856.3</ele>
        <time>2022-12-01T13:43:05Z</time>
      </trkpt>
      <trkpt lat="46.78583" lon="6.28153">
        <ele>856.4</ele>
        <time>2022-12-01T13:43:10Z</time>
      </trkpt>
      <trkpt lat="46.78587" lon="6.28147">
        <ele>856.5</ele>
        <time>2022-12-01T13:43:15Z</time>
      </trkpt>
      <trkpt lat="46.78591" lon="6.28143">
        <ele>856.4</ele>
        <time>2022-12-01T13:43:20Z</time>
      </trkpt>
      <trkpt lat="46.78595" lon="6.28137">
        <ele>856.1</ele>
        <time>2022-12-01T13:43:25Z</time>
      </trkpt>
      <trkpt lat="46.78599" lon="6.28133">
        <ele>855.5</ele>
        <time>2022-12-01T13:43:30Z</time>
      </trkpt>
      <trkpt lat="46.78603" lon="6.28128">
        <ele>855</ele>
        <time>2022-12-01T13:43:35Z</time>
      </trkpt>
      <trkpt lat="46.78606" lon="6.28123">
        <ele>854.4</ele>
        <time>2022-12-01T13:43:40Z</time>
      </trkpt>
      <trkpt lat="46.78609" lon="6.28118">
        <ele>853.6</ele>
        <time>2022-12-01T13:43:45Z</time>
      </trkpt>
      <trkpt lat="46.78613" lon="6.28113">
        <ele>853.1</ele>
        <time>2022-12-01T13:43:49Z</time>
      </trkpt>
      <trkpt lat="46.78616" lon="6.28109">
        <ele>852.9</ele>
        <time>2022-12-01T13:43:54Z</time>
      </trkpt>
      <trkpt lat="46.7862" lon="6.28104">
        <ele>852.8</ele>
        <time>2022-12-01T13:43:58Z</time>
      </trkpt>
      <trkpt lat="46.78623" lon="6.28098">
        <ele>852.5</ele>
        <time>2022-12-01T13:44:03Z</time>
      </trkpt>
      <trkpt lat="46.78626" lon="6.28091">
        <ele>852.9</ele>
        <time>2022-12-01T13:44:08Z</time>
      </trkpt>
      <trkpt lat="46.78629" lon="6.28086">
        <ele>853.1</ele>
        <time>2022-12-01T13:44:14Z</time>
      </trkpt>
      <trkpt lat="46.78634" lon="6.28082">
        <ele>852.9</ele>
        <time>2022-12-01T13:44:19Z</time>
      </trkpt>
      <trkpt lat="46.78638" lon="6.28077">
        <ele>852.5</ele>
        <time>2022-12-01T13:44:24Z</time>
      </trkpt>
      <trkpt lat="46.78641" lon="6.28071">
        <ele>852.5</ele>
        <time>2022-12-01T13:44:30Z</time>
      </trkpt>
      <trkpt lat="46.78644" lon="6.28064">
        <ele>853.7</ele>
        <time>2022-12-01T13:44:36Z</time>
      </trkpt>
      <trkpt lat="46.78647" lon="6.28058">
        <ele>855.1</ele>
        <time>2022-12-01T13:44:41Z</time>
      </trkpt>
      <trkpt lat="46.78649" lon="6.28052">
        <ele>856.6</ele>
        <time>2022-12-01T13:44:47Z</time>
      </trkpt>
      <trkpt lat="46.78651" lon="6.28047">
        <ele>856.8</ele>
        <time>2022-12-01T13:45:04Z</time>
      </trkpt>
      <trkpt lat="46.78654" lon="6.28041">
        <ele>856.6</ele>
        <time>2022-12-01T13:45:10Z</time>
      </trkpt>
      <trkpt lat="46.78658" lon="6.28037">
        <ele>856.9</ele>
        <time>2022-12-01T13:45:16Z</time>
      </trkpt>
      <trkpt lat="46.78662" lon="6.2804">
        <ele>858.3</ele>
        <time>2022-12-01T13:45:41Z</time>
      </trkpt>
      <trkpt lat="46.78658" lon="6.28042">
        <ele>858.7</ele>
        <time>2022-12-01T13:46:54Z</time>
      </trkpt>
      <trkpt lat="46.78663" lon="6.28041">
        <ele>860.8</ele>
        <time>2022-12-01T13:50:34Z</time>
      </trkpt>
    </trkseg>
  </trk>
</gpx>